<?xml version="1.0" encoding="UTF-8" standalone="no" ?>
<gpx xmlns="http://www.topografix.com/GPX/1/1" xmlns:xsi="http://www.w3.org/2001/XMLSchema-instance" xsi:schemaLocation="http://www.topografix.com/GPX/1/1 http://www.topografix.com/GPX/1/1/gpx.xsd" version="1.1" creator="VisuGPX - https://www.visugpx.com">
  <metadata>
    <name>Lozere - Margeride jour 2</name>
    <desc><![CDATA[Départ gite municipal de Laubert
Arrivée Ferme de Payre St Sauveur de Ginestoux]]></desc>
  </metadata>
  <trk>
    <name><![CDATA[Lozere - Margeride jour 2_1]]></name>
    <trkseg>
      <trkpt lat="44.58312" lon="3.63469">
        <ele>1226.6</ele>
        <time>2015-04-22T10:20:20Z</time>
      </trkpt>
      <trkpt lat="44.58309" lon="3.63474">
        <ele>1226.6</ele>
        <time>2015-04-22T10:20:25Z</time>
      </trkpt>
      <trkpt lat="44.58306" lon="3.63475">
        <ele>1226.6</ele>
        <time>2015-04-22T10:20:30Z</time>
      </trkpt>
      <trkpt lat="44.58306" lon="3.63475">
        <ele>1226.6</ele>
        <time>2015-04-22T10:20:35Z</time>
      </trkpt>
      <trkpt lat="44.58306" lon="3.63475">
        <ele>1226.6</ele>
        <time>2015-04-22T10:20:40Z</time>
      </trkpt>
      <trkpt lat="44.58306" lon="3.63475">
        <ele>1226.6</ele>
        <time>2015-04-22T10:20:45Z</time>
      </trkpt>
      <trkpt lat="44.58306" lon="3.63475">
        <ele>1226.6</ele>
        <time>2015-04-22T10:20:50Z</time>
      </trkpt>
      <trkpt lat="44.58306" lon="3.63475">
        <ele>1226.6</ele>
        <time>2015-04-22T10:20:55Z</time>
      </trkpt>
      <trkpt lat="44.58303" lon="3.63476">
        <ele>1214.9396684168</ele>
        <time>2015-04-22T10:21:00Z</time>
      </trkpt>
      <trkpt lat="44.58297" lon="3.63477">
        <ele>1214.9396684168</ele>
        <time>2015-04-22T10:21:05Z</time>
      </trkpt>
      <trkpt lat="44.58293" lon="3.63482">
        <ele>1218.1750122595</ele>
        <time>2015-04-22T10:21:10Z</time>
      </trkpt>
      <trkpt lat="44.58288" lon="3.63487">
        <ele>1218.1750122595</ele>
        <time>2015-04-22T10:21:15Z</time>
      </trkpt>
      <trkpt lat="44.58284" lon="3.63495">
        <ele>1222.4511464304</ele>
        <time>2015-04-22T10:21:20Z</time>
      </trkpt>
      <trkpt lat="44.5828" lon="3.63502">
        <ele>1222.4511464304</ele>
        <time>2015-04-22T10:21:25Z</time>
      </trkpt>
      <trkpt lat="44.58279" lon="3.63509">
        <ele>1227.9086205581</ele>
        <time>2015-04-22T10:21:30Z</time>
      </trkpt>
      <trkpt lat="44.58281" lon="3.63519">
        <ele>1227.9086205581</ele>
        <time>2015-04-22T10:21:35Z</time>
      </trkpt>
      <trkpt lat="44.58279" lon="3.6353">
        <ele>1233.3388524138</ele>
        <time>2015-04-22T10:21:40Z</time>
      </trkpt>
      <trkpt lat="44.58278" lon="3.6354">
        <ele>1233.3388524138</ele>
        <time>2015-04-22T10:21:45Z</time>
      </trkpt>
      <trkpt lat="44.58277" lon="3.63548">
        <ele>1239.0991745324</ele>
        <time>2015-04-22T10:21:50Z</time>
      </trkpt>
      <trkpt lat="44.5828" lon="3.63553">
        <ele>1239.0991745324</ele>
        <time>2015-04-22T10:21:55Z</time>
      </trkpt>
      <trkpt lat="44.58283" lon="3.63557">
        <ele>1239.0991745324</ele>
        <time>2015-04-22T10:22:00Z</time>
      </trkpt>
      <trkpt lat="44.58287" lon="3.63564">
        <ele>1244.0564985928</ele>
        <time>2015-04-22T10:22:05Z</time>
      </trkpt>
      <trkpt lat="44.58292" lon="3.6357">
        <ele>1244.0564985928</ele>
        <time>2015-04-22T10:22:10Z</time>
      </trkpt>
      <trkpt lat="44.58298" lon="3.63577">
        <ele>1247.9058802322</ele>
        <time>2015-04-22T10:22:15Z</time>
      </trkpt>
      <trkpt lat="44.58301" lon="3.63584">
        <ele>1247.9058802322</ele>
        <time>2015-04-22T10:22:20Z</time>
      </trkpt>
      <trkpt lat="44.58304" lon="3.63591">
        <ele>1250.7076701136</ele>
        <time>2015-04-22T10:22:25Z</time>
      </trkpt>
      <trkpt lat="44.58305" lon="3.63602">
        <ele>1250.7076701136</ele>
        <time>2015-04-22T10:22:30Z</time>
      </trkpt>
      <trkpt lat="44.58306" lon="3.63615">
        <ele>1251.7877880378</ele>
        <time>2015-04-22T10:22:35Z</time>
      </trkpt>
      <trkpt lat="44.58305" lon="3.63625">
        <ele>1251.7877880378</ele>
        <time>2015-04-22T10:22:40Z</time>
      </trkpt>
      <trkpt lat="44.58305" lon="3.63635">
        <ele>1251.9598368283</ele>
        <time>2015-04-22T10:22:45Z</time>
      </trkpt>
      <trkpt lat="44.58306" lon="3.63643">
        <ele>1251.9598368283</ele>
        <time>2015-04-22T10:22:50Z</time>
      </trkpt>
      <trkpt lat="44.58306" lon="3.63655">
        <ele>1251.4890718134</ele>
        <time>2015-04-22T10:22:55Z</time>
      </trkpt>
      <trkpt lat="44.58308" lon="3.63665">
        <ele>1251.4890718134</ele>
        <time>2015-04-22T10:23:00Z</time>
      </trkpt>
      <trkpt lat="44.58312" lon="3.63673">
        <ele>1250.3278074707</ele>
        <time>2015-04-22T10:23:05Z</time>
      </trkpt>
      <trkpt lat="44.58315" lon="3.63681">
        <ele>1250.3278074707</ele>
        <time>2015-04-22T10:23:10Z</time>
      </trkpt>
      <trkpt lat="44.58319" lon="3.63688">
        <ele>1248.6057127946</ele>
        <time>2015-04-22T10:23:15Z</time>
      </trkpt>
      <trkpt lat="44.58322" lon="3.63696">
        <ele>1248.6057127946</ele>
        <time>2015-04-22T10:23:20Z</time>
      </trkpt>
      <trkpt lat="44.58326" lon="3.63702">
        <ele>1246.1504958791</ele>
        <time>2015-04-22T10:23:25Z</time>
      </trkpt>
      <trkpt lat="44.5833" lon="3.63711">
        <ele>1246.1504958791</ele>
        <time>2015-04-22T10:23:30Z</time>
      </trkpt>
      <trkpt lat="44.58333" lon="3.63721">
        <ele>1243.8810009165</ele>
        <time>2015-04-22T10:23:35Z</time>
      </trkpt>
      <trkpt lat="44.58334" lon="3.63728">
        <ele>1243.8810009165</ele>
        <time>2015-04-22T10:23:40Z</time>
      </trkpt>
      <trkpt lat="44.58337" lon="3.6374">
        <ele>1241.460905724</ele>
        <time>2015-04-22T10:23:45Z</time>
      </trkpt>
      <trkpt lat="44.5834" lon="3.63749">
        <ele>1241.460905724</ele>
        <time>2015-04-22T10:23:50Z</time>
      </trkpt>
      <trkpt lat="44.58342" lon="3.63756">
        <ele>1238.8385701088</ele>
        <time>2015-04-22T10:23:55Z</time>
      </trkpt>
      <trkpt lat="44.58345" lon="3.63763">
        <ele>1238.8385701088</ele>
        <time>2015-04-22T10:24:00Z</time>
      </trkpt>
      <trkpt lat="44.5835" lon="3.63772">
        <ele>1236.3408255683</ele>
        <time>2015-04-22T10:24:05Z</time>
      </trkpt>
      <trkpt lat="44.58353" lon="3.63778">
        <ele>1236.3408255683</ele>
        <time>2015-04-22T10:24:10Z</time>
      </trkpt>
      <trkpt lat="44.58356" lon="3.63789">
        <ele>1234.1949695822</ele>
        <time>2015-04-22T10:24:15Z</time>
      </trkpt>
      <trkpt lat="44.5836" lon="3.63797">
        <ele>1234.1949695822</ele>
        <time>2015-04-22T10:24:20Z</time>
      </trkpt>
      <trkpt lat="44.58364" lon="3.63805">
        <ele>1232.6651430753</ele>
        <time>2015-04-22T10:24:25Z</time>
      </trkpt>
      <trkpt lat="44.58366" lon="3.63815">
        <ele>1232.6651430753</ele>
        <time>2015-04-22T10:24:30Z</time>
      </trkpt>
      <trkpt lat="44.58369" lon="3.63826">
        <ele>1231.4845018875</ele>
        <time>2015-04-22T10:24:35Z</time>
      </trkpt>
      <trkpt lat="44.5837" lon="3.63834">
        <ele>1231.4845018875</ele>
        <time>2015-04-22T10:24:40Z</time>
      </trkpt>
      <trkpt lat="44.58372" lon="3.63845">
        <ele>1230.4890205959</ele>
        <time>2015-04-22T10:24:45Z</time>
      </trkpt>
      <trkpt lat="44.58376" lon="3.63852">
        <ele>1230.4890205959</ele>
        <time>2015-04-22T10:24:50Z</time>
      </trkpt>
      <trkpt lat="44.58381" lon="3.63861">
        <ele>1229.0291741906</ele>
        <time>2015-04-22T10:24:55Z</time>
      </trkpt>
      <trkpt lat="44.58383" lon="3.63866">
        <ele>1229.0291741906</ele>
        <time>2015-04-22T10:25:00Z</time>
      </trkpt>
      <trkpt lat="44.58384" lon="3.63867">
        <ele>1229.0291741906</ele>
        <time>2015-04-22T10:25:05Z</time>
      </trkpt>
      <trkpt lat="44.58383" lon="3.63867">
        <ele>1229.0291741906</ele>
        <time>2015-04-22T10:25:10Z</time>
      </trkpt>
      <trkpt lat="44.58382" lon="3.63868">
        <ele>1229.0291741906</ele>
        <time>2015-04-22T10:25:15Z</time>
      </trkpt>
      <trkpt lat="44.58382" lon="3.63868">
        <ele>1229.0291741906</ele>
        <time>2015-04-22T10:25:20Z</time>
      </trkpt>
      <trkpt lat="44.58382" lon="3.63868">
        <ele>1229.0291741906</ele>
        <time>2015-04-22T10:25:25Z</time>
      </trkpt>
      <trkpt lat="44.58385" lon="3.63872">
        <ele>1227.990014568</ele>
        <time>2015-04-22T10:25:30Z</time>
      </trkpt>
      <trkpt lat="44.58387" lon="3.63878">
        <ele>1227.990014568</ele>
        <time>2015-04-22T10:25:35Z</time>
      </trkpt>
      <trkpt lat="44.58392" lon="3.63886">
        <ele>1226.8965036813</ele>
        <time>2015-04-22T10:25:40Z</time>
      </trkpt>
      <trkpt lat="44.58397" lon="3.63892">
        <ele>1226.8965036813</ele>
        <time>2015-04-22T10:25:45Z</time>
      </trkpt>
      <trkpt lat="44.58405" lon="3.63888">
        <ele>1226.3233616534</ele>
        <time>2015-04-22T10:25:50Z</time>
      </trkpt>
      <trkpt lat="44.58411" lon="3.63883">
        <ele>1226.3233616534</ele>
        <time>2015-04-22T10:25:55Z</time>
      </trkpt>
      <trkpt lat="44.58416" lon="3.63879">
        <ele>1225.7668734836</ele>
        <time>2015-04-22T10:26:00Z</time>
      </trkpt>
      <trkpt lat="44.58422" lon="3.63872">
        <ele>1225.7668734836</ele>
        <time>2015-04-22T10:26:05Z</time>
      </trkpt>
      <trkpt lat="44.58429" lon="3.63865">
        <ele>1225.4616216811</ele>
        <time>2015-04-22T10:26:10Z</time>
      </trkpt>
      <trkpt lat="44.58433" lon="3.63858">
        <ele>1225.4616216811</ele>
        <time>2015-04-22T10:26:15Z</time>
      </trkpt>
      <trkpt lat="44.58436" lon="3.63854">
        <ele>1224.7560346728</ele>
        <time>2015-04-22T10:26:20Z</time>
      </trkpt>
      <trkpt lat="44.58445" lon="3.63854">
        <ele>1224.7560346728</ele>
        <time>2015-04-22T10:26:25Z</time>
      </trkpt>
      <trkpt lat="44.5845" lon="3.63853">
        <ele>1224.2367581856</ele>
        <time>2015-04-22T10:26:30Z</time>
      </trkpt>
      <trkpt lat="44.58458" lon="3.63848">
        <ele>1224.2367581856</ele>
        <time>2015-04-22T10:26:35Z</time>
      </trkpt>
      <trkpt lat="44.58466" lon="3.63844">
        <ele>1223.4020748519</ele>
        <time>2015-04-22T10:26:40Z</time>
      </trkpt>
      <trkpt lat="44.58473" lon="3.63839">
        <ele>1223.4020748519</ele>
        <time>2015-04-22T10:26:45Z</time>
      </trkpt>
      <trkpt lat="44.58477" lon="3.63836">
        <ele>1222.9681494042</ele>
        <time>2015-04-22T10:26:50Z</time>
      </trkpt>
      <trkpt lat="44.58481" lon="3.63833">
        <ele>1222.9681494042</ele>
        <time>2015-04-22T10:26:55Z</time>
      </trkpt>
      <trkpt lat="44.58491" lon="3.63828">
        <ele>1222.0312327641</ele>
        <time>2015-04-22T10:27:00Z</time>
      </trkpt>
      <trkpt lat="44.58496" lon="3.63822">
        <ele>1222.0312327641</ele>
        <time>2015-04-22T10:27:05Z</time>
      </trkpt>
      <trkpt lat="44.585" lon="3.63817">
        <ele>1220.7928191067</ele>
        <time>2015-04-22T10:27:10Z</time>
      </trkpt>
      <trkpt lat="44.58504" lon="3.63809">
        <ele>1220.7928191067</ele>
        <time>2015-04-22T10:27:15Z</time>
      </trkpt>
      <trkpt lat="44.58507" lon="3.63801">
        <ele>1220.1014076275</ele>
        <time>2015-04-22T10:27:20Z</time>
      </trkpt>
      <trkpt lat="44.5851" lon="3.63794">
        <ele>1220.1014076275</ele>
        <time>2015-04-22T10:27:25Z</time>
      </trkpt>
      <trkpt lat="44.58512" lon="3.63786">
        <ele>1219.335659143</ele>
        <time>2015-04-22T10:27:30Z</time>
      </trkpt>
      <trkpt lat="44.58515" lon="3.63779">
        <ele>1219.335659143</ele>
        <time>2015-04-22T10:27:35Z</time>
      </trkpt>
      <trkpt lat="44.58519" lon="3.63772">
        <ele>1218.5607765881</ele>
        <time>2015-04-22T10:27:40Z</time>
      </trkpt>
      <trkpt lat="44.58524" lon="3.63763">
        <ele>1218.5607765881</ele>
        <time>2015-04-22T10:27:45Z</time>
      </trkpt>
      <trkpt lat="44.5853" lon="3.63756">
        <ele>1218.1533796151</ele>
        <time>2015-04-22T10:27:50Z</time>
      </trkpt>
      <trkpt lat="44.58535" lon="3.63749">
        <ele>1218.1533796151</ele>
        <time>2015-04-22T10:27:55Z</time>
      </trkpt>
      <trkpt lat="44.5854" lon="3.63741">
        <ele>1218.054055998</ele>
        <time>2015-04-22T10:28:00Z</time>
      </trkpt>
      <trkpt lat="44.58544" lon="3.63739">
        <ele>1218.054055998</ele>
        <time>2015-04-22T10:28:05Z</time>
      </trkpt>
      <trkpt lat="44.58544" lon="3.63738">
        <ele>1218.054055998</ele>
        <time>2015-04-22T10:28:10Z</time>
      </trkpt>
      <trkpt lat="44.58545" lon="3.63736">
        <ele>1218.054055998</ele>
        <time>2015-04-22T10:28:15Z</time>
      </trkpt>
      <trkpt lat="44.58546" lon="3.63736">
        <ele>1218.054055998</ele>
        <time>2015-04-22T10:28:20Z</time>
      </trkpt>
      <trkpt lat="44.58546" lon="3.63736">
        <ele>1218.054055998</ele>
        <time>2015-04-22T10:28:25Z</time>
      </trkpt>
      <trkpt lat="44.58546" lon="3.63734">
        <ele>1217.5108523292</ele>
        <time>2015-04-22T10:28:30Z</time>
      </trkpt>
      <trkpt lat="44.58541" lon="3.63734">
        <ele>1217.5108523292</ele>
        <time>2015-04-22T10:28:35Z</time>
      </trkpt>
      <trkpt lat="44.58543" lon="3.63734">
        <ele>1217.5108523292</ele>
        <time>2015-04-22T10:28:40Z</time>
      </trkpt>
      <trkpt lat="44.58545" lon="3.63734">
        <ele>1217.5108523292</ele>
        <time>2015-04-22T10:28:45Z</time>
      </trkpt>
      <trkpt lat="44.58546" lon="3.63733">
        <ele>1216.9768737473</ele>
        <time>2015-04-22T10:28:50Z</time>
      </trkpt>
      <trkpt lat="44.58547" lon="3.63732">
        <ele>1216.9768737473</ele>
        <time>2015-04-22T10:28:55Z</time>
      </trkpt>
      <trkpt lat="44.58547" lon="3.63732">
        <ele>1216.9768737473</ele>
        <time>2015-04-22T10:29:00Z</time>
      </trkpt>
      <trkpt lat="44.58547" lon="3.63732">
        <ele>1216.9768737473</ele>
        <time>2015-04-22T10:29:05Z</time>
      </trkpt>
      <trkpt lat="44.58547" lon="3.63732">
        <ele>1216.9768737473</ele>
        <time>2015-04-22T10:29:10Z</time>
      </trkpt>
      <trkpt lat="44.58548" lon="3.63732">
        <ele>1216.9768737473</ele>
        <time>2015-04-22T10:29:15Z</time>
      </trkpt>
      <trkpt lat="44.58548" lon="3.63733">
        <ele>1216.9768737473</ele>
        <time>2015-04-22T10:29:20Z</time>
      </trkpt>
      <trkpt lat="44.58549" lon="3.63733">
        <ele>1216.9768737473</ele>
        <time>2015-04-22T10:29:25Z</time>
      </trkpt>
      <trkpt lat="44.58548" lon="3.63733">
        <ele>1216.9768737473</ele>
        <time>2015-04-22T10:29:30Z</time>
      </trkpt>
      <trkpt lat="44.58548" lon="3.63733">
        <ele>1216.9768737473</ele>
        <time>2015-04-22T10:29:35Z</time>
      </trkpt>
      <trkpt lat="44.58548" lon="3.63733">
        <ele>1216.9768737473</ele>
        <time>2015-04-22T10:29:40Z</time>
      </trkpt>
      <trkpt lat="44.58548" lon="3.63733">
        <ele>1216.9768737473</ele>
        <time>2015-04-22T10:29:45Z</time>
      </trkpt>
      <trkpt lat="44.58549" lon="3.63734">
        <ele>1216.9768737473</ele>
        <time>2015-04-22T10:29:50Z</time>
      </trkpt>
      <trkpt lat="44.58548" lon="3.63734">
        <ele>1216.9768737473</ele>
        <time>2015-04-22T10:29:55Z</time>
      </trkpt>
      <trkpt lat="44.58549" lon="3.63734">
        <ele>1216.9768737473</ele>
        <time>2015-04-22T10:30:00Z</time>
      </trkpt>
      <trkpt lat="44.58549" lon="3.63735">
        <ele>1216.9768737473</ele>
        <time>2015-04-22T10:30:05Z</time>
      </trkpt>
      <trkpt lat="44.58549" lon="3.63735">
        <ele>1216.9768737473</ele>
        <time>2015-04-22T10:30:10Z</time>
      </trkpt>
      <trkpt lat="44.58549" lon="3.63733">
        <ele>1216.9768737473</ele>
        <time>2015-04-22T10:30:15Z</time>
      </trkpt>
      <trkpt lat="44.58549" lon="3.63732">
        <ele>1216.9768737473</ele>
        <time>2015-04-22T10:30:20Z</time>
      </trkpt>
      <trkpt lat="44.58549" lon="3.63731">
        <ele>1216.9768737473</ele>
        <time>2015-04-22T10:30:25Z</time>
      </trkpt>
      <trkpt lat="44.58549" lon="3.63731">
        <ele>1216.6622438727</ele>
        <time>2015-04-22T10:30:30Z</time>
      </trkpt>
      <trkpt lat="44.5855" lon="3.63731">
        <ele>1216.6622438727</ele>
        <time>2015-04-22T10:30:35Z</time>
      </trkpt>
      <trkpt lat="44.5855" lon="3.63731">
        <ele>1216.6622438727</ele>
        <time>2015-04-22T10:30:40Z</time>
      </trkpt>
      <trkpt lat="44.58548" lon="3.63733">
        <ele>1216.6622438727</ele>
        <time>2015-04-22T10:30:45Z</time>
      </trkpt>
      <trkpt lat="44.58548" lon="3.63733">
        <ele>1216.6622438727</ele>
        <time>2015-04-22T10:30:50Z</time>
      </trkpt>
      <trkpt lat="44.58548" lon="3.63732">
        <ele>1216.6622438727</ele>
        <time>2015-04-22T10:30:55Z</time>
      </trkpt>
      <trkpt lat="44.58546" lon="3.63734">
        <ele>1216.6622438727</ele>
        <time>2015-04-22T10:31:00Z</time>
      </trkpt>
      <trkpt lat="44.58546" lon="3.63736">
        <ele>1216.6622438727</ele>
        <time>2015-04-22T10:31:05Z</time>
      </trkpt>
      <trkpt lat="44.58547" lon="3.63736">
        <ele>1216.6622438727</ele>
        <time>2015-04-22T10:31:10Z</time>
      </trkpt>
      <trkpt lat="44.58546" lon="3.63736">
        <ele>1216.6622438727</ele>
        <time>2015-04-22T10:31:15Z</time>
      </trkpt>
      <trkpt lat="44.58545" lon="3.63739">
        <ele>1215.7322673313</ele>
        <time>2015-04-22T10:31:20Z</time>
      </trkpt>
      <trkpt lat="44.58548" lon="3.63735">
        <ele>1215.7322673313</ele>
        <time>2015-04-22T10:31:25Z</time>
      </trkpt>
      <trkpt lat="44.58552" lon="3.63727">
        <ele>1215.0175031079</ele>
        <time>2015-04-22T10:31:30Z</time>
      </trkpt>
      <trkpt lat="44.58557" lon="3.63718">
        <ele>1215.0175031079</ele>
        <time>2015-04-22T10:31:35Z</time>
      </trkpt>
      <trkpt lat="44.58561" lon="3.6371">
        <ele>1214.2420760747</ele>
        <time>2015-04-22T10:31:40Z</time>
      </trkpt>
      <trkpt lat="44.58565" lon="3.63702">
        <ele>1214.2420760747</ele>
        <time>2015-04-22T10:31:45Z</time>
      </trkpt>
      <trkpt lat="44.58569" lon="3.63698">
        <ele>1213.6102368609</ele>
        <time>2015-04-22T10:31:50Z</time>
      </trkpt>
      <trkpt lat="44.58576" lon="3.63691">
        <ele>1213.6102368609</ele>
        <time>2015-04-22T10:31:55Z</time>
      </trkpt>
      <trkpt lat="44.58582" lon="3.63686">
        <ele>1212.8621463711</ele>
        <time>2015-04-22T10:32:00Z</time>
      </trkpt>
      <trkpt lat="44.58588" lon="3.63682">
        <ele>1212.8621463711</ele>
        <time>2015-04-22T10:32:05Z</time>
      </trkpt>
      <trkpt lat="44.58594" lon="3.63676">
        <ele>1212.1613832654</ele>
        <time>2015-04-22T10:32:10Z</time>
      </trkpt>
      <trkpt lat="44.586" lon="3.63672">
        <ele>1212.1613832654</ele>
        <time>2015-04-22T10:32:15Z</time>
      </trkpt>
      <trkpt lat="44.58599" lon="3.63673">
        <ele>1212.1613832654</ele>
        <time>2015-04-22T10:32:20Z</time>
      </trkpt>
      <trkpt lat="44.58602" lon="3.6367">
        <ele>1211.7955185412</ele>
        <time>2015-04-22T10:32:25Z</time>
      </trkpt>
      <trkpt lat="44.58605" lon="3.63668">
        <ele>1211.7955185412</ele>
        <time>2015-04-22T10:32:30Z</time>
      </trkpt>
      <trkpt lat="44.58611" lon="3.63663">
        <ele>1211.5166313329</ele>
        <time>2015-04-22T10:32:35Z</time>
      </trkpt>
      <trkpt lat="44.58617" lon="3.63657">
        <ele>1211.5166313329</ele>
        <time>2015-04-22T10:32:40Z</time>
      </trkpt>
      <trkpt lat="44.58621" lon="3.63648">
        <ele>1211.9545227475</ele>
        <time>2015-04-22T10:32:45Z</time>
      </trkpt>
      <trkpt lat="44.58625" lon="3.63642">
        <ele>1211.9545227475</ele>
        <time>2015-04-22T10:32:50Z</time>
      </trkpt>
      <trkpt lat="44.5863" lon="3.63635">
        <ele>1212.7518776158</ele>
        <time>2015-04-22T10:32:55Z</time>
      </trkpt>
      <trkpt lat="44.58633" lon="3.63628">
        <ele>1212.7518776158</ele>
        <time>2015-04-22T10:33:00Z</time>
      </trkpt>
      <trkpt lat="44.58637" lon="3.63621">
        <ele>1213.2750654525</ele>
        <time>2015-04-22T10:33:05Z</time>
      </trkpt>
      <trkpt lat="44.58641" lon="3.63613">
        <ele>1213.2750654525</ele>
        <time>2015-04-22T10:33:10Z</time>
      </trkpt>
      <trkpt lat="44.58645" lon="3.636">
        <ele>1214.2077093006</ele>
        <time>2015-04-22T10:33:15Z</time>
      </trkpt>
      <trkpt lat="44.58647" lon="3.63589">
        <ele>1214.2077093006</ele>
        <time>2015-04-22T10:33:20Z</time>
      </trkpt>
      <trkpt lat="44.58648" lon="3.63581">
        <ele>1214.6115321228</ele>
        <time>2015-04-22T10:33:25Z</time>
      </trkpt>
      <trkpt lat="44.58652" lon="3.63571">
        <ele>1214.6115321228</ele>
        <time>2015-04-22T10:33:30Z</time>
      </trkpt>
      <trkpt lat="44.58655" lon="3.63561">
        <ele>1215.1745770888</ele>
        <time>2015-04-22T10:33:35Z</time>
      </trkpt>
      <trkpt lat="44.58658" lon="3.63551">
        <ele>1215.1745770888</ele>
        <time>2015-04-22T10:33:40Z</time>
      </trkpt>
      <trkpt lat="44.58662" lon="3.63545">
        <ele>1215.6579061702</ele>
        <time>2015-04-22T10:33:45Z</time>
      </trkpt>
      <trkpt lat="44.58666" lon="3.63536">
        <ele>1215.6579061702</ele>
        <time>2015-04-22T10:33:50Z</time>
      </trkpt>
      <trkpt lat="44.5867" lon="3.63526">
        <ele>1216.3066635311</ele>
        <time>2015-04-22T10:33:55Z</time>
      </trkpt>
      <trkpt lat="44.58674" lon="3.63518">
        <ele>1216.3066635311</ele>
        <time>2015-04-22T10:34:00Z</time>
      </trkpt>
      <trkpt lat="44.58677" lon="3.63511">
        <ele>1217.5241201029</ele>
        <time>2015-04-22T10:34:05Z</time>
      </trkpt>
      <trkpt lat="44.5868" lon="3.63504">
        <ele>1217.5241201029</ele>
        <time>2015-04-22T10:34:10Z</time>
      </trkpt>
      <trkpt lat="44.58684" lon="3.63498">
        <ele>1218.9033777545</ele>
        <time>2015-04-22T10:34:15Z</time>
      </trkpt>
      <trkpt lat="44.58688" lon="3.63492">
        <ele>1218.9033777545</ele>
        <time>2015-04-22T10:34:20Z</time>
      </trkpt>
      <trkpt lat="44.58693" lon="3.63483">
        <ele>1220.2050891561</ele>
        <time>2015-04-22T10:34:25Z</time>
      </trkpt>
      <trkpt lat="44.58696" lon="3.63479">
        <ele>1220.2050891561</ele>
        <time>2015-04-22T10:34:30Z</time>
      </trkpt>
      <trkpt lat="44.58702" lon="3.63473">
        <ele>1222.1440234298</ele>
        <time>2015-04-22T10:34:35Z</time>
      </trkpt>
      <trkpt lat="44.58709" lon="3.63466">
        <ele>1222.1440234298</ele>
        <time>2015-04-22T10:34:40Z</time>
      </trkpt>
      <trkpt lat="44.58715" lon="3.63457">
        <ele>1224.0575134805</ele>
        <time>2015-04-22T10:34:45Z</time>
      </trkpt>
      <trkpt lat="44.58721" lon="3.6345">
        <ele>1224.0575134805</ele>
        <time>2015-04-22T10:34:50Z</time>
      </trkpt>
      <trkpt lat="44.58727" lon="3.63444">
        <ele>1225.884286706</ele>
        <time>2015-04-22T10:34:55Z</time>
      </trkpt>
      <trkpt lat="44.58733" lon="3.63436">
        <ele>1225.884286706</ele>
        <time>2015-04-22T10:35:00Z</time>
      </trkpt>
      <trkpt lat="44.58738" lon="3.63431">
        <ele>1227.4066684123</ele>
        <time>2015-04-22T10:35:05Z</time>
      </trkpt>
      <trkpt lat="44.58741" lon="3.63423">
        <ele>1227.4066684123</ele>
        <time>2015-04-22T10:35:10Z</time>
      </trkpt>
      <trkpt lat="44.58749" lon="3.63413">
        <ele>1229.1598028284</ele>
        <time>2015-04-22T10:35:15Z</time>
      </trkpt>
      <trkpt lat="44.58753" lon="3.63408">
        <ele>1229.1598028284</ele>
        <time>2015-04-22T10:35:20Z</time>
      </trkpt>
      <trkpt lat="44.58757" lon="3.63403">
        <ele>1231.2240103346</ele>
        <time>2015-04-22T10:35:25Z</time>
      </trkpt>
      <trkpt lat="44.58761" lon="3.63395">
        <ele>1231.2240103346</ele>
        <time>2015-04-22T10:35:30Z</time>
      </trkpt>
      <trkpt lat="44.58766" lon="3.63388">
        <ele>1233.3507950665</ele>
        <time>2015-04-22T10:35:35Z</time>
      </trkpt>
      <trkpt lat="44.58769" lon="3.63381">
        <ele>1233.3507950665</ele>
        <time>2015-04-22T10:35:40Z</time>
      </trkpt>
      <trkpt lat="44.58777" lon="3.63372">
        <ele>1235.7349552382</ele>
        <time>2015-04-22T10:35:45Z</time>
      </trkpt>
      <trkpt lat="44.58783" lon="3.63366">
        <ele>1235.7349552382</ele>
        <time>2015-04-22T10:35:50Z</time>
      </trkpt>
      <trkpt lat="44.58789" lon="3.63362">
        <ele>1238.1326363402</ele>
        <time>2015-04-22T10:35:55Z</time>
      </trkpt>
      <trkpt lat="44.58795" lon="3.63357">
        <ele>1238.1326363402</ele>
        <time>2015-04-22T10:36:00Z</time>
      </trkpt>
      <trkpt lat="44.58803" lon="3.63354">
        <ele>1239.810589176</ele>
        <time>2015-04-22T10:36:05Z</time>
      </trkpt>
      <trkpt lat="44.58809" lon="3.63349">
        <ele>1239.810589176</ele>
        <time>2015-04-22T10:36:10Z</time>
      </trkpt>
      <trkpt lat="44.58815" lon="3.63343">
        <ele>1241.6057909855</ele>
        <time>2015-04-22T10:36:15Z</time>
      </trkpt>
      <trkpt lat="44.5882" lon="3.63335">
        <ele>1241.6057909855</ele>
        <time>2015-04-22T10:36:20Z</time>
      </trkpt>
      <trkpt lat="44.58825" lon="3.63329">
        <ele>1242.7660175297</ele>
        <time>2015-04-22T10:36:25Z</time>
      </trkpt>
      <trkpt lat="44.58831" lon="3.63324">
        <ele>1242.7660175297</ele>
        <time>2015-04-22T10:36:30Z</time>
      </trkpt>
      <trkpt lat="44.58836" lon="3.63319">
        <ele>1243.6280347142</ele>
        <time>2015-04-22T10:36:35Z</time>
      </trkpt>
      <trkpt lat="44.58841" lon="3.63314">
        <ele>1243.6280347142</ele>
        <time>2015-04-22T10:36:40Z</time>
      </trkpt>
      <trkpt lat="44.58846" lon="3.6331">
        <ele>1245.0096963027</ele>
        <time>2015-04-22T10:36:45Z</time>
      </trkpt>
      <trkpt lat="44.58851" lon="3.63304">
        <ele>1245.0096963027</ele>
        <time>2015-04-22T10:36:50Z</time>
      </trkpt>
      <trkpt lat="44.58857" lon="3.63298">
        <ele>1246.681267879</ele>
        <time>2015-04-22T10:36:55Z</time>
      </trkpt>
      <trkpt lat="44.58862" lon="3.63292">
        <ele>1246.681267879</ele>
        <time>2015-04-22T10:37:00Z</time>
      </trkpt>
      <trkpt lat="44.58868" lon="3.63284">
        <ele>1248.0254365915</ele>
        <time>2015-04-22T10:37:05Z</time>
      </trkpt>
      <trkpt lat="44.58873" lon="3.63277">
        <ele>1248.0254365915</ele>
        <time>2015-04-22T10:37:10Z</time>
      </trkpt>
      <trkpt lat="44.58878" lon="3.6327">
        <ele>1249.7148164148</ele>
        <time>2015-04-22T10:37:15Z</time>
      </trkpt>
      <trkpt lat="44.58882" lon="3.63261">
        <ele>1249.7148164148</ele>
        <time>2015-04-22T10:37:20Z</time>
      </trkpt>
      <trkpt lat="44.58882" lon="3.63255">
        <ele>1250.9700832937</ele>
        <time>2015-04-22T10:37:25Z</time>
      </trkpt>
      <trkpt lat="44.58885" lon="3.63253">
        <ele>1250.9700832937</ele>
        <time>2015-04-22T10:37:30Z</time>
      </trkpt>
      <trkpt lat="44.58884" lon="3.63255">
        <ele>1250.9700832937</ele>
        <time>2015-04-22T10:37:35Z</time>
      </trkpt>
      <trkpt lat="44.58886" lon="3.63255">
        <ele>1250.9700832937</ele>
        <time>2015-04-22T10:37:40Z</time>
      </trkpt>
      <trkpt lat="44.58887" lon="3.63254">
        <ele>1250.9700832937</ele>
        <time>2015-04-22T10:37:45Z</time>
      </trkpt>
      <trkpt lat="44.58887" lon="3.63254">
        <ele>1250.9700832937</ele>
        <time>2015-04-22T10:37:50Z</time>
      </trkpt>
      <trkpt lat="44.58887" lon="3.63254">
        <ele>1250.9700832937</ele>
        <time>2015-04-22T10:37:55Z</time>
      </trkpt>
      <trkpt lat="44.58887" lon="3.63254">
        <ele>1250.9700832937</ele>
        <time>2015-04-22T10:38:00Z</time>
      </trkpt>
      <trkpt lat="44.58887" lon="3.63254">
        <ele>1250.9700832937</ele>
        <time>2015-04-22T10:38:05Z</time>
      </trkpt>
      <trkpt lat="44.58887" lon="3.63254">
        <ele>1250.9700832937</ele>
        <time>2015-04-22T10:38:10Z</time>
      </trkpt>
      <trkpt lat="44.58887" lon="3.63254">
        <ele>1250.9700832937</ele>
        <time>2015-04-22T10:38:15Z</time>
      </trkpt>
      <trkpt lat="44.58887" lon="3.63254">
        <ele>1250.9700832937</ele>
        <time>2015-04-22T10:38:20Z</time>
      </trkpt>
      <trkpt lat="44.58887" lon="3.63254">
        <ele>1250.9700832937</ele>
        <time>2015-04-22T10:38:25Z</time>
      </trkpt>
      <trkpt lat="44.58887" lon="3.63253">
        <ele>1250.9700832937</ele>
        <time>2015-04-22T10:38:30Z</time>
      </trkpt>
      <trkpt lat="44.58886" lon="3.63253">
        <ele>1252.4281642568</ele>
        <time>2015-04-22T10:38:35Z</time>
      </trkpt>
      <trkpt lat="44.58886" lon="3.63253">
        <ele>1252.4281642568</ele>
        <time>2015-04-22T10:38:40Z</time>
      </trkpt>
      <trkpt lat="44.58886" lon="3.63253">
        <ele>1252.4281642568</ele>
        <time>2015-04-22T10:38:45Z</time>
      </trkpt>
      <trkpt lat="44.58886" lon="3.63252">
        <ele>1252.4281642568</ele>
        <time>2015-04-22T10:38:50Z</time>
      </trkpt>
      <trkpt lat="44.58886" lon="3.63253">
        <ele>1252.4281642568</ele>
        <time>2015-04-22T10:38:55Z</time>
      </trkpt>
      <trkpt lat="44.58887" lon="3.63253">
        <ele>1252.4281642568</ele>
        <time>2015-04-22T10:39:00Z</time>
      </trkpt>
      <trkpt lat="44.58887" lon="3.63253">
        <ele>1252.4281642568</ele>
        <time>2015-04-22T10:39:05Z</time>
      </trkpt>
      <trkpt lat="44.58888" lon="3.63251">
        <ele>1252.4281642568</ele>
        <time>2015-04-22T10:39:10Z</time>
      </trkpt>
      <trkpt lat="44.58889" lon="3.6325">
        <ele>1252.4281642568</ele>
        <time>2015-04-22T10:39:15Z</time>
      </trkpt>
      <trkpt lat="44.58889" lon="3.63251">
        <ele>1252.4281642568</ele>
        <time>2015-04-22T10:39:20Z</time>
      </trkpt>
      <trkpt lat="44.58889" lon="3.63251">
        <ele>1252.4281642568</ele>
        <time>2015-04-22T10:39:25Z</time>
      </trkpt>
      <trkpt lat="44.58889" lon="3.63251">
        <ele>1252.4281642568</ele>
        <time>2015-04-22T10:39:30Z</time>
      </trkpt>
      <trkpt lat="44.58888" lon="3.6325">
        <ele>1252.4281642568</ele>
        <time>2015-04-22T10:39:35Z</time>
      </trkpt>
      <trkpt lat="44.58888" lon="3.6325">
        <ele>1252.4281642568</ele>
        <time>2015-04-22T10:39:40Z</time>
      </trkpt>
      <trkpt lat="44.58888" lon="3.6325">
        <ele>1254.0430944655</ele>
        <time>2015-04-22T10:39:45Z</time>
      </trkpt>
      <trkpt lat="44.58892" lon="3.63247">
        <ele>1254.0430944655</ele>
        <time>2015-04-22T10:39:50Z</time>
      </trkpt>
      <trkpt lat="44.58898" lon="3.63241">
        <ele>1255.4547422471</ele>
        <time>2015-04-22T10:39:55Z</time>
      </trkpt>
      <trkpt lat="44.58904" lon="3.63234">
        <ele>1255.4547422471</ele>
        <time>2015-04-22T10:40:00Z</time>
      </trkpt>
      <trkpt lat="44.58909" lon="3.63227">
        <ele>1257.195564062</ele>
        <time>2015-04-22T10:40:05Z</time>
      </trkpt>
      <trkpt lat="44.58913" lon="3.63222">
        <ele>1257.195564062</ele>
        <time>2015-04-22T10:40:10Z</time>
      </trkpt>
      <trkpt lat="44.58919" lon="3.63215">
        <ele>1259.0512781352</ele>
        <time>2015-04-22T10:40:15Z</time>
      </trkpt>
      <trkpt lat="44.58923" lon="3.63211">
        <ele>1259.0512781352</ele>
        <time>2015-04-22T10:40:20Z</time>
      </trkpt>
      <trkpt lat="44.58929" lon="3.63204">
        <ele>1260.2753451594</ele>
        <time>2015-04-22T10:40:25Z</time>
      </trkpt>
      <trkpt lat="44.58933" lon="3.63199">
        <ele>1260.2753451594</ele>
        <time>2015-04-22T10:40:30Z</time>
      </trkpt>
      <trkpt lat="44.58939" lon="3.63193">
        <ele>1261.5765306794</ele>
        <time>2015-04-22T10:40:35Z</time>
      </trkpt>
      <trkpt lat="44.58942" lon="3.63186">
        <ele>1261.5765306794</ele>
        <time>2015-04-22T10:40:40Z</time>
      </trkpt>
      <trkpt lat="44.58948" lon="3.63181">
        <ele>1262.6453312949</ele>
        <time>2015-04-22T10:40:45Z</time>
      </trkpt>
      <trkpt lat="44.58953" lon="3.63177">
        <ele>1262.6453312949</ele>
        <time>2015-04-22T10:40:50Z</time>
      </trkpt>
      <trkpt lat="44.5896" lon="3.63172">
        <ele>1263.9021945638</ele>
        <time>2015-04-22T10:40:55Z</time>
      </trkpt>
      <trkpt lat="44.58966" lon="3.63166">
        <ele>1263.9021945638</ele>
        <time>2015-04-22T10:41:00Z</time>
      </trkpt>
      <trkpt lat="44.58972" lon="3.63161">
        <ele>1265.1451029061</ele>
        <time>2015-04-22T10:41:05Z</time>
      </trkpt>
      <trkpt lat="44.58978" lon="3.63156">
        <ele>1265.1451029061</ele>
        <time>2015-04-22T10:41:10Z</time>
      </trkpt>
      <trkpt lat="44.58985" lon="3.63152">
        <ele>1266.3744306489</ele>
        <time>2015-04-22T10:41:15Z</time>
      </trkpt>
      <trkpt lat="44.58993" lon="3.63149">
        <ele>1266.3744306489</ele>
        <time>2015-04-22T10:41:20Z</time>
      </trkpt>
      <trkpt lat="44.58998" lon="3.63146">
        <ele>1267.5329561488</ele>
        <time>2015-04-22T10:41:25Z</time>
      </trkpt>
      <trkpt lat="44.59003" lon="3.63144">
        <ele>1267.5329561488</ele>
        <time>2015-04-22T10:41:30Z</time>
      </trkpt>
      <trkpt lat="44.59009" lon="3.63142">
        <ele>1268.2506575849</ele>
        <time>2015-04-22T10:41:35Z</time>
      </trkpt>
      <trkpt lat="44.59015" lon="3.63137">
        <ele>1268.2506575849</ele>
        <time>2015-04-22T10:41:40Z</time>
      </trkpt>
      <trkpt lat="44.59021" lon="3.63134">
        <ele>1268.8060891234</ele>
        <time>2015-04-22T10:41:45Z</time>
      </trkpt>
      <trkpt lat="44.59025" lon="3.63133">
        <ele>1268.8060891234</ele>
        <time>2015-04-22T10:41:50Z</time>
      </trkpt>
      <trkpt lat="44.59032" lon="3.63135">
        <ele>1269.7030823026</ele>
        <time>2015-04-22T10:41:55Z</time>
      </trkpt>
      <trkpt lat="44.59038" lon="3.63135">
        <ele>1269.7030823026</ele>
        <time>2015-04-22T10:42:00Z</time>
      </trkpt>
      <trkpt lat="44.59044" lon="3.63134">
        <ele>1270.859513878</ele>
        <time>2015-04-22T10:42:05Z</time>
      </trkpt>
      <trkpt lat="44.59051" lon="3.63134">
        <ele>1270.859513878</ele>
        <time>2015-04-22T10:42:10Z</time>
      </trkpt>
      <trkpt lat="44.59057" lon="3.63133">
        <ele>1272.1120480914</ele>
        <time>2015-04-22T10:42:15Z</time>
      </trkpt>
      <trkpt lat="44.59063" lon="3.63132">
        <ele>1272.1120480914</ele>
        <time>2015-04-22T10:42:20Z</time>
      </trkpt>
      <trkpt lat="44.5907" lon="3.63132">
        <ele>1273.309102522</ele>
        <time>2015-04-22T10:42:25Z</time>
      </trkpt>
      <trkpt lat="44.59081" lon="3.63132">
        <ele>1274.3681168179</ele>
        <time>2015-04-22T10:42:30Z</time>
      </trkpt>
      <trkpt lat="44.59088" lon="3.63132">
        <ele>1274.3681168179</ele>
        <time>2015-04-22T10:42:35Z</time>
      </trkpt>
      <trkpt lat="44.59097" lon="3.63133">
        <ele>1274.7658651318</ele>
        <time>2015-04-22T10:42:40Z</time>
      </trkpt>
      <trkpt lat="44.59103" lon="3.63136">
        <ele>1274.7658651318</ele>
        <time>2015-04-22T10:42:45Z</time>
      </trkpt>
      <trkpt lat="44.59109" lon="3.63137">
        <ele>1275.5340461688</ele>
        <time>2015-04-22T10:42:50Z</time>
      </trkpt>
      <trkpt lat="44.59117" lon="3.63141">
        <ele>1275.5340461688</ele>
        <time>2015-04-22T10:42:55Z</time>
      </trkpt>
      <trkpt lat="44.59124" lon="3.63144">
        <ele>1276.877405115</ele>
        <time>2015-04-22T10:43:00Z</time>
      </trkpt>
      <trkpt lat="44.59131" lon="3.63146">
        <ele>1276.877405115</ele>
        <time>2015-04-22T10:43:05Z</time>
      </trkpt>
      <trkpt lat="44.59136" lon="3.63145">
        <ele>1277.75797838</ele>
        <time>2015-04-22T10:43:10Z</time>
      </trkpt>
      <trkpt lat="44.59141" lon="3.63144">
        <ele>1277.75797838</ele>
        <time>2015-04-22T10:43:15Z</time>
      </trkpt>
      <trkpt lat="44.5915" lon="3.63145">
        <ele>1278.4126593367</ele>
        <time>2015-04-22T10:43:20Z</time>
      </trkpt>
      <trkpt lat="44.59156" lon="3.63144">
        <ele>1278.4126593367</ele>
        <time>2015-04-22T10:43:25Z</time>
      </trkpt>
      <trkpt lat="44.59162" lon="3.63142">
        <ele>1279.2346278401</ele>
        <time>2015-04-22T10:43:30Z</time>
      </trkpt>
      <trkpt lat="44.59169" lon="3.63139">
        <ele>1279.2346278401</ele>
        <time>2015-04-22T10:43:35Z</time>
      </trkpt>
      <trkpt lat="44.59176" lon="3.63135">
        <ele>1280.3424641547</ele>
        <time>2015-04-22T10:43:40Z</time>
      </trkpt>
      <trkpt lat="44.59181" lon="3.63131">
        <ele>1280.3424641547</ele>
        <time>2015-04-22T10:43:45Z</time>
      </trkpt>
      <trkpt lat="44.59187" lon="3.63128">
        <ele>1281.0520154152</ele>
        <time>2015-04-22T10:43:50Z</time>
      </trkpt>
      <trkpt lat="44.59193" lon="3.63125">
        <ele>1281.0520154152</ele>
        <time>2015-04-22T10:43:55Z</time>
      </trkpt>
      <trkpt lat="44.592" lon="3.63121">
        <ele>1281.2930669927</ele>
        <time>2015-04-22T10:44:00Z</time>
      </trkpt>
      <trkpt lat="44.59206" lon="3.63118">
        <ele>1281.2930669927</ele>
        <time>2015-04-22T10:44:05Z</time>
      </trkpt>
      <trkpt lat="44.59213" lon="3.63115">
        <ele>1281.4344981294</ele>
        <time>2015-04-22T10:44:10Z</time>
      </trkpt>
      <trkpt lat="44.5922" lon="3.63112">
        <ele>1281.4344981294</ele>
        <time>2015-04-22T10:44:15Z</time>
      </trkpt>
      <trkpt lat="44.59229" lon="3.63109">
        <ele>1281.255913598</ele>
        <time>2015-04-22T10:44:20Z</time>
      </trkpt>
      <trkpt lat="44.59235" lon="3.63106">
        <ele>1281.255913598</ele>
        <time>2015-04-22T10:44:25Z</time>
      </trkpt>
      <trkpt lat="44.59244" lon="3.63102">
        <ele>1280.8424080399</ele>
        <time>2015-04-22T10:44:30Z</time>
      </trkpt>
      <trkpt lat="44.5925" lon="3.63101">
        <ele>1280.8424080399</ele>
        <time>2015-04-22T10:44:35Z</time>
      </trkpt>
      <trkpt lat="44.59259" lon="3.63099">
        <ele>1280.1436697375</ele>
        <time>2015-04-22T10:44:40Z</time>
      </trkpt>
      <trkpt lat="44.59266" lon="3.63096">
        <ele>1280.1436697375</ele>
        <time>2015-04-22T10:44:45Z</time>
      </trkpt>
      <trkpt lat="44.5927" lon="3.63092">
        <ele>1280.0509772367</ele>
        <time>2015-04-22T10:44:50Z</time>
      </trkpt>
      <trkpt lat="44.59275" lon="3.63091">
        <ele>1280.0509772367</ele>
        <time>2015-04-22T10:44:55Z</time>
      </trkpt>
      <trkpt lat="44.59281" lon="3.63092">
        <ele>1280.3213752676</ele>
        <time>2015-04-22T10:45:00Z</time>
      </trkpt>
      <trkpt lat="44.59288" lon="3.6309">
        <ele>1280.3213752676</ele>
        <time>2015-04-22T10:45:05Z</time>
      </trkpt>
      <trkpt lat="44.59295" lon="3.63088">
        <ele>1280.2818350559</ele>
        <time>2015-04-22T10:45:10Z</time>
      </trkpt>
      <trkpt lat="44.59301" lon="3.63085">
        <ele>1280.2818350559</ele>
        <time>2015-04-22T10:45:15Z</time>
      </trkpt>
      <trkpt lat="44.59309" lon="3.63081">
        <ele>1280.0737087632</ele>
        <time>2015-04-22T10:45:20Z</time>
      </trkpt>
      <trkpt lat="44.59315" lon="3.63079">
        <ele>1280.0737087632</ele>
        <time>2015-04-22T10:45:25Z</time>
      </trkpt>
      <trkpt lat="44.59322" lon="3.63079">
        <ele>1280.2896163734</ele>
        <time>2015-04-22T10:45:30Z</time>
      </trkpt>
      <trkpt lat="44.5933" lon="3.63084">
        <ele>1280.2896163734</ele>
        <time>2015-04-22T10:45:35Z</time>
      </trkpt>
      <trkpt lat="44.59334" lon="3.6309">
        <ele>1280.8286547325</ele>
        <time>2015-04-22T10:45:40Z</time>
      </trkpt>
      <trkpt lat="44.59338" lon="3.63095">
        <ele>1280.8286547325</ele>
        <time>2015-04-22T10:45:45Z</time>
      </trkpt>
      <trkpt lat="44.59343" lon="3.631">
        <ele>1281.3513399362</ele>
        <time>2015-04-22T10:45:50Z</time>
      </trkpt>
      <trkpt lat="44.59349" lon="3.63107">
        <ele>1281.3513399362</ele>
        <time>2015-04-22T10:45:55Z</time>
      </trkpt>
      <trkpt lat="44.59352" lon="3.63112">
        <ele>1281.9467173157</ele>
        <time>2015-04-22T10:46:00Z</time>
      </trkpt>
      <trkpt lat="44.59358" lon="3.63119">
        <ele>1281.9467173157</ele>
        <time>2015-04-22T10:46:05Z</time>
      </trkpt>
      <trkpt lat="44.59363" lon="3.63125">
        <ele>1282.8411360445</ele>
        <time>2015-04-22T10:46:10Z</time>
      </trkpt>
      <trkpt lat="44.59369" lon="3.63131">
        <ele>1282.8411360445</ele>
        <time>2015-04-22T10:46:15Z</time>
      </trkpt>
      <trkpt lat="44.59374" lon="3.63135">
        <ele>1283.8254264033</ele>
        <time>2015-04-22T10:46:20Z</time>
      </trkpt>
      <trkpt lat="44.5938" lon="3.6314">
        <ele>1283.8254264033</ele>
        <time>2015-04-22T10:46:25Z</time>
      </trkpt>
      <trkpt lat="44.59385" lon="3.63143">
        <ele>1284.791961859</ele>
        <time>2015-04-22T10:46:30Z</time>
      </trkpt>
      <trkpt lat="44.5939" lon="3.63147">
        <ele>1284.791961859</ele>
        <time>2015-04-22T10:46:35Z</time>
      </trkpt>
      <trkpt lat="44.59396" lon="3.63149">
        <ele>1285.6554319097</ele>
        <time>2015-04-22T10:46:40Z</time>
      </trkpt>
      <trkpt lat="44.59403" lon="3.63152">
        <ele>1285.6554319097</ele>
        <time>2015-04-22T10:46:45Z</time>
      </trkpt>
      <trkpt lat="44.59409" lon="3.63156">
        <ele>1286.365854181</ele>
        <time>2015-04-22T10:46:50Z</time>
      </trkpt>
      <trkpt lat="44.59415" lon="3.63159">
        <ele>1286.365854181</ele>
        <time>2015-04-22T10:46:55Z</time>
      </trkpt>
      <trkpt lat="44.59419" lon="3.63161">
        <ele>1286.9349427371</ele>
        <time>2015-04-22T10:47:00Z</time>
      </trkpt>
      <trkpt lat="44.59426" lon="3.63165">
        <ele>1286.9349427371</ele>
        <time>2015-04-22T10:47:05Z</time>
      </trkpt>
      <trkpt lat="44.59431" lon="3.63168">
        <ele>1287.3594843837</ele>
        <time>2015-04-22T10:47:10Z</time>
      </trkpt>
      <trkpt lat="44.59437" lon="3.63171">
        <ele>1287.3594843837</ele>
        <time>2015-04-22T10:47:15Z</time>
      </trkpt>
      <trkpt lat="44.59443" lon="3.63175">
        <ele>1288.0980247106</ele>
        <time>2015-04-22T10:47:20Z</time>
      </trkpt>
      <trkpt lat="44.59449" lon="3.63178">
        <ele>1288.0980247106</ele>
        <time>2015-04-22T10:47:25Z</time>
      </trkpt>
      <trkpt lat="44.59456" lon="3.63178">
        <ele>1288.7242175552</ele>
        <time>2015-04-22T10:47:30Z</time>
      </trkpt>
      <trkpt lat="44.5946" lon="3.63179">
        <ele>1288.7242175552</ele>
        <time>2015-04-22T10:47:35Z</time>
      </trkpt>
      <trkpt lat="44.59467" lon="3.63177">
        <ele>1289.1171293513</ele>
        <time>2015-04-22T10:47:40Z</time>
      </trkpt>
      <trkpt lat="44.59472" lon="3.63175">
        <ele>1289.1171293513</ele>
        <time>2015-04-22T10:47:45Z</time>
      </trkpt>
      <trkpt lat="44.59478" lon="3.6317">
        <ele>1289.6553048121</ele>
        <time>2015-04-22T10:47:50Z</time>
      </trkpt>
      <trkpt lat="44.59485" lon="3.63166">
        <ele>1289.6553048121</ele>
        <time>2015-04-22T10:47:55Z</time>
      </trkpt>
      <trkpt lat="44.59491" lon="3.63162">
        <ele>1289.7378847317</ele>
        <time>2015-04-22T10:48:00Z</time>
      </trkpt>
      <trkpt lat="44.59497" lon="3.63158">
        <ele>1289.7378847317</ele>
        <time>2015-04-22T10:48:05Z</time>
      </trkpt>
      <trkpt lat="44.59503" lon="3.63154">
        <ele>1289.4002456955</ele>
        <time>2015-04-22T10:48:10Z</time>
      </trkpt>
      <trkpt lat="44.5951" lon="3.63152">
        <ele>1289.4002456955</ele>
        <time>2015-04-22T10:48:15Z</time>
      </trkpt>
      <trkpt lat="44.59516" lon="3.6315">
        <ele>1289.9012551916</ele>
        <time>2015-04-22T10:48:20Z</time>
      </trkpt>
      <trkpt lat="44.59522" lon="3.63151">
        <ele>1289.9012551916</ele>
        <time>2015-04-22T10:48:25Z</time>
      </trkpt>
      <trkpt lat="44.59526" lon="3.63156">
        <ele>1290.7620243168</ele>
        <time>2015-04-22T10:48:30Z</time>
      </trkpt>
      <trkpt lat="44.59532" lon="3.63162">
        <ele>1290.7620243168</ele>
        <time>2015-04-22T10:48:35Z</time>
      </trkpt>
      <trkpt lat="44.59536" lon="3.63168">
        <ele>1291.2351503523</ele>
        <time>2015-04-22T10:48:40Z</time>
      </trkpt>
      <trkpt lat="44.5954" lon="3.63177">
        <ele>1291.2351503523</ele>
        <time>2015-04-22T10:48:45Z</time>
      </trkpt>
      <trkpt lat="44.59543" lon="3.63185">
        <ele>1291.9550158497</ele>
        <time>2015-04-22T10:48:50Z</time>
      </trkpt>
      <trkpt lat="44.59546" lon="3.63193">
        <ele>1291.9550158497</ele>
        <time>2015-04-22T10:48:55Z</time>
      </trkpt>
      <trkpt lat="44.5955" lon="3.63202">
        <ele>1292.528699841</ele>
        <time>2015-04-22T10:49:00Z</time>
      </trkpt>
      <trkpt lat="44.59553" lon="3.63214">
        <ele>1293.2986721484</ele>
        <time>2015-04-22T10:49:05Z</time>
      </trkpt>
      <trkpt lat="44.59556" lon="3.63223">
        <ele>1293.2986721484</ele>
        <time>2015-04-22T10:49:10Z</time>
      </trkpt>
      <trkpt lat="44.59558" lon="3.6323">
        <ele>1293.7746216339</ele>
        <time>2015-04-22T10:49:15Z</time>
      </trkpt>
      <trkpt lat="44.5956" lon="3.63238">
        <ele>1293.7746216339</ele>
        <time>2015-04-22T10:49:20Z</time>
      </trkpt>
      <trkpt lat="44.59563" lon="3.63246">
        <ele>1294.6703700808</ele>
        <time>2015-04-22T10:49:25Z</time>
      </trkpt>
      <trkpt lat="44.59569" lon="3.6325">
        <ele>1294.6703700808</ele>
        <time>2015-04-22T10:49:30Z</time>
      </trkpt>
      <trkpt lat="44.59575" lon="3.63248">
        <ele>1295.2193640486</ele>
        <time>2015-04-22T10:49:35Z</time>
      </trkpt>
      <trkpt lat="44.5958" lon="3.63241">
        <ele>1295.2193640486</ele>
        <time>2015-04-22T10:49:40Z</time>
      </trkpt>
      <trkpt lat="44.59586" lon="3.63237">
        <ele>1295.2599378498</ele>
        <time>2015-04-22T10:49:45Z</time>
      </trkpt>
      <trkpt lat="44.59591" lon="3.63233">
        <ele>1295.2599378498</ele>
        <time>2015-04-22T10:49:50Z</time>
      </trkpt>
      <trkpt lat="44.59596" lon="3.63227">
        <ele>1295.5228000265</ele>
        <time>2015-04-22T10:49:55Z</time>
      </trkpt>
      <trkpt lat="44.59601" lon="3.63221">
        <ele>1295.5228000265</ele>
        <time>2015-04-22T10:50:00Z</time>
      </trkpt>
      <trkpt lat="44.59606" lon="3.63216">
        <ele>1295.8052309224</ele>
        <time>2015-04-22T10:50:05Z</time>
      </trkpt>
      <trkpt lat="44.59611" lon="3.63211">
        <ele>1295.8052309224</ele>
        <time>2015-04-22T10:50:10Z</time>
      </trkpt>
      <trkpt lat="44.59614" lon="3.63208">
        <ele>1295.8904957002</ele>
        <time>2015-04-22T10:50:15Z</time>
      </trkpt>
      <trkpt lat="44.5962" lon="3.63201">
        <ele>1295.8904957002</ele>
        <time>2015-04-22T10:50:20Z</time>
      </trkpt>
      <trkpt lat="44.59624" lon="3.63199">
        <ele>1296.068294556</ele>
        <time>2015-04-22T10:50:25Z</time>
      </trkpt>
      <trkpt lat="44.59627" lon="3.63197">
        <ele>1296.068294556</ele>
        <time>2015-04-22T10:50:30Z</time>
      </trkpt>
      <trkpt lat="44.59632" lon="3.63191">
        <ele>1296.7220478662</ele>
        <time>2015-04-22T10:50:35Z</time>
      </trkpt>
      <trkpt lat="44.59641" lon="3.63183">
        <ele>1297.513893054</ele>
        <time>2015-04-22T10:50:40Z</time>
      </trkpt>
      <trkpt lat="44.59644" lon="3.63179">
        <ele>1297.513893054</ele>
        <time>2015-04-22T10:50:45Z</time>
      </trkpt>
      <trkpt lat="44.59647" lon="3.63178">
        <ele>1297.513893054</ele>
        <time>2015-04-22T10:50:50Z</time>
      </trkpt>
      <trkpt lat="44.5965" lon="3.63174">
        <ele>1298.245663976</ele>
        <time>2015-04-22T10:50:55Z</time>
      </trkpt>
      <trkpt lat="44.59655" lon="3.63167">
        <ele>1298.245663976</ele>
        <time>2015-04-22T10:51:00Z</time>
      </trkpt>
      <trkpt lat="44.59661" lon="3.63161">
        <ele>1298.0133216474</ele>
        <time>2015-04-22T10:51:05Z</time>
      </trkpt>
      <trkpt lat="44.59668" lon="3.63154">
        <ele>1297.7401158344</ele>
        <time>2015-04-22T10:51:10Z</time>
      </trkpt>
      <trkpt lat="44.59673" lon="3.63149">
        <ele>1297.7401158344</ele>
        <time>2015-04-22T10:51:15Z</time>
      </trkpt>
      <trkpt lat="44.59679" lon="3.63142">
        <ele>1297.6618666408</ele>
        <time>2015-04-22T10:51:20Z</time>
      </trkpt>
      <trkpt lat="44.59685" lon="3.63136">
        <ele>1297.6618666408</ele>
        <time>2015-04-22T10:51:25Z</time>
      </trkpt>
      <trkpt lat="44.5969" lon="3.63133">
        <ele>1297.809144967</ele>
        <time>2015-04-22T10:51:30Z</time>
      </trkpt>
      <trkpt lat="44.59696" lon="3.63127">
        <ele>1297.809144967</ele>
        <time>2015-04-22T10:51:35Z</time>
      </trkpt>
      <trkpt lat="44.59702" lon="3.63121">
        <ele>1298.3537254282</ele>
        <time>2015-04-22T10:51:40Z</time>
      </trkpt>
      <trkpt lat="44.59708" lon="3.63115">
        <ele>1298.3537254282</ele>
        <time>2015-04-22T10:51:45Z</time>
      </trkpt>
      <trkpt lat="44.59714" lon="3.6311">
        <ele>1299.2806810012</ele>
        <time>2015-04-22T10:51:50Z</time>
      </trkpt>
      <trkpt lat="44.59719" lon="3.63105">
        <ele>1299.2806810012</ele>
        <time>2015-04-22T10:51:55Z</time>
      </trkpt>
      <trkpt lat="44.59722" lon="3.631">
        <ele>1300.0274485149</ele>
        <time>2015-04-22T10:52:00Z</time>
      </trkpt>
      <trkpt lat="44.59727" lon="3.63096">
        <ele>1300.0274485149</ele>
        <time>2015-04-22T10:52:05Z</time>
      </trkpt>
      <trkpt lat="44.59732" lon="3.63092">
        <ele>1301.082066755</ele>
        <time>2015-04-22T10:52:10Z</time>
      </trkpt>
      <trkpt lat="44.59739" lon="3.63087">
        <ele>1301.082066755</ele>
        <time>2015-04-22T10:52:15Z</time>
      </trkpt>
      <trkpt lat="44.59744" lon="3.63081">
        <ele>1301.598819379</ele>
        <time>2015-04-22T10:52:20Z</time>
      </trkpt>
      <trkpt lat="44.59751" lon="3.63075">
        <ele>1301.598819379</ele>
        <time>2015-04-22T10:52:25Z</time>
      </trkpt>
      <trkpt lat="44.59759" lon="3.63072">
        <ele>1302.4529109551</ele>
        <time>2015-04-22T10:52:30Z</time>
      </trkpt>
      <trkpt lat="44.59763" lon="3.63067">
        <ele>1302.4529109551</ele>
        <time>2015-04-22T10:52:35Z</time>
      </trkpt>
      <trkpt lat="44.59769" lon="3.63061">
        <ele>1303.2293337945</ele>
        <time>2015-04-22T10:52:40Z</time>
      </trkpt>
      <trkpt lat="44.59773" lon="3.63057">
        <ele>1303.2293337945</ele>
        <time>2015-04-22T10:52:45Z</time>
      </trkpt>
      <trkpt lat="44.59777" lon="3.63055">
        <ele>1304.0625831513</ele>
        <time>2015-04-22T10:52:50Z</time>
      </trkpt>
      <trkpt lat="44.59782" lon="3.63051">
        <ele>1304.0625831513</ele>
        <time>2015-04-22T10:52:55Z</time>
      </trkpt>
      <trkpt lat="44.59788" lon="3.63047">
        <ele>1304.3997809601</ele>
        <time>2015-04-22T10:53:00Z</time>
      </trkpt>
      <trkpt lat="44.59792" lon="3.63044">
        <ele>1304.3997809601</ele>
        <time>2015-04-22T10:53:05Z</time>
      </trkpt>
      <trkpt lat="44.59799" lon="3.63041">
        <ele>1305.1999980533</ele>
        <time>2015-04-22T10:53:10Z</time>
      </trkpt>
      <trkpt lat="44.59806" lon="3.63039">
        <ele>1305.1999980533</ele>
        <time>2015-04-22T10:53:15Z</time>
      </trkpt>
      <trkpt lat="44.59812" lon="3.63035">
        <ele>1305.9382517284</ele>
        <time>2015-04-22T10:53:20Z</time>
      </trkpt>
      <trkpt lat="44.59817" lon="3.63032">
        <ele>1305.9382517284</ele>
        <time>2015-04-22T10:53:25Z</time>
      </trkpt>
      <trkpt lat="44.59823" lon="3.63028">
        <ele>1306.9065058061</ele>
        <time>2015-04-22T10:53:30Z</time>
      </trkpt>
      <trkpt lat="44.59827" lon="3.63025">
        <ele>1306.9065058061</ele>
        <time>2015-04-22T10:53:35Z</time>
      </trkpt>
      <trkpt lat="44.59832" lon="3.63022">
        <ele>1307.697309401</ele>
        <time>2015-04-22T10:53:40Z</time>
      </trkpt>
      <trkpt lat="44.59839" lon="3.63018">
        <ele>1307.697309401</ele>
        <time>2015-04-22T10:53:45Z</time>
      </trkpt>
      <trkpt lat="44.59845" lon="3.63013">
        <ele>1308.3659833394</ele>
        <time>2015-04-22T10:53:50Z</time>
      </trkpt>
      <trkpt lat="44.59849" lon="3.6301">
        <ele>1308.3659833394</ele>
        <time>2015-04-22T10:53:55Z</time>
      </trkpt>
      <trkpt lat="44.59855" lon="3.63005">
        <ele>1309.2379482897</ele>
        <time>2015-04-22T10:54:00Z</time>
      </trkpt>
      <trkpt lat="44.59863" lon="3.63001">
        <ele>1309.2379482897</ele>
        <time>2015-04-22T10:54:05Z</time>
      </trkpt>
      <trkpt lat="44.59868" lon="3.62997">
        <ele>1310.181826144</ele>
        <time>2015-04-22T10:54:10Z</time>
      </trkpt>
      <trkpt lat="44.59874" lon="3.62992">
        <ele>1310.181826144</ele>
        <time>2015-04-22T10:54:15Z</time>
      </trkpt>
      <trkpt lat="44.59878" lon="3.62989">
        <ele>1311.0757023507</ele>
        <time>2015-04-22T10:54:20Z</time>
      </trkpt>
      <trkpt lat="44.59886" lon="3.62986">
        <ele>1311.0757023507</ele>
        <time>2015-04-22T10:54:25Z</time>
      </trkpt>
      <trkpt lat="44.59889" lon="3.62984">
        <ele>1312.0661755521</ele>
        <time>2015-04-22T10:54:30Z</time>
      </trkpt>
      <trkpt lat="44.59893" lon="3.62983">
        <ele>1312.0661755521</ele>
        <time>2015-04-22T10:54:35Z</time>
      </trkpt>
      <trkpt lat="44.59899" lon="3.6298">
        <ele>1312.726788722</ele>
        <time>2015-04-22T10:54:40Z</time>
      </trkpt>
      <trkpt lat="44.59904" lon="3.62977">
        <ele>1312.726788722</ele>
        <time>2015-04-22T10:54:45Z</time>
      </trkpt>
      <trkpt lat="44.59911" lon="3.62973">
        <ele>1313.5136149218</ele>
        <time>2015-04-22T10:54:50Z</time>
      </trkpt>
      <trkpt lat="44.59919" lon="3.62969">
        <ele>1313.5136149218</ele>
        <time>2015-04-22T10:54:55Z</time>
      </trkpt>
      <trkpt lat="44.59926" lon="3.62967">
        <ele>1314.4165581717</ele>
        <time>2015-04-22T10:55:00Z</time>
      </trkpt>
      <trkpt lat="44.59931" lon="3.62965">
        <ele>1314.4165581717</ele>
        <time>2015-04-22T10:55:05Z</time>
      </trkpt>
      <trkpt lat="44.59939" lon="3.62962">
        <ele>1315.1665611674</ele>
        <time>2015-04-22T10:55:10Z</time>
      </trkpt>
      <trkpt lat="44.59945" lon="3.62959">
        <ele>1315.1665611674</ele>
        <time>2015-04-22T10:55:15Z</time>
      </trkpt>
      <trkpt lat="44.59953" lon="3.62956">
        <ele>1315.8894732479</ele>
        <time>2015-04-22T10:55:20Z</time>
      </trkpt>
      <trkpt lat="44.5996" lon="3.62952">
        <ele>1315.8894732479</ele>
        <time>2015-04-22T10:55:25Z</time>
      </trkpt>
      <trkpt lat="44.59967" lon="3.62949">
        <ele>1316.5578876304</ele>
        <time>2015-04-22T10:55:30Z</time>
      </trkpt>
      <trkpt lat="44.59973" lon="3.62947">
        <ele>1316.5578876304</ele>
        <time>2015-04-22T10:55:35Z</time>
      </trkpt>
      <trkpt lat="44.59978" lon="3.62946">
        <ele>1318.1986011867</ele>
        <time>2015-04-22T10:55:40Z</time>
      </trkpt>
      <trkpt lat="44.59984" lon="3.62945">
        <ele>1318.1986011867</ele>
        <time>2015-04-22T10:55:45Z</time>
      </trkpt>
      <trkpt lat="44.59988" lon="3.62942">
        <ele>1319.6706706602</ele>
        <time>2015-04-22T10:55:50Z</time>
      </trkpt>
      <trkpt lat="44.59994" lon="3.62939">
        <ele>1319.6706706602</ele>
        <time>2015-04-22T10:55:55Z</time>
      </trkpt>
      <trkpt lat="44.59999" lon="3.62936">
        <ele>1321.1712378871</ele>
        <time>2015-04-22T10:56:00Z</time>
      </trkpt>
      <trkpt lat="44.60005" lon="3.62933">
        <ele>1321.1712378871</ele>
        <time>2015-04-22T10:56:05Z</time>
      </trkpt>
      <trkpt lat="44.60016" lon="3.62929">
        <ele>1322.2632401344</ele>
        <time>2015-04-22T10:56:10Z</time>
      </trkpt>
      <trkpt lat="44.60024" lon="3.62926">
        <ele>1322.2632401344</ele>
        <time>2015-04-22T10:56:15Z</time>
      </trkpt>
      <trkpt lat="44.60029" lon="3.62924">
        <ele>1323.1049400995</ele>
        <time>2015-04-22T10:56:20Z</time>
      </trkpt>
      <trkpt lat="44.60035" lon="3.62921">
        <ele>1323.1049400995</ele>
        <time>2015-04-22T10:56:25Z</time>
      </trkpt>
      <trkpt lat="44.60042" lon="3.62918">
        <ele>1323.8725400675</ele>
        <time>2015-04-22T10:56:30Z</time>
      </trkpt>
      <trkpt lat="44.60046" lon="3.62915">
        <ele>1323.8725400675</ele>
        <time>2015-04-22T10:56:35Z</time>
      </trkpt>
      <trkpt lat="44.60048" lon="3.62913">
        <ele>1323.8725400675</ele>
        <time>2015-04-22T10:56:40Z</time>
      </trkpt>
      <trkpt lat="44.60055" lon="3.6291">
        <ele>1325.1762934699</ele>
        <time>2015-04-22T10:56:45Z</time>
      </trkpt>
      <trkpt lat="44.60065" lon="3.62905">
        <ele>1326.7154964364</ele>
        <time>2015-04-22T10:56:50Z</time>
      </trkpt>
      <trkpt lat="44.60078" lon="3.62898">
        <ele>1327.706528303</ele>
        <time>2015-04-22T10:56:55Z</time>
      </trkpt>
      <trkpt lat="44.60108" lon="3.62883">
        <ele>1328.1598815794</ele>
        <time>2015-04-22T10:57:00Z</time>
      </trkpt>
      <trkpt lat="44.60128" lon="3.62874">
        <ele>1328.5335743091</ele>
        <time>2015-04-22T10:57:05Z</time>
      </trkpt>
      <trkpt lat="44.60142" lon="3.6286">
        <ele>1328.7766751931</ele>
        <time>2015-04-22T10:57:10Z</time>
      </trkpt>
      <trkpt lat="44.60154" lon="3.62856">
        <ele>1328.9144510854</ele>
        <time>2015-04-22T10:57:15Z</time>
      </trkpt>
      <trkpt lat="44.60162" lon="3.62854">
        <ele>1328.9144510854</ele>
        <time>2015-04-22T10:57:20Z</time>
      </trkpt>
      <trkpt lat="44.6017" lon="3.62853">
        <ele>1329.6623718838</ele>
        <time>2015-04-22T10:57:25Z</time>
      </trkpt>
      <trkpt lat="44.60179" lon="3.62851">
        <ele>1330.6872955363</ele>
        <time>2015-04-22T10:57:30Z</time>
      </trkpt>
      <trkpt lat="44.60186" lon="3.62852">
        <ele>1330.6872955363</ele>
        <time>2015-04-22T10:57:35Z</time>
      </trkpt>
      <trkpt lat="44.60192" lon="3.62851">
        <ele>1331.8959652869</ele>
        <time>2015-04-22T10:57:40Z</time>
      </trkpt>
      <trkpt lat="44.60198" lon="3.62849">
        <ele>1331.8959652869</ele>
        <time>2015-04-22T10:57:45Z</time>
      </trkpt>
      <trkpt lat="44.60204" lon="3.62847">
        <ele>1333.0141373933</ele>
        <time>2015-04-22T10:57:50Z</time>
      </trkpt>
      <trkpt lat="44.60209" lon="3.62846">
        <ele>1333.0141373933</ele>
        <time>2015-04-22T10:57:55Z</time>
      </trkpt>
      <trkpt lat="44.60213" lon="3.62843">
        <ele>1333.6150569956</ele>
        <time>2015-04-22T10:58:00Z</time>
      </trkpt>
      <trkpt lat="44.6022" lon="3.6284">
        <ele>1333.6150569956</ele>
        <time>2015-04-22T10:58:05Z</time>
      </trkpt>
      <trkpt lat="44.60227" lon="3.62835">
        <ele>1334.9188394787</ele>
        <time>2015-04-22T10:58:10Z</time>
      </trkpt>
      <trkpt lat="44.60234" lon="3.62831">
        <ele>1334.9188394787</ele>
        <time>2015-04-22T10:58:15Z</time>
      </trkpt>
      <trkpt lat="44.60237" lon="3.62828">
        <ele>1335.7914768151</ele>
        <time>2015-04-22T10:58:20Z</time>
      </trkpt>
      <trkpt lat="44.60242" lon="3.62824">
        <ele>1335.7914768151</ele>
        <time>2015-04-22T10:58:25Z</time>
      </trkpt>
      <trkpt lat="44.60248" lon="3.6282">
        <ele>1336.0337534244</ele>
        <time>2015-04-22T10:58:30Z</time>
      </trkpt>
      <trkpt lat="44.60256" lon="3.62816">
        <ele>1336.0337534244</ele>
        <time>2015-04-22T10:58:35Z</time>
      </trkpt>
      <trkpt lat="44.60263" lon="3.62813">
        <ele>1336.1546107472</ele>
        <time>2015-04-22T10:58:40Z</time>
      </trkpt>
      <trkpt lat="44.60269" lon="3.62811">
        <ele>1336.1546107472</ele>
        <time>2015-04-22T10:58:45Z</time>
      </trkpt>
      <trkpt lat="44.60274" lon="3.62807">
        <ele>1336.6547838258</ele>
        <time>2015-04-22T10:58:50Z</time>
      </trkpt>
      <trkpt lat="44.60279" lon="3.62805">
        <ele>1336.6547838258</ele>
        <time>2015-04-22T10:58:55Z</time>
      </trkpt>
      <trkpt lat="44.60285" lon="3.62803">
        <ele>1336.6425262269</ele>
        <time>2015-04-22T10:59:00Z</time>
      </trkpt>
      <trkpt lat="44.60292" lon="3.62797">
        <ele>1336.6425262269</ele>
        <time>2015-04-22T10:59:05Z</time>
      </trkpt>
      <trkpt lat="44.60296" lon="3.62793">
        <ele>1336.1288866387</ele>
        <time>2015-04-22T10:59:10Z</time>
      </trkpt>
      <trkpt lat="44.60301" lon="3.62789">
        <ele>1336.1288866387</ele>
        <time>2015-04-22T10:59:15Z</time>
      </trkpt>
      <trkpt lat="44.60307" lon="3.62781">
        <ele>1336.1919303823</ele>
        <time>2015-04-22T10:59:20Z</time>
      </trkpt>
      <trkpt lat="44.60311" lon="3.62774">
        <ele>1336.1919303823</ele>
        <time>2015-04-22T10:59:25Z</time>
      </trkpt>
      <trkpt lat="44.60315" lon="3.62766">
        <ele>1336.330146196</ele>
        <time>2015-04-22T10:59:30Z</time>
      </trkpt>
      <trkpt lat="44.60318" lon="3.62758">
        <ele>1336.330146196</ele>
        <time>2015-04-22T10:59:35Z</time>
      </trkpt>
      <trkpt lat="44.60321" lon="3.62749">
        <ele>1336.7703726694</ele>
        <time>2015-04-22T10:59:40Z</time>
      </trkpt>
      <trkpt lat="44.60326" lon="3.6274">
        <ele>1336.7703726694</ele>
        <time>2015-04-22T10:59:45Z</time>
      </trkpt>
      <trkpt lat="44.60331" lon="3.62731">
        <ele>1336.799606921</ele>
        <time>2015-04-22T10:59:50Z</time>
      </trkpt>
      <trkpt lat="44.60335" lon="3.62725">
        <ele>1336.799606921</ele>
        <time>2015-04-22T10:59:55Z</time>
      </trkpt>
      <trkpt lat="44.6034" lon="3.62716">
        <ele>1336.7094868808</ele>
        <time>2015-04-22T11:00:00Z</time>
      </trkpt>
      <trkpt lat="44.60344" lon="3.62708">
        <ele>1336.7094868808</ele>
        <time>2015-04-22T11:00:05Z</time>
      </trkpt>
      <trkpt lat="44.60348" lon="3.62702">
        <ele>1337.2461029565</ele>
        <time>2015-04-22T11:00:10Z</time>
      </trkpt>
      <trkpt lat="44.60351" lon="3.62694">
        <ele>1337.2461029565</ele>
        <time>2015-04-22T11:00:15Z</time>
      </trkpt>
      <trkpt lat="44.60358" lon="3.62685">
        <ele>1337.9172403759</ele>
        <time>2015-04-22T11:00:20Z</time>
      </trkpt>
      <trkpt lat="44.60363" lon="3.62677">
        <ele>1337.9172403759</ele>
        <time>2015-04-22T11:00:25Z</time>
      </trkpt>
      <trkpt lat="44.60366" lon="3.62671">
        <ele>1338.5114248657</ele>
        <time>2015-04-22T11:00:30Z</time>
      </trkpt>
      <trkpt lat="44.60372" lon="3.62664">
        <ele>1338.5114248657</ele>
        <time>2015-04-22T11:00:35Z</time>
      </trkpt>
      <trkpt lat="44.60376" lon="3.62658">
        <ele>1339.0202483797</ele>
        <time>2015-04-22T11:00:40Z</time>
      </trkpt>
      <trkpt lat="44.60381" lon="3.6265">
        <ele>1339.0202483797</ele>
        <time>2015-04-22T11:00:45Z</time>
      </trkpt>
      <trkpt lat="44.60385" lon="3.62642">
        <ele>1339.3928983669</ele>
        <time>2015-04-22T11:00:50Z</time>
      </trkpt>
      <trkpt lat="44.60388" lon="3.62633">
        <ele>1339.3928983669</ele>
        <time>2015-04-22T11:00:55Z</time>
      </trkpt>
      <trkpt lat="44.6039" lon="3.62625">
        <ele>1339.9285162274</ele>
        <time>2015-04-22T11:01:00Z</time>
      </trkpt>
      <trkpt lat="44.60391" lon="3.62618">
        <ele>1339.9285162274</ele>
        <time>2015-04-22T11:01:05Z</time>
      </trkpt>
      <trkpt lat="44.60394" lon="3.62609">
        <ele>1340.514684175</ele>
        <time>2015-04-22T11:01:10Z</time>
      </trkpt>
      <trkpt lat="44.60397" lon="3.62602">
        <ele>1340.514684175</ele>
        <time>2015-04-22T11:01:15Z</time>
      </trkpt>
      <trkpt lat="44.60402" lon="3.62595">
        <ele>1340.8309070273</ele>
        <time>2015-04-22T11:01:20Z</time>
      </trkpt>
      <trkpt lat="44.60406" lon="3.62594">
        <ele>1340.8309070273</ele>
        <time>2015-04-22T11:01:25Z</time>
      </trkpt>
      <trkpt lat="44.60411" lon="3.62597">
        <ele>1341.3591640508</ele>
        <time>2015-04-22T11:01:30Z</time>
      </trkpt>
      <trkpt lat="44.60419" lon="3.626">
        <ele>1341.3591640508</ele>
        <time>2015-04-22T11:01:35Z</time>
      </trkpt>
      <trkpt lat="44.60426" lon="3.62602">
        <ele>1342.1563079997</ele>
        <time>2015-04-22T11:01:40Z</time>
      </trkpt>
      <trkpt lat="44.60436" lon="3.62602">
        <ele>1343.0436589483</ele>
        <time>2015-04-22T11:01:45Z</time>
      </trkpt>
      <trkpt lat="44.60443" lon="3.62604">
        <ele>1343.0436589483</ele>
        <time>2015-04-22T11:01:50Z</time>
      </trkpt>
      <trkpt lat="44.60449" lon="3.62607">
        <ele>1344.1868438041</ele>
        <time>2015-04-22T11:01:55Z</time>
      </trkpt>
      <trkpt lat="44.60457" lon="3.62609">
        <ele>1344.1868438041</ele>
        <time>2015-04-22T11:02:00Z</time>
      </trkpt>
      <trkpt lat="44.60463" lon="3.62605">
        <ele>1345.3206648106</ele>
        <time>2015-04-22T11:02:05Z</time>
      </trkpt>
      <trkpt lat="44.60469" lon="3.62596">
        <ele>1345.3206648106</ele>
        <time>2015-04-22T11:02:10Z</time>
      </trkpt>
      <trkpt lat="44.60474" lon="3.62585">
        <ele>1345.8535508074</ele>
        <time>2015-04-22T11:02:15Z</time>
      </trkpt>
      <trkpt lat="44.60477" lon="3.62577">
        <ele>1345.8535508074</ele>
        <time>2015-04-22T11:02:20Z</time>
      </trkpt>
      <trkpt lat="44.60481" lon="3.62565">
        <ele>1346.5648849793</ele>
        <time>2015-04-22T11:02:25Z</time>
      </trkpt>
      <trkpt lat="44.60484" lon="3.62557">
        <ele>1346.5648849793</ele>
        <time>2015-04-22T11:02:30Z</time>
      </trkpt>
      <trkpt lat="44.60487" lon="3.62549">
        <ele>1347.2683883928</ele>
        <time>2015-04-22T11:02:35Z</time>
      </trkpt>
      <trkpt lat="44.60491" lon="3.62541">
        <ele>1347.2683883928</ele>
        <time>2015-04-22T11:02:40Z</time>
      </trkpt>
      <trkpt lat="44.60494" lon="3.62533">
        <ele>1347.6617808422</ele>
        <time>2015-04-22T11:02:45Z</time>
      </trkpt>
      <trkpt lat="44.60496" lon="3.62526">
        <ele>1347.6617808422</ele>
        <time>2015-04-22T11:02:50Z</time>
      </trkpt>
      <trkpt lat="44.60498" lon="3.62519">
        <ele>1348.2440509472</ele>
        <time>2015-04-22T11:02:55Z</time>
      </trkpt>
      <trkpt lat="44.60501" lon="3.62514">
        <ele>1348.2440509472</ele>
        <time>2015-04-22T11:03:00Z</time>
      </trkpt>
      <trkpt lat="44.60505" lon="3.62505">
        <ele>1348.8284952562</ele>
        <time>2015-04-22T11:03:05Z</time>
      </trkpt>
      <trkpt lat="44.60508" lon="3.62496">
        <ele>1348.8284952562</ele>
        <time>2015-04-22T11:03:10Z</time>
      </trkpt>
      <trkpt lat="44.60514" lon="3.62489">
        <ele>1349.3285793271</ele>
        <time>2015-04-22T11:03:15Z</time>
      </trkpt>
      <trkpt lat="44.60517" lon="3.62481">
        <ele>1349.3285793271</ele>
        <time>2015-04-22T11:03:20Z</time>
      </trkpt>
      <trkpt lat="44.60521" lon="3.62473">
        <ele>1349.9237554021</ele>
        <time>2015-04-22T11:03:25Z</time>
      </trkpt>
      <trkpt lat="44.60522" lon="3.62466">
        <ele>1349.9237554021</ele>
        <time>2015-04-22T11:03:30Z</time>
      </trkpt>
      <trkpt lat="44.60524" lon="3.62458">
        <ele>1350.8953093735</ele>
        <time>2015-04-22T11:03:35Z</time>
      </trkpt>
      <trkpt lat="44.60527" lon="3.62449">
        <ele>1350.8953093735</ele>
        <time>2015-04-22T11:03:40Z</time>
      </trkpt>
      <trkpt lat="44.60529" lon="3.6244">
        <ele>1351.724602835</ele>
        <time>2015-04-22T11:03:45Z</time>
      </trkpt>
      <trkpt lat="44.6053" lon="3.6243">
        <ele>1351.724602835</ele>
        <time>2015-04-22T11:03:50Z</time>
      </trkpt>
      <trkpt lat="44.60532" lon="3.62423">
        <ele>1352.5079364999</ele>
        <time>2015-04-22T11:03:55Z</time>
      </trkpt>
      <trkpt lat="44.60534" lon="3.62411">
        <ele>1352.5079364999</ele>
        <time>2015-04-22T11:04:00Z</time>
      </trkpt>
      <trkpt lat="44.60535" lon="3.62401">
        <ele>1353.0032080807</ele>
        <time>2015-04-22T11:04:05Z</time>
      </trkpt>
      <trkpt lat="44.60536" lon="3.62394">
        <ele>1353.0032080807</ele>
        <time>2015-04-22T11:04:10Z</time>
      </trkpt>
      <trkpt lat="44.60537" lon="3.62384">
        <ele>1352.5545719797</ele>
        <time>2015-04-22T11:04:15Z</time>
      </trkpt>
      <trkpt lat="44.60538" lon="3.62377">
        <ele>1352.5545719797</ele>
        <time>2015-04-22T11:04:20Z</time>
      </trkpt>
      <trkpt lat="44.60537" lon="3.62365">
        <ele>1352.1854596824</ele>
        <time>2015-04-22T11:04:25Z</time>
      </trkpt>
      <trkpt lat="44.60535" lon="3.62353">
        <ele>1352.0512780335</ele>
        <time>2015-04-22T11:04:30Z</time>
      </trkpt>
      <trkpt lat="44.60534" lon="3.62344">
        <ele>1352.0512780335</ele>
        <time>2015-04-22T11:04:35Z</time>
      </trkpt>
      <trkpt lat="44.60531" lon="3.62335">
        <ele>1352.1079993031</ele>
        <time>2015-04-22T11:04:40Z</time>
      </trkpt>
      <trkpt lat="44.60529" lon="3.62324">
        <ele>1352.1079993031</ele>
        <time>2015-04-22T11:04:45Z</time>
      </trkpt>
      <trkpt lat="44.60526" lon="3.62314">
        <ele>1352.2133964481</ele>
        <time>2015-04-22T11:04:50Z</time>
      </trkpt>
      <trkpt lat="44.60523" lon="3.62304">
        <ele>1352.2133964481</ele>
        <time>2015-04-22T11:04:55Z</time>
      </trkpt>
      <trkpt lat="44.60521" lon="3.62294">
        <ele>1352.1202405061</ele>
        <time>2015-04-22T11:05:00Z</time>
      </trkpt>
      <trkpt lat="44.60519" lon="3.62289">
        <ele>1352.1202405061</ele>
        <time>2015-04-22T11:05:05Z</time>
      </trkpt>
      <trkpt lat="44.60515" lon="3.62281">
        <ele>1351.5135256457</ele>
        <time>2015-04-22T11:05:10Z</time>
      </trkpt>
      <trkpt lat="44.60515" lon="3.62278">
        <ele>1351.5135256457</ele>
        <time>2015-04-22T11:05:15Z</time>
      </trkpt>
      <trkpt lat="44.60511" lon="3.62274">
        <ele>1351.5135256457</ele>
        <time>2015-04-22T11:05:20Z</time>
      </trkpt>
      <trkpt lat="44.60508" lon="3.62267">
        <ele>1349.9298588473</ele>
        <time>2015-04-22T11:05:25Z</time>
      </trkpt>
      <trkpt lat="44.60502" lon="3.62257">
        <ele>1348.354874892</ele>
        <time>2015-04-22T11:05:30Z</time>
      </trkpt>
      <trkpt lat="44.60496" lon="3.62247">
        <ele>1347.4567385723</ele>
        <time>2015-04-22T11:05:35Z</time>
      </trkpt>
      <trkpt lat="44.60491" lon="3.62236">
        <ele>1347.4567385723</ele>
        <time>2015-04-22T11:05:40Z</time>
      </trkpt>
      <trkpt lat="44.60487" lon="3.62229">
        <ele>1346.9879037286</ele>
        <time>2015-04-22T11:05:45Z</time>
      </trkpt>
      <trkpt lat="44.60482" lon="3.62222">
        <ele>1346.9879037286</ele>
        <time>2015-04-22T11:05:50Z</time>
      </trkpt>
      <trkpt lat="44.60478" lon="3.62215">
        <ele>1346.9050793744</ele>
        <time>2015-04-22T11:05:55Z</time>
      </trkpt>
      <trkpt lat="44.60473" lon="3.62209">
        <ele>1346.9050793744</ele>
        <time>2015-04-22T11:06:00Z</time>
      </trkpt>
      <trkpt lat="44.60469" lon="3.62204">
        <ele>1347.0228874369</ele>
        <time>2015-04-22T11:06:05Z</time>
      </trkpt>
      <trkpt lat="44.60463" lon="3.62196">
        <ele>1347.0228874369</ele>
        <time>2015-04-22T11:06:10Z</time>
      </trkpt>
      <trkpt lat="44.60459" lon="3.6219">
        <ele>1347.3706874166</ele>
        <time>2015-04-22T11:06:15Z</time>
      </trkpt>
      <trkpt lat="44.60453" lon="3.62183">
        <ele>1347.3706874166</ele>
        <time>2015-04-22T11:06:20Z</time>
      </trkpt>
      <trkpt lat="44.6045" lon="3.62178">
        <ele>1348.0326113679</ele>
        <time>2015-04-22T11:06:25Z</time>
      </trkpt>
      <trkpt lat="44.60446" lon="3.62173">
        <ele>1348.0326113679</ele>
        <time>2015-04-22T11:06:30Z</time>
      </trkpt>
      <trkpt lat="44.60441" lon="3.62166">
        <ele>1348.5236308122</ele>
        <time>2015-04-22T11:06:35Z</time>
      </trkpt>
      <trkpt lat="44.60436" lon="3.6216">
        <ele>1348.5236308122</ele>
        <time>2015-04-22T11:06:40Z</time>
      </trkpt>
      <trkpt lat="44.6043" lon="3.62151">
        <ele>1349.4900123611</ele>
        <time>2015-04-22T11:06:45Z</time>
      </trkpt>
      <trkpt lat="44.60425" lon="3.62144">
        <ele>1349.4900123611</ele>
        <time>2015-04-22T11:06:50Z</time>
      </trkpt>
      <trkpt lat="44.6042" lon="3.62137">
        <ele>1350.5203847892</ele>
        <time>2015-04-22T11:06:55Z</time>
      </trkpt>
      <trkpt lat="44.60415" lon="3.62131">
        <ele>1350.5203847892</ele>
        <time>2015-04-22T11:07:00Z</time>
      </trkpt>
      <trkpt lat="44.6041" lon="3.62124">
        <ele>1351.5792396543</ele>
        <time>2015-04-22T11:07:05Z</time>
      </trkpt>
      <trkpt lat="44.60406" lon="3.62118">
        <ele>1351.5792396543</ele>
        <time>2015-04-22T11:07:10Z</time>
      </trkpt>
      <trkpt lat="44.60403" lon="3.62112">
        <ele>1352.5903285723</ele>
        <time>2015-04-22T11:07:15Z</time>
      </trkpt>
      <trkpt lat="44.604" lon="3.62105">
        <ele>1352.5903285723</ele>
        <time>2015-04-22T11:07:20Z</time>
      </trkpt>
      <trkpt lat="44.60395" lon="3.62094">
        <ele>1353.483111699</ele>
        <time>2015-04-22T11:07:25Z</time>
      </trkpt>
      <trkpt lat="44.60392" lon="3.62087">
        <ele>1353.483111699</ele>
        <time>2015-04-22T11:07:30Z</time>
      </trkpt>
      <trkpt lat="44.60388" lon="3.62078">
        <ele>1354.3078329024</ele>
        <time>2015-04-22T11:07:35Z</time>
      </trkpt>
      <trkpt lat="44.60386" lon="3.62071">
        <ele>1354.3078329024</ele>
        <time>2015-04-22T11:07:40Z</time>
      </trkpt>
      <trkpt lat="44.60383" lon="3.62063">
        <ele>1354.9094679361</ele>
        <time>2015-04-22T11:07:45Z</time>
      </trkpt>
      <trkpt lat="44.6038" lon="3.62053">
        <ele>1354.9094679361</ele>
        <time>2015-04-22T11:07:50Z</time>
      </trkpt>
      <trkpt lat="44.60378" lon="3.62045">
        <ele>1355.462043522</ele>
        <time>2015-04-22T11:07:55Z</time>
      </trkpt>
      <trkpt lat="44.60376" lon="3.62038">
        <ele>1355.462043522</ele>
        <time>2015-04-22T11:08:00Z</time>
      </trkpt>
      <trkpt lat="44.60374" lon="3.62028">
        <ele>1355.910769691</ele>
        <time>2015-04-22T11:08:05Z</time>
      </trkpt>
      <trkpt lat="44.60372" lon="3.6202">
        <ele>1355.910769691</ele>
        <time>2015-04-22T11:08:10Z</time>
      </trkpt>
      <trkpt lat="44.60371" lon="3.62013">
        <ele>1356.4645719535</ele>
        <time>2015-04-22T11:08:15Z</time>
      </trkpt>
      <trkpt lat="44.60369" lon="3.62005">
        <ele>1356.4645719535</ele>
        <time>2015-04-22T11:08:20Z</time>
      </trkpt>
      <trkpt lat="44.60368" lon="3.61995">
        <ele>1356.9996903044</ele>
        <time>2015-04-22T11:08:25Z</time>
      </trkpt>
      <trkpt lat="44.60367" lon="3.61984">
        <ele>1356.9996903044</ele>
        <time>2015-04-22T11:08:30Z</time>
      </trkpt>
      <trkpt lat="44.60365" lon="3.61976">
        <ele>1357.5312118037</ele>
        <time>2015-04-22T11:08:35Z</time>
      </trkpt>
      <trkpt lat="44.60363" lon="3.61967">
        <ele>1357.5312118037</ele>
        <time>2015-04-22T11:08:40Z</time>
      </trkpt>
      <trkpt lat="44.60362" lon="3.61957">
        <ele>1357.9146078058</ele>
        <time>2015-04-22T11:08:45Z</time>
      </trkpt>
      <trkpt lat="44.60362" lon="3.61948">
        <ele>1357.9146078058</ele>
        <time>2015-04-22T11:08:50Z</time>
      </trkpt>
      <trkpt lat="44.60361" lon="3.6194">
        <ele>1358.4631331487</ele>
        <time>2015-04-22T11:08:55Z</time>
      </trkpt>
      <trkpt lat="44.60361" lon="3.61935">
        <ele>1358.4631331487</ele>
        <time>2015-04-22T11:09:00Z</time>
      </trkpt>
      <trkpt lat="44.60361" lon="3.61926">
        <ele>1358.9477752598</ele>
        <time>2015-04-22T11:09:05Z</time>
      </trkpt>
      <trkpt lat="44.60362" lon="3.61917">
        <ele>1358.9477752598</ele>
        <time>2015-04-22T11:09:10Z</time>
      </trkpt>
      <trkpt lat="44.60362" lon="3.61908">
        <ele>1359.3294657123</ele>
        <time>2015-04-22T11:09:15Z</time>
      </trkpt>
      <trkpt lat="44.60363" lon="3.61899">
        <ele>1359.3294657123</ele>
        <time>2015-04-22T11:09:20Z</time>
      </trkpt>
      <trkpt lat="44.60364" lon="3.61892">
        <ele>1359.8028818932</ele>
        <time>2015-04-22T11:09:25Z</time>
      </trkpt>
      <trkpt lat="44.60365" lon="3.61881">
        <ele>1359.8028818932</ele>
        <time>2015-04-22T11:09:30Z</time>
      </trkpt>
      <trkpt lat="44.60366" lon="3.61874">
        <ele>1360.2599305265</ele>
        <time>2015-04-22T11:09:35Z</time>
      </trkpt>
      <trkpt lat="44.60367" lon="3.61865">
        <ele>1360.2599305265</ele>
        <time>2015-04-22T11:09:40Z</time>
      </trkpt>
      <trkpt lat="44.60369" lon="3.61855">
        <ele>1360.7878597082</ele>
        <time>2015-04-22T11:09:45Z</time>
      </trkpt>
      <trkpt lat="44.60369" lon="3.61847">
        <ele>1360.7878597082</ele>
        <time>2015-04-22T11:09:50Z</time>
      </trkpt>
      <trkpt lat="44.6037" lon="3.61837">
        <ele>1361.3808540082</ele>
        <time>2015-04-22T11:09:55Z</time>
      </trkpt>
      <trkpt lat="44.60371" lon="3.61828">
        <ele>1361.3808540082</ele>
        <time>2015-04-22T11:10:00Z</time>
      </trkpt>
      <trkpt lat="44.60372" lon="3.61821">
        <ele>1361.903654676</ele>
        <time>2015-04-22T11:10:05Z</time>
      </trkpt>
      <trkpt lat="44.60374" lon="3.61813">
        <ele>1361.903654676</ele>
        <time>2015-04-22T11:10:10Z</time>
      </trkpt>
      <trkpt lat="44.60374" lon="3.61806">
        <ele>1362.4473156551</ele>
        <time>2015-04-22T11:10:15Z</time>
      </trkpt>
      <trkpt lat="44.60373" lon="3.61794">
        <ele>1362.4473156551</ele>
        <time>2015-04-22T11:10:20Z</time>
      </trkpt>
      <trkpt lat="44.60374" lon="3.61785">
        <ele>1362.9232240274</ele>
        <time>2015-04-22T11:10:25Z</time>
      </trkpt>
      <trkpt lat="44.60375" lon="3.61778">
        <ele>1362.9232240274</ele>
        <time>2015-04-22T11:10:30Z</time>
      </trkpt>
      <trkpt lat="44.60376" lon="3.61774">
        <ele>1362.9232240274</ele>
        <time>2015-04-22T11:10:35Z</time>
      </trkpt>
      <trkpt lat="44.60377" lon="3.61766">
        <ele>1362.9612577452</ele>
        <time>2015-04-22T11:10:40Z</time>
      </trkpt>
      <trkpt lat="44.60378" lon="3.61758">
        <ele>1362.9612577452</ele>
        <time>2015-04-22T11:10:45Z</time>
      </trkpt>
      <trkpt lat="44.60378" lon="3.6175">
        <ele>1362.9979251061</ele>
        <time>2015-04-22T11:10:50Z</time>
      </trkpt>
      <trkpt lat="44.60379" lon="3.61739">
        <ele>1362.9979251061</ele>
        <time>2015-04-22T11:10:55Z</time>
      </trkpt>
      <trkpt lat="44.6038" lon="3.61732">
        <ele>1363.1350501226</ele>
        <time>2015-04-22T11:11:00Z</time>
      </trkpt>
      <trkpt lat="44.60381" lon="3.61722">
        <ele>1363.1350501226</ele>
        <time>2015-04-22T11:11:05Z</time>
      </trkpt>
      <trkpt lat="44.60381" lon="3.61715">
        <ele>1363.3658258951</ele>
        <time>2015-04-22T11:11:10Z</time>
      </trkpt>
      <trkpt lat="44.60382" lon="3.61704">
        <ele>1363.3658258951</ele>
        <time>2015-04-22T11:11:15Z</time>
      </trkpt>
      <trkpt lat="44.60382" lon="3.61699">
        <ele>1363.6260446323</ele>
        <time>2015-04-22T11:11:20Z</time>
      </trkpt>
      <trkpt lat="44.60384" lon="3.6169">
        <ele>1363.6260446323</ele>
        <time>2015-04-22T11:11:25Z</time>
      </trkpt>
      <trkpt lat="44.60385" lon="3.61683">
        <ele>1363.7984924622</ele>
        <time>2015-04-22T11:11:30Z</time>
      </trkpt>
      <trkpt lat="44.60387" lon="3.61672">
        <ele>1363.7984924622</ele>
        <time>2015-04-22T11:11:35Z</time>
      </trkpt>
      <trkpt lat="44.60389" lon="3.61662">
        <ele>1363.933337186</ele>
        <time>2015-04-22T11:11:40Z</time>
      </trkpt>
      <trkpt lat="44.60391" lon="3.61653">
        <ele>1363.933337186</ele>
        <time>2015-04-22T11:11:45Z</time>
      </trkpt>
      <trkpt lat="44.60392" lon="3.61644">
        <ele>1364.5527356513</ele>
        <time>2015-04-22T11:11:50Z</time>
      </trkpt>
      <trkpt lat="44.60395" lon="3.61637">
        <ele>1364.5527356513</ele>
        <time>2015-04-22T11:11:55Z</time>
      </trkpt>
      <trkpt lat="44.60399" lon="3.61634">
        <ele>1364.3377388139</ele>
        <time>2015-04-22T11:12:00Z</time>
      </trkpt>
      <trkpt lat="44.604" lon="3.61628">
        <ele>1364.3377388139</ele>
        <time>2015-04-22T11:12:05Z</time>
      </trkpt>
      <trkpt lat="44.60405" lon="3.61622">
        <ele>1363.8844263465</ele>
        <time>2015-04-22T11:12:10Z</time>
      </trkpt>
      <trkpt lat="44.60409" lon="3.61614">
        <ele>1363.8844263465</ele>
        <time>2015-04-22T11:12:15Z</time>
      </trkpt>
      <trkpt lat="44.60412" lon="3.61611">
        <ele>1363.990743621</ele>
        <time>2015-04-22T11:12:20Z</time>
      </trkpt>
      <trkpt lat="44.60414" lon="3.61604">
        <ele>1363.990743621</ele>
        <time>2015-04-22T11:12:25Z</time>
      </trkpt>
      <trkpt lat="44.60414" lon="3.61595">
        <ele>1363.8380414676</ele>
        <time>2015-04-22T11:12:30Z</time>
      </trkpt>
      <trkpt lat="44.60417" lon="3.6159">
        <ele>1363.8380414676</ele>
        <time>2015-04-22T11:12:35Z</time>
      </trkpt>
      <trkpt lat="44.60421" lon="3.61585">
        <ele>1363.6340683525</ele>
        <time>2015-04-22T11:12:40Z</time>
      </trkpt>
      <trkpt lat="44.60425" lon="3.61575">
        <ele>1363.6340683525</ele>
        <time>2015-04-22T11:12:45Z</time>
      </trkpt>
      <trkpt lat="44.60427" lon="3.61565">
        <ele>1363.6146745161</ele>
        <time>2015-04-22T11:12:50Z</time>
      </trkpt>
      <trkpt lat="44.6043" lon="3.61557">
        <ele>1363.6146745161</ele>
        <time>2015-04-22T11:12:55Z</time>
      </trkpt>
      <trkpt lat="44.60433" lon="3.61544">
        <ele>1363.7672727128</ele>
        <time>2015-04-22T11:13:00Z</time>
      </trkpt>
      <trkpt lat="44.60436" lon="3.61536">
        <ele>1363.7672727128</ele>
        <time>2015-04-22T11:13:05Z</time>
      </trkpt>
      <trkpt lat="44.60439" lon="3.61528">
        <ele>1363.7914771943</ele>
        <time>2015-04-22T11:13:10Z</time>
      </trkpt>
      <trkpt lat="44.60442" lon="3.61522">
        <ele>1363.7914771943</ele>
        <time>2015-04-22T11:13:15Z</time>
      </trkpt>
      <trkpt lat="44.60445" lon="3.61515">
        <ele>1363.5678308245</ele>
        <time>2015-04-22T11:13:20Z</time>
      </trkpt>
      <trkpt lat="44.60448" lon="3.6151">
        <ele>1363.5678308245</ele>
        <time>2015-04-22T11:13:25Z</time>
      </trkpt>
      <trkpt lat="44.60449" lon="3.61502">
        <ele>1364.0383382266</ele>
        <time>2015-04-22T11:13:30Z</time>
      </trkpt>
      <trkpt lat="44.6045" lon="3.61496">
        <ele>1364.0383382266</ele>
        <time>2015-04-22T11:13:35Z</time>
      </trkpt>
      <trkpt lat="44.60451" lon="3.61491">
        <ele>1364.0383382266</ele>
        <time>2015-04-22T11:13:40Z</time>
      </trkpt>
      <trkpt lat="44.60451" lon="3.61484">
        <ele>1364.1715695184</ele>
        <time>2015-04-22T11:13:45Z</time>
      </trkpt>
      <trkpt lat="44.60449" lon="3.61477">
        <ele>1364.1715695184</ele>
        <time>2015-04-22T11:13:50Z</time>
      </trkpt>
      <trkpt lat="44.60446" lon="3.61465">
        <ele>1364.1800887542</ele>
        <time>2015-04-22T11:13:55Z</time>
      </trkpt>
      <trkpt lat="44.60446" lon="3.61458">
        <ele>1364.1800887542</ele>
        <time>2015-04-22T11:14:00Z</time>
      </trkpt>
      <trkpt lat="44.60445" lon="3.61449">
        <ele>1364.5205748403</ele>
        <time>2015-04-22T11:14:05Z</time>
      </trkpt>
      <trkpt lat="44.60443" lon="3.61442">
        <ele>1364.5205748403</ele>
        <time>2015-04-22T11:14:10Z</time>
      </trkpt>
      <trkpt lat="44.60443" lon="3.61436">
        <ele>1365.2405205142</ele>
        <time>2015-04-22T11:14:15Z</time>
      </trkpt>
      <trkpt lat="44.60443" lon="3.61428">
        <ele>1365.2405205142</ele>
        <time>2015-04-22T11:14:20Z</time>
      </trkpt>
      <trkpt lat="44.60445" lon="3.61423">
        <ele>1364.8552686066</ele>
        <time>2015-04-22T11:14:25Z</time>
      </trkpt>
      <trkpt lat="44.60444" lon="3.61417">
        <ele>1364.8552686066</ele>
        <time>2015-04-22T11:14:30Z</time>
      </trkpt>
      <trkpt lat="44.60441" lon="3.61408">
        <ele>1363.6928166304</ele>
        <time>2015-04-22T11:14:35Z</time>
      </trkpt>
      <trkpt lat="44.60441" lon="3.61398">
        <ele>1363.6928166304</ele>
        <time>2015-04-22T11:14:40Z</time>
      </trkpt>
      <trkpt lat="44.6044" lon="3.61388">
        <ele>1362.333035984</ele>
        <time>2015-04-22T11:14:45Z</time>
      </trkpt>
      <trkpt lat="44.60438" lon="3.61378">
        <ele>1362.333035984</ele>
        <time>2015-04-22T11:14:50Z</time>
      </trkpt>
      <trkpt lat="44.60437" lon="3.61367">
        <ele>1361.4434256044</ele>
        <time>2015-04-22T11:14:55Z</time>
      </trkpt>
      <trkpt lat="44.60436" lon="3.61358">
        <ele>1361.4434256044</ele>
        <time>2015-04-22T11:15:00Z</time>
      </trkpt>
      <trkpt lat="44.60437" lon="3.61351">
        <ele>1360.5746714768</ele>
        <time>2015-04-22T11:15:05Z</time>
      </trkpt>
      <trkpt lat="44.60435" lon="3.61341">
        <ele>1360.5746714768</ele>
        <time>2015-04-22T11:15:10Z</time>
      </trkpt>
      <trkpt lat="44.60435" lon="3.61327">
        <ele>1360.2038523229</ele>
        <time>2015-04-22T11:15:15Z</time>
      </trkpt>
      <trkpt lat="44.60433" lon="3.61315">
        <ele>1359.8780655953</ele>
        <time>2015-04-22T11:15:20Z</time>
      </trkpt>
      <trkpt lat="44.60432" lon="3.61302">
        <ele>1359.8780655953</ele>
        <time>2015-04-22T11:15:25Z</time>
      </trkpt>
      <trkpt lat="44.60431" lon="3.61289">
        <ele>1360.4312691523</ele>
        <time>2015-04-22T11:15:30Z</time>
      </trkpt>
      <trkpt lat="44.60431" lon="3.61272">
        <ele>1361.7833895292</ele>
        <time>2015-04-22T11:15:35Z</time>
      </trkpt>
      <trkpt lat="44.60429" lon="3.61258">
        <ele>1363.4688534695</ele>
        <time>2015-04-22T11:15:40Z</time>
      </trkpt>
      <trkpt lat="44.60426" lon="3.61246">
        <ele>1364.4788773534</ele>
        <time>2015-04-22T11:15:45Z</time>
      </trkpt>
      <trkpt lat="44.60428" lon="3.61239">
        <ele>1364.4788773534</ele>
        <time>2015-04-22T11:15:50Z</time>
      </trkpt>
      <trkpt lat="44.60431" lon="3.61229">
        <ele>1365.4226463198</ele>
        <time>2015-04-22T11:15:55Z</time>
      </trkpt>
      <trkpt lat="44.60433" lon="3.61219">
        <ele>1365.4226463198</ele>
        <time>2015-04-22T11:16:00Z</time>
      </trkpt>
      <trkpt lat="44.60436" lon="3.61214">
        <ele>1365.6398252354</ele>
        <time>2015-04-22T11:16:05Z</time>
      </trkpt>
      <trkpt lat="44.60438" lon="3.61205">
        <ele>1365.6398252354</ele>
        <time>2015-04-22T11:16:10Z</time>
      </trkpt>
      <trkpt lat="44.60441" lon="3.61196">
        <ele>1365.7455656401</ele>
        <time>2015-04-22T11:16:15Z</time>
      </trkpt>
      <trkpt lat="44.60444" lon="3.61189">
        <ele>1365.7455656401</ele>
        <time>2015-04-22T11:16:20Z</time>
      </trkpt>
      <trkpt lat="44.60448" lon="3.61182">
        <ele>1365.8489862054</ele>
        <time>2015-04-22T11:16:25Z</time>
      </trkpt>
      <trkpt lat="44.60452" lon="3.61175">
        <ele>1365.8489862054</ele>
        <time>2015-04-22T11:16:30Z</time>
      </trkpt>
      <trkpt lat="44.60455" lon="3.61169">
        <ele>1366.8149871862</ele>
        <time>2015-04-22T11:16:35Z</time>
      </trkpt>
      <trkpt lat="44.6046" lon="3.61162">
        <ele>1366.8149871862</ele>
        <time>2015-04-22T11:16:40Z</time>
      </trkpt>
      <trkpt lat="44.60465" lon="3.61158">
        <ele>1367.5546614903</ele>
        <time>2015-04-22T11:16:45Z</time>
      </trkpt>
      <trkpt lat="44.60471" lon="3.61151">
        <ele>1367.5546614903</ele>
        <time>2015-04-22T11:16:50Z</time>
      </trkpt>
      <trkpt lat="44.60477" lon="3.61142">
        <ele>1366.9012097459</ele>
        <time>2015-04-22T11:16:55Z</time>
      </trkpt>
      <trkpt lat="44.60481" lon="3.61136">
        <ele>1366.9012097459</ele>
        <time>2015-04-22T11:17:00Z</time>
      </trkpt>
      <trkpt lat="44.60484" lon="3.61127">
        <ele>1367.1784829992</ele>
        <time>2015-04-22T11:17:05Z</time>
      </trkpt>
      <trkpt lat="44.60489" lon="3.61121">
        <ele>1367.1784829992</ele>
        <time>2015-04-22T11:17:10Z</time>
      </trkpt>
      <trkpt lat="44.60493" lon="3.61117">
        <ele>1367.7556746761</ele>
        <time>2015-04-22T11:17:15Z</time>
      </trkpt>
      <trkpt lat="44.60497" lon="3.61111">
        <ele>1367.7556746761</ele>
        <time>2015-04-22T11:17:20Z</time>
      </trkpt>
      <trkpt lat="44.60502" lon="3.61104">
        <ele>1368.8833291651</ele>
        <time>2015-04-22T11:17:25Z</time>
      </trkpt>
      <trkpt lat="44.60504" lon="3.61098">
        <ele>1368.8833291651</ele>
        <time>2015-04-22T11:17:30Z</time>
      </trkpt>
      <trkpt lat="44.60509" lon="3.6109">
        <ele>1369.7688634605</ele>
        <time>2015-04-22T11:17:35Z</time>
      </trkpt>
      <trkpt lat="44.60512" lon="3.61085">
        <ele>1369.7688634605</ele>
        <time>2015-04-22T11:17:40Z</time>
      </trkpt>
      <trkpt lat="44.60516" lon="3.61079">
        <ele>1370.9179684341</ele>
        <time>2015-04-22T11:17:45Z</time>
      </trkpt>
      <trkpt lat="44.60521" lon="3.61072">
        <ele>1370.9179684341</ele>
        <time>2015-04-22T11:17:50Z</time>
      </trkpt>
      <trkpt lat="44.60525" lon="3.61063">
        <ele>1371.9626247408</ele>
        <time>2015-04-22T11:17:55Z</time>
      </trkpt>
      <trkpt lat="44.6053" lon="3.61053">
        <ele>1371.9626247408</ele>
        <time>2015-04-22T11:18:00Z</time>
      </trkpt>
      <trkpt lat="44.60531" lon="3.61048">
        <ele>1372.1586553997</ele>
        <time>2015-04-22T11:18:05Z</time>
      </trkpt>
      <trkpt lat="44.60538" lon="3.61042">
        <ele>1372.1586553997</ele>
        <time>2015-04-22T11:18:10Z</time>
      </trkpt>
      <trkpt lat="44.60544" lon="3.61035">
        <ele>1372.0439042544</ele>
        <time>2015-04-22T11:18:15Z</time>
      </trkpt>
      <trkpt lat="44.60547" lon="3.61026">
        <ele>1372.0439042544</ele>
        <time>2015-04-22T11:18:20Z</time>
      </trkpt>
      <trkpt lat="44.60549" lon="3.61019">
        <ele>1372.6940517949</ele>
        <time>2015-04-22T11:18:25Z</time>
      </trkpt>
      <trkpt lat="44.60551" lon="3.61013">
        <ele>1372.6940517949</ele>
        <time>2015-04-22T11:18:30Z</time>
      </trkpt>
      <trkpt lat="44.60556" lon="3.61004">
        <ele>1373.4463652257</ele>
        <time>2015-04-22T11:18:35Z</time>
      </trkpt>
      <trkpt lat="44.6056" lon="3.60996">
        <ele>1373.4463652257</ele>
        <time>2015-04-22T11:18:40Z</time>
      </trkpt>
      <trkpt lat="44.60564" lon="3.60991">
        <ele>1374.3638613975</ele>
        <time>2015-04-22T11:18:45Z</time>
      </trkpt>
      <trkpt lat="44.60569" lon="3.60984">
        <ele>1374.3638613975</ele>
        <time>2015-04-22T11:18:50Z</time>
      </trkpt>
      <trkpt lat="44.60576" lon="3.60979">
        <ele>1375.3459737263</ele>
        <time>2015-04-22T11:18:55Z</time>
      </trkpt>
      <trkpt lat="44.60582" lon="3.60974">
        <ele>1375.3459737263</ele>
        <time>2015-04-22T11:19:00Z</time>
      </trkpt>
      <trkpt lat="44.60588" lon="3.60966">
        <ele>1376.5155434739</ele>
        <time>2015-04-22T11:19:05Z</time>
      </trkpt>
      <trkpt lat="44.60593" lon="3.60961">
        <ele>1376.5155434739</ele>
        <time>2015-04-22T11:19:10Z</time>
      </trkpt>
      <trkpt lat="44.60597" lon="3.60956">
        <ele>1377.6112116957</ele>
        <time>2015-04-22T11:19:15Z</time>
      </trkpt>
      <trkpt lat="44.60601" lon="3.60952">
        <ele>1377.6112116957</ele>
        <time>2015-04-22T11:19:20Z</time>
      </trkpt>
      <trkpt lat="44.60606" lon="3.60948">
        <ele>1378.3766568767</ele>
        <time>2015-04-22T11:19:25Z</time>
      </trkpt>
      <trkpt lat="44.60609" lon="3.60946">
        <ele>1378.3766568767</ele>
        <time>2015-04-22T11:19:30Z</time>
      </trkpt>
      <trkpt lat="44.60613" lon="3.60944">
        <ele>1378.3766568767</ele>
        <time>2015-04-22T11:19:35Z</time>
      </trkpt>
      <trkpt lat="44.60619" lon="3.60941">
        <ele>1378.9932800718</ele>
        <time>2015-04-22T11:19:40Z</time>
      </trkpt>
      <trkpt lat="44.60625" lon="3.60936">
        <ele>1378.9932800718</ele>
        <time>2015-04-22T11:19:45Z</time>
      </trkpt>
      <trkpt lat="44.60631" lon="3.60933">
        <ele>1380.0331323214</ele>
        <time>2015-04-22T11:19:50Z</time>
      </trkpt>
      <trkpt lat="44.60634" lon="3.6093">
        <ele>1380.0331323214</ele>
        <time>2015-04-22T11:19:55Z</time>
      </trkpt>
      <trkpt lat="44.60638" lon="3.6093">
        <ele>1380.0331323214</ele>
        <time>2015-04-22T11:20:00Z</time>
      </trkpt>
      <trkpt lat="44.60646" lon="3.60929">
        <ele>1381.0595583037</ele>
        <time>2015-04-22T11:20:05Z</time>
      </trkpt>
      <trkpt lat="44.60651" lon="3.60928">
        <ele>1381.0595583037</ele>
        <time>2015-04-22T11:20:10Z</time>
      </trkpt>
      <trkpt lat="44.60656" lon="3.6093">
        <ele>1381.9418773164</ele>
        <time>2015-04-22T11:20:15Z</time>
      </trkpt>
      <trkpt lat="44.60662" lon="3.6093">
        <ele>1381.9418773164</ele>
        <time>2015-04-22T11:20:20Z</time>
      </trkpt>
      <trkpt lat="44.60667" lon="3.60929">
        <ele>1382.7612186861</ele>
        <time>2015-04-22T11:20:25Z</time>
      </trkpt>
      <trkpt lat="44.6067" lon="3.60929">
        <ele>1382.7612186861</ele>
        <time>2015-04-22T11:20:30Z</time>
      </trkpt>
      <trkpt lat="44.60676" lon="3.6093">
        <ele>1383.8235584318</ele>
        <time>2015-04-22T11:20:35Z</time>
      </trkpt>
      <trkpt lat="44.6068" lon="3.6093">
        <ele>1383.8235584318</ele>
        <time>2015-04-22T11:20:40Z</time>
      </trkpt>
      <trkpt lat="44.60683" lon="3.60929">
        <ele>1383.8235584318</ele>
        <time>2015-04-22T11:20:45Z</time>
      </trkpt>
      <trkpt lat="44.60686" lon="3.60931">
        <ele>1385.3253010893</ele>
        <time>2015-04-22T11:20:50Z</time>
      </trkpt>
      <trkpt lat="44.60697" lon="3.60933">
        <ele>1386.4240568253</ele>
        <time>2015-04-22T11:20:55Z</time>
      </trkpt>
      <trkpt lat="44.60699" lon="3.60933">
        <ele>1386.4240568253</ele>
        <time>2015-04-22T11:21:00Z</time>
      </trkpt>
      <trkpt lat="44.60706" lon="3.60933">
        <ele>1387.5654501698</ele>
        <time>2015-04-22T11:21:05Z</time>
      </trkpt>
      <trkpt lat="44.60719" lon="3.60933">
        <ele>1388.6723324426</ele>
        <time>2015-04-22T11:21:10Z</time>
      </trkpt>
      <trkpt lat="44.60728" lon="3.60933">
        <ele>1389.4139797036</ele>
        <time>2015-04-22T11:21:15Z</time>
      </trkpt>
      <trkpt lat="44.60733" lon="3.60933">
        <ele>1389.4139797036</ele>
        <time>2015-04-22T11:21:20Z</time>
      </trkpt>
      <trkpt lat="44.60738" lon="3.60934">
        <ele>1389.5426912807</ele>
        <time>2015-04-22T11:21:25Z</time>
      </trkpt>
      <trkpt lat="44.60739" lon="3.60936">
        <ele>1389.5426912807</ele>
        <time>2015-04-22T11:21:30Z</time>
      </trkpt>
      <trkpt lat="44.60742" lon="3.60937">
        <ele>1389.5426912807</ele>
        <time>2015-04-22T11:21:35Z</time>
      </trkpt>
      <trkpt lat="44.60752" lon="3.60939">
        <ele>1389.4936494216</ele>
        <time>2015-04-22T11:21:40Z</time>
      </trkpt>
      <trkpt lat="44.60757" lon="3.60939">
        <ele>1389.4936494216</ele>
        <time>2015-04-22T11:21:45Z</time>
      </trkpt>
      <trkpt lat="44.60764" lon="3.6094">
        <ele>1389.2671058863</ele>
        <time>2015-04-22T11:21:50Z</time>
      </trkpt>
      <trkpt lat="44.60769" lon="3.6094">
        <ele>1389.2671058863</ele>
        <time>2015-04-22T11:21:55Z</time>
      </trkpt>
      <trkpt lat="44.60775" lon="3.60941">
        <ele>1389.0944123894</ele>
        <time>2015-04-22T11:22:00Z</time>
      </trkpt>
      <trkpt lat="44.60781" lon="3.60944">
        <ele>1389.0944123894</ele>
        <time>2015-04-22T11:22:05Z</time>
      </trkpt>
      <trkpt lat="44.60789" lon="3.60944">
        <ele>1388.7574747287</ele>
        <time>2015-04-22T11:22:10Z</time>
      </trkpt>
      <trkpt lat="44.60793" lon="3.60945">
        <ele>1388.7574747287</ele>
        <time>2015-04-22T11:22:15Z</time>
      </trkpt>
      <trkpt lat="44.608" lon="3.6094">
        <ele>1388.7752614395</ele>
        <time>2015-04-22T11:22:20Z</time>
      </trkpt>
      <trkpt lat="44.60808" lon="3.60937">
        <ele>1388.7752614395</ele>
        <time>2015-04-22T11:22:25Z</time>
      </trkpt>
      <trkpt lat="44.60817" lon="3.60936">
        <ele>1389.0944291643</ele>
        <time>2015-04-22T11:22:30Z</time>
      </trkpt>
      <trkpt lat="44.60823" lon="3.60935">
        <ele>1389.0944291643</ele>
        <time>2015-04-22T11:22:35Z</time>
      </trkpt>
      <trkpt lat="44.60826" lon="3.60934">
        <ele>1389.2323854585</ele>
        <time>2015-04-22T11:22:40Z</time>
      </trkpt>
      <trkpt lat="44.60832" lon="3.60932">
        <ele>1389.2323854585</ele>
        <time>2015-04-22T11:22:45Z</time>
      </trkpt>
      <trkpt lat="44.60837" lon="3.6093">
        <ele>1389.3765925961</ele>
        <time>2015-04-22T11:22:50Z</time>
      </trkpt>
      <trkpt lat="44.60845" lon="3.60925">
        <ele>1389.3765925961</ele>
        <time>2015-04-22T11:22:55Z</time>
      </trkpt>
      <trkpt lat="44.60851" lon="3.60923">
        <ele>1389.513382249</ele>
        <time>2015-04-22T11:23:00Z</time>
      </trkpt>
      <trkpt lat="44.60859" lon="3.60918">
        <ele>1389.1977753859</ele>
        <time>2015-04-22T11:23:05Z</time>
      </trkpt>
      <trkpt lat="44.60866" lon="3.60913">
        <ele>1389.1977753859</ele>
        <time>2015-04-22T11:23:10Z</time>
      </trkpt>
      <trkpt lat="44.60872" lon="3.60908">
        <ele>1388.9842879801</ele>
        <time>2015-04-22T11:23:15Z</time>
      </trkpt>
      <trkpt lat="44.60878" lon="3.60903">
        <ele>1388.9842879801</ele>
        <time>2015-04-22T11:23:20Z</time>
      </trkpt>
      <trkpt lat="44.60885" lon="3.60898">
        <ele>1388.8964253965</ele>
        <time>2015-04-22T11:23:25Z</time>
      </trkpt>
      <trkpt lat="44.6089" lon="3.60893">
        <ele>1388.8964253965</ele>
        <time>2015-04-22T11:23:30Z</time>
      </trkpt>
      <trkpt lat="44.60894" lon="3.60888">
        <ele>1389.2294090372</ele>
        <time>2015-04-22T11:23:35Z</time>
      </trkpt>
      <trkpt lat="44.60898" lon="3.60882">
        <ele>1389.2294090372</ele>
        <time>2015-04-22T11:23:40Z</time>
      </trkpt>
      <trkpt lat="44.60904" lon="3.60876">
        <ele>1389.1747388844</ele>
        <time>2015-04-22T11:23:45Z</time>
      </trkpt>
      <trkpt lat="44.60907" lon="3.60868">
        <ele>1389.1747388844</ele>
        <time>2015-04-22T11:23:50Z</time>
      </trkpt>
      <trkpt lat="44.60911" lon="3.60862">
        <ele>1388.8778597777</ele>
        <time>2015-04-22T11:23:55Z</time>
      </trkpt>
      <trkpt lat="44.60915" lon="3.60858">
        <ele>1388.8778597777</ele>
        <time>2015-04-22T11:24:00Z</time>
      </trkpt>
      <trkpt lat="44.60919" lon="3.60852">
        <ele>1389.0938635597</ele>
        <time>2015-04-22T11:24:05Z</time>
      </trkpt>
      <trkpt lat="44.60922" lon="3.60846">
        <ele>1389.0938635597</ele>
        <time>2015-04-22T11:24:10Z</time>
      </trkpt>
      <trkpt lat="44.60926" lon="3.60841">
        <ele>1389.1230277113</ele>
        <time>2015-04-22T11:24:15Z</time>
      </trkpt>
      <trkpt lat="44.60929" lon="3.60836">
        <ele>1389.1230277113</ele>
        <time>2015-04-22T11:24:20Z</time>
      </trkpt>
      <trkpt lat="44.60932" lon="3.6083">
        <ele>1389.2110133394</ele>
        <time>2015-04-22T11:24:25Z</time>
      </trkpt>
      <trkpt lat="44.60932" lon="3.60821">
        <ele>1389.2110133394</ele>
        <time>2015-04-22T11:24:30Z</time>
      </trkpt>
      <trkpt lat="44.60932" lon="3.60814">
        <ele>1388.7349809655</ele>
        <time>2015-04-22T11:24:35Z</time>
      </trkpt>
      <trkpt lat="44.60934" lon="3.60809">
        <ele>1388.7349809655</ele>
        <time>2015-04-22T11:24:40Z</time>
      </trkpt>
      <trkpt lat="44.60938" lon="3.608">
        <ele>1388.1569907905</ele>
        <time>2015-04-22T11:24:45Z</time>
      </trkpt>
      <trkpt lat="44.60941" lon="3.60796">
        <ele>1388.1569907905</ele>
        <time>2015-04-22T11:24:50Z</time>
      </trkpt>
      <trkpt lat="44.60945" lon="3.60793">
        <ele>1388.1569907905</ele>
        <time>2015-04-22T11:24:55Z</time>
      </trkpt>
      <trkpt lat="44.60944" lon="3.6079">
        <ele>1388.0062846313</ele>
        <time>2015-04-22T11:25:00Z</time>
      </trkpt>
      <trkpt lat="44.60944" lon="3.60785">
        <ele>1388.0062846313</ele>
        <time>2015-04-22T11:25:05Z</time>
      </trkpt>
      <trkpt lat="44.60946" lon="3.6078">
        <ele>1388.0062846313</ele>
        <time>2015-04-22T11:25:10Z</time>
      </trkpt>
      <trkpt lat="44.60946" lon="3.60778">
        <ele>1388.0062846313</ele>
        <time>2015-04-22T11:25:15Z</time>
      </trkpt>
      <trkpt lat="44.60948" lon="3.60772">
        <ele>1387.532628216</ele>
        <time>2015-04-22T11:25:20Z</time>
      </trkpt>
      <trkpt lat="44.60949" lon="3.60766">
        <ele>1387.532628216</ele>
        <time>2015-04-22T11:25:25Z</time>
      </trkpt>
      <trkpt lat="44.60948" lon="3.60756">
        <ele>1387.3243471126</ele>
        <time>2015-04-22T11:25:30Z</time>
      </trkpt>
      <trkpt lat="44.60947" lon="3.60747">
        <ele>1387.3243471126</ele>
        <time>2015-04-22T11:25:35Z</time>
      </trkpt>
      <trkpt lat="44.60948" lon="3.60739">
        <ele>1387.1619651511</ele>
        <time>2015-04-22T11:25:40Z</time>
      </trkpt>
      <trkpt lat="44.60946" lon="3.60732">
        <ele>1387.1619651511</ele>
        <time>2015-04-22T11:25:45Z</time>
      </trkpt>
      <trkpt lat="44.60948" lon="3.60724">
        <ele>1386.7843032409</ele>
        <time>2015-04-22T11:25:50Z</time>
      </trkpt>
      <trkpt lat="44.6095" lon="3.60717">
        <ele>1386.7843032409</ele>
        <time>2015-04-22T11:25:55Z</time>
      </trkpt>
      <trkpt lat="44.60949" lon="3.60712">
        <ele>1386.2093177394</ele>
        <time>2015-04-22T11:26:00Z</time>
      </trkpt>
      <trkpt lat="44.60948" lon="3.60706">
        <ele>1386.2093177394</ele>
        <time>2015-04-22T11:26:05Z</time>
      </trkpt>
      <trkpt lat="44.60948" lon="3.60697">
        <ele>1386.3620442038</ele>
        <time>2015-04-22T11:26:10Z</time>
      </trkpt>
      <trkpt lat="44.60945" lon="3.60686">
        <ele>1386.3620442038</ele>
        <time>2015-04-22T11:26:15Z</time>
      </trkpt>
      <trkpt lat="44.60944" lon="3.60679">
        <ele>1386.6131231444</ele>
        <time>2015-04-22T11:26:20Z</time>
      </trkpt>
      <trkpt lat="44.60942" lon="3.60672">
        <ele>1386.6131231444</ele>
        <time>2015-04-22T11:26:25Z</time>
      </trkpt>
      <trkpt lat="44.60942" lon="3.60666">
        <ele>1386.7105517028</ele>
        <time>2015-04-22T11:26:30Z</time>
      </trkpt>
      <trkpt lat="44.60942" lon="3.60659">
        <ele>1386.7105517028</ele>
        <time>2015-04-22T11:26:35Z</time>
      </trkpt>
      <trkpt lat="44.60941" lon="3.60654">
        <ele>1386.7105517028</ele>
        <time>2015-04-22T11:26:40Z</time>
      </trkpt>
      <trkpt lat="44.6094" lon="3.60647">
        <ele>1386.7526719053</ele>
        <time>2015-04-22T11:26:45Z</time>
      </trkpt>
      <trkpt lat="44.60938" lon="3.6064">
        <ele>1386.7526719053</ele>
        <time>2015-04-22T11:26:50Z</time>
      </trkpt>
      <trkpt lat="44.60937" lon="3.60635">
        <ele>1386.5280715931</ele>
        <time>2015-04-22T11:26:55Z</time>
      </trkpt>
      <trkpt lat="44.60936" lon="3.60626">
        <ele>1386.5280715931</ele>
        <time>2015-04-22T11:27:00Z</time>
      </trkpt>
      <trkpt lat="44.60935" lon="3.60619">
        <ele>1386.201844471</ele>
        <time>2015-04-22T11:27:05Z</time>
      </trkpt>
      <trkpt lat="44.60934" lon="3.60612">
        <ele>1386.201844471</ele>
        <time>2015-04-22T11:27:10Z</time>
      </trkpt>
      <trkpt lat="44.60935" lon="3.60605">
        <ele>1386.1721809553</ele>
        <time>2015-04-22T11:27:15Z</time>
      </trkpt>
      <trkpt lat="44.60935" lon="3.60597">
        <ele>1386.1721809553</ele>
        <time>2015-04-22T11:27:20Z</time>
      </trkpt>
      <trkpt lat="44.60935" lon="3.60587">
        <ele>1386.1730504098</ele>
        <time>2015-04-22T11:27:25Z</time>
      </trkpt>
      <trkpt lat="44.60936" lon="3.60579">
        <ele>1386.1730504098</ele>
        <time>2015-04-22T11:27:30Z</time>
      </trkpt>
      <trkpt lat="44.60936" lon="3.60571">
        <ele>1386.3181087625</ele>
        <time>2015-04-22T11:27:35Z</time>
      </trkpt>
      <trkpt lat="44.60936" lon="3.60566">
        <ele>1386.3181087625</ele>
        <time>2015-04-22T11:27:40Z</time>
      </trkpt>
      <trkpt lat="44.60936" lon="3.60559">
        <ele>1386.4095784211</ele>
        <time>2015-04-22T11:27:45Z</time>
      </trkpt>
      <trkpt lat="44.60936" lon="3.60551">
        <ele>1386.4095784211</ele>
        <time>2015-04-22T11:27:50Z</time>
      </trkpt>
      <trkpt lat="44.60936" lon="3.60546">
        <ele>1386.5237167831</ele>
        <time>2015-04-22T11:27:55Z</time>
      </trkpt>
      <trkpt lat="44.60936" lon="3.60545">
        <ele>1386.5237167831</ele>
        <time>2015-04-22T11:28:00Z</time>
      </trkpt>
      <trkpt lat="44.60936" lon="3.60538">
        <ele>1386.5237167831</ele>
        <time>2015-04-22T11:28:05Z</time>
      </trkpt>
      <trkpt lat="44.60937" lon="3.6053">
        <ele>1386.5004962681</ele>
        <time>2015-04-22T11:28:10Z</time>
      </trkpt>
      <trkpt lat="44.60937" lon="3.60519">
        <ele>1386.5004962681</ele>
        <time>2015-04-22T11:28:15Z</time>
      </trkpt>
      <trkpt lat="44.60938" lon="3.60512">
        <ele>1386.8116693315</ele>
        <time>2015-04-22T11:28:20Z</time>
      </trkpt>
      <trkpt lat="44.6094" lon="3.60501">
        <ele>1386.8116693315</ele>
        <time>2015-04-22T11:28:25Z</time>
      </trkpt>
      <trkpt lat="44.60943" lon="3.60493">
        <ele>1386.8845811624</ele>
        <time>2015-04-22T11:28:30Z</time>
      </trkpt>
      <trkpt lat="44.60945" lon="3.60484">
        <ele>1386.8845811624</ele>
        <time>2015-04-22T11:28:35Z</time>
      </trkpt>
      <trkpt lat="44.60947" lon="3.60475">
        <ele>1386.9963009806</ele>
        <time>2015-04-22T11:28:40Z</time>
      </trkpt>
      <trkpt lat="44.60948" lon="3.60468">
        <ele>1386.9963009806</ele>
        <time>2015-04-22T11:28:45Z</time>
      </trkpt>
      <trkpt lat="44.60956" lon="3.60442">
        <ele>1386.9710708129</ele>
        <time>2015-04-22T11:28:50Z</time>
      </trkpt>
      <trkpt lat="44.60961" lon="3.60412">
        <ele>1386.9202097306</ele>
        <time>2015-04-22T11:28:55Z</time>
      </trkpt>
      <trkpt lat="44.60962" lon="3.60398">
        <ele>1386.9324922508</ele>
        <time>2015-04-22T11:29:00Z</time>
      </trkpt>
      <trkpt lat="44.60963" lon="3.60389">
        <ele>1386.9324922508</ele>
        <time>2015-04-22T11:29:05Z</time>
      </trkpt>
      <trkpt lat="44.60963" lon="3.6038">
        <ele>1386.8017452509</ele>
        <time>2015-04-22T11:29:10Z</time>
      </trkpt>
      <trkpt lat="44.60964" lon="3.60371">
        <ele>1386.8017452509</ele>
        <time>2015-04-22T11:29:15Z</time>
      </trkpt>
      <trkpt lat="44.60963" lon="3.60359">
        <ele>1386.740827507</ele>
        <time>2015-04-22T11:29:20Z</time>
      </trkpt>
      <trkpt lat="44.60962" lon="3.60349">
        <ele>1386.740827507</ele>
        <time>2015-04-22T11:29:25Z</time>
      </trkpt>
      <trkpt lat="44.60961" lon="3.6034">
        <ele>1386.6296955892</ele>
        <time>2015-04-22T11:29:30Z</time>
      </trkpt>
      <trkpt lat="44.60959" lon="3.6033">
        <ele>1386.6296955892</ele>
        <time>2015-04-22T11:29:35Z</time>
      </trkpt>
      <trkpt lat="44.60958" lon="3.60321">
        <ele>1386.4581182944</ele>
        <time>2015-04-22T11:29:40Z</time>
      </trkpt>
      <trkpt lat="44.60956" lon="3.60312">
        <ele>1386.4581182944</ele>
        <time>2015-04-22T11:29:45Z</time>
      </trkpt>
      <trkpt lat="44.60955" lon="3.60304">
        <ele>1386.3464612334</ele>
        <time>2015-04-22T11:29:50Z</time>
      </trkpt>
      <trkpt lat="44.60953" lon="3.60292">
        <ele>1386.3464612334</ele>
        <time>2015-04-22T11:29:55Z</time>
      </trkpt>
      <trkpt lat="44.60951" lon="3.60285">
        <ele>1386.1178334073</ele>
        <time>2015-04-22T11:30:00Z</time>
      </trkpt>
      <trkpt lat="44.6095" lon="3.60275">
        <ele>1386.1178334073</ele>
        <time>2015-04-22T11:30:05Z</time>
      </trkpt>
      <trkpt lat="44.60949" lon="3.60265">
        <ele>1385.8248087277</ele>
        <time>2015-04-22T11:30:10Z</time>
      </trkpt>
      <trkpt lat="44.60948" lon="3.60258">
        <ele>1385.8248087277</ele>
        <time>2015-04-22T11:30:15Z</time>
      </trkpt>
      <trkpt lat="44.60948" lon="3.60249">
        <ele>1385.5306662392</ele>
        <time>2015-04-22T11:30:20Z</time>
      </trkpt>
      <trkpt lat="44.60946" lon="3.60238">
        <ele>1385.5306662392</ele>
        <time>2015-04-22T11:30:25Z</time>
      </trkpt>
      <trkpt lat="44.60946" lon="3.60229">
        <ele>1385.2363701376</ele>
        <time>2015-04-22T11:30:30Z</time>
      </trkpt>
      <trkpt lat="44.60948" lon="3.60221">
        <ele>1385.2363701376</ele>
        <time>2015-04-22T11:30:35Z</time>
      </trkpt>
      <trkpt lat="44.60949" lon="3.60212">
        <ele>1384.9716107616</ele>
        <time>2015-04-22T11:30:40Z</time>
      </trkpt>
      <trkpt lat="44.60949" lon="3.60204">
        <ele>1384.9716107616</ele>
        <time>2015-04-22T11:30:45Z</time>
      </trkpt>
      <trkpt lat="44.6095" lon="3.60197">
        <ele>1384.7349661389</ele>
        <time>2015-04-22T11:30:50Z</time>
      </trkpt>
      <trkpt lat="44.60951" lon="3.60186">
        <ele>1384.7349661389</ele>
        <time>2015-04-22T11:30:55Z</time>
      </trkpt>
      <trkpt lat="44.60952" lon="3.60179">
        <ele>1384.4673689015</ele>
        <time>2015-04-22T11:31:00Z</time>
      </trkpt>
      <trkpt lat="44.60955" lon="3.60169">
        <ele>1384.4673689015</ele>
        <time>2015-04-22T11:31:05Z</time>
      </trkpt>
      <trkpt lat="44.60956" lon="3.60162">
        <ele>1384.128561892</ele>
        <time>2015-04-22T11:31:10Z</time>
      </trkpt>
      <trkpt lat="44.60957" lon="3.60152">
        <ele>1384.128561892</ele>
        <time>2015-04-22T11:31:15Z</time>
      </trkpt>
      <trkpt lat="44.60957" lon="3.60151">
        <ele>1384.128561892</ele>
        <time>2015-04-22T11:31:20Z</time>
      </trkpt>
      <trkpt lat="44.60957" lon="3.60145">
        <ele>1383.767884618</ele>
        <time>2015-04-22T11:31:25Z</time>
      </trkpt>
      <trkpt lat="44.60958" lon="3.60143">
        <ele>1383.767884618</ele>
        <time>2015-04-22T11:31:30Z</time>
      </trkpt>
      <trkpt lat="44.60959" lon="3.60142">
        <ele>1383.767884618</ele>
        <time>2015-04-22T11:31:35Z</time>
      </trkpt>
      <trkpt lat="44.60959" lon="3.60142">
        <ele>1383.767884618</ele>
        <time>2015-04-22T11:31:40Z</time>
      </trkpt>
      <trkpt lat="44.60959" lon="3.60142">
        <ele>1383.767884618</ele>
        <time>2015-04-22T11:31:45Z</time>
      </trkpt>
      <trkpt lat="44.6096" lon="3.60142">
        <ele>1383.767884618</ele>
        <time>2015-04-22T11:31:50Z</time>
      </trkpt>
      <trkpt lat="44.6096" lon="3.60142">
        <ele>1383.767884618</ele>
        <time>2015-04-22T11:31:55Z</time>
      </trkpt>
      <trkpt lat="44.60961" lon="3.6014">
        <ele>1383.767884618</ele>
        <time>2015-04-22T11:32:00Z</time>
      </trkpt>
      <trkpt lat="44.60962" lon="3.60134">
        <ele>1383.2149189672</ele>
        <time>2015-04-22T11:32:05Z</time>
      </trkpt>
      <trkpt lat="44.60962" lon="3.6013">
        <ele>1383.2149189672</ele>
        <time>2015-04-22T11:32:10Z</time>
      </trkpt>
      <trkpt lat="44.60962" lon="3.6013">
        <ele>1383.2149189672</ele>
        <time>2015-04-22T11:32:15Z</time>
      </trkpt>
      <trkpt lat="44.60962" lon="3.6013">
        <ele>1383.2149189672</ele>
        <time>2015-04-22T11:32:20Z</time>
      </trkpt>
      <trkpt lat="44.60962" lon="3.60129">
        <ele>1383.2149189672</ele>
        <time>2015-04-22T11:32:25Z</time>
      </trkpt>
      <trkpt lat="44.60961" lon="3.6013">
        <ele>1383.2149189672</ele>
        <time>2015-04-22T11:32:30Z</time>
      </trkpt>
      <trkpt lat="44.60961" lon="3.60127">
        <ele>1383.2149189672</ele>
        <time>2015-04-22T11:32:35Z</time>
      </trkpt>
      <trkpt lat="44.60961" lon="3.6012">
        <ele>1382.4419759086</ele>
        <time>2015-04-22T11:32:40Z</time>
      </trkpt>
      <trkpt lat="44.60962" lon="3.60114">
        <ele>1382.4419759086</ele>
        <time>2015-04-22T11:32:45Z</time>
      </trkpt>
      <trkpt lat="44.60963" lon="3.60104">
        <ele>1381.8274977959</ele>
        <time>2015-04-22T11:32:50Z</time>
      </trkpt>
      <trkpt lat="44.60965" lon="3.60095">
        <ele>1381.8274977959</ele>
        <time>2015-04-22T11:32:55Z</time>
      </trkpt>
      <trkpt lat="44.60965" lon="3.60089">
        <ele>1381.0155040097</ele>
        <time>2015-04-22T11:33:00Z</time>
      </trkpt>
      <trkpt lat="44.60966" lon="3.6008">
        <ele>1381.0155040097</ele>
        <time>2015-04-22T11:33:05Z</time>
      </trkpt>
      <trkpt lat="44.60966" lon="3.60071">
        <ele>1380.2963598592</ele>
        <time>2015-04-22T11:33:10Z</time>
      </trkpt>
      <trkpt lat="44.60965" lon="3.60059">
        <ele>1380.2963598592</ele>
        <time>2015-04-22T11:33:15Z</time>
      </trkpt>
      <trkpt lat="44.60965" lon="3.6005">
        <ele>1379.7946903393</ele>
        <time>2015-04-22T11:33:20Z</time>
      </trkpt>
      <trkpt lat="44.60966" lon="3.60042">
        <ele>1379.7946903393</ele>
        <time>2015-04-22T11:33:25Z</time>
      </trkpt>
      <trkpt lat="44.60967" lon="3.60033">
        <ele>1379.1065146379</ele>
        <time>2015-04-22T11:33:30Z</time>
      </trkpt>
      <trkpt lat="44.60967" lon="3.60024">
        <ele>1379.1065146379</ele>
        <time>2015-04-22T11:33:35Z</time>
      </trkpt>
      <trkpt lat="44.60969" lon="3.60015">
        <ele>1378.5209205936</ele>
        <time>2015-04-22T11:33:40Z</time>
      </trkpt>
      <trkpt lat="44.6097" lon="3.60005">
        <ele>1378.5209205936</ele>
        <time>2015-04-22T11:33:45Z</time>
      </trkpt>
      <trkpt lat="44.60969" lon="3.59995">
        <ele>1378.0460291183</ele>
        <time>2015-04-22T11:33:50Z</time>
      </trkpt>
      <trkpt lat="44.60971" lon="3.59985">
        <ele>1378.0460291183</ele>
        <time>2015-04-22T11:33:55Z</time>
      </trkpt>
      <trkpt lat="44.60972" lon="3.59979">
        <ele>1377.5160774322</ele>
        <time>2015-04-22T11:34:00Z</time>
      </trkpt>
      <trkpt lat="44.60972" lon="3.59972">
        <ele>1377.5160774322</ele>
        <time>2015-04-22T11:34:05Z</time>
      </trkpt>
      <trkpt lat="44.60972" lon="3.59963">
        <ele>1377.0369909744</ele>
        <time>2015-04-22T11:34:10Z</time>
      </trkpt>
      <trkpt lat="44.60971" lon="3.59952">
        <ele>1377.0369909744</ele>
        <time>2015-04-22T11:34:15Z</time>
      </trkpt>
      <trkpt lat="44.60971" lon="3.59942">
        <ele>1376.4040948246</ele>
        <time>2015-04-22T11:34:20Z</time>
      </trkpt>
      <trkpt lat="44.60972" lon="3.59935">
        <ele>1376.4040948246</ele>
        <time>2015-04-22T11:34:25Z</time>
      </trkpt>
      <trkpt lat="44.60974" lon="3.59926">
        <ele>1375.9181163042</ele>
        <time>2015-04-22T11:34:30Z</time>
      </trkpt>
      <trkpt lat="44.60977" lon="3.59914">
        <ele>1375.5546040827</ele>
        <time>2015-04-22T11:34:35Z</time>
      </trkpt>
      <trkpt lat="44.60979" lon="3.59904">
        <ele>1375.5546040827</ele>
        <time>2015-04-22T11:34:40Z</time>
      </trkpt>
      <trkpt lat="44.60979" lon="3.59896">
        <ele>1375.146407414</ele>
        <time>2015-04-22T11:34:45Z</time>
      </trkpt>
      <trkpt lat="44.60981" lon="3.59888">
        <ele>1375.146407414</ele>
        <time>2015-04-22T11:34:50Z</time>
      </trkpt>
      <trkpt lat="44.60983" lon="3.59877">
        <ele>1375.0863631195</ele>
        <time>2015-04-22T11:34:55Z</time>
      </trkpt>
      <trkpt lat="44.60985" lon="3.5987">
        <ele>1375.0863631195</ele>
        <time>2015-04-22T11:35:00Z</time>
      </trkpt>
      <trkpt lat="44.60988" lon="3.59859">
        <ele>1374.9592370146</ele>
        <time>2015-04-22T11:35:05Z</time>
      </trkpt>
      <trkpt lat="44.6099" lon="3.59852">
        <ele>1374.9592370146</ele>
        <time>2015-04-22T11:35:10Z</time>
      </trkpt>
      <trkpt lat="44.60991" lon="3.59844">
        <ele>1374.668674693</ele>
        <time>2015-04-22T11:35:15Z</time>
      </trkpt>
      <trkpt lat="44.60992" lon="3.59835">
        <ele>1374.668674693</ele>
        <time>2015-04-22T11:35:20Z</time>
      </trkpt>
      <trkpt lat="44.60994" lon="3.59827">
        <ele>1374.4428724877</ele>
        <time>2015-04-22T11:35:25Z</time>
      </trkpt>
      <trkpt lat="44.60996" lon="3.59818">
        <ele>1374.4428724877</ele>
        <time>2015-04-22T11:35:30Z</time>
      </trkpt>
      <trkpt lat="44.60997" lon="3.59809">
        <ele>1374.0318984744</ele>
        <time>2015-04-22T11:35:35Z</time>
      </trkpt>
      <trkpt lat="44.60999" lon="3.59798">
        <ele>1374.0318984744</ele>
        <time>2015-04-22T11:35:40Z</time>
      </trkpt>
      <trkpt lat="44.61" lon="3.59789">
        <ele>1373.5793634261</ele>
        <time>2015-04-22T11:35:45Z</time>
      </trkpt>
      <trkpt lat="44.61001" lon="3.59781">
        <ele>1373.5793634261</ele>
        <time>2015-04-22T11:35:50Z</time>
      </trkpt>
      <trkpt lat="44.61001" lon="3.59771">
        <ele>1373.0743096647</ele>
        <time>2015-04-22T11:35:55Z</time>
      </trkpt>
      <trkpt lat="44.61001" lon="3.59765">
        <ele>1373.0743096647</ele>
        <time>2015-04-22T11:36:00Z</time>
      </trkpt>
      <trkpt lat="44.61" lon="3.59755">
        <ele>1372.6508196541</ele>
        <time>2015-04-22T11:36:05Z</time>
      </trkpt>
      <trkpt lat="44.60999" lon="3.59745">
        <ele>1372.6508196541</ele>
        <time>2015-04-22T11:36:10Z</time>
      </trkpt>
      <trkpt lat="44.60997" lon="3.59733">
        <ele>1372.4761085854</ele>
        <time>2015-04-22T11:36:15Z</time>
      </trkpt>
      <trkpt lat="44.60995" lon="3.59722">
        <ele>1372.4761085854</ele>
        <time>2015-04-22T11:36:20Z</time>
      </trkpt>
      <trkpt lat="44.60993" lon="3.59711">
        <ele>1372.4449896074</ele>
        <time>2015-04-22T11:36:25Z</time>
      </trkpt>
      <trkpt lat="44.60991" lon="3.59703">
        <ele>1372.4449896074</ele>
        <time>2015-04-22T11:36:30Z</time>
      </trkpt>
      <trkpt lat="44.60988" lon="3.59695">
        <ele>1372.1857702959</ele>
        <time>2015-04-22T11:36:35Z</time>
      </trkpt>
      <trkpt lat="44.60985" lon="3.59686">
        <ele>1372.1857702959</ele>
        <time>2015-04-22T11:36:40Z</time>
      </trkpt>
      <trkpt lat="44.60981" lon="3.59675">
        <ele>1371.8878976794</ele>
        <time>2015-04-22T11:36:45Z</time>
      </trkpt>
      <trkpt lat="44.60978" lon="3.59665">
        <ele>1371.8878976794</ele>
        <time>2015-04-22T11:36:50Z</time>
      </trkpt>
      <trkpt lat="44.60975" lon="3.59657">
        <ele>1371.510830015</ele>
        <time>2015-04-22T11:36:55Z</time>
      </trkpt>
      <trkpt lat="44.60972" lon="3.59651">
        <ele>1371.510830015</ele>
        <time>2015-04-22T11:37:00Z</time>
      </trkpt>
      <trkpt lat="44.6097" lon="3.59646">
        <ele>1371.510830015</ele>
        <time>2015-04-22T11:37:05Z</time>
      </trkpt>
      <trkpt lat="44.60968" lon="3.5964">
        <ele>1371.103680452</ele>
        <time>2015-04-22T11:37:10Z</time>
      </trkpt>
      <trkpt lat="44.60965" lon="3.59631">
        <ele>1371.103680452</ele>
        <time>2015-04-22T11:37:15Z</time>
      </trkpt>
      <trkpt lat="44.60962" lon="3.59623">
        <ele>1370.4958604236</ele>
        <time>2015-04-22T11:37:20Z</time>
      </trkpt>
      <trkpt lat="44.60959" lon="3.59615">
        <ele>1370.4958604236</ele>
        <time>2015-04-22T11:37:25Z</time>
      </trkpt>
      <trkpt lat="44.60956" lon="3.59604">
        <ele>1369.8901420879</ele>
        <time>2015-04-22T11:37:30Z</time>
      </trkpt>
      <trkpt lat="44.60955" lon="3.59597">
        <ele>1369.8901420879</ele>
        <time>2015-04-22T11:37:35Z</time>
      </trkpt>
      <trkpt lat="44.60953" lon="3.59587">
        <ele>1369.2293951546</ele>
        <time>2015-04-22T11:37:40Z</time>
      </trkpt>
      <trkpt lat="44.60951" lon="3.59576">
        <ele>1369.2293951546</ele>
        <time>2015-04-22T11:37:45Z</time>
      </trkpt>
      <trkpt lat="44.6095" lon="3.59566">
        <ele>1368.7058166295</ele>
        <time>2015-04-22T11:37:50Z</time>
      </trkpt>
      <trkpt lat="44.60948" lon="3.59555">
        <ele>1368.7058166295</ele>
        <time>2015-04-22T11:37:55Z</time>
      </trkpt>
      <trkpt lat="44.60948" lon="3.59545">
        <ele>1368.3241532023</ele>
        <time>2015-04-22T11:38:00Z</time>
      </trkpt>
      <trkpt lat="44.60948" lon="3.59538">
        <ele>1368.3241532023</ele>
        <time>2015-04-22T11:38:05Z</time>
      </trkpt>
      <trkpt lat="44.60948" lon="3.59526">
        <ele>1368.0451579795</ele>
        <time>2015-04-22T11:38:10Z</time>
      </trkpt>
      <trkpt lat="44.60949" lon="3.59516">
        <ele>1368.0451579795</ele>
        <time>2015-04-22T11:38:15Z</time>
      </trkpt>
      <trkpt lat="44.6095" lon="3.59506">
        <ele>1367.1116093829</ele>
        <time>2015-04-22T11:38:20Z</time>
      </trkpt>
      <trkpt lat="44.60951" lon="3.59499">
        <ele>1367.1116093829</ele>
        <time>2015-04-22T11:38:25Z</time>
      </trkpt>
      <trkpt lat="44.60954" lon="3.59488">
        <ele>1366.3657224372</ele>
        <time>2015-04-22T11:38:30Z</time>
      </trkpt>
      <trkpt lat="44.60957" lon="3.59477">
        <ele>1366.3657224372</ele>
        <time>2015-04-22T11:38:35Z</time>
      </trkpt>
      <trkpt lat="44.60962" lon="3.59459">
        <ele>1365.5929349682</ele>
        <time>2015-04-22T11:38:40Z</time>
      </trkpt>
      <trkpt lat="44.60968" lon="3.59444">
        <ele>1365.0844835844</ele>
        <time>2015-04-22T11:38:45Z</time>
      </trkpt>
      <trkpt lat="44.60972" lon="3.59435">
        <ele>1365.0844835844</ele>
        <time>2015-04-22T11:38:50Z</time>
      </trkpt>
      <trkpt lat="44.60976" lon="3.59428">
        <ele>1364.2447841975</ele>
        <time>2015-04-22T11:38:55Z</time>
      </trkpt>
      <trkpt lat="44.60979" lon="3.59422">
        <ele>1364.2447841975</ele>
        <time>2015-04-22T11:39:00Z</time>
      </trkpt>
      <trkpt lat="44.60983" lon="3.59414">
        <ele>1363.3011139223</ele>
        <time>2015-04-22T11:39:05Z</time>
      </trkpt>
      <trkpt lat="44.60987" lon="3.59404">
        <ele>1363.3011139223</ele>
        <time>2015-04-22T11:39:10Z</time>
      </trkpt>
      <trkpt lat="44.60991" lon="3.59396">
        <ele>1362.2193354049</ele>
        <time>2015-04-22T11:39:15Z</time>
      </trkpt>
      <trkpt lat="44.60995" lon="3.59386">
        <ele>1362.2193354049</ele>
        <time>2015-04-22T11:39:20Z</time>
      </trkpt>
      <trkpt lat="44.60999" lon="3.59378">
        <ele>1361.2708162057</ele>
        <time>2015-04-22T11:39:25Z</time>
      </trkpt>
      <trkpt lat="44.61002" lon="3.59369">
        <ele>1361.2708162057</ele>
        <time>2015-04-22T11:39:30Z</time>
      </trkpt>
      <trkpt lat="44.61005" lon="3.59364">
        <ele>1360.4616004373</ele>
        <time>2015-04-22T11:39:35Z</time>
      </trkpt>
      <trkpt lat="44.61011" lon="3.59354">
        <ele>1360.4616004373</ele>
        <time>2015-04-22T11:39:40Z</time>
      </trkpt>
      <trkpt lat="44.61014" lon="3.59347">
        <ele>1359.3357128729</ele>
        <time>2015-04-22T11:39:45Z</time>
      </trkpt>
      <trkpt lat="44.61018" lon="3.5934">
        <ele>1359.3357128729</ele>
        <time>2015-04-22T11:39:50Z</time>
      </trkpt>
      <trkpt lat="44.61022" lon="3.59332">
        <ele>1358.3794316769</ele>
        <time>2015-04-22T11:39:55Z</time>
      </trkpt>
      <trkpt lat="44.6103" lon="3.59319">
        <ele>1357.7401717529</ele>
        <time>2015-04-22T11:40:00Z</time>
      </trkpt>
      <trkpt lat="44.61045" lon="3.59295">
        <ele>1357.2797856529</ele>
        <time>2015-04-22T11:40:05Z</time>
      </trkpt>
      <trkpt lat="44.61062" lon="3.59273">
        <ele>1356.7688621334</ele>
        <time>2015-04-22T11:40:10Z</time>
      </trkpt>
      <trkpt lat="44.61076" lon="3.59257">
        <ele>1356.3408202689</ele>
        <time>2015-04-22T11:40:15Z</time>
      </trkpt>
      <trkpt lat="44.61092" lon="3.59237">
        <ele>1356.0325510795</ele>
        <time>2015-04-22T11:40:20Z</time>
      </trkpt>
      <trkpt lat="44.61112" lon="3.59215">
        <ele>1355.9499306706</ele>
        <time>2015-04-22T11:40:25Z</time>
      </trkpt>
      <trkpt lat="44.61127" lon="3.59197">
        <ele>1355.8733593851</ele>
        <time>2015-04-22T11:40:30Z</time>
      </trkpt>
      <trkpt lat="44.61148" lon="3.59172">
        <ele>1355.4408132747</ele>
        <time>2015-04-22T11:40:35Z</time>
      </trkpt>
      <trkpt lat="44.61164" lon="3.59156">
        <ele>1354.9519371954</ele>
        <time>2015-04-22T11:40:40Z</time>
      </trkpt>
      <trkpt lat="44.61179" lon="3.59137">
        <ele>1354.5692234927</ele>
        <time>2015-04-22T11:40:45Z</time>
      </trkpt>
      <trkpt lat="44.61202" lon="3.59115">
        <ele>1354.1114666847</ele>
        <time>2015-04-22T11:40:50Z</time>
      </trkpt>
      <trkpt lat="44.6122" lon="3.59096">
        <ele>1353.684788103</ele>
        <time>2015-04-22T11:40:55Z</time>
      </trkpt>
      <trkpt lat="44.61238" lon="3.59076">
        <ele>1353.0271432858</ele>
        <time>2015-04-22T11:41:00Z</time>
      </trkpt>
      <trkpt lat="44.61246" lon="3.59063">
        <ele>1352.227836453</ele>
        <time>2015-04-22T11:41:05Z</time>
      </trkpt>
      <trkpt lat="44.61251" lon="3.5906">
        <ele>1352.227836453</ele>
        <time>2015-04-22T11:41:10Z</time>
      </trkpt>
      <trkpt lat="44.61259" lon="3.59053">
        <ele>1351.4276486862</ele>
        <time>2015-04-22T11:41:15Z</time>
      </trkpt>
      <trkpt lat="44.61265" lon="3.59049">
        <ele>1351.4276486862</ele>
        <time>2015-04-22T11:41:20Z</time>
      </trkpt>
      <trkpt lat="44.61272" lon="3.59043">
        <ele>1350.612904986</ele>
        <time>2015-04-22T11:41:25Z</time>
      </trkpt>
      <trkpt lat="44.61278" lon="3.59039">
        <ele>1350.612904986</ele>
        <time>2015-04-22T11:41:30Z</time>
      </trkpt>
      <trkpt lat="44.61284" lon="3.59033">
        <ele>1350.0736025351</ele>
        <time>2015-04-22T11:41:35Z</time>
      </trkpt>
      <trkpt lat="44.6129" lon="3.59027">
        <ele>1350.0736025351</ele>
        <time>2015-04-22T11:41:40Z</time>
      </trkpt>
      <trkpt lat="44.61299" lon="3.59021">
        <ele>1349.7462000976</ele>
        <time>2015-04-22T11:41:45Z</time>
      </trkpt>
      <trkpt lat="44.61304" lon="3.59016">
        <ele>1349.7462000976</ele>
        <time>2015-04-22T11:41:50Z</time>
      </trkpt>
      <trkpt lat="44.61311" lon="3.59011">
        <ele>1349.6432791602</ele>
        <time>2015-04-22T11:41:55Z</time>
      </trkpt>
      <trkpt lat="44.61318" lon="3.59006">
        <ele>1349.6432791602</ele>
        <time>2015-04-22T11:42:00Z</time>
      </trkpt>
      <trkpt lat="44.61321" lon="3.59">
        <ele>1349.2858848314</ele>
        <time>2015-04-22T11:42:05Z</time>
      </trkpt>
      <trkpt lat="44.61326" lon="3.58995">
        <ele>1349.2858848314</ele>
        <time>2015-04-22T11:42:10Z</time>
      </trkpt>
      <trkpt lat="44.61334" lon="3.5899">
        <ele>1348.9659248801</ele>
        <time>2015-04-22T11:42:15Z</time>
      </trkpt>
      <trkpt lat="44.61341" lon="3.58984">
        <ele>1348.9659248801</ele>
        <time>2015-04-22T11:42:20Z</time>
      </trkpt>
      <trkpt lat="44.61348" lon="3.58978">
        <ele>1348.6511259562</ele>
        <time>2015-04-22T11:42:25Z</time>
      </trkpt>
      <trkpt lat="44.61354" lon="3.58972">
        <ele>1348.6511259562</ele>
        <time>2015-04-22T11:42:30Z</time>
      </trkpt>
      <trkpt lat="44.6136" lon="3.58967">
        <ele>1348.6430302502</ele>
        <time>2015-04-22T11:42:35Z</time>
      </trkpt>
      <trkpt lat="44.61364" lon="3.58962">
        <ele>1348.6430302502</ele>
        <time>2015-04-22T11:42:40Z</time>
      </trkpt>
      <trkpt lat="44.6137" lon="3.58958">
        <ele>1349.2922314887</ele>
        <time>2015-04-22T11:42:45Z</time>
      </trkpt>
      <trkpt lat="44.61377" lon="3.58955">
        <ele>1349.2922314887</ele>
        <time>2015-04-22T11:42:50Z</time>
      </trkpt>
      <trkpt lat="44.61381" lon="3.58951">
        <ele>1349.9850151859</ele>
        <time>2015-04-22T11:42:55Z</time>
      </trkpt>
      <trkpt lat="44.61384" lon="3.58945">
        <ele>1349.9850151859</ele>
        <time>2015-04-22T11:43:00Z</time>
      </trkpt>
      <trkpt lat="44.6139" lon="3.5894">
        <ele>1350.9884925214</ele>
        <time>2015-04-22T11:43:05Z</time>
      </trkpt>
      <trkpt lat="44.61396" lon="3.58934">
        <ele>1350.9884925214</ele>
        <time>2015-04-22T11:43:10Z</time>
      </trkpt>
      <trkpt lat="44.61401" lon="3.58928">
        <ele>1352.3043218486</ele>
        <time>2015-04-22T11:43:15Z</time>
      </trkpt>
      <trkpt lat="44.61407" lon="3.58922">
        <ele>1352.3043218486</ele>
        <time>2015-04-22T11:43:20Z</time>
      </trkpt>
      <trkpt lat="44.61411" lon="3.58919">
        <ele>1353.5441034942</ele>
        <time>2015-04-22T11:43:25Z</time>
      </trkpt>
      <trkpt lat="44.61417" lon="3.58914">
        <ele>1353.5441034942</ele>
        <time>2015-04-22T11:43:30Z</time>
      </trkpt>
      <trkpt lat="44.61423" lon="3.58909">
        <ele>1354.2329439233</ele>
        <time>2015-04-22T11:43:35Z</time>
      </trkpt>
      <trkpt lat="44.6143" lon="3.58904">
        <ele>1354.2329439233</ele>
        <time>2015-04-22T11:43:40Z</time>
      </trkpt>
      <trkpt lat="44.61438" lon="3.58899">
        <ele>1355.1862074655</ele>
        <time>2015-04-22T11:43:45Z</time>
      </trkpt>
      <trkpt lat="44.61444" lon="3.58893">
        <ele>1355.1862074655</ele>
        <time>2015-04-22T11:43:50Z</time>
      </trkpt>
      <trkpt lat="44.61451" lon="3.58887">
        <ele>1356.3228440141</ele>
        <time>2015-04-22T11:43:55Z</time>
      </trkpt>
      <trkpt lat="44.61455" lon="3.5888">
        <ele>1356.3228440141</ele>
        <time>2015-04-22T11:44:00Z</time>
      </trkpt>
      <trkpt lat="44.6146" lon="3.58873">
        <ele>1357.3655627102</ele>
        <time>2015-04-22T11:44:05Z</time>
      </trkpt>
      <trkpt lat="44.61464" lon="3.58868">
        <ele>1357.3655627102</ele>
        <time>2015-04-22T11:44:10Z</time>
      </trkpt>
      <trkpt lat="44.6147" lon="3.58862">
        <ele>1358.4324766271</ele>
        <time>2015-04-22T11:44:15Z</time>
      </trkpt>
      <trkpt lat="44.61476" lon="3.58855">
        <ele>1358.4324766271</ele>
        <time>2015-04-22T11:44:20Z</time>
      </trkpt>
      <trkpt lat="44.61481" lon="3.58846">
        <ele>1359.3448198868</ele>
        <time>2015-04-22T11:44:25Z</time>
      </trkpt>
      <trkpt lat="44.61483" lon="3.58839">
        <ele>1359.3448198868</ele>
        <time>2015-04-22T11:44:30Z</time>
      </trkpt>
      <trkpt lat="44.61493" lon="3.58829">
        <ele>1359.67808408</ele>
        <time>2015-04-22T11:44:35Z</time>
      </trkpt>
      <trkpt lat="44.61495" lon="3.58821">
        <ele>1359.67808408</ele>
        <time>2015-04-22T11:44:40Z</time>
      </trkpt>
      <trkpt lat="44.61499" lon="3.58809">
        <ele>1359.4297628507</ele>
        <time>2015-04-22T11:44:45Z</time>
      </trkpt>
      <trkpt lat="44.61507" lon="3.58802">
        <ele>1359.2765801327</ele>
        <time>2015-04-22T11:44:50Z</time>
      </trkpt>
      <trkpt lat="44.61519" lon="3.5879">
        <ele>1359.715670646</ele>
        <time>2015-04-22T11:44:55Z</time>
      </trkpt>
      <trkpt lat="44.61519" lon="3.58779">
        <ele>1359.715670646</ele>
        <time>2015-04-22T11:45:00Z</time>
      </trkpt>
      <trkpt lat="44.61509" lon="3.58769">
        <ele>1360.4855188745</ele>
        <time>2015-04-22T11:45:05Z</time>
      </trkpt>
      <trkpt lat="44.61506" lon="3.58758">
        <ele>1360.4855188745</ele>
        <time>2015-04-22T11:45:10Z</time>
      </trkpt>
      <trkpt lat="44.61509" lon="3.58747">
        <ele>1361.2276874378</ele>
        <time>2015-04-22T11:45:15Z</time>
      </trkpt>
      <trkpt lat="44.61507" lon="3.58736">
        <ele>1361.2276874378</ele>
        <time>2015-04-22T11:45:20Z</time>
      </trkpt>
      <trkpt lat="44.61504" lon="3.58719">
        <ele>1362.7631217894</ele>
        <time>2015-04-22T11:45:25Z</time>
      </trkpt>
      <trkpt lat="44.61505" lon="3.58709">
        <ele>1362.7631217894</ele>
        <time>2015-04-22T11:45:30Z</time>
      </trkpt>
      <trkpt lat="44.61504" lon="3.58698">
        <ele>1364.3371571554</ele>
        <time>2015-04-22T11:45:35Z</time>
      </trkpt>
      <trkpt lat="44.61504" lon="3.58689">
        <ele>1364.3371571554</ele>
        <time>2015-04-22T11:45:40Z</time>
      </trkpt>
      <trkpt lat="44.61505" lon="3.58681">
        <ele>1365.0776162363</ele>
        <time>2015-04-22T11:45:45Z</time>
      </trkpt>
      <trkpt lat="44.61504" lon="3.58671">
        <ele>1365.0776162363</ele>
        <time>2015-04-22T11:45:50Z</time>
      </trkpt>
      <trkpt lat="44.61504" lon="3.5866">
        <ele>1365.8505146717</ele>
        <time>2015-04-22T11:45:55Z</time>
      </trkpt>
      <trkpt lat="44.61503" lon="3.58644">
        <ele>1366.6368241746</ele>
        <time>2015-04-22T11:46:00Z</time>
      </trkpt>
      <trkpt lat="44.61503" lon="3.58632">
        <ele>1366.6368241746</ele>
        <time>2015-04-22T11:46:05Z</time>
      </trkpt>
      <trkpt lat="44.61502" lon="3.58626">
        <ele>1366.9145847744</ele>
        <time>2015-04-22T11:46:10Z</time>
      </trkpt>
      <trkpt lat="44.61501" lon="3.58614">
        <ele>1366.9145847744</ele>
        <time>2015-04-22T11:46:15Z</time>
      </trkpt>
      <trkpt lat="44.61502" lon="3.58605">
        <ele>1367.2825346344</ele>
        <time>2015-04-22T11:46:20Z</time>
      </trkpt>
      <trkpt lat="44.61504" lon="3.58596">
        <ele>1367.2825346344</ele>
        <time>2015-04-22T11:46:25Z</time>
      </trkpt>
      <trkpt lat="44.61506" lon="3.58588">
        <ele>1367.1423773304</ele>
        <time>2015-04-22T11:46:30Z</time>
      </trkpt>
      <trkpt lat="44.61508" lon="3.58579">
        <ele>1367.1423773304</ele>
        <time>2015-04-22T11:46:35Z</time>
      </trkpt>
      <trkpt lat="44.6151" lon="3.58573">
        <ele>1365.8259864332</ele>
        <time>2015-04-22T11:46:40Z</time>
      </trkpt>
      <trkpt lat="44.6151" lon="3.58565">
        <ele>1365.8259864332</ele>
        <time>2015-04-22T11:46:45Z</time>
      </trkpt>
      <trkpt lat="44.61512" lon="3.58555">
        <ele>1364.0290987132</ele>
        <time>2015-04-22T11:46:50Z</time>
      </trkpt>
      <trkpt lat="44.61516" lon="3.58547">
        <ele>1364.0290987132</ele>
        <time>2015-04-22T11:46:55Z</time>
      </trkpt>
      <trkpt lat="44.6152" lon="3.58538">
        <ele>1362.1959918769</ele>
        <time>2015-04-22T11:47:00Z</time>
      </trkpt>
      <trkpt lat="44.61523" lon="3.58528">
        <ele>1362.1959918769</ele>
        <time>2015-04-22T11:47:05Z</time>
      </trkpt>
      <trkpt lat="44.61526" lon="3.58518">
        <ele>1360.8537378861</ele>
        <time>2015-04-22T11:47:10Z</time>
      </trkpt>
      <trkpt lat="44.61534" lon="3.58506">
        <ele>1360.2731702387</ele>
        <time>2015-04-22T11:47:15Z</time>
      </trkpt>
      <trkpt lat="44.6154" lon="3.58497">
        <ele>1360.2731702387</ele>
        <time>2015-04-22T11:47:20Z</time>
      </trkpt>
      <trkpt lat="44.61544" lon="3.58489">
        <ele>1359.492565991</ele>
        <time>2015-04-22T11:47:25Z</time>
      </trkpt>
      <trkpt lat="44.61548" lon="3.58483">
        <ele>1359.492565991</ele>
        <time>2015-04-22T11:47:30Z</time>
      </trkpt>
      <trkpt lat="44.61555" lon="3.58474">
        <ele>1358.6445985112</ele>
        <time>2015-04-22T11:47:35Z</time>
      </trkpt>
      <trkpt lat="44.61561" lon="3.58469">
        <ele>1358.6445985112</ele>
        <time>2015-04-22T11:47:40Z</time>
      </trkpt>
      <trkpt lat="44.61567" lon="3.58463">
        <ele>1357.6217955499</ele>
        <time>2015-04-22T11:47:45Z</time>
      </trkpt>
      <trkpt lat="44.61574" lon="3.58458">
        <ele>1357.6217955499</ele>
        <time>2015-04-22T11:47:50Z</time>
      </trkpt>
      <trkpt lat="44.61582" lon="3.58454">
        <ele>1356.1377063239</ele>
        <time>2015-04-22T11:47:55Z</time>
      </trkpt>
      <trkpt lat="44.6159" lon="3.58447">
        <ele>1354.8793219862</ele>
        <time>2015-04-22T11:48:00Z</time>
      </trkpt>
      <trkpt lat="44.61597" lon="3.58442">
        <ele>1354.8793219862</ele>
        <time>2015-04-22T11:48:05Z</time>
      </trkpt>
      <trkpt lat="44.61603" lon="3.58438">
        <ele>1353.8772304899</ele>
        <time>2015-04-22T11:48:10Z</time>
      </trkpt>
      <trkpt lat="44.61608" lon="3.58434">
        <ele>1353.8772304899</ele>
        <time>2015-04-22T11:48:15Z</time>
      </trkpt>
      <trkpt lat="44.61616" lon="3.58428">
        <ele>1351.9772951324</ele>
        <time>2015-04-22T11:48:20Z</time>
      </trkpt>
      <trkpt lat="44.61617" lon="3.58427">
        <ele>1351.9772951324</ele>
        <time>2015-04-22T11:48:25Z</time>
      </trkpt>
      <trkpt lat="44.6162" lon="3.58426">
        <ele>1351.9772951324</ele>
        <time>2015-04-22T11:48:30Z</time>
      </trkpt>
      <trkpt lat="44.61628" lon="3.58422">
        <ele>1350.6922140155</ele>
        <time>2015-04-22T11:48:35Z</time>
      </trkpt>
      <trkpt lat="44.61633" lon="3.58422">
        <ele>1350.6922140155</ele>
        <time>2015-04-22T11:48:40Z</time>
      </trkpt>
      <trkpt lat="44.61641" lon="3.58417">
        <ele>1349.2312842303</ele>
        <time>2015-04-22T11:48:45Z</time>
      </trkpt>
      <trkpt lat="44.61647" lon="3.58413">
        <ele>1349.2312842303</ele>
        <time>2015-04-22T11:48:50Z</time>
      </trkpt>
      <trkpt lat="44.61656" lon="3.58408">
        <ele>1347.9575533287</ele>
        <time>2015-04-22T11:48:55Z</time>
      </trkpt>
      <trkpt lat="44.61661" lon="3.58405">
        <ele>1347.9575533287</ele>
        <time>2015-04-22T11:49:00Z</time>
      </trkpt>
      <trkpt lat="44.61668" lon="3.584">
        <ele>1347.105918031</ele>
        <time>2015-04-22T11:49:05Z</time>
      </trkpt>
      <trkpt lat="44.61675" lon="3.58394">
        <ele>1347.105918031</ele>
        <time>2015-04-22T11:49:10Z</time>
      </trkpt>
      <trkpt lat="44.6168" lon="3.58388">
        <ele>1346.2874859631</ele>
        <time>2015-04-22T11:49:15Z</time>
      </trkpt>
      <trkpt lat="44.61686" lon="3.58382">
        <ele>1346.2874859631</ele>
        <time>2015-04-22T11:49:20Z</time>
      </trkpt>
      <trkpt lat="44.61691" lon="3.58376">
        <ele>1345.4443876016</ele>
        <time>2015-04-22T11:49:25Z</time>
      </trkpt>
      <trkpt lat="44.61696" lon="3.58371">
        <ele>1345.4443876016</ele>
        <time>2015-04-22T11:49:30Z</time>
      </trkpt>
      <trkpt lat="44.61703" lon="3.58364">
        <ele>1344.7247433093</ele>
        <time>2015-04-22T11:49:35Z</time>
      </trkpt>
      <trkpt lat="44.61708" lon="3.58358">
        <ele>1344.7247433093</ele>
        <time>2015-04-22T11:49:40Z</time>
      </trkpt>
      <trkpt lat="44.61717" lon="3.58343">
        <ele>1344.0059605136</ele>
        <time>2015-04-22T11:49:45Z</time>
      </trkpt>
      <trkpt lat="44.61722" lon="3.58332">
        <ele>1343.1023090365</ele>
        <time>2015-04-22T11:49:50Z</time>
      </trkpt>
      <trkpt lat="44.61725" lon="3.58325">
        <ele>1343.1023090365</ele>
        <time>2015-04-22T11:49:55Z</time>
      </trkpt>
      <trkpt lat="44.61729" lon="3.58317">
        <ele>1342.2024143587</ele>
        <time>2015-04-22T11:50:00Z</time>
      </trkpt>
      <trkpt lat="44.61734" lon="3.58307">
        <ele>1342.2024143587</ele>
        <time>2015-04-22T11:50:05Z</time>
      </trkpt>
      <trkpt lat="44.61738" lon="3.58299">
        <ele>1341.4233070327</ele>
        <time>2015-04-22T11:50:10Z</time>
      </trkpt>
      <trkpt lat="44.61742" lon="3.5829">
        <ele>1341.4233070327</ele>
        <time>2015-04-22T11:50:15Z</time>
      </trkpt>
      <trkpt lat="44.61746" lon="3.58282">
        <ele>1340.512720901</ele>
        <time>2015-04-22T11:50:20Z</time>
      </trkpt>
      <trkpt lat="44.6175" lon="3.58274">
        <ele>1340.512720901</ele>
        <time>2015-04-22T11:50:25Z</time>
      </trkpt>
      <trkpt lat="44.61754" lon="3.58265">
        <ele>1339.6263078859</ele>
        <time>2015-04-22T11:50:30Z</time>
      </trkpt>
      <trkpt lat="44.61758" lon="3.58257">
        <ele>1339.6263078859</ele>
        <time>2015-04-22T11:50:35Z</time>
      </trkpt>
      <trkpt lat="44.61762" lon="3.58248">
        <ele>1339.0234261186</ele>
        <time>2015-04-22T11:50:40Z</time>
      </trkpt>
      <trkpt lat="44.61764" lon="3.58239">
        <ele>1339.0234261186</ele>
        <time>2015-04-22T11:50:45Z</time>
      </trkpt>
      <trkpt lat="44.61767" lon="3.58232">
        <ele>1338.5111737776</ele>
        <time>2015-04-22T11:50:50Z</time>
      </trkpt>
      <trkpt lat="44.6177" lon="3.58221">
        <ele>1338.5111737776</ele>
        <time>2015-04-22T11:50:55Z</time>
      </trkpt>
      <trkpt lat="44.61772" lon="3.58214">
        <ele>1338.1122450164</ele>
        <time>2015-04-22T11:51:00Z</time>
      </trkpt>
      <trkpt lat="44.61775" lon="3.58203">
        <ele>1338.1122450164</ele>
        <time>2015-04-22T11:51:05Z</time>
      </trkpt>
      <trkpt lat="44.61777" lon="3.58193">
        <ele>1337.7463991967</ele>
        <time>2015-04-22T11:51:10Z</time>
      </trkpt>
      <trkpt lat="44.61779" lon="3.58177">
        <ele>1337.267074217</ele>
        <time>2015-04-22T11:51:15Z</time>
      </trkpt>
      <trkpt lat="44.61782" lon="3.58164">
        <ele>1336.9422413119</ele>
        <time>2015-04-22T11:51:20Z</time>
      </trkpt>
      <trkpt lat="44.61784" lon="3.58151">
        <ele>1336.7602956974</ele>
        <time>2015-04-22T11:51:25Z</time>
      </trkpt>
      <trkpt lat="44.61788" lon="3.58138">
        <ele>1336.7100321809</ele>
        <time>2015-04-22T11:51:30Z</time>
      </trkpt>
      <trkpt lat="44.61789" lon="3.58129">
        <ele>1336.7100321809</ele>
        <time>2015-04-22T11:51:35Z</time>
      </trkpt>
      <trkpt lat="44.61791" lon="3.58119">
        <ele>1336.7662421404</ele>
        <time>2015-04-22T11:51:40Z</time>
      </trkpt>
      <trkpt lat="44.61793" lon="3.58112">
        <ele>1336.7662421404</ele>
        <time>2015-04-22T11:51:45Z</time>
      </trkpt>
      <trkpt lat="44.61795" lon="3.581">
        <ele>1336.4440742565</ele>
        <time>2015-04-22T11:51:50Z</time>
      </trkpt>
      <trkpt lat="44.61797" lon="3.58093">
        <ele>1336.4440742565</ele>
        <time>2015-04-22T11:51:55Z</time>
      </trkpt>
      <trkpt lat="44.618" lon="3.58085">
        <ele>1336.1599883265</ele>
        <time>2015-04-22T11:52:00Z</time>
      </trkpt>
      <trkpt lat="44.61806" lon="3.58075">
        <ele>1336.1599883265</ele>
        <time>2015-04-22T11:52:05Z</time>
      </trkpt>
      <trkpt lat="44.6181" lon="3.58067">
        <ele>1335.8817929854</ele>
        <time>2015-04-22T11:52:10Z</time>
      </trkpt>
      <trkpt lat="44.61814" lon="3.58058">
        <ele>1335.8817929854</ele>
        <time>2015-04-22T11:52:15Z</time>
      </trkpt>
      <trkpt lat="44.61819" lon="3.58051">
        <ele>1335.608442638</ele>
        <time>2015-04-22T11:52:20Z</time>
      </trkpt>
      <trkpt lat="44.61823" lon="3.58045">
        <ele>1335.608442638</ele>
        <time>2015-04-22T11:52:25Z</time>
      </trkpt>
      <trkpt lat="44.61829" lon="3.58036">
        <ele>1335.166000196</ele>
        <time>2015-04-22T11:52:30Z</time>
      </trkpt>
      <trkpt lat="44.61834" lon="3.58029">
        <ele>1335.166000196</ele>
        <time>2015-04-22T11:52:35Z</time>
      </trkpt>
      <trkpt lat="44.61841" lon="3.58023">
        <ele>1334.7252176564</ele>
        <time>2015-04-22T11:52:40Z</time>
      </trkpt>
      <trkpt lat="44.61849" lon="3.58016">
        <ele>1334.4731058506</ele>
        <time>2015-04-22T11:52:45Z</time>
      </trkpt>
      <trkpt lat="44.61855" lon="3.58011">
        <ele>1334.4731058506</ele>
        <time>2015-04-22T11:52:50Z</time>
      </trkpt>
      <trkpt lat="44.61862" lon="3.58006">
        <ele>1334.3374070665</ele>
        <time>2015-04-22T11:52:55Z</time>
      </trkpt>
      <trkpt lat="44.61868" lon="3.58002">
        <ele>1334.3374070665</ele>
        <time>2015-04-22T11:53:00Z</time>
      </trkpt>
      <trkpt lat="44.61875" lon="3.57997">
        <ele>1334.438180341</ele>
        <time>2015-04-22T11:53:05Z</time>
      </trkpt>
      <trkpt lat="44.61884" lon="3.57994">
        <ele>1334.7130636513</ele>
        <time>2015-04-22T11:53:10Z</time>
      </trkpt>
      <trkpt lat="44.6189" lon="3.57993">
        <ele>1334.7130636513</ele>
        <time>2015-04-22T11:53:15Z</time>
      </trkpt>
      <trkpt lat="44.61896" lon="3.57992">
        <ele>1335.0461437082</ele>
        <time>2015-04-22T11:53:20Z</time>
      </trkpt>
      <trkpt lat="44.61902" lon="3.57993">
        <ele>1335.0461437082</ele>
        <time>2015-04-22T11:53:25Z</time>
      </trkpt>
      <trkpt lat="44.61907" lon="3.57998">
        <ele>1335.3875099471</ele>
        <time>2015-04-22T11:53:30Z</time>
      </trkpt>
      <trkpt lat="44.61912" lon="3.58003">
        <ele>1335.3875099471</ele>
        <time>2015-04-22T11:53:35Z</time>
      </trkpt>
      <trkpt lat="44.61918" lon="3.58009">
        <ele>1335.4747407222</ele>
        <time>2015-04-22T11:53:40Z</time>
      </trkpt>
      <trkpt lat="44.61925" lon="3.58014">
        <ele>1335.4747407222</ele>
        <time>2015-04-22T11:53:45Z</time>
      </trkpt>
      <trkpt lat="44.61927" lon="3.58016">
        <ele>1335.5554005787</ele>
        <time>2015-04-22T11:53:50Z</time>
      </trkpt>
      <trkpt lat="44.61927" lon="3.58016">
        <ele>1335.5554005787</ele>
        <time>2015-04-22T11:53:55Z</time>
      </trkpt>
      <trkpt lat="44.61928" lon="3.58016">
        <ele>1335.5554005787</ele>
        <time>2015-04-22T11:54:00Z</time>
      </trkpt>
      <trkpt lat="44.61927" lon="3.58016">
        <ele>1335.5554005787</ele>
        <time>2015-04-22T11:54:05Z</time>
      </trkpt>
      <trkpt lat="44.61928" lon="3.58018">
        <ele>1335.5554005787</ele>
        <time>2015-04-22T11:54:10Z</time>
      </trkpt>
      <trkpt lat="44.61927" lon="3.58021">
        <ele>1335.5554005787</ele>
        <time>2015-04-22T11:54:15Z</time>
      </trkpt>
      <trkpt lat="44.61927" lon="3.58022">
        <ele>1335.5554005787</ele>
        <time>2015-04-22T11:54:20Z</time>
      </trkpt>
      <trkpt lat="44.61928" lon="3.58023">
        <ele>1335.5554005787</ele>
        <time>2015-04-22T11:54:25Z</time>
      </trkpt>
      <trkpt lat="44.61929" lon="3.58022">
        <ele>1335.5554005787</ele>
        <time>2015-04-22T11:54:30Z</time>
      </trkpt>
      <trkpt lat="44.61929" lon="3.58022">
        <ele>1335.5554005787</ele>
        <time>2015-04-22T11:54:35Z</time>
      </trkpt>
      <trkpt lat="44.6193" lon="3.58018">
        <ele>1335.1239412096</ele>
        <time>2015-04-22T11:54:40Z</time>
      </trkpt>
      <trkpt lat="44.61931" lon="3.58018">
        <ele>1335.1239412096</ele>
        <time>2015-04-22T11:54:45Z</time>
      </trkpt>
      <trkpt lat="44.6193" lon="3.58016">
        <ele>1335.1239412096</ele>
        <time>2015-04-22T11:54:50Z</time>
      </trkpt>
      <trkpt lat="44.6193" lon="3.58016">
        <ele>1335.1239412096</ele>
        <time>2015-04-22T11:54:55Z</time>
      </trkpt>
      <trkpt lat="44.61929" lon="3.58016">
        <ele>1335.1239412096</ele>
        <time>2015-04-22T11:55:00Z</time>
      </trkpt>
      <trkpt lat="44.61927" lon="3.58017">
        <ele>1335.1239412096</ele>
        <time>2015-04-22T11:55:05Z</time>
      </trkpt>
      <trkpt lat="44.61926" lon="3.58016">
        <ele>1335.1239412096</ele>
        <time>2015-04-22T11:55:10Z</time>
      </trkpt>
      <trkpt lat="44.61927" lon="3.58016">
        <ele>1335.1239412096</ele>
        <time>2015-04-22T11:55:15Z</time>
      </trkpt>
      <trkpt lat="44.61928" lon="3.58015">
        <ele>1335.0392352907</ele>
        <time>2015-04-22T11:55:20Z</time>
      </trkpt>
      <trkpt lat="44.61929" lon="3.58016">
        <ele>1335.0392352907</ele>
        <time>2015-04-22T11:55:25Z</time>
      </trkpt>
      <trkpt lat="44.6193" lon="3.58015">
        <ele>1335.0392352907</ele>
        <time>2015-04-22T11:55:30Z</time>
      </trkpt>
      <trkpt lat="44.61931" lon="3.58014">
        <ele>1335.0392352907</ele>
        <time>2015-04-22T11:55:35Z</time>
      </trkpt>
      <trkpt lat="44.61931" lon="3.58013">
        <ele>1335.0392352907</ele>
        <time>2015-04-22T11:55:40Z</time>
      </trkpt>
      <trkpt lat="44.61931" lon="3.58013">
        <ele>1335.0392352907</ele>
        <time>2015-04-22T11:55:45Z</time>
      </trkpt>
      <trkpt lat="44.61931" lon="3.58013">
        <ele>1335.0392352907</ele>
        <time>2015-04-22T11:55:50Z</time>
      </trkpt>
      <trkpt lat="44.61933" lon="3.58015">
        <ele>1335.0392352907</ele>
        <time>2015-04-22T11:55:55Z</time>
      </trkpt>
      <trkpt lat="44.61934" lon="3.58016">
        <ele>1335.0392352907</ele>
        <time>2015-04-22T11:56:00Z</time>
      </trkpt>
      <trkpt lat="44.61933" lon="3.58017">
        <ele>1335.0392352907</ele>
        <time>2015-04-22T11:56:05Z</time>
      </trkpt>
      <trkpt lat="44.61933" lon="3.58017">
        <ele>1335.6349617304</ele>
        <time>2015-04-22T11:56:10Z</time>
      </trkpt>
      <trkpt lat="44.61933" lon="3.58017">
        <ele>1335.6349617304</ele>
        <time>2015-04-22T11:56:15Z</time>
      </trkpt>
      <trkpt lat="44.61934" lon="3.58016">
        <ele>1335.6349617304</ele>
        <time>2015-04-22T11:56:20Z</time>
      </trkpt>
      <trkpt lat="44.61934" lon="3.58015">
        <ele>1335.6349617304</ele>
        <time>2015-04-22T11:56:25Z</time>
      </trkpt>
      <trkpt lat="44.61934" lon="3.58018">
        <ele>1335.6349617304</ele>
        <time>2015-04-22T11:56:30Z</time>
      </trkpt>
      <trkpt lat="44.61935" lon="3.5802">
        <ele>1335.6349617304</ele>
        <time>2015-04-22T11:56:35Z</time>
      </trkpt>
      <trkpt lat="44.61935" lon="3.58021">
        <ele>1335.6349617304</ele>
        <time>2015-04-22T11:56:40Z</time>
      </trkpt>
      <trkpt lat="44.61935" lon="3.58021">
        <ele>1335.6349617304</ele>
        <time>2015-04-22T11:56:45Z</time>
      </trkpt>
      <trkpt lat="44.61935" lon="3.5802">
        <ele>1335.6349617304</ele>
        <time>2015-04-22T11:56:50Z</time>
      </trkpt>
      <trkpt lat="44.61935" lon="3.5802">
        <ele>1335.6349617304</ele>
        <time>2015-04-22T11:56:55Z</time>
      </trkpt>
      <trkpt lat="44.61935" lon="3.5802">
        <ele>1335.6349617304</ele>
        <time>2015-04-22T11:57:00Z</time>
      </trkpt>
      <trkpt lat="44.61935" lon="3.5802">
        <ele>1335.6349617304</ele>
        <time>2015-04-22T11:57:05Z</time>
      </trkpt>
      <trkpt lat="44.61935" lon="3.5802">
        <ele>1335.6349617304</ele>
        <time>2015-04-22T11:57:10Z</time>
      </trkpt>
      <trkpt lat="44.61935" lon="3.5802">
        <ele>1335.6349617304</ele>
        <time>2015-04-22T11:57:15Z</time>
      </trkpt>
      <trkpt lat="44.61935" lon="3.5802">
        <ele>1335.6349617304</ele>
        <time>2015-04-22T11:57:20Z</time>
      </trkpt>
      <trkpt lat="44.61936" lon="3.58021">
        <ele>1335.6349617304</ele>
        <time>2015-04-22T11:57:25Z</time>
      </trkpt>
      <trkpt lat="44.6194" lon="3.58022">
        <ele>1335.489073453</ele>
        <time>2015-04-22T11:57:30Z</time>
      </trkpt>
      <trkpt lat="44.61948" lon="3.58024">
        <ele>1335.489073453</ele>
        <time>2015-04-22T11:57:35Z</time>
      </trkpt>
      <trkpt lat="44.61953" lon="3.58026">
        <ele>1335.1883642624</ele>
        <time>2015-04-22T11:57:40Z</time>
      </trkpt>
      <trkpt lat="44.61962" lon="3.58029">
        <ele>1335.1883642624</ele>
        <time>2015-04-22T11:57:45Z</time>
      </trkpt>
      <trkpt lat="44.61969" lon="3.58032">
        <ele>1334.6861323968</ele>
        <time>2015-04-22T11:57:50Z</time>
      </trkpt>
      <trkpt lat="44.61976" lon="3.58033">
        <ele>1334.6861323968</ele>
        <time>2015-04-22T11:57:55Z</time>
      </trkpt>
      <trkpt lat="44.61981" lon="3.58034">
        <ele>1334.0838143403</ele>
        <time>2015-04-22T11:58:00Z</time>
      </trkpt>
      <trkpt lat="44.6199" lon="3.58035">
        <ele>1334.0838143403</ele>
        <time>2015-04-22T11:58:05Z</time>
      </trkpt>
      <trkpt lat="44.61997" lon="3.58036">
        <ele>1333.4612935026</ele>
        <time>2015-04-22T11:58:10Z</time>
      </trkpt>
      <trkpt lat="44.62003" lon="3.58038">
        <ele>1333.4612935026</ele>
        <time>2015-04-22T11:58:15Z</time>
      </trkpt>
      <trkpt lat="44.62011" lon="3.5804">
        <ele>1332.7197338251</ele>
        <time>2015-04-22T11:58:20Z</time>
      </trkpt>
      <trkpt lat="44.62018" lon="3.58041">
        <ele>1332.7197338251</ele>
        <time>2015-04-22T11:58:25Z</time>
      </trkpt>
      <trkpt lat="44.62025" lon="3.58044">
        <ele>1331.9696708999</ele>
        <time>2015-04-22T11:58:30Z</time>
      </trkpt>
      <trkpt lat="44.62032" lon="3.58046">
        <ele>1331.9696708999</ele>
        <time>2015-04-22T11:58:35Z</time>
      </trkpt>
      <trkpt lat="44.62038" lon="3.58049">
        <ele>1331.0253392488</ele>
        <time>2015-04-22T11:58:40Z</time>
      </trkpt>
      <trkpt lat="44.62043" lon="3.58055">
        <ele>1331.0253392488</ele>
        <time>2015-04-22T11:58:45Z</time>
      </trkpt>
      <trkpt lat="44.62043" lon="3.58055">
        <ele>1331.0253392488</ele>
        <time>2015-04-22T11:58:50Z</time>
      </trkpt>
      <trkpt lat="44.62043" lon="3.58055">
        <ele>1331.0253392488</ele>
        <time>2015-04-22T11:58:55Z</time>
      </trkpt>
      <trkpt lat="44.62043" lon="3.58055">
        <ele>1331.0253392488</ele>
        <time>2015-04-22T11:59:00Z</time>
      </trkpt>
      <trkpt lat="44.62044" lon="3.58054">
        <ele>1331.0253392488</ele>
        <time>2015-04-22T11:59:05Z</time>
      </trkpt>
      <trkpt lat="44.62044" lon="3.58054">
        <ele>1331.0253392488</ele>
        <time>2015-04-22T11:59:10Z</time>
      </trkpt>
      <trkpt lat="44.62043" lon="3.58056">
        <ele>1330.0610440361</ele>
        <time>2015-04-22T11:59:15Z</time>
      </trkpt>
      <trkpt lat="44.62043" lon="3.58056">
        <ele>1330.0610440361</ele>
        <time>2015-04-22T11:59:20Z</time>
      </trkpt>
      <trkpt lat="44.62042" lon="3.58056">
        <ele>1330.0610440361</ele>
        <time>2015-04-22T11:59:25Z</time>
      </trkpt>
      <trkpt lat="44.62042" lon="3.58055">
        <ele>1330.0610440361</ele>
        <time>2015-04-22T11:59:30Z</time>
      </trkpt>
      <trkpt lat="44.62042" lon="3.58056">
        <ele>1330.0610440361</ele>
        <time>2015-04-22T11:59:35Z</time>
      </trkpt>
      <trkpt lat="44.62043" lon="3.58057">
        <ele>1330.0610440361</ele>
        <time>2015-04-22T11:59:40Z</time>
      </trkpt>
      <trkpt lat="44.62043" lon="3.58056">
        <ele>1330.0610440361</ele>
        <time>2015-04-22T11:59:45Z</time>
      </trkpt>
      <trkpt lat="44.62043" lon="3.58056">
        <ele>1330.0610440361</ele>
        <time>2015-04-22T11:59:50Z</time>
      </trkpt>
      <trkpt lat="44.62043" lon="3.58058">
        <ele>1330.0610440361</ele>
        <time>2015-04-22T11:59:55Z</time>
      </trkpt>
      <trkpt lat="44.62043" lon="3.58058">
        <ele>1330.0610440361</ele>
        <time>2015-04-22T12:00:00Z</time>
      </trkpt>
      <trkpt lat="44.62042" lon="3.58057">
        <ele>1330.0610440361</ele>
        <time>2015-04-22T12:00:05Z</time>
      </trkpt>
      <trkpt lat="44.62041" lon="3.58056">
        <ele>1330.0610440361</ele>
        <time>2015-04-22T12:00:10Z</time>
      </trkpt>
      <trkpt lat="44.62032" lon="3.58031">
        <ele>1329.6562731311</ele>
        <time>2015-04-22T12:00:15Z</time>
      </trkpt>
      <trkpt lat="44.62022" lon="3.57996">
        <ele>1329.6978817562</ele>
        <time>2015-04-22T12:00:20Z</time>
      </trkpt>
      <trkpt lat="44.62021" lon="3.57972">
        <ele>1330.1230235683</ele>
        <time>2015-04-22T12:00:25Z</time>
      </trkpt>
      <trkpt lat="44.62023" lon="3.57961">
        <ele>1330.1230235683</ele>
        <time>2015-04-22T12:00:30Z</time>
      </trkpt>
      <trkpt lat="44.62026" lon="3.57951">
        <ele>1330.5121229573</ele>
        <time>2015-04-22T12:00:35Z</time>
      </trkpt>
      <trkpt lat="44.62029" lon="3.57941">
        <ele>1330.5121229573</ele>
        <time>2015-04-22T12:00:40Z</time>
      </trkpt>
      <trkpt lat="44.62031" lon="3.57931">
        <ele>1331.1826846805</ele>
        <time>2015-04-22T12:00:45Z</time>
      </trkpt>
      <trkpt lat="44.62031" lon="3.57921">
        <ele>1331.1826846805</ele>
        <time>2015-04-22T12:00:50Z</time>
      </trkpt>
      <trkpt lat="44.62031" lon="3.5791">
        <ele>1331.549040431</ele>
        <time>2015-04-22T12:00:55Z</time>
      </trkpt>
      <trkpt lat="44.6203" lon="3.57902">
        <ele>1331.549040431</ele>
        <time>2015-04-22T12:01:00Z</time>
      </trkpt>
      <trkpt lat="44.6203" lon="3.5789">
        <ele>1331.9340892416</ele>
        <time>2015-04-22T12:01:05Z</time>
      </trkpt>
      <trkpt lat="44.6203" lon="3.57882">
        <ele>1331.9340892416</ele>
        <time>2015-04-22T12:01:10Z</time>
      </trkpt>
      <trkpt lat="44.62028" lon="3.57873">
        <ele>1332.1758310099</ele>
        <time>2015-04-22T12:01:15Z</time>
      </trkpt>
      <trkpt lat="44.6202" lon="3.57869">
        <ele>1332.1758310099</ele>
        <time>2015-04-22T12:01:20Z</time>
      </trkpt>
      <trkpt lat="44.62015" lon="3.5787">
        <ele>1332.6001683272</ele>
        <time>2015-04-22T12:01:25Z</time>
      </trkpt>
      <trkpt lat="44.62011" lon="3.57866">
        <ele>1332.6001683272</ele>
        <time>2015-04-22T12:01:30Z</time>
      </trkpt>
      <trkpt lat="44.62012" lon="3.57865">
        <ele>1332.6001683272</ele>
        <time>2015-04-22T12:01:35Z</time>
      </trkpt>
      <trkpt lat="44.62012" lon="3.57862">
        <ele>1332.6001683272</ele>
        <time>2015-04-22T12:01:40Z</time>
      </trkpt>
      <trkpt lat="44.62013" lon="3.57853">
        <ele>1333.1338990106</ele>
        <time>2015-04-22T12:01:45Z</time>
      </trkpt>
      <trkpt lat="44.62014" lon="3.57846">
        <ele>1333.1338990106</ele>
        <time>2015-04-22T12:01:50Z</time>
      </trkpt>
      <trkpt lat="44.62016" lon="3.57835">
        <ele>1333.6080541514</ele>
        <time>2015-04-22T12:01:55Z</time>
      </trkpt>
      <trkpt lat="44.62017" lon="3.57825">
        <ele>1333.6080541514</ele>
        <time>2015-04-22T12:02:00Z</time>
      </trkpt>
      <trkpt lat="44.62017" lon="3.57816">
        <ele>1334.0103993503</ele>
        <time>2015-04-22T12:02:05Z</time>
      </trkpt>
      <trkpt lat="44.62017" lon="3.57806">
        <ele>1334.0103993503</ele>
        <time>2015-04-22T12:02:10Z</time>
      </trkpt>
      <trkpt lat="44.62018" lon="3.57799">
        <ele>1334.3442583869</ele>
        <time>2015-04-22T12:02:15Z</time>
      </trkpt>
      <trkpt lat="44.62018" lon="3.57787">
        <ele>1334.3442583869</ele>
        <time>2015-04-22T12:02:20Z</time>
      </trkpt>
      <trkpt lat="44.62019" lon="3.57777">
        <ele>1334.5697187864</ele>
        <time>2015-04-22T12:02:25Z</time>
      </trkpt>
      <trkpt lat="44.62019" lon="3.57768">
        <ele>1334.5697187864</ele>
        <time>2015-04-22T12:02:30Z</time>
      </trkpt>
      <trkpt lat="44.62018" lon="3.57759">
        <ele>1334.5492764232</ele>
        <time>2015-04-22T12:02:35Z</time>
      </trkpt>
      <trkpt lat="44.62016" lon="3.57748">
        <ele>1334.5492764232</ele>
        <time>2015-04-22T12:02:40Z</time>
      </trkpt>
      <trkpt lat="44.62015" lon="3.57737">
        <ele>1334.3580234181</ele>
        <time>2015-04-22T12:02:45Z</time>
      </trkpt>
      <trkpt lat="44.62014" lon="3.57727">
        <ele>1334.3580234181</ele>
        <time>2015-04-22T12:02:50Z</time>
      </trkpt>
      <trkpt lat="44.62013" lon="3.57717">
        <ele>1334.2245855495</ele>
        <time>2015-04-22T12:02:55Z</time>
      </trkpt>
      <trkpt lat="44.62013" lon="3.57702">
        <ele>1334.0580442687</ele>
        <time>2015-04-22T12:03:00Z</time>
      </trkpt>
      <trkpt lat="44.62013" lon="3.57688">
        <ele>1334.0913407014</ele>
        <time>2015-04-22T12:03:05Z</time>
      </trkpt>
      <trkpt lat="44.62012" lon="3.57668">
        <ele>1334.0498065194</ele>
        <time>2015-04-22T12:03:10Z</time>
      </trkpt>
      <trkpt lat="44.6201" lon="3.57652">
        <ele>1334.1259437568</ele>
        <time>2015-04-22T12:03:15Z</time>
      </trkpt>
      <trkpt lat="44.6201" lon="3.57644">
        <ele>1334.1259437568</ele>
        <time>2015-04-22T12:03:20Z</time>
      </trkpt>
      <trkpt lat="44.62008" lon="3.57635">
        <ele>1334.094309061</ele>
        <time>2015-04-22T12:03:25Z</time>
      </trkpt>
      <trkpt lat="44.62008" lon="3.57624">
        <ele>1334.094309061</ele>
        <time>2015-04-22T12:03:30Z</time>
      </trkpt>
      <trkpt lat="44.62007" lon="3.57614">
        <ele>1333.9192910307</ele>
        <time>2015-04-22T12:03:35Z</time>
      </trkpt>
      <trkpt lat="44.62006" lon="3.57605">
        <ele>1333.9192910307</ele>
        <time>2015-04-22T12:03:40Z</time>
      </trkpt>
      <trkpt lat="44.62004" lon="3.57595">
        <ele>1334.058308246</ele>
        <time>2015-04-22T12:03:45Z</time>
      </trkpt>
      <trkpt lat="44.62004" lon="3.57584">
        <ele>1334.058308246</ele>
        <time>2015-04-22T12:03:50Z</time>
      </trkpt>
      <trkpt lat="44.62003" lon="3.57577">
        <ele>1333.9831949357</ele>
        <time>2015-04-22T12:03:55Z</time>
      </trkpt>
      <trkpt lat="44.62003" lon="3.57569">
        <ele>1333.9831949357</ele>
        <time>2015-04-22T12:04:00Z</time>
      </trkpt>
      <trkpt lat="44.62003" lon="3.57561">
        <ele>1333.6375479967</ele>
        <time>2015-04-22T12:04:05Z</time>
      </trkpt>
      <trkpt lat="44.62003" lon="3.57555">
        <ele>1333.6375479967</ele>
        <time>2015-04-22T12:04:10Z</time>
      </trkpt>
      <trkpt lat="44.62003" lon="3.57545">
        <ele>1332.9987154629</ele>
        <time>2015-04-22T12:04:15Z</time>
      </trkpt>
      <trkpt lat="44.62001" lon="3.57536">
        <ele>1332.9987154629</ele>
        <time>2015-04-22T12:04:20Z</time>
      </trkpt>
      <trkpt lat="44.62001" lon="3.57527">
        <ele>1332.248310038</ele>
        <time>2015-04-22T12:04:25Z</time>
      </trkpt>
      <trkpt lat="44.62003" lon="3.57516">
        <ele>1332.248310038</ele>
        <time>2015-04-22T12:04:30Z</time>
      </trkpt>
      <trkpt lat="44.62009" lon="3.57496">
        <ele>1332.2754905931</ele>
        <time>2015-04-22T12:04:35Z</time>
      </trkpt>
      <trkpt lat="44.6201" lon="3.57481">
        <ele>1332.0140753256</ele>
        <time>2015-04-22T12:04:40Z</time>
      </trkpt>
      <trkpt lat="44.62009" lon="3.57474">
        <ele>1332.0140753256</ele>
        <time>2015-04-22T12:04:45Z</time>
      </trkpt>
      <trkpt lat="44.62012" lon="3.57464">
        <ele>1331.5002124544</ele>
        <time>2015-04-22T12:04:50Z</time>
      </trkpt>
      <trkpt lat="44.62015" lon="3.57453">
        <ele>1331.5002124544</ele>
        <time>2015-04-22T12:04:55Z</time>
      </trkpt>
      <trkpt lat="44.62017" lon="3.57445">
        <ele>1331.2724993384</ele>
        <time>2015-04-22T12:05:00Z</time>
      </trkpt>
      <trkpt lat="44.6202" lon="3.57433">
        <ele>1331.3680154523</ele>
        <time>2015-04-22T12:05:05Z</time>
      </trkpt>
      <trkpt lat="44.62023" lon="3.57424">
        <ele>1331.3680154523</ele>
        <time>2015-04-22T12:05:10Z</time>
      </trkpt>
      <trkpt lat="44.62027" lon="3.57413">
        <ele>1331.8634479278</ele>
        <time>2015-04-22T12:05:15Z</time>
      </trkpt>
      <trkpt lat="44.62029" lon="3.57401">
        <ele>1332.2811116869</ele>
        <time>2015-04-22T12:05:20Z</time>
      </trkpt>
      <trkpt lat="44.62031" lon="3.57392">
        <ele>1332.2811116869</ele>
        <time>2015-04-22T12:05:25Z</time>
      </trkpt>
      <trkpt lat="44.62032" lon="3.57384">
        <ele>1332.4668600007</ele>
        <time>2015-04-22T12:05:30Z</time>
      </trkpt>
      <trkpt lat="44.62032" lon="3.57377">
        <ele>1332.4668600007</ele>
        <time>2015-04-22T12:05:35Z</time>
      </trkpt>
      <trkpt lat="44.62033" lon="3.5737">
        <ele>1332.3938186159</ele>
        <time>2015-04-22T12:05:40Z</time>
      </trkpt>
      <trkpt lat="44.62036" lon="3.57362">
        <ele>1332.3938186159</ele>
        <time>2015-04-22T12:05:45Z</time>
      </trkpt>
      <trkpt lat="44.62039" lon="3.57353">
        <ele>1332.2395797591</ele>
        <time>2015-04-22T12:05:50Z</time>
      </trkpt>
      <trkpt lat="44.62042" lon="3.57347">
        <ele>1332.2395797591</ele>
        <time>2015-04-22T12:05:55Z</time>
      </trkpt>
      <trkpt lat="44.62044" lon="3.57338">
        <ele>1332.0392281252</ele>
        <time>2015-04-22T12:06:00Z</time>
      </trkpt>
      <trkpt lat="44.62048" lon="3.57328">
        <ele>1332.0392281252</ele>
        <time>2015-04-22T12:06:05Z</time>
      </trkpt>
      <trkpt lat="44.62052" lon="3.57317">
        <ele>1332.142454893</ele>
        <time>2015-04-22T12:06:10Z</time>
      </trkpt>
      <trkpt lat="44.62055" lon="3.57307">
        <ele>1332.142454893</ele>
        <time>2015-04-22T12:06:15Z</time>
      </trkpt>
      <trkpt lat="44.62059" lon="3.57298">
        <ele>1332.4256761875</ele>
        <time>2015-04-22T12:06:20Z</time>
      </trkpt>
      <trkpt lat="44.62065" lon="3.57288">
        <ele>1332.4256761875</ele>
        <time>2015-04-22T12:06:25Z</time>
      </trkpt>
      <trkpt lat="44.62068" lon="3.5728">
        <ele>1332.7738911229</ele>
        <time>2015-04-22T12:06:30Z</time>
      </trkpt>
      <trkpt lat="44.62072" lon="3.57271">
        <ele>1332.7738911229</ele>
        <time>2015-04-22T12:06:35Z</time>
      </trkpt>
      <trkpt lat="44.62075" lon="3.57262">
        <ele>1333.2965421495</ele>
        <time>2015-04-22T12:06:40Z</time>
      </trkpt>
      <trkpt lat="44.62079" lon="3.57253">
        <ele>1333.2965421495</ele>
        <time>2015-04-22T12:06:45Z</time>
      </trkpt>
      <trkpt lat="44.62082" lon="3.57244">
        <ele>1333.8928007841</ele>
        <time>2015-04-22T12:06:50Z</time>
      </trkpt>
      <trkpt lat="44.62085" lon="3.57235">
        <ele>1333.8928007841</ele>
        <time>2015-04-22T12:06:55Z</time>
      </trkpt>
      <trkpt lat="44.62088" lon="3.57226">
        <ele>1334.4834667823</ele>
        <time>2015-04-22T12:07:00Z</time>
      </trkpt>
      <trkpt lat="44.62092" lon="3.57216">
        <ele>1334.4834667823</ele>
        <time>2015-04-22T12:07:05Z</time>
      </trkpt>
      <trkpt lat="44.62096" lon="3.57206">
        <ele>1335.2545942923</ele>
        <time>2015-04-22T12:07:10Z</time>
      </trkpt>
      <trkpt lat="44.62097" lon="3.57198">
        <ele>1335.2545942923</ele>
        <time>2015-04-22T12:07:15Z</time>
      </trkpt>
      <trkpt lat="44.621" lon="3.57188">
        <ele>1336.2339776344</ele>
        <time>2015-04-22T12:07:20Z</time>
      </trkpt>
      <trkpt lat="44.62101" lon="3.57179">
        <ele>1336.2339776344</ele>
        <time>2015-04-22T12:07:25Z</time>
      </trkpt>
      <trkpt lat="44.62102" lon="3.57168">
        <ele>1336.466857681</ele>
        <time>2015-04-22T12:07:30Z</time>
      </trkpt>
      <trkpt lat="44.62104" lon="3.57158">
        <ele>1336.466857681</ele>
        <time>2015-04-22T12:07:35Z</time>
      </trkpt>
      <trkpt lat="44.62108" lon="3.57146">
        <ele>1337.0306492823</ele>
        <time>2015-04-22T12:07:40Z</time>
      </trkpt>
      <trkpt lat="44.6211" lon="3.57136">
        <ele>1337.0306492823</ele>
        <time>2015-04-22T12:07:45Z</time>
      </trkpt>
      <trkpt lat="44.62112" lon="3.57125">
        <ele>1337.6689602683</ele>
        <time>2015-04-22T12:07:50Z</time>
      </trkpt>
      <trkpt lat="44.62111" lon="3.57109">
        <ele>1337.553203484</ele>
        <time>2015-04-22T12:07:55Z</time>
      </trkpt>
      <trkpt lat="44.62116" lon="3.57092">
        <ele>1337.1715761562</ele>
        <time>2015-04-22T12:08:00Z</time>
      </trkpt>
      <trkpt lat="44.62116" lon="3.57084">
        <ele>1337.1715761562</ele>
        <time>2015-04-22T12:08:05Z</time>
      </trkpt>
      <trkpt lat="44.62116" lon="3.57078">
        <ele>1336.9483686091</ele>
        <time>2015-04-22T12:08:10Z</time>
      </trkpt>
      <trkpt lat="44.62118" lon="3.5707">
        <ele>1336.9483686091</ele>
        <time>2015-04-22T12:08:15Z</time>
      </trkpt>
      <trkpt lat="44.62118" lon="3.5706">
        <ele>1336.5269085644</ele>
        <time>2015-04-22T12:08:20Z</time>
      </trkpt>
      <trkpt lat="44.62121" lon="3.57049">
        <ele>1336.5269085644</ele>
        <time>2015-04-22T12:08:25Z</time>
      </trkpt>
      <trkpt lat="44.62123" lon="3.57039">
        <ele>1336.1969815734</ele>
        <time>2015-04-22T12:08:30Z</time>
      </trkpt>
      <trkpt lat="44.62124" lon="3.57034">
        <ele>1336.1969815734</ele>
        <time>2015-04-22T12:08:35Z</time>
      </trkpt>
      <trkpt lat="44.62127" lon="3.57031">
        <ele>1336.1969815734</ele>
        <time>2015-04-22T12:08:40Z</time>
      </trkpt>
      <trkpt lat="44.62127" lon="3.57023">
        <ele>1335.8089239007</ele>
        <time>2015-04-22T12:08:45Z</time>
      </trkpt>
      <trkpt lat="44.62127" lon="3.57016">
        <ele>1335.8089239007</ele>
        <time>2015-04-22T12:08:50Z</time>
      </trkpt>
      <trkpt lat="44.62128" lon="3.57013">
        <ele>1335.8089239007</ele>
        <time>2015-04-22T12:08:55Z</time>
      </trkpt>
      <trkpt lat="44.6213" lon="3.57011">
        <ele>1335.771864403</ele>
        <time>2015-04-22T12:09:00Z</time>
      </trkpt>
      <trkpt lat="44.6213" lon="3.57012">
        <ele>1335.771864403</ele>
        <time>2015-04-22T12:09:05Z</time>
      </trkpt>
      <trkpt lat="44.62131" lon="3.57012">
        <ele>1335.771864403</ele>
        <time>2015-04-22T12:09:10Z</time>
      </trkpt>
      <trkpt lat="44.62131" lon="3.57012">
        <ele>1335.771864403</ele>
        <time>2015-04-22T12:09:15Z</time>
      </trkpt>
      <trkpt lat="44.6213" lon="3.5701">
        <ele>1335.771864403</ele>
        <time>2015-04-22T12:09:20Z</time>
      </trkpt>
      <trkpt lat="44.62129" lon="3.57005">
        <ele>1335.771864403</ele>
        <time>2015-04-22T12:09:25Z</time>
      </trkpt>
      <trkpt lat="44.62127" lon="3.57001">
        <ele>1335.5848235093</ele>
        <time>2015-04-22T12:09:30Z</time>
      </trkpt>
      <trkpt lat="44.62126" lon="3.56999">
        <ele>1335.5848235093</ele>
        <time>2015-04-22T12:09:35Z</time>
      </trkpt>
      <trkpt lat="44.62125" lon="3.56999">
        <ele>1335.5848235093</ele>
        <time>2015-04-22T12:09:40Z</time>
      </trkpt>
      <trkpt lat="44.62125" lon="3.56999">
        <ele>1335.5848235093</ele>
        <time>2015-04-22T12:09:45Z</time>
      </trkpt>
      <trkpt lat="44.62126" lon="3.56995">
        <ele>1335.5848235093</ele>
        <time>2015-04-22T12:09:50Z</time>
      </trkpt>
      <trkpt lat="44.62127" lon="3.5699">
        <ele>1335.5334277175</ele>
        <time>2015-04-22T12:09:55Z</time>
      </trkpt>
      <trkpt lat="44.62129" lon="3.56985">
        <ele>1335.5334277175</ele>
        <time>2015-04-22T12:10:00Z</time>
      </trkpt>
      <trkpt lat="44.62131" lon="3.56977">
        <ele>1335.190210138</ele>
        <time>2015-04-22T12:10:05Z</time>
      </trkpt>
      <trkpt lat="44.62131" lon="3.56968">
        <ele>1335.190210138</ele>
        <time>2015-04-22T12:10:10Z</time>
      </trkpt>
      <trkpt lat="44.62132" lon="3.56961">
        <ele>1334.9957690839</ele>
        <time>2015-04-22T12:10:15Z</time>
      </trkpt>
      <trkpt lat="44.62133" lon="3.5695">
        <ele>1334.9957690839</ele>
        <time>2015-04-22T12:10:20Z</time>
      </trkpt>
      <trkpt lat="44.62133" lon="3.56942">
        <ele>1334.8823505072</ele>
        <time>2015-04-22T12:10:25Z</time>
      </trkpt>
      <trkpt lat="44.62134" lon="3.5693">
        <ele>1334.8823505072</ele>
        <time>2015-04-22T12:10:30Z</time>
      </trkpt>
      <trkpt lat="44.62135" lon="3.5692">
        <ele>1334.657245764</ele>
        <time>2015-04-22T12:10:35Z</time>
      </trkpt>
      <trkpt lat="44.62137" lon="3.56911">
        <ele>1334.657245764</ele>
        <time>2015-04-22T12:10:40Z</time>
      </trkpt>
      <trkpt lat="44.62139" lon="3.56902">
        <ele>1334.3583757231</ele>
        <time>2015-04-22T12:10:45Z</time>
      </trkpt>
      <trkpt lat="44.6214" lon="3.56895">
        <ele>1334.3583757231</ele>
        <time>2015-04-22T12:10:50Z</time>
      </trkpt>
      <trkpt lat="44.62142" lon="3.56892">
        <ele>1334.3583757231</ele>
        <time>2015-04-22T12:10:55Z</time>
      </trkpt>
      <trkpt lat="44.6215" lon="3.56891">
        <ele>1334.280474063</ele>
        <time>2015-04-22T12:11:00Z</time>
      </trkpt>
      <trkpt lat="44.62157" lon="3.56893">
        <ele>1334.280474063</ele>
        <time>2015-04-22T12:11:05Z</time>
      </trkpt>
      <trkpt lat="44.62166" lon="3.56893">
        <ele>1334.1195486562</ele>
        <time>2015-04-22T12:11:10Z</time>
      </trkpt>
      <trkpt lat="44.62176" lon="3.56889">
        <ele>1333.8247371917</ele>
        <time>2015-04-22T12:11:15Z</time>
      </trkpt>
      <trkpt lat="44.62182" lon="3.56884">
        <ele>1333.8247371917</ele>
        <time>2015-04-22T12:11:20Z</time>
      </trkpt>
      <trkpt lat="44.62188" lon="3.56873">
        <ele>1333.4069198936</ele>
        <time>2015-04-22T12:11:25Z</time>
      </trkpt>
      <trkpt lat="44.62192" lon="3.56864">
        <ele>1333.4069198936</ele>
        <time>2015-04-22T12:11:30Z</time>
      </trkpt>
      <trkpt lat="44.62195" lon="3.56854">
        <ele>1333.0494405419</ele>
        <time>2015-04-22T12:11:35Z</time>
      </trkpt>
      <trkpt lat="44.62197" lon="3.56844">
        <ele>1333.0494405419</ele>
        <time>2015-04-22T12:11:40Z</time>
      </trkpt>
      <trkpt lat="44.62198" lon="3.56833">
        <ele>1332.5184759148</ele>
        <time>2015-04-22T12:11:45Z</time>
      </trkpt>
      <trkpt lat="44.62198" lon="3.56825">
        <ele>1332.5184759148</ele>
        <time>2015-04-22T12:11:50Z</time>
      </trkpt>
      <trkpt lat="44.62199" lon="3.56824">
        <ele>1332.5184759148</ele>
        <time>2015-04-22T12:11:55Z</time>
      </trkpt>
      <trkpt lat="44.622" lon="3.5682">
        <ele>1332.1022343446</ele>
        <time>2015-04-22T12:12:00Z</time>
      </trkpt>
      <trkpt lat="44.62201" lon="3.56815">
        <ele>1332.1022343446</ele>
        <time>2015-04-22T12:12:05Z</time>
      </trkpt>
      <trkpt lat="44.62202" lon="3.56808">
        <ele>1331.4765512784</ele>
        <time>2015-04-22T12:12:10Z</time>
      </trkpt>
      <trkpt lat="44.62203" lon="3.56804">
        <ele>1331.4765512784</ele>
        <time>2015-04-22T12:12:15Z</time>
      </trkpt>
      <trkpt lat="44.62206" lon="3.56801">
        <ele>1331.4765512784</ele>
        <time>2015-04-22T12:12:20Z</time>
      </trkpt>
      <trkpt lat="44.62206" lon="3.568">
        <ele>1331.4765512784</ele>
        <time>2015-04-22T12:12:25Z</time>
      </trkpt>
      <trkpt lat="44.62206" lon="3.568">
        <ele>1331.4765512784</ele>
        <time>2015-04-22T12:12:30Z</time>
      </trkpt>
      <trkpt lat="44.62208" lon="3.56799">
        <ele>1330.9036696845</ele>
        <time>2015-04-22T12:12:35Z</time>
      </trkpt>
      <trkpt lat="44.62208" lon="3.56799">
        <ele>1330.9036696845</ele>
        <time>2015-04-22T12:12:40Z</time>
      </trkpt>
      <trkpt lat="44.62209" lon="3.56798">
        <ele>1330.9036696845</ele>
        <time>2015-04-22T12:12:45Z</time>
      </trkpt>
      <trkpt lat="44.62207" lon="3.56798">
        <ele>1330.9036696845</ele>
        <time>2015-04-22T12:12:50Z</time>
      </trkpt>
      <trkpt lat="44.62206" lon="3.56796">
        <ele>1330.9036696845</ele>
        <time>2015-04-22T12:12:55Z</time>
      </trkpt>
      <trkpt lat="44.62207" lon="3.56796">
        <ele>1330.9036696845</ele>
        <time>2015-04-22T12:13:00Z</time>
      </trkpt>
      <trkpt lat="44.62207" lon="3.56795">
        <ele>1330.9036696845</ele>
        <time>2015-04-22T12:13:05Z</time>
      </trkpt>
      <trkpt lat="44.62207" lon="3.56795">
        <ele>1330.9036696845</ele>
        <time>2015-04-22T12:13:10Z</time>
      </trkpt>
      <trkpt lat="44.62207" lon="3.56795">
        <ele>1330.9036696845</ele>
        <time>2015-04-22T12:13:15Z</time>
      </trkpt>
      <trkpt lat="44.62207" lon="3.56795">
        <ele>1330.9036696845</ele>
        <time>2015-04-22T12:13:20Z</time>
      </trkpt>
      <trkpt lat="44.62204" lon="3.56794">
        <ele>1330.9036696845</ele>
        <time>2015-04-22T12:13:25Z</time>
      </trkpt>
      <trkpt lat="44.62203" lon="3.56794">
        <ele>1330.2228793043</ele>
        <time>2015-04-22T12:13:30Z</time>
      </trkpt>
      <trkpt lat="44.62203" lon="3.56794">
        <ele>1330.2228793043</ele>
        <time>2015-04-22T12:13:35Z</time>
      </trkpt>
      <trkpt lat="44.62203" lon="3.56793">
        <ele>1330.2228793043</ele>
        <time>2015-04-22T12:13:40Z</time>
      </trkpt>
      <trkpt lat="44.62203" lon="3.56793">
        <ele>1330.2228793043</ele>
        <time>2015-04-22T12:13:45Z</time>
      </trkpt>
      <trkpt lat="44.62203" lon="3.56794">
        <ele>1330.2228793043</ele>
        <time>2015-04-22T12:13:50Z</time>
      </trkpt>
      <trkpt lat="44.62203" lon="3.56794">
        <ele>1330.2228793043</ele>
        <time>2015-04-22T12:13:55Z</time>
      </trkpt>
      <trkpt lat="44.62203" lon="3.56794">
        <ele>1330.2228793043</ele>
        <time>2015-04-22T12:14:00Z</time>
      </trkpt>
      <trkpt lat="44.62202" lon="3.56794">
        <ele>1330.2228793043</ele>
        <time>2015-04-22T12:14:05Z</time>
      </trkpt>
      <trkpt lat="44.62202" lon="3.56795">
        <ele>1330.2228793043</ele>
        <time>2015-04-22T12:14:10Z</time>
      </trkpt>
      <trkpt lat="44.62202" lon="3.56795">
        <ele>1330.2228793043</ele>
        <time>2015-04-22T12:14:15Z</time>
      </trkpt>
      <trkpt lat="44.62202" lon="3.56795">
        <ele>1330.2228793043</ele>
        <time>2015-04-22T12:14:20Z</time>
      </trkpt>
      <trkpt lat="44.62202" lon="3.56795">
        <ele>1330.2228793043</ele>
        <time>2015-04-22T12:14:25Z</time>
      </trkpt>
      <trkpt lat="44.62202" lon="3.56795">
        <ele>1330.2228793043</ele>
        <time>2015-04-22T12:14:30Z</time>
      </trkpt>
      <trkpt lat="44.622" lon="3.56795">
        <ele>1330.2228793043</ele>
        <time>2015-04-22T12:14:35Z</time>
      </trkpt>
      <trkpt lat="44.622" lon="3.56792">
        <ele>1330.2228793043</ele>
        <time>2015-04-22T12:14:40Z</time>
      </trkpt>
      <trkpt lat="44.622" lon="3.56793">
        <ele>1330.2228793043</ele>
        <time>2015-04-22T12:14:45Z</time>
      </trkpt>
      <trkpt lat="44.622" lon="3.56794">
        <ele>1330.2228793043</ele>
        <time>2015-04-22T12:14:50Z</time>
      </trkpt>
      <trkpt lat="44.622" lon="3.56794">
        <ele>1330.2228793043</ele>
        <time>2015-04-22T12:14:55Z</time>
      </trkpt>
      <trkpt lat="44.62201" lon="3.56795">
        <ele>1330.2228793043</ele>
        <time>2015-04-22T12:15:00Z</time>
      </trkpt>
      <trkpt lat="44.62204" lon="3.56792">
        <ele>1329.9196353601</ele>
        <time>2015-04-22T12:15:05Z</time>
      </trkpt>
      <trkpt lat="44.62205" lon="3.56793">
        <ele>1329.9196353601</ele>
        <time>2015-04-22T12:15:10Z</time>
      </trkpt>
      <trkpt lat="44.62203" lon="3.56794">
        <ele>1329.9196353601</ele>
        <time>2015-04-22T12:15:15Z</time>
      </trkpt>
      <trkpt lat="44.62201" lon="3.56795">
        <ele>1329.9196353601</ele>
        <time>2015-04-22T12:15:20Z</time>
      </trkpt>
      <trkpt lat="44.622" lon="3.56795">
        <ele>1329.9196353601</ele>
        <time>2015-04-22T12:15:25Z</time>
      </trkpt>
      <trkpt lat="44.622" lon="3.56797">
        <ele>1329.9196353601</ele>
        <time>2015-04-22T12:15:30Z</time>
      </trkpt>
      <trkpt lat="44.622" lon="3.56798">
        <ele>1329.9196353601</ele>
        <time>2015-04-22T12:15:35Z</time>
      </trkpt>
      <trkpt lat="44.62201" lon="3.56798">
        <ele>1330.1400060626</ele>
        <time>2015-04-22T12:15:40Z</time>
      </trkpt>
      <trkpt lat="44.62201" lon="3.56799">
        <ele>1330.1400060626</ele>
        <time>2015-04-22T12:15:45Z</time>
      </trkpt>
      <trkpt lat="44.622" lon="3.56799">
        <ele>1330.1400060626</ele>
        <time>2015-04-22T12:15:50Z</time>
      </trkpt>
      <trkpt lat="44.62201" lon="3.56799">
        <ele>1330.1400060626</ele>
        <time>2015-04-22T12:15:55Z</time>
      </trkpt>
      <trkpt lat="44.62201" lon="3.56799">
        <ele>1330.1400060626</ele>
        <time>2015-04-22T12:16:00Z</time>
      </trkpt>
      <trkpt lat="44.62201" lon="3.56799">
        <ele>1330.1400060626</ele>
        <time>2015-04-22T12:16:05Z</time>
      </trkpt>
      <trkpt lat="44.62201" lon="3.56799">
        <ele>1330.1400060626</ele>
        <time>2015-04-22T12:16:10Z</time>
      </trkpt>
      <trkpt lat="44.62201" lon="3.56799">
        <ele>1330.1400060626</ele>
        <time>2015-04-22T12:16:15Z</time>
      </trkpt>
      <trkpt lat="44.62201" lon="3.56799">
        <ele>1330.1400060626</ele>
        <time>2015-04-22T12:16:20Z</time>
      </trkpt>
      <trkpt lat="44.62201" lon="3.56799">
        <ele>1330.1400060626</ele>
        <time>2015-04-22T12:16:25Z</time>
      </trkpt>
      <trkpt lat="44.62201" lon="3.56799">
        <ele>1330.1400060626</ele>
        <time>2015-04-22T12:16:30Z</time>
      </trkpt>
      <trkpt lat="44.62201" lon="3.56799">
        <ele>1330.1400060626</ele>
        <time>2015-04-22T12:16:35Z</time>
      </trkpt>
      <trkpt lat="44.62201" lon="3.56799">
        <ele>1330.1400060626</ele>
        <time>2015-04-22T12:16:40Z</time>
      </trkpt>
      <trkpt lat="44.62201" lon="3.56799">
        <ele>1330.1400060626</ele>
        <time>2015-04-22T12:16:45Z</time>
      </trkpt>
      <trkpt lat="44.62201" lon="3.56799">
        <ele>1330.1400060626</ele>
        <time>2015-04-22T12:16:50Z</time>
      </trkpt>
      <trkpt lat="44.62201" lon="3.56799">
        <ele>1330.1400060626</ele>
        <time>2015-04-22T12:16:55Z</time>
      </trkpt>
      <trkpt lat="44.62202" lon="3.568">
        <ele>1330.1400060626</ele>
        <time>2015-04-22T12:17:00Z</time>
      </trkpt>
      <trkpt lat="44.62202" lon="3.568">
        <ele>1330.1400060626</ele>
        <time>2015-04-22T12:17:05Z</time>
      </trkpt>
      <trkpt lat="44.62202" lon="3.568">
        <ele>1330.1400060626</ele>
        <time>2015-04-22T12:17:10Z</time>
      </trkpt>
      <trkpt lat="44.62202" lon="3.568">
        <ele>1330.1400060626</ele>
        <time>2015-04-22T12:17:15Z</time>
      </trkpt>
      <trkpt lat="44.62202" lon="3.568">
        <ele>1330.1400060626</ele>
        <time>2015-04-22T12:17:20Z</time>
      </trkpt>
      <trkpt lat="44.62202" lon="3.568">
        <ele>1330.1400060626</ele>
        <time>2015-04-22T12:17:25Z</time>
      </trkpt>
      <trkpt lat="44.62202" lon="3.568">
        <ele>1330.1400060626</ele>
        <time>2015-04-22T12:17:30Z</time>
      </trkpt>
      <trkpt lat="44.62202" lon="3.568">
        <ele>1330.1400060626</ele>
        <time>2015-04-22T12:17:35Z</time>
      </trkpt>
      <trkpt lat="44.62202" lon="3.568">
        <ele>1330.1400060626</ele>
        <time>2015-04-22T12:17:40Z</time>
      </trkpt>
      <trkpt lat="44.62202" lon="3.568">
        <ele>1330.1400060626</ele>
        <time>2015-04-22T12:17:45Z</time>
      </trkpt>
      <trkpt lat="44.62202" lon="3.568">
        <ele>1330.1400060626</ele>
        <time>2015-04-22T12:17:50Z</time>
      </trkpt>
      <trkpt lat="44.62202" lon="3.568">
        <ele>1330.1400060626</ele>
        <time>2015-04-22T12:17:55Z</time>
      </trkpt>
      <trkpt lat="44.62202" lon="3.568">
        <ele>1330.1400060626</ele>
        <time>2015-04-22T12:18:00Z</time>
      </trkpt>
      <trkpt lat="44.62202" lon="3.568">
        <ele>1330.1400060626</ele>
        <time>2015-04-22T12:18:05Z</time>
      </trkpt>
      <trkpt lat="44.62204" lon="3.56799">
        <ele>1330.1400060626</ele>
        <time>2015-04-22T12:18:10Z</time>
      </trkpt>
      <trkpt lat="44.62202" lon="3.56799">
        <ele>1330.1400060626</ele>
        <time>2015-04-22T12:18:15Z</time>
      </trkpt>
      <trkpt lat="44.62202" lon="3.568">
        <ele>1330.5566724688</ele>
        <time>2015-04-22T12:18:20Z</time>
      </trkpt>
      <trkpt lat="44.62201" lon="3.568">
        <ele>1330.5566724688</ele>
        <time>2015-04-22T12:18:25Z</time>
      </trkpt>
      <trkpt lat="44.62204" lon="3.56795">
        <ele>1330.5566724688</ele>
        <time>2015-04-22T12:18:30Z</time>
      </trkpt>
      <trkpt lat="44.62204" lon="3.56795">
        <ele>1330.5566724688</ele>
        <time>2015-04-22T12:18:35Z</time>
      </trkpt>
      <trkpt lat="44.62204" lon="3.56795">
        <ele>1330.5566724688</ele>
        <time>2015-04-22T12:18:40Z</time>
      </trkpt>
      <trkpt lat="44.62204" lon="3.56795">
        <ele>1330.5566724688</ele>
        <time>2015-04-22T12:18:45Z</time>
      </trkpt>
      <trkpt lat="44.62204" lon="3.56795">
        <ele>1330.5566724688</ele>
        <time>2015-04-22T12:18:50Z</time>
      </trkpt>
      <trkpt lat="44.62204" lon="3.56795">
        <ele>1330.5566724688</ele>
        <time>2015-04-22T12:18:55Z</time>
      </trkpt>
      <trkpt lat="44.62204" lon="3.56795">
        <ele>1330.5566724688</ele>
        <time>2015-04-22T12:19:00Z</time>
      </trkpt>
      <trkpt lat="44.62204" lon="3.56795">
        <ele>1330.5566724688</ele>
        <time>2015-04-22T12:19:05Z</time>
      </trkpt>
      <trkpt lat="44.62204" lon="3.56795">
        <ele>1330.5566724688</ele>
        <time>2015-04-22T12:19:10Z</time>
      </trkpt>
      <trkpt lat="44.62204" lon="3.56795">
        <ele>1330.5566724688</ele>
        <time>2015-04-22T12:19:15Z</time>
      </trkpt>
      <trkpt lat="44.62203" lon="3.56795">
        <ele>1330.5566724688</ele>
        <time>2015-04-22T12:19:20Z</time>
      </trkpt>
      <trkpt lat="44.62203" lon="3.56795">
        <ele>1330.5566724688</ele>
        <time>2015-04-22T12:19:25Z</time>
      </trkpt>
      <trkpt lat="44.62203" lon="3.56795">
        <ele>1330.5566724688</ele>
        <time>2015-04-22T12:19:30Z</time>
      </trkpt>
      <trkpt lat="44.62203" lon="3.56795">
        <ele>1330.5566724688</ele>
        <time>2015-04-22T12:19:35Z</time>
      </trkpt>
      <trkpt lat="44.62204" lon="3.56795">
        <ele>1330.5566724688</ele>
        <time>2015-04-22T12:19:40Z</time>
      </trkpt>
      <trkpt lat="44.62205" lon="3.56797">
        <ele>1330.5566724688</ele>
        <time>2015-04-22T12:19:45Z</time>
      </trkpt>
      <trkpt lat="44.62205" lon="3.56797">
        <ele>1330.5775568857</ele>
        <time>2015-04-22T12:19:50Z</time>
      </trkpt>
      <trkpt lat="44.62203" lon="3.568">
        <ele>1330.5775568857</ele>
        <time>2015-04-22T12:19:55Z</time>
      </trkpt>
      <trkpt lat="44.622" lon="3.56805">
        <ele>1330.5775568857</ele>
        <time>2015-04-22T12:20:00Z</time>
      </trkpt>
      <trkpt lat="44.62194" lon="3.56805">
        <ele>1330.1307246158</ele>
        <time>2015-04-22T12:20:05Z</time>
      </trkpt>
      <trkpt lat="44.62193" lon="3.56806">
        <ele>1330.1307246158</ele>
        <time>2015-04-22T12:20:10Z</time>
      </trkpt>
      <trkpt lat="44.62194" lon="3.56805">
        <ele>1330.1307246158</ele>
        <time>2015-04-22T12:20:15Z</time>
      </trkpt>
      <trkpt lat="44.62195" lon="3.56806">
        <ele>1330.1307246158</ele>
        <time>2015-04-22T12:20:20Z</time>
      </trkpt>
      <trkpt lat="44.622" lon="3.56801">
        <ele>1329.6840229601</ele>
        <time>2015-04-22T13:16:02Z</time>
      </trkpt>
      <trkpt lat="44.622" lon="3.568">
        <ele>1329.6840229601</ele>
        <time>2015-04-22T13:16:07Z</time>
      </trkpt>
      <trkpt lat="44.62202" lon="3.56799">
        <ele>1329.6840229601</ele>
        <time>2015-04-22T13:16:12Z</time>
      </trkpt>
      <trkpt lat="44.62201" lon="3.56795">
        <ele>1329.6840229601</ele>
        <time>2015-04-22T13:16:17Z</time>
      </trkpt>
      <trkpt lat="44.62202" lon="3.56786">
        <ele>1329.4547395786</ele>
        <time>2015-04-22T13:16:22Z</time>
      </trkpt>
      <trkpt lat="44.622" lon="3.56778">
        <ele>1329.4547395786</ele>
        <time>2015-04-22T13:16:27Z</time>
      </trkpt>
      <trkpt lat="44.62199" lon="3.56777">
        <ele>1329.4547395786</ele>
        <time>2015-04-22T13:16:32Z</time>
      </trkpt>
      <trkpt lat="44.62199" lon="3.56778">
        <ele>1329.4547395786</ele>
        <time>2015-04-22T13:16:37Z</time>
      </trkpt>
      <trkpt lat="44.62199" lon="3.56778">
        <ele>1329.4547395786</ele>
        <time>2015-04-22T13:16:42Z</time>
      </trkpt>
      <trkpt lat="44.622" lon="3.56779">
        <ele>1329.2112318942</ele>
        <time>2015-04-22T13:16:47Z</time>
      </trkpt>
      <trkpt lat="44.622" lon="3.56778">
        <ele>1329.2112318942</ele>
        <time>2015-04-22T13:16:52Z</time>
      </trkpt>
      <trkpt lat="44.62201" lon="3.56775">
        <ele>1329.2112318942</ele>
        <time>2015-04-22T13:16:57Z</time>
      </trkpt>
      <trkpt lat="44.622" lon="3.56772">
        <ele>1329.2112318942</ele>
        <time>2015-04-22T13:17:02Z</time>
      </trkpt>
      <trkpt lat="44.62197" lon="3.56773">
        <ele>1329.2112318942</ele>
        <time>2015-04-22T13:17:07Z</time>
      </trkpt>
      <trkpt lat="44.62197" lon="3.56779">
        <ele>1328.6235986706</ele>
        <time>2015-04-22T13:17:12Z</time>
      </trkpt>
      <trkpt lat="44.62201" lon="3.56786">
        <ele>1328.6235986706</ele>
        <time>2015-04-22T13:17:17Z</time>
      </trkpt>
      <trkpt lat="44.62203" lon="3.56791">
        <ele>1327.8194446916</ele>
        <time>2015-04-22T13:17:22Z</time>
      </trkpt>
      <trkpt lat="44.62201" lon="3.56802">
        <ele>1327.8194446916</ele>
        <time>2015-04-22T13:17:27Z</time>
      </trkpt>
      <trkpt lat="44.62198" lon="3.56814">
        <ele>1327.6813697099</ele>
        <time>2015-04-22T13:17:32Z</time>
      </trkpt>
      <trkpt lat="44.62195" lon="3.56825">
        <ele>1327.6813697099</ele>
        <time>2015-04-22T13:17:37Z</time>
      </trkpt>
      <trkpt lat="44.62191" lon="3.56835">
        <ele>1327.8579411561</ele>
        <time>2015-04-22T13:17:42Z</time>
      </trkpt>
      <trkpt lat="44.62188" lon="3.56844">
        <ele>1327.8579411561</ele>
        <time>2015-04-22T13:17:47Z</time>
      </trkpt>
      <trkpt lat="44.62184" lon="3.56851">
        <ele>1327.7632319531</ele>
        <time>2015-04-22T13:17:52Z</time>
      </trkpt>
      <trkpt lat="44.62182" lon="3.56858">
        <ele>1327.7632319531</ele>
        <time>2015-04-22T13:17:57Z</time>
      </trkpt>
      <trkpt lat="44.62177" lon="3.56865">
        <ele>1327.4891806453</ele>
        <time>2015-04-22T13:18:02Z</time>
      </trkpt>
      <trkpt lat="44.62172" lon="3.56874">
        <ele>1327.4891806453</ele>
        <time>2015-04-22T13:18:07Z</time>
      </trkpt>
      <trkpt lat="44.62166" lon="3.5688">
        <ele>1327.2079175067</ele>
        <time>2015-04-22T13:18:12Z</time>
      </trkpt>
      <trkpt lat="44.62162" lon="3.56887">
        <ele>1327.2079175067</ele>
        <time>2015-04-22T13:18:17Z</time>
      </trkpt>
      <trkpt lat="44.62158" lon="3.56892">
        <ele>1327.0356924578</ele>
        <time>2015-04-22T13:18:22Z</time>
      </trkpt>
      <trkpt lat="44.62153" lon="3.56895">
        <ele>1327.0356924578</ele>
        <time>2015-04-22T13:18:27Z</time>
      </trkpt>
      <trkpt lat="44.62147" lon="3.56895">
        <ele>1327.0222440728</ele>
        <time>2015-04-22T13:18:32Z</time>
      </trkpt>
      <trkpt lat="44.62141" lon="3.56894">
        <ele>1327.0222440728</ele>
        <time>2015-04-22T13:18:37Z</time>
      </trkpt>
      <trkpt lat="44.62139" lon="3.56887">
        <ele>1327.1267253508</ele>
        <time>2015-04-22T13:18:42Z</time>
      </trkpt>
      <trkpt lat="44.62141" lon="3.56873">
        <ele>1327.4838754837</ele>
        <time>2015-04-22T13:18:47Z</time>
      </trkpt>
      <trkpt lat="44.62143" lon="3.56861">
        <ele>1327.4838754837</ele>
        <time>2015-04-22T13:18:52Z</time>
      </trkpt>
      <trkpt lat="44.62144" lon="3.56851">
        <ele>1327.7710688832</ele>
        <time>2015-04-22T13:18:57Z</time>
      </trkpt>
      <trkpt lat="44.62147" lon="3.56834">
        <ele>1327.6751549606</ele>
        <time>2015-04-22T13:19:02Z</time>
      </trkpt>
      <trkpt lat="44.62149" lon="3.56816">
        <ele>1327.656433137</ele>
        <time>2015-04-22T13:19:07Z</time>
      </trkpt>
      <trkpt lat="44.6215" lon="3.56806">
        <ele>1327.656433137</ele>
        <time>2015-04-22T13:19:12Z</time>
      </trkpt>
      <trkpt lat="44.6215" lon="3.56802">
        <ele>1327.8673581615</ele>
        <time>2015-04-22T13:19:17Z</time>
      </trkpt>
      <trkpt lat="44.62149" lon="3.5679">
        <ele>1327.8673581615</ele>
        <time>2015-04-22T13:19:22Z</time>
      </trkpt>
      <trkpt lat="44.62149" lon="3.56776">
        <ele>1327.987384288</ele>
        <time>2015-04-22T13:19:27Z</time>
      </trkpt>
      <trkpt lat="44.62151" lon="3.56759">
        <ele>1328.1809245322</ele>
        <time>2015-04-22T13:19:32Z</time>
      </trkpt>
      <trkpt lat="44.62151" lon="3.56748">
        <ele>1328.1809245322</ele>
        <time>2015-04-22T13:19:37Z</time>
      </trkpt>
      <trkpt lat="44.62149" lon="3.5674">
        <ele>1328.4415892887</ele>
        <time>2015-04-22T13:19:42Z</time>
      </trkpt>
      <trkpt lat="44.62151" lon="3.56727">
        <ele>1328.8065099349</ele>
        <time>2015-04-22T13:19:47Z</time>
      </trkpt>
      <trkpt lat="44.62151" lon="3.56717">
        <ele>1328.8065099349</ele>
        <time>2015-04-22T13:19:52Z</time>
      </trkpt>
      <trkpt lat="44.62152" lon="3.56708">
        <ele>1329.7277306815</ele>
        <time>2015-04-22T13:19:57Z</time>
      </trkpt>
      <trkpt lat="44.62154" lon="3.567">
        <ele>1329.7277306815</ele>
        <time>2015-04-22T13:20:02Z</time>
      </trkpt>
      <trkpt lat="44.62156" lon="3.56692">
        <ele>1330.0084975041</ele>
        <time>2015-04-22T13:20:07Z</time>
      </trkpt>
      <trkpt lat="44.62158" lon="3.56682">
        <ele>1330.0084975041</ele>
        <time>2015-04-22T13:20:12Z</time>
      </trkpt>
      <trkpt lat="44.62162" lon="3.56674">
        <ele>1329.8243727848</ele>
        <time>2015-04-22T13:20:17Z</time>
      </trkpt>
      <trkpt lat="44.62163" lon="3.56664">
        <ele>1329.8243727848</ele>
        <time>2015-04-22T13:20:22Z</time>
      </trkpt>
      <trkpt lat="44.62158" lon="3.56656">
        <ele>1330.0887249246</ele>
        <time>2015-04-22T13:20:27Z</time>
      </trkpt>
      <trkpt lat="44.62156" lon="3.56646">
        <ele>1330.0887249246</ele>
        <time>2015-04-22T13:20:32Z</time>
      </trkpt>
      <trkpt lat="44.62158" lon="3.56636">
        <ele>1329.9028451392</ele>
        <time>2015-04-22T13:20:37Z</time>
      </trkpt>
      <trkpt lat="44.62159" lon="3.56628">
        <ele>1329.9028451392</ele>
        <time>2015-04-22T13:20:42Z</time>
      </trkpt>
      <trkpt lat="44.62159" lon="3.56619">
        <ele>1330.3231845952</ele>
        <time>2015-04-22T13:20:47Z</time>
      </trkpt>
      <trkpt lat="44.62158" lon="3.5661">
        <ele>1330.3231845952</ele>
        <time>2015-04-22T13:20:52Z</time>
      </trkpt>
      <trkpt lat="44.6216" lon="3.56599">
        <ele>1331.4766554824</ele>
        <time>2015-04-22T13:20:57Z</time>
      </trkpt>
      <trkpt lat="44.62161" lon="3.56588">
        <ele>1331.4766554824</ele>
        <time>2015-04-22T13:21:02Z</time>
      </trkpt>
      <trkpt lat="44.62161" lon="3.56578">
        <ele>1332.1097607977</ele>
        <time>2015-04-22T13:21:07Z</time>
      </trkpt>
      <trkpt lat="44.62161" lon="3.56567">
        <ele>1332.1097607977</ele>
        <time>2015-04-22T13:21:12Z</time>
      </trkpt>
      <trkpt lat="44.62162" lon="3.56559">
        <ele>1332.3307522017</ele>
        <time>2015-04-22T13:21:17Z</time>
      </trkpt>
      <trkpt lat="44.62163" lon="3.5655">
        <ele>1332.3307522017</ele>
        <time>2015-04-22T13:21:22Z</time>
      </trkpt>
      <trkpt lat="44.62167" lon="3.56528">
        <ele>1332.1546508032</ele>
        <time>2015-04-22T13:21:27Z</time>
      </trkpt>
      <trkpt lat="44.6217" lon="3.56518">
        <ele>1332.1546508032</ele>
        <time>2015-04-22T13:21:32Z</time>
      </trkpt>
      <trkpt lat="44.6217" lon="3.56507">
        <ele>1332.3026666213</ele>
        <time>2015-04-22T13:21:37Z</time>
      </trkpt>
      <trkpt lat="44.62171" lon="3.56497">
        <ele>1332.3026666213</ele>
        <time>2015-04-22T13:21:42Z</time>
      </trkpt>
      <trkpt lat="44.62172" lon="3.56487">
        <ele>1332.6783650481</ele>
        <time>2015-04-22T13:21:47Z</time>
      </trkpt>
      <trkpt lat="44.62172" lon="3.56475">
        <ele>1332.6783650481</ele>
        <time>2015-04-22T13:21:52Z</time>
      </trkpt>
      <trkpt lat="44.62172" lon="3.56467">
        <ele>1333.1773786767</ele>
        <time>2015-04-22T13:21:57Z</time>
      </trkpt>
      <trkpt lat="44.62171" lon="3.56459">
        <ele>1333.1773786767</ele>
        <time>2015-04-22T13:22:02Z</time>
      </trkpt>
      <trkpt lat="44.62173" lon="3.5645">
        <ele>1333.5441716411</ele>
        <time>2015-04-22T13:22:07Z</time>
      </trkpt>
      <trkpt lat="44.62174" lon="3.56442">
        <ele>1333.5441716411</ele>
        <time>2015-04-22T13:22:12Z</time>
      </trkpt>
      <trkpt lat="44.62174" lon="3.56433">
        <ele>1334.4502856437</ele>
        <time>2015-04-22T13:22:17Z</time>
      </trkpt>
      <trkpt lat="44.62174" lon="3.56422">
        <ele>1334.4502856437</ele>
        <time>2015-04-22T13:22:22Z</time>
      </trkpt>
      <trkpt lat="44.62175" lon="3.56411">
        <ele>1336.0264789198</ele>
        <time>2015-04-22T13:22:27Z</time>
      </trkpt>
      <trkpt lat="44.62174" lon="3.56399">
        <ele>1336.0264789198</ele>
        <time>2015-04-22T13:22:32Z</time>
      </trkpt>
      <trkpt lat="44.62176" lon="3.56389">
        <ele>1337.3977008555</ele>
        <time>2015-04-22T13:22:37Z</time>
      </trkpt>
      <trkpt lat="44.62176" lon="3.56377">
        <ele>1337.3977008555</ele>
        <time>2015-04-22T13:22:42Z</time>
      </trkpt>
      <trkpt lat="44.62174" lon="3.56369">
        <ele>1339.3966747046</ele>
        <time>2015-04-22T13:22:47Z</time>
      </trkpt>
      <trkpt lat="44.62171" lon="3.56361">
        <ele>1339.3966747046</ele>
        <time>2015-04-22T13:22:52Z</time>
      </trkpt>
      <trkpt lat="44.62171" lon="3.5635">
        <ele>1341.9429964938</ele>
        <time>2015-04-22T13:22:57Z</time>
      </trkpt>
      <trkpt lat="44.62173" lon="3.5634">
        <ele>1341.9429964938</ele>
        <time>2015-04-22T13:23:02Z</time>
      </trkpt>
      <trkpt lat="44.62176" lon="3.56331">
        <ele>1342.9287358416</ele>
        <time>2015-04-22T13:23:07Z</time>
      </trkpt>
      <trkpt lat="44.62182" lon="3.56328">
        <ele>1342.9287358416</ele>
        <time>2015-04-22T13:23:12Z</time>
      </trkpt>
      <trkpt lat="44.62185" lon="3.56321">
        <ele>1342.6822200998</ele>
        <time>2015-04-22T13:23:17Z</time>
      </trkpt>
      <trkpt lat="44.62189" lon="3.56313">
        <ele>1342.6822200998</ele>
        <time>2015-04-22T13:23:22Z</time>
      </trkpt>
      <trkpt lat="44.62193" lon="3.56306">
        <ele>1342.130870685</ele>
        <time>2015-04-22T13:23:27Z</time>
      </trkpt>
      <trkpt lat="44.62196" lon="3.56296">
        <ele>1342.130870685</ele>
        <time>2015-04-22T13:23:32Z</time>
      </trkpt>
      <trkpt lat="44.62198" lon="3.56286">
        <ele>1341.5152323178</ele>
        <time>2015-04-22T13:23:37Z</time>
      </trkpt>
      <trkpt lat="44.62197" lon="3.56277">
        <ele>1341.5152323178</ele>
        <time>2015-04-22T13:23:42Z</time>
      </trkpt>
      <trkpt lat="44.62199" lon="3.56261">
        <ele>1341.2890031898</ele>
        <time>2015-04-22T13:23:47Z</time>
      </trkpt>
      <trkpt lat="44.62204" lon="3.56253">
        <ele>1341.2890031898</ele>
        <time>2015-04-22T13:23:52Z</time>
      </trkpt>
      <trkpt lat="44.62207" lon="3.56243">
        <ele>1341.0500826203</ele>
        <time>2015-04-22T13:23:57Z</time>
      </trkpt>
      <trkpt lat="44.62208" lon="3.56231">
        <ele>1341.0500826203</ele>
        <time>2015-04-22T13:24:02Z</time>
      </trkpt>
      <trkpt lat="44.62208" lon="3.5622">
        <ele>1341.4635916229</ele>
        <time>2015-04-22T13:24:07Z</time>
      </trkpt>
      <trkpt lat="44.62212" lon="3.56214">
        <ele>1341.4635916229</ele>
        <time>2015-04-22T13:24:12Z</time>
      </trkpt>
      <trkpt lat="44.62215" lon="3.56209">
        <ele>1340.8382227244</ele>
        <time>2015-04-22T13:24:17Z</time>
      </trkpt>
      <trkpt lat="44.62218" lon="3.562">
        <ele>1340.8382227244</ele>
        <time>2015-04-22T13:24:22Z</time>
      </trkpt>
      <trkpt lat="44.62219" lon="3.56193">
        <ele>1340.4344374907</ele>
        <time>2015-04-22T13:24:27Z</time>
      </trkpt>
      <trkpt lat="44.62221" lon="3.56186">
        <ele>1340.4344374907</ele>
        <time>2015-04-22T13:24:32Z</time>
      </trkpt>
      <trkpt lat="44.62224" lon="3.5618">
        <ele>1339.819875531</ele>
        <time>2015-04-22T13:24:37Z</time>
      </trkpt>
      <trkpt lat="44.62229" lon="3.56176">
        <ele>1339.819875531</ele>
        <time>2015-04-22T13:24:42Z</time>
      </trkpt>
      <trkpt lat="44.62232" lon="3.56165">
        <ele>1339.4015703656</ele>
        <time>2015-04-22T13:24:47Z</time>
      </trkpt>
      <trkpt lat="44.62233" lon="3.56151">
        <ele>1339.0661379758</ele>
        <time>2015-04-22T13:24:52Z</time>
      </trkpt>
      <trkpt lat="44.62231" lon="3.56137">
        <ele>1339.6882532395</ele>
        <time>2015-04-22T13:24:57Z</time>
      </trkpt>
      <trkpt lat="44.62229" lon="3.56128">
        <ele>1339.6882532395</ele>
        <time>2015-04-22T13:25:02Z</time>
      </trkpt>
      <trkpt lat="44.62231" lon="3.56122">
        <ele>1339.9283978321</ele>
        <time>2015-04-22T13:25:07Z</time>
      </trkpt>
      <trkpt lat="44.62235" lon="3.56112">
        <ele>1339.9283978321</ele>
        <time>2015-04-22T13:25:12Z</time>
      </trkpt>
      <trkpt lat="44.62237" lon="3.56106">
        <ele>1340.160571069</ele>
        <time>2015-04-22T13:25:17Z</time>
      </trkpt>
      <trkpt lat="44.62239" lon="3.56099">
        <ele>1340.160571069</ele>
        <time>2015-04-22T13:25:22Z</time>
      </trkpt>
      <trkpt lat="44.62234" lon="3.5609">
        <ele>1340.2269319652</ele>
        <time>2015-04-22T13:25:27Z</time>
      </trkpt>
      <trkpt lat="44.62235" lon="3.56073">
        <ele>1340.1834549571</ele>
        <time>2015-04-22T13:25:32Z</time>
      </trkpt>
      <trkpt lat="44.62236" lon="3.56054">
        <ele>1341.119911144</ele>
        <time>2015-04-22T13:25:37Z</time>
      </trkpt>
      <trkpt lat="44.62238" lon="3.56047">
        <ele>1341.119911144</ele>
        <time>2015-04-22T13:25:42Z</time>
      </trkpt>
      <trkpt lat="44.6224" lon="3.56036">
        <ele>1340.5125433857</ele>
        <time>2015-04-22T13:25:47Z</time>
      </trkpt>
      <trkpt lat="44.62237" lon="3.56019">
        <ele>1340.4659402639</ele>
        <time>2015-04-22T13:25:52Z</time>
      </trkpt>
      <trkpt lat="44.62233" lon="3.56009">
        <ele>1340.4659402639</ele>
        <time>2015-04-22T13:25:57Z</time>
      </trkpt>
      <trkpt lat="44.62234" lon="3.55998">
        <ele>1340.9253666533</ele>
        <time>2015-04-22T13:26:02Z</time>
      </trkpt>
      <trkpt lat="44.62231" lon="3.55989">
        <ele>1340.9253666533</ele>
        <time>2015-04-22T13:26:07Z</time>
      </trkpt>
      <trkpt lat="44.62236" lon="3.5598">
        <ele>1341.1037171123</ele>
        <time>2015-04-22T13:26:12Z</time>
      </trkpt>
      <trkpt lat="44.62236" lon="3.55975">
        <ele>1341.1037171123</ele>
        <time>2015-04-22T13:26:17Z</time>
      </trkpt>
      <trkpt lat="44.62235" lon="3.55967">
        <ele>1341.1948004087</ele>
        <time>2015-04-22T13:26:22Z</time>
      </trkpt>
      <trkpt lat="44.62235" lon="3.55963">
        <ele>1341.1948004087</ele>
        <time>2015-04-22T13:26:27Z</time>
      </trkpt>
      <trkpt lat="44.62235" lon="3.55963">
        <ele>1341.1948004087</ele>
        <time>2015-04-22T13:26:32Z</time>
      </trkpt>
      <trkpt lat="44.62235" lon="3.55962">
        <ele>1341.1948004087</ele>
        <time>2015-04-22T13:26:37Z</time>
      </trkpt>
      <trkpt lat="44.62235" lon="3.55962">
        <ele>1341.1948004087</ele>
        <time>2015-04-22T13:26:42Z</time>
      </trkpt>
      <trkpt lat="44.62235" lon="3.55961">
        <ele>1341.1948004087</ele>
        <time>2015-04-22T13:26:47Z</time>
      </trkpt>
      <trkpt lat="44.62238" lon="3.55957">
        <ele>1342.3151511132</ele>
        <time>2015-04-22T13:26:52Z</time>
      </trkpt>
      <trkpt lat="44.62241" lon="3.55956">
        <ele>1342.3151511132</ele>
        <time>2015-04-22T13:26:57Z</time>
      </trkpt>
      <trkpt lat="44.62242" lon="3.55955">
        <ele>1342.3151511132</ele>
        <time>2015-04-22T13:27:02Z</time>
      </trkpt>
      <trkpt lat="44.62242" lon="3.55955">
        <ele>1342.3151511132</ele>
        <time>2015-04-22T13:27:07Z</time>
      </trkpt>
      <trkpt lat="44.62242" lon="3.55955">
        <ele>1342.3151511132</ele>
        <time>2015-04-22T13:27:12Z</time>
      </trkpt>
      <trkpt lat="44.62243" lon="3.55954">
        <ele>1342.3151511132</ele>
        <time>2015-04-22T13:27:17Z</time>
      </trkpt>
      <trkpt lat="44.62243" lon="3.55954">
        <ele>1342.3151511132</ele>
        <time>2015-04-22T13:27:22Z</time>
      </trkpt>
      <trkpt lat="44.62243" lon="3.55954">
        <ele>1342.3151511132</ele>
        <time>2015-04-22T13:27:27Z</time>
      </trkpt>
      <trkpt lat="44.62243" lon="3.55954">
        <ele>1342.3151511132</ele>
        <time>2015-04-22T13:27:32Z</time>
      </trkpt>
      <trkpt lat="44.62243" lon="3.55954">
        <ele>1342.3151511132</ele>
        <time>2015-04-22T13:27:37Z</time>
      </trkpt>
      <trkpt lat="44.62243" lon="3.55954">
        <ele>1342.3151511132</ele>
        <time>2015-04-22T13:27:42Z</time>
      </trkpt>
      <trkpt lat="44.62243" lon="3.55954">
        <ele>1342.3151511132</ele>
        <time>2015-04-22T13:27:47Z</time>
      </trkpt>
      <trkpt lat="44.62243" lon="3.55954">
        <ele>1342.3151511132</ele>
        <time>2015-04-22T13:27:52Z</time>
      </trkpt>
      <trkpt lat="44.62243" lon="3.55954">
        <ele>1342.3151511132</ele>
        <time>2015-04-22T13:27:57Z</time>
      </trkpt>
      <trkpt lat="44.62243" lon="3.55954">
        <ele>1342.3151511132</ele>
        <time>2015-04-22T13:28:02Z</time>
      </trkpt>
      <trkpt lat="44.62243" lon="3.55954">
        <ele>1342.3151511132</ele>
        <time>2015-04-22T13:28:07Z</time>
      </trkpt>
      <trkpt lat="44.62243" lon="3.55954">
        <ele>1342.3151511132</ele>
        <time>2015-04-22T13:28:12Z</time>
      </trkpt>
      <trkpt lat="44.62243" lon="3.55954">
        <ele>1342.3151511132</ele>
        <time>2015-04-22T13:28:17Z</time>
      </trkpt>
      <trkpt lat="44.62243" lon="3.55954">
        <ele>1342.3151511132</ele>
        <time>2015-04-22T13:28:22Z</time>
      </trkpt>
      <trkpt lat="44.62243" lon="3.55954">
        <ele>1342.3151511132</ele>
        <time>2015-04-22T13:28:27Z</time>
      </trkpt>
      <trkpt lat="44.62243" lon="3.55954">
        <ele>1342.3151511132</ele>
        <time>2015-04-22T13:28:32Z</time>
      </trkpt>
      <trkpt lat="44.62243" lon="3.55954">
        <ele>1342.3151511132</ele>
        <time>2015-04-22T13:28:37Z</time>
      </trkpt>
      <trkpt lat="44.62242" lon="3.55951">
        <ele>1342.3151511132</ele>
        <time>2015-04-22T13:28:42Z</time>
      </trkpt>
      <trkpt lat="44.62248" lon="3.55953">
        <ele>1342.1241911092</ele>
        <time>2015-04-22T13:28:47Z</time>
      </trkpt>
      <trkpt lat="44.6225" lon="3.55956">
        <ele>1342.1241911092</ele>
        <time>2015-04-22T13:28:52Z</time>
      </trkpt>
      <trkpt lat="44.62251" lon="3.55957">
        <ele>1342.1241911092</ele>
        <time>2015-04-22T13:28:57Z</time>
      </trkpt>
      <trkpt lat="44.62251" lon="3.55957">
        <ele>1342.1241911092</ele>
        <time>2015-04-22T13:29:02Z</time>
      </trkpt>
      <trkpt lat="44.62254" lon="3.55959">
        <ele>1342.1241911092</ele>
        <time>2015-04-22T13:29:07Z</time>
      </trkpt>
      <trkpt lat="44.62261" lon="3.55963">
        <ele>1341.0221318165</ele>
        <time>2015-04-22T13:29:12Z</time>
      </trkpt>
      <trkpt lat="44.62268" lon="3.55966">
        <ele>1341.0221318165</ele>
        <time>2015-04-22T13:29:17Z</time>
      </trkpt>
      <trkpt lat="44.62277" lon="3.55971">
        <ele>1339.5696766504</ele>
        <time>2015-04-22T13:29:22Z</time>
      </trkpt>
      <trkpt lat="44.62288" lon="3.55978">
        <ele>1338.3881851689</ele>
        <time>2015-04-22T13:29:27Z</time>
      </trkpt>
      <trkpt lat="44.62293" lon="3.5598">
        <ele>1338.3881851689</ele>
        <time>2015-04-22T13:29:32Z</time>
      </trkpt>
      <trkpt lat="44.62295" lon="3.55981">
        <ele>1338.3881851689</ele>
        <time>2015-04-22T13:29:37Z</time>
      </trkpt>
      <trkpt lat="44.62304" lon="3.55977">
        <ele>1336.2656063215</ele>
        <time>2015-04-22T13:29:42Z</time>
      </trkpt>
      <trkpt lat="44.6232" lon="3.55967">
        <ele>1334.416126429</ele>
        <time>2015-04-22T13:29:47Z</time>
      </trkpt>
      <trkpt lat="44.62327" lon="3.55961">
        <ele>1334.416126429</ele>
        <time>2015-04-22T13:29:52Z</time>
      </trkpt>
      <trkpt lat="44.62336" lon="3.5596">
        <ele>1332.4939849248</ele>
        <time>2015-04-22T13:29:57Z</time>
      </trkpt>
      <trkpt lat="44.62344" lon="3.55964">
        <ele>1332.4939849248</ele>
        <time>2015-04-22T13:30:02Z</time>
      </trkpt>
      <trkpt lat="44.62353" lon="3.55967">
        <ele>1330.9715698998</ele>
        <time>2015-04-22T13:30:07Z</time>
      </trkpt>
      <trkpt lat="44.62361" lon="3.55971">
        <ele>1330.9715698998</ele>
        <time>2015-04-22T13:30:12Z</time>
      </trkpt>
      <trkpt lat="44.62367" lon="3.55983">
        <ele>1329.7809805684</ele>
        <time>2015-04-22T13:30:17Z</time>
      </trkpt>
      <trkpt lat="44.6237" lon="3.55992">
        <ele>1329.7809805684</ele>
        <time>2015-04-22T13:30:22Z</time>
      </trkpt>
      <trkpt lat="44.62376" lon="3.56003">
        <ele>1328.2241978152</ele>
        <time>2015-04-22T13:30:27Z</time>
      </trkpt>
      <trkpt lat="44.62381" lon="3.56015">
        <ele>1326.8083018384</ele>
        <time>2015-04-22T13:30:32Z</time>
      </trkpt>
      <trkpt lat="44.62384" lon="3.56024">
        <ele>1326.8083018384</ele>
        <time>2015-04-22T13:30:37Z</time>
      </trkpt>
      <trkpt lat="44.62386" lon="3.5603">
        <ele>1325.3108950512</ele>
        <time>2015-04-22T13:30:42Z</time>
      </trkpt>
      <trkpt lat="44.6239" lon="3.56033">
        <ele>1325.3108950512</ele>
        <time>2015-04-22T13:30:47Z</time>
      </trkpt>
      <trkpt lat="44.62393" lon="3.56036">
        <ele>1325.3108950512</ele>
        <time>2015-04-22T13:30:52Z</time>
      </trkpt>
      <trkpt lat="44.62397" lon="3.56039">
        <ele>1324.044842053</ele>
        <time>2015-04-22T13:30:57Z</time>
      </trkpt>
      <trkpt lat="44.62402" lon="3.56038">
        <ele>1324.044842053</ele>
        <time>2015-04-22T13:31:02Z</time>
      </trkpt>
      <trkpt lat="44.62405" lon="3.56033">
        <ele>1322.6651782508</ele>
        <time>2015-04-22T13:31:07Z</time>
      </trkpt>
      <trkpt lat="44.62411" lon="3.56027">
        <ele>1322.6651782508</ele>
        <time>2015-04-22T13:31:12Z</time>
      </trkpt>
      <trkpt lat="44.62416" lon="3.56021">
        <ele>1321.1839426569</ele>
        <time>2015-04-22T13:31:17Z</time>
      </trkpt>
      <trkpt lat="44.62424" lon="3.56014">
        <ele>1321.1839426569</ele>
        <time>2015-04-22T13:31:22Z</time>
      </trkpt>
      <trkpt lat="44.6243" lon="3.56005">
        <ele>1320.0015609205</ele>
        <time>2015-04-22T13:31:27Z</time>
      </trkpt>
      <trkpt lat="44.62432" lon="3.55998">
        <ele>1320.0015609205</ele>
        <time>2015-04-22T13:31:32Z</time>
      </trkpt>
      <trkpt lat="44.62434" lon="3.55989">
        <ele>1319.6177910716</ele>
        <time>2015-04-22T13:31:37Z</time>
      </trkpt>
      <trkpt lat="44.6244" lon="3.55983">
        <ele>1319.6177910716</ele>
        <time>2015-04-22T13:31:42Z</time>
      </trkpt>
      <trkpt lat="44.62446" lon="3.55975">
        <ele>1320.0321717568</ele>
        <time>2015-04-22T13:31:47Z</time>
      </trkpt>
      <trkpt lat="44.62451" lon="3.55969">
        <ele>1320.0321717568</ele>
        <time>2015-04-22T13:31:52Z</time>
      </trkpt>
      <trkpt lat="44.62453" lon="3.5596">
        <ele>1320.2763861522</ele>
        <time>2015-04-22T13:31:57Z</time>
      </trkpt>
      <trkpt lat="44.62453" lon="3.5595">
        <ele>1320.2763861522</ele>
        <time>2015-04-22T13:32:02Z</time>
      </trkpt>
      <trkpt lat="44.62455" lon="3.55939">
        <ele>1321.0388541811</ele>
        <time>2015-04-22T13:32:07Z</time>
      </trkpt>
      <trkpt lat="44.62458" lon="3.55927">
        <ele>1321.0388541811</ele>
        <time>2015-04-22T13:32:12Z</time>
      </trkpt>
      <trkpt lat="44.62462" lon="3.5592">
        <ele>1320.9527414694</ele>
        <time>2015-04-22T13:32:17Z</time>
      </trkpt>
      <trkpt lat="44.62467" lon="3.55915">
        <ele>1320.9527414694</ele>
        <time>2015-04-22T13:32:22Z</time>
      </trkpt>
      <trkpt lat="44.62475" lon="3.55913">
        <ele>1320.4112055383</ele>
        <time>2015-04-22T13:32:27Z</time>
      </trkpt>
      <trkpt lat="44.6248" lon="3.55915">
        <ele>1320.4112055383</ele>
        <time>2015-04-22T13:32:32Z</time>
      </trkpt>
      <trkpt lat="44.62478" lon="3.55915">
        <ele>1320.4112055383</ele>
        <time>2015-04-22T13:32:37Z</time>
      </trkpt>
      <trkpt lat="44.62478" lon="3.55913">
        <ele>1320.4112055383</ele>
        <time>2015-04-22T13:32:42Z</time>
      </trkpt>
      <trkpt lat="44.62478" lon="3.55913">
        <ele>1320.4112055383</ele>
        <time>2015-04-22T13:32:47Z</time>
      </trkpt>
      <trkpt lat="44.62481" lon="3.55914">
        <ele>1319.8373791983</ele>
        <time>2015-04-22T13:32:52Z</time>
      </trkpt>
      <trkpt lat="44.62487" lon="3.55917">
        <ele>1319.8373791983</ele>
        <time>2015-04-22T13:32:57Z</time>
      </trkpt>
      <trkpt lat="44.62495" lon="3.55922">
        <ele>1318.8739641983</ele>
        <time>2015-04-22T13:33:02Z</time>
      </trkpt>
      <trkpt lat="44.62497" lon="3.55929">
        <ele>1318.8739641983</ele>
        <time>2015-04-22T13:33:07Z</time>
      </trkpt>
      <trkpt lat="44.62497" lon="3.55937">
        <ele>1317.7097437765</ele>
        <time>2015-04-22T13:33:12Z</time>
      </trkpt>
      <trkpt lat="44.62494" lon="3.55947">
        <ele>1317.7097437765</ele>
        <time>2015-04-22T13:33:17Z</time>
      </trkpt>
      <trkpt lat="44.6249" lon="3.55958">
        <ele>1316.9668836182</ele>
        <time>2015-04-22T13:33:22Z</time>
      </trkpt>
      <trkpt lat="44.62485" lon="3.55966">
        <ele>1316.9668836182</ele>
        <time>2015-04-22T13:33:27Z</time>
      </trkpt>
      <trkpt lat="44.6248" lon="3.55976">
        <ele>1316.802684876</ele>
        <time>2015-04-22T13:33:32Z</time>
      </trkpt>
      <trkpt lat="44.62477" lon="3.55986">
        <ele>1316.802684876</ele>
        <time>2015-04-22T13:33:37Z</time>
      </trkpt>
      <trkpt lat="44.62474" lon="3.55994">
        <ele>1316.3092040388</ele>
        <time>2015-04-22T13:33:42Z</time>
      </trkpt>
      <trkpt lat="44.6247" lon="3.56001">
        <ele>1316.3092040388</ele>
        <time>2015-04-22T13:33:47Z</time>
      </trkpt>
      <trkpt lat="44.62468" lon="3.56011">
        <ele>1315.4530886066</ele>
        <time>2015-04-22T13:33:52Z</time>
      </trkpt>
      <trkpt lat="44.62467" lon="3.56021">
        <ele>1315.4530886066</ele>
        <time>2015-04-22T13:33:57Z</time>
      </trkpt>
      <trkpt lat="44.6247" lon="3.56028">
        <ele>1314.1179365204</ele>
        <time>2015-04-22T13:34:02Z</time>
      </trkpt>
      <trkpt lat="44.62476" lon="3.56033">
        <ele>1314.1179365204</ele>
        <time>2015-04-22T13:34:07Z</time>
      </trkpt>
      <trkpt lat="44.62489" lon="3.56041">
        <ele>1312.5286461941</ele>
        <time>2015-04-22T13:34:12Z</time>
      </trkpt>
      <trkpt lat="44.62498" lon="3.56046">
        <ele>1311.5139351728</ele>
        <time>2015-04-22T13:34:17Z</time>
      </trkpt>
      <trkpt lat="44.62506" lon="3.56044">
        <ele>1311.5139351728</ele>
        <time>2015-04-22T13:34:22Z</time>
      </trkpt>
      <trkpt lat="44.62514" lon="3.5604">
        <ele>1310.9320795214</ele>
        <time>2015-04-22T13:34:27Z</time>
      </trkpt>
      <trkpt lat="44.62521" lon="3.56035">
        <ele>1310.9320795214</ele>
        <time>2015-04-22T13:34:32Z</time>
      </trkpt>
      <trkpt lat="44.62528" lon="3.56031">
        <ele>1311.05401191</ele>
        <time>2015-04-22T13:34:37Z</time>
      </trkpt>
      <trkpt lat="44.62533" lon="3.56027">
        <ele>1311.05401191</ele>
        <time>2015-04-22T13:34:42Z</time>
      </trkpt>
      <trkpt lat="44.62539" lon="3.5602">
        <ele>1311.0911398022</ele>
        <time>2015-04-22T13:34:47Z</time>
      </trkpt>
      <trkpt lat="44.62546" lon="3.56012">
        <ele>1311.0911398022</ele>
        <time>2015-04-22T13:34:52Z</time>
      </trkpt>
      <trkpt lat="44.62551" lon="3.56007">
        <ele>1311.5811755138</ele>
        <time>2015-04-22T13:34:57Z</time>
      </trkpt>
      <trkpt lat="44.62556" lon="3.55999">
        <ele>1311.5811755138</ele>
        <time>2015-04-22T13:35:02Z</time>
      </trkpt>
      <trkpt lat="44.62562" lon="3.55992">
        <ele>1313.0498529362</ele>
        <time>2015-04-22T13:35:07Z</time>
      </trkpt>
      <trkpt lat="44.6257" lon="3.55988">
        <ele>1313.0498529362</ele>
        <time>2015-04-22T13:35:12Z</time>
      </trkpt>
      <trkpt lat="44.62576" lon="3.55985">
        <ele>1314.569234122</ele>
        <time>2015-04-22T13:35:17Z</time>
      </trkpt>
      <trkpt lat="44.62581" lon="3.5598">
        <ele>1314.569234122</ele>
        <time>2015-04-22T13:35:22Z</time>
      </trkpt>
      <trkpt lat="44.62589" lon="3.5598">
        <ele>1315.3514571147</ele>
        <time>2015-04-22T13:35:27Z</time>
      </trkpt>
      <trkpt lat="44.62597" lon="3.55985">
        <ele>1315.3514571147</ele>
        <time>2015-04-22T13:35:32Z</time>
      </trkpt>
      <trkpt lat="44.62601" lon="3.55993">
        <ele>1316.1817824179</ele>
        <time>2015-04-22T13:35:37Z</time>
      </trkpt>
      <trkpt lat="44.62604" lon="3.56002">
        <ele>1316.1817824179</ele>
        <time>2015-04-22T13:35:42Z</time>
      </trkpt>
      <trkpt lat="44.62606" lon="3.56009">
        <ele>1317.3985760861</ele>
        <time>2015-04-22T13:35:47Z</time>
      </trkpt>
      <trkpt lat="44.62606" lon="3.5602">
        <ele>1317.3985760861</ele>
        <time>2015-04-22T13:35:52Z</time>
      </trkpt>
      <trkpt lat="44.62606" lon="3.5603">
        <ele>1318.9972574568</ele>
        <time>2015-04-22T13:35:57Z</time>
      </trkpt>
      <trkpt lat="44.62607" lon="3.56038">
        <ele>1318.9972574568</ele>
        <time>2015-04-22T13:36:02Z</time>
      </trkpt>
      <trkpt lat="44.62607" lon="3.56048">
        <ele>1321.0734399533</ele>
        <time>2015-04-22T13:36:07Z</time>
      </trkpt>
      <trkpt lat="44.62608" lon="3.56056">
        <ele>1321.0734399533</ele>
        <time>2015-04-22T13:36:12Z</time>
      </trkpt>
      <trkpt lat="44.62609" lon="3.56064">
        <ele>1322.633604228</ele>
        <time>2015-04-22T13:36:17Z</time>
      </trkpt>
      <trkpt lat="44.62611" lon="3.56074">
        <ele>1322.633604228</ele>
        <time>2015-04-22T13:36:22Z</time>
      </trkpt>
      <trkpt lat="44.62613" lon="3.56085">
        <ele>1323.9260395746</ele>
        <time>2015-04-22T13:36:27Z</time>
      </trkpt>
      <trkpt lat="44.62616" lon="3.56095">
        <ele>1323.9260395746</ele>
        <time>2015-04-22T13:36:32Z</time>
      </trkpt>
      <trkpt lat="44.62619" lon="3.56106">
        <ele>1326.0751270114</ele>
        <time>2015-04-22T13:36:37Z</time>
      </trkpt>
      <trkpt lat="44.62624" lon="3.56114">
        <ele>1326.0751270114</ele>
        <time>2015-04-22T13:36:42Z</time>
      </trkpt>
      <trkpt lat="44.62633" lon="3.56115">
        <ele>1328.2180835199</ele>
        <time>2015-04-22T13:36:47Z</time>
      </trkpt>
      <trkpt lat="44.6264" lon="3.56116">
        <ele>1328.2180835199</ele>
        <time>2015-04-22T13:36:52Z</time>
      </trkpt>
      <trkpt lat="44.62646" lon="3.56114">
        <ele>1330.5932380524</ele>
        <time>2015-04-22T13:36:57Z</time>
      </trkpt>
      <trkpt lat="44.62657" lon="3.56112">
        <ele>1333.521766624</ele>
        <time>2015-04-22T13:37:02Z</time>
      </trkpt>
      <trkpt lat="44.62667" lon="3.56113">
        <ele>1336.1901854357</ele>
        <time>2015-04-22T13:37:07Z</time>
      </trkpt>
      <trkpt lat="44.62674" lon="3.56113">
        <ele>1336.1901854357</ele>
        <time>2015-04-22T13:37:12Z</time>
      </trkpt>
      <trkpt lat="44.62676" lon="3.56111">
        <ele>1338.551798118</ele>
        <time>2015-04-22T13:37:17Z</time>
      </trkpt>
      <trkpt lat="44.62682" lon="3.56108">
        <ele>1338.551798118</ele>
        <time>2015-04-22T13:37:22Z</time>
      </trkpt>
      <trkpt lat="44.62691" lon="3.56103">
        <ele>1340.0455645983</ele>
        <time>2015-04-22T13:37:27Z</time>
      </trkpt>
      <trkpt lat="44.62699" lon="3.56098">
        <ele>1340.0455645983</ele>
        <time>2015-04-22T13:37:32Z</time>
      </trkpt>
      <trkpt lat="44.62704" lon="3.56094">
        <ele>1340.7739429276</ele>
        <time>2015-04-22T13:37:37Z</time>
      </trkpt>
      <trkpt lat="44.62709" lon="3.56092">
        <ele>1340.7739429276</ele>
        <time>2015-04-22T13:37:42Z</time>
      </trkpt>
      <trkpt lat="44.62714" lon="3.56087">
        <ele>1342.2464759441</ele>
        <time>2015-04-22T13:37:47Z</time>
      </trkpt>
      <trkpt lat="44.62721" lon="3.56084">
        <ele>1342.2464759441</ele>
        <time>2015-04-22T13:37:52Z</time>
      </trkpt>
      <trkpt lat="44.62726" lon="3.56081">
        <ele>1343.2226676825</ele>
        <time>2015-04-22T13:37:57Z</time>
      </trkpt>
      <trkpt lat="44.62731" lon="3.56078">
        <ele>1343.2226676825</ele>
        <time>2015-04-22T13:38:02Z</time>
      </trkpt>
      <trkpt lat="44.62745" lon="3.56069">
        <ele>1344.2408109047</ele>
        <time>2015-04-22T13:38:07Z</time>
      </trkpt>
      <trkpt lat="44.62758" lon="3.56067">
        <ele>1344.935035634</ele>
        <time>2015-04-22T13:38:12Z</time>
      </trkpt>
      <trkpt lat="44.62765" lon="3.5607">
        <ele>1344.935035634</ele>
        <time>2015-04-22T13:38:17Z</time>
      </trkpt>
      <trkpt lat="44.62769" lon="3.56072">
        <ele>1344.866537228</ele>
        <time>2015-04-22T13:38:22Z</time>
      </trkpt>
      <trkpt lat="44.62775" lon="3.56073">
        <ele>1344.866537228</ele>
        <time>2015-04-22T13:38:27Z</time>
      </trkpt>
      <trkpt lat="44.62783" lon="3.56072">
        <ele>1344.9856792108</ele>
        <time>2015-04-22T13:38:32Z</time>
      </trkpt>
      <trkpt lat="44.62794" lon="3.56073">
        <ele>1345.3223689162</ele>
        <time>2015-04-22T13:38:37Z</time>
      </trkpt>
      <trkpt lat="44.62801" lon="3.56074">
        <ele>1345.3223689162</ele>
        <time>2015-04-22T13:38:42Z</time>
      </trkpt>
      <trkpt lat="44.62807" lon="3.56074">
        <ele>1345.5723788833</ele>
        <time>2015-04-22T13:38:47Z</time>
      </trkpt>
      <trkpt lat="44.62814" lon="3.56074">
        <ele>1345.5723788833</ele>
        <time>2015-04-22T13:38:52Z</time>
      </trkpt>
      <trkpt lat="44.62822" lon="3.56075">
        <ele>1346.0306354113</ele>
        <time>2015-04-22T13:38:57Z</time>
      </trkpt>
      <trkpt lat="44.62828" lon="3.56074">
        <ele>1346.0306354113</ele>
        <time>2015-04-22T13:39:02Z</time>
      </trkpt>
      <trkpt lat="44.62834" lon="3.56076">
        <ele>1346.3358343102</ele>
        <time>2015-04-22T13:39:07Z</time>
      </trkpt>
      <trkpt lat="44.62839" lon="3.56073">
        <ele>1346.3358343102</ele>
        <time>2015-04-22T13:39:12Z</time>
      </trkpt>
      <trkpt lat="44.62845" lon="3.56072">
        <ele>1346.9463529901</ele>
        <time>2015-04-22T13:39:17Z</time>
      </trkpt>
      <trkpt lat="44.62852" lon="3.5607">
        <ele>1346.9463529901</ele>
        <time>2015-04-22T13:39:22Z</time>
      </trkpt>
      <trkpt lat="44.62861" lon="3.5607">
        <ele>1347.8970326715</ele>
        <time>2015-04-22T13:39:27Z</time>
      </trkpt>
      <trkpt lat="44.62869" lon="3.5607">
        <ele>1347.8970326715</ele>
        <time>2015-04-22T13:39:32Z</time>
      </trkpt>
      <trkpt lat="44.62877" lon="3.56069">
        <ele>1349.4931001575</ele>
        <time>2015-04-22T13:39:37Z</time>
      </trkpt>
      <trkpt lat="44.62887" lon="3.56067">
        <ele>1350.1710109472</ele>
        <time>2015-04-22T13:39:42Z</time>
      </trkpt>
      <trkpt lat="44.62893" lon="3.56067">
        <ele>1350.1710109472</ele>
        <time>2015-04-22T13:39:47Z</time>
      </trkpt>
      <trkpt lat="44.62897" lon="3.56067">
        <ele>1351.655181406</ele>
        <time>2015-04-22T13:39:52Z</time>
      </trkpt>
      <trkpt lat="44.62907" lon="3.56065">
        <ele>1352.39954855</ele>
        <time>2015-04-22T13:39:57Z</time>
      </trkpt>
      <trkpt lat="44.62912" lon="3.56066">
        <ele>1352.39954855</ele>
        <time>2015-04-22T13:40:02Z</time>
      </trkpt>
      <trkpt lat="44.62915" lon="3.56067">
        <ele>1352.39954855</ele>
        <time>2015-04-22T13:40:07Z</time>
      </trkpt>
      <trkpt lat="44.62919" lon="3.56068">
        <ele>1352.6742867433</ele>
        <time>2015-04-22T13:40:12Z</time>
      </trkpt>
      <trkpt lat="44.62926" lon="3.56068">
        <ele>1352.6742867433</ele>
        <time>2015-04-22T13:40:17Z</time>
      </trkpt>
      <trkpt lat="44.62932" lon="3.56069">
        <ele>1353.1922695051</ele>
        <time>2015-04-22T13:40:22Z</time>
      </trkpt>
      <trkpt lat="44.6294" lon="3.5607">
        <ele>1353.1922695051</ele>
        <time>2015-04-22T13:40:27Z</time>
      </trkpt>
      <trkpt lat="44.62946" lon="3.56071">
        <ele>1353.6910766282</ele>
        <time>2015-04-22T13:40:32Z</time>
      </trkpt>
      <trkpt lat="44.62953" lon="3.56069">
        <ele>1353.6910766282</ele>
        <time>2015-04-22T13:40:37Z</time>
      </trkpt>
      <trkpt lat="44.62961" lon="3.56069">
        <ele>1353.4088780591</ele>
        <time>2015-04-22T13:40:42Z</time>
      </trkpt>
      <trkpt lat="44.6297" lon="3.56069">
        <ele>1353.4088780591</ele>
        <time>2015-04-22T13:40:47Z</time>
      </trkpt>
      <trkpt lat="44.6298" lon="3.5607">
        <ele>1352.8814043533</ele>
        <time>2015-04-22T13:40:52Z</time>
      </trkpt>
      <trkpt lat="44.62988" lon="3.56069">
        <ele>1352.8814043533</ele>
        <time>2015-04-22T13:40:57Z</time>
      </trkpt>
      <trkpt lat="44.62995" lon="3.56068">
        <ele>1352.562526359</ele>
        <time>2015-04-22T13:41:02Z</time>
      </trkpt>
      <trkpt lat="44.63004" lon="3.5607">
        <ele>1352.562526359</ele>
        <time>2015-04-22T13:41:07Z</time>
      </trkpt>
      <trkpt lat="44.63011" lon="3.5607">
        <ele>1352.8145740405</ele>
        <time>2015-04-22T13:41:12Z</time>
      </trkpt>
      <trkpt lat="44.63017" lon="3.56072">
        <ele>1352.8145740405</ele>
        <time>2015-04-22T13:41:17Z</time>
      </trkpt>
      <trkpt lat="44.63024" lon="3.56074">
        <ele>1353.1214234012</ele>
        <time>2015-04-22T13:41:22Z</time>
      </trkpt>
      <trkpt lat="44.63031" lon="3.56078">
        <ele>1353.1214234012</ele>
        <time>2015-04-22T13:41:27Z</time>
      </trkpt>
      <trkpt lat="44.63039" lon="3.56081">
        <ele>1353.2064784614</ele>
        <time>2015-04-22T13:41:32Z</time>
      </trkpt>
      <trkpt lat="44.63045" lon="3.56085">
        <ele>1353.2064784614</ele>
        <time>2015-04-22T13:41:37Z</time>
      </trkpt>
      <trkpt lat="44.63054" lon="3.56085">
        <ele>1352.612332848</ele>
        <time>2015-04-22T13:41:42Z</time>
      </trkpt>
      <trkpt lat="44.63061" lon="3.56086">
        <ele>1352.612332848</ele>
        <time>2015-04-22T13:41:47Z</time>
      </trkpt>
      <trkpt lat="44.63065" lon="3.5609">
        <ele>1351.6520497098</ele>
        <time>2015-04-22T13:41:52Z</time>
      </trkpt>
      <trkpt lat="44.63072" lon="3.56091">
        <ele>1351.6520497098</ele>
        <time>2015-04-22T13:41:57Z</time>
      </trkpt>
      <trkpt lat="44.63078" lon="3.56094">
        <ele>1350.4149524984</ele>
        <time>2015-04-22T13:42:02Z</time>
      </trkpt>
      <trkpt lat="44.63084" lon="3.56096">
        <ele>1350.4149524984</ele>
        <time>2015-04-22T13:42:07Z</time>
      </trkpt>
      <trkpt lat="44.6309" lon="3.56098">
        <ele>1349.6330547223</ele>
        <time>2015-04-22T13:42:12Z</time>
      </trkpt>
      <trkpt lat="44.63097" lon="3.56099">
        <ele>1349.6330547223</ele>
        <time>2015-04-22T13:42:17Z</time>
      </trkpt>
      <trkpt lat="44.63104" lon="3.56101">
        <ele>1348.8880377416</ele>
        <time>2015-04-22T13:42:22Z</time>
      </trkpt>
      <trkpt lat="44.63109" lon="3.56101">
        <ele>1348.8880377416</ele>
        <time>2015-04-22T13:42:27Z</time>
      </trkpt>
      <trkpt lat="44.63117" lon="3.56102">
        <ele>1348.5559507815</ele>
        <time>2015-04-22T13:42:32Z</time>
      </trkpt>
      <trkpt lat="44.63123" lon="3.56105">
        <ele>1348.5559507815</ele>
        <time>2015-04-22T13:42:37Z</time>
      </trkpt>
      <trkpt lat="44.6313" lon="3.56108">
        <ele>1348.3355047905</ele>
        <time>2015-04-22T13:42:42Z</time>
      </trkpt>
      <trkpt lat="44.63137" lon="3.56112">
        <ele>1348.3355047905</ele>
        <time>2015-04-22T13:42:47Z</time>
      </trkpt>
      <trkpt lat="44.63152" lon="3.56119">
        <ele>1348.6100814759</ele>
        <time>2015-04-22T13:42:52Z</time>
      </trkpt>
      <trkpt lat="44.63167" lon="3.56127">
        <ele>1348.1914578881</ele>
        <time>2015-04-22T13:42:57Z</time>
      </trkpt>
      <trkpt lat="44.63183" lon="3.56133">
        <ele>1347.8396103137</ele>
        <time>2015-04-22T13:43:02Z</time>
      </trkpt>
      <trkpt lat="44.63197" lon="3.56144">
        <ele>1347.1343650404</ele>
        <time>2015-04-22T13:43:07Z</time>
      </trkpt>
      <trkpt lat="44.63208" lon="3.56155">
        <ele>1346.3502453164</ele>
        <time>2015-04-22T13:43:12Z</time>
      </trkpt>
      <trkpt lat="44.63216" lon="3.56166">
        <ele>1344.9635519767</ele>
        <time>2015-04-22T13:43:17Z</time>
      </trkpt>
      <trkpt lat="44.63222" lon="3.56174">
        <ele>1344.9635519767</ele>
        <time>2015-04-22T13:43:22Z</time>
      </trkpt>
      <trkpt lat="44.63233" lon="3.56188">
        <ele>1343.2832742406</ele>
        <time>2015-04-22T13:43:27Z</time>
      </trkpt>
      <trkpt lat="44.63245" lon="3.56205">
        <ele>1342.4034581346</ele>
        <time>2015-04-22T13:43:32Z</time>
      </trkpt>
      <trkpt lat="44.63262" lon="3.56211">
        <ele>1342.2690165803</ele>
        <time>2015-04-22T13:43:37Z</time>
      </trkpt>
      <trkpt lat="44.63279" lon="3.56205">
        <ele>1342.178217196</ele>
        <time>2015-04-22T13:43:42Z</time>
      </trkpt>
      <trkpt lat="44.63295" lon="3.562">
        <ele>1343.3108668595</ele>
        <time>2015-04-22T13:43:47Z</time>
      </trkpt>
      <trkpt lat="44.63312" lon="3.56196">
        <ele>1343.9464110274</ele>
        <time>2015-04-22T13:43:52Z</time>
      </trkpt>
      <trkpt lat="44.63339" lon="3.56191">
        <ele>1345.3165753098</ele>
        <time>2015-04-22T13:43:57Z</time>
      </trkpt>
      <trkpt lat="44.63359" lon="3.56184">
        <ele>1346.6293802093</ele>
        <time>2015-04-22T13:44:02Z</time>
      </trkpt>
      <trkpt lat="44.63378" lon="3.56179">
        <ele>1347.2375909618</ele>
        <time>2015-04-22T13:44:07Z</time>
      </trkpt>
      <trkpt lat="44.63404" lon="3.56167">
        <ele>1347.8980893284</ele>
        <time>2015-04-22T13:44:12Z</time>
      </trkpt>
      <trkpt lat="44.63432" lon="3.5615">
        <ele>1348.4473021327</ele>
        <time>2015-04-22T13:44:17Z</time>
      </trkpt>
      <trkpt lat="44.63463" lon="3.56138">
        <ele>1349.7139076278</ele>
        <time>2015-04-22T13:44:22Z</time>
      </trkpt>
      <trkpt lat="44.63485" lon="3.56128">
        <ele>1350.5181709386</ele>
        <time>2015-04-22T13:44:27Z</time>
      </trkpt>
      <trkpt lat="44.63502" lon="3.56118">
        <ele>1350.8203090666</ele>
        <time>2015-04-22T13:44:32Z</time>
      </trkpt>
      <trkpt lat="44.63523" lon="3.56116">
        <ele>1352.184492193</ele>
        <time>2015-04-22T13:44:37Z</time>
      </trkpt>
      <trkpt lat="44.63534" lon="3.5611">
        <ele>1353.7368142327</ele>
        <time>2015-04-22T13:44:42Z</time>
      </trkpt>
      <trkpt lat="44.6354" lon="3.56107">
        <ele>1353.7368142327</ele>
        <time>2015-04-22T13:44:47Z</time>
      </trkpt>
      <trkpt lat="44.63545" lon="3.56103">
        <ele>1354.9408523738</ele>
        <time>2015-04-22T13:44:52Z</time>
      </trkpt>
      <trkpt lat="44.63549" lon="3.561">
        <ele>1354.9408523738</ele>
        <time>2015-04-22T13:44:57Z</time>
      </trkpt>
      <trkpt lat="44.63556" lon="3.56096">
        <ele>1356.6408121877</ele>
        <time>2015-04-22T13:45:02Z</time>
      </trkpt>
      <trkpt lat="44.63564" lon="3.56093">
        <ele>1356.6408121877</ele>
        <time>2015-04-22T13:45:07Z</time>
      </trkpt>
      <trkpt lat="44.63572" lon="3.56091">
        <ele>1358.3205148734</ele>
        <time>2015-04-22T13:45:12Z</time>
      </trkpt>
      <trkpt lat="44.63577" lon="3.56086">
        <ele>1358.3205148734</ele>
        <time>2015-04-22T13:45:17Z</time>
      </trkpt>
      <trkpt lat="44.63584" lon="3.56085">
        <ele>1359.4297319636</ele>
        <time>2015-04-22T13:45:22Z</time>
      </trkpt>
      <trkpt lat="44.6359" lon="3.56083">
        <ele>1359.4297319636</ele>
        <time>2015-04-22T13:45:27Z</time>
      </trkpt>
      <trkpt lat="44.63596" lon="3.56079">
        <ele>1361.2472730962</ele>
        <time>2015-04-22T13:45:32Z</time>
      </trkpt>
      <trkpt lat="44.63604" lon="3.56075">
        <ele>1361.2472730962</ele>
        <time>2015-04-22T13:45:37Z</time>
      </trkpt>
      <trkpt lat="44.63611" lon="3.5607">
        <ele>1363.5005465356</ele>
        <time>2015-04-22T13:45:42Z</time>
      </trkpt>
      <trkpt lat="44.63617" lon="3.56066">
        <ele>1363.5005465356</ele>
        <time>2015-04-22T13:45:47Z</time>
      </trkpt>
      <trkpt lat="44.63623" lon="3.56063">
        <ele>1365.4170201948</ele>
        <time>2015-04-22T13:45:52Z</time>
      </trkpt>
      <trkpt lat="44.63628" lon="3.5606">
        <ele>1365.4170201948</ele>
        <time>2015-04-22T13:45:57Z</time>
      </trkpt>
      <trkpt lat="44.63634" lon="3.56058">
        <ele>1367.1610011042</ele>
        <time>2015-04-22T13:46:02Z</time>
      </trkpt>
      <trkpt lat="44.63643" lon="3.56056">
        <ele>1368.9717522267</ele>
        <time>2015-04-22T13:46:07Z</time>
      </trkpt>
      <trkpt lat="44.63648" lon="3.56053">
        <ele>1368.9717522267</ele>
        <time>2015-04-22T13:46:12Z</time>
      </trkpt>
      <trkpt lat="44.63655" lon="3.56048">
        <ele>1370.5952887281</ele>
        <time>2015-04-22T13:46:17Z</time>
      </trkpt>
      <trkpt lat="44.63662" lon="3.56045">
        <ele>1370.5952887281</ele>
        <time>2015-04-22T13:46:22Z</time>
      </trkpt>
      <trkpt lat="44.63666" lon="3.56045">
        <ele>1372.3589303392</ele>
        <time>2015-04-22T13:46:27Z</time>
      </trkpt>
      <trkpt lat="44.63675" lon="3.56041">
        <ele>1373.3695280579</ele>
        <time>2015-04-22T13:46:32Z</time>
      </trkpt>
      <trkpt lat="44.63682" lon="3.56038">
        <ele>1373.3695280579</ele>
        <time>2015-04-22T13:46:37Z</time>
      </trkpt>
      <trkpt lat="44.63687" lon="3.56032">
        <ele>1374.3581497619</ele>
        <time>2015-04-22T13:46:42Z</time>
      </trkpt>
      <trkpt lat="44.63693" lon="3.56029">
        <ele>1374.3581497619</ele>
        <time>2015-04-22T13:46:47Z</time>
      </trkpt>
      <trkpt lat="44.63701" lon="3.56025">
        <ele>1374.9070689923</ele>
        <time>2015-04-22T13:46:52Z</time>
      </trkpt>
      <trkpt lat="44.63712" lon="3.56019">
        <ele>1375.8987474228</ele>
        <time>2015-04-22T13:46:57Z</time>
      </trkpt>
      <trkpt lat="44.63716" lon="3.56014">
        <ele>1375.8987474228</ele>
        <time>2015-04-22T13:47:02Z</time>
      </trkpt>
      <trkpt lat="44.63722" lon="3.56014">
        <ele>1376.8094322418</ele>
        <time>2015-04-22T13:47:07Z</time>
      </trkpt>
      <trkpt lat="44.63732" lon="3.5601">
        <ele>1377.8747111195</ele>
        <time>2015-04-22T13:47:12Z</time>
      </trkpt>
      <trkpt lat="44.63735" lon="3.56006">
        <ele>1377.8747111195</ele>
        <time>2015-04-22T13:47:17Z</time>
      </trkpt>
      <trkpt lat="44.63741" lon="3.56005">
        <ele>1377.5543528084</ele>
        <time>2015-04-22T13:47:22Z</time>
      </trkpt>
      <trkpt lat="44.63744" lon="3.56001">
        <ele>1377.5543528084</ele>
        <time>2015-04-22T13:47:27Z</time>
      </trkpt>
      <trkpt lat="44.63747" lon="3.55994">
        <ele>1377.6244967329</ele>
        <time>2015-04-22T13:47:32Z</time>
      </trkpt>
      <trkpt lat="44.63754" lon="3.55989">
        <ele>1377.6244967329</ele>
        <time>2015-04-22T13:47:37Z</time>
      </trkpt>
      <trkpt lat="44.63759" lon="3.55984">
        <ele>1377.3519411692</ele>
        <time>2015-04-22T13:47:42Z</time>
      </trkpt>
      <trkpt lat="44.6376" lon="3.55978">
        <ele>1377.3519411692</ele>
        <time>2015-04-22T13:47:47Z</time>
      </trkpt>
      <trkpt lat="44.63765" lon="3.55972">
        <ele>1377.2544818566</ele>
        <time>2015-04-22T13:47:52Z</time>
      </trkpt>
      <trkpt lat="44.63772" lon="3.55968">
        <ele>1377.2544818566</ele>
        <time>2015-04-22T13:47:57Z</time>
      </trkpt>
      <trkpt lat="44.63779" lon="3.55962">
        <ele>1377.249394948</ele>
        <time>2015-04-22T13:48:02Z</time>
      </trkpt>
      <trkpt lat="44.63789" lon="3.55957">
        <ele>1377.7641967368</ele>
        <time>2015-04-22T13:48:07Z</time>
      </trkpt>
      <trkpt lat="44.63793" lon="3.5595">
        <ele>1377.7641967368</ele>
        <time>2015-04-22T13:48:12Z</time>
      </trkpt>
      <trkpt lat="44.63798" lon="3.55948">
        <ele>1378.1991986911</ele>
        <time>2015-04-22T13:48:17Z</time>
      </trkpt>
      <trkpt lat="44.63805" lon="3.55946">
        <ele>1378.1991986911</ele>
        <time>2015-04-22T13:48:22Z</time>
      </trkpt>
      <trkpt lat="44.6381" lon="3.55939">
        <ele>1379.108665776</ele>
        <time>2015-04-22T13:48:27Z</time>
      </trkpt>
      <trkpt lat="44.63817" lon="3.55932">
        <ele>1379.108665776</ele>
        <time>2015-04-22T13:48:32Z</time>
      </trkpt>
      <trkpt lat="44.63826" lon="3.55922">
        <ele>1381.0336579167</ele>
        <time>2015-04-22T13:48:37Z</time>
      </trkpt>
      <trkpt lat="44.63832" lon="3.55916">
        <ele>1381.0336579167</ele>
        <time>2015-04-22T13:48:42Z</time>
      </trkpt>
      <trkpt lat="44.63836" lon="3.55909">
        <ele>1382.6856827761</ele>
        <time>2015-04-22T13:48:47Z</time>
      </trkpt>
      <trkpt lat="44.63838" lon="3.55901">
        <ele>1382.6856827761</ele>
        <time>2015-04-22T13:48:52Z</time>
      </trkpt>
      <trkpt lat="44.63845" lon="3.55895">
        <ele>1384.6010247847</ele>
        <time>2015-04-22T13:48:57Z</time>
      </trkpt>
      <trkpt lat="44.63852" lon="3.55887">
        <ele>1386.3967875547</ele>
        <time>2015-04-22T13:49:02Z</time>
      </trkpt>
      <trkpt lat="44.63856" lon="3.55878">
        <ele>1386.3967875547</ele>
        <time>2015-04-22T13:49:07Z</time>
      </trkpt>
      <trkpt lat="44.63865" lon="3.55871">
        <ele>1388.3382535443</ele>
        <time>2015-04-22T13:49:12Z</time>
      </trkpt>
      <trkpt lat="44.63869" lon="3.55865">
        <ele>1388.3382535443</ele>
        <time>2015-04-22T13:49:17Z</time>
      </trkpt>
      <trkpt lat="44.6387" lon="3.5586">
        <ele>1389.4459070171</ele>
        <time>2015-04-22T13:49:22Z</time>
      </trkpt>
      <trkpt lat="44.63871" lon="3.55854">
        <ele>1389.4459070171</ele>
        <time>2015-04-22T13:49:27Z</time>
      </trkpt>
      <trkpt lat="44.63874" lon="3.55847">
        <ele>1390.35656179</ele>
        <time>2015-04-22T13:49:32Z</time>
      </trkpt>
      <trkpt lat="44.63875" lon="3.55839">
        <ele>1390.35656179</ele>
        <time>2015-04-22T13:49:37Z</time>
      </trkpt>
      <trkpt lat="44.63882" lon="3.55831">
        <ele>1390.7529505653</ele>
        <time>2015-04-22T13:49:42Z</time>
      </trkpt>
      <trkpt lat="44.63889" lon="3.55818">
        <ele>1390.8613987595</ele>
        <time>2015-04-22T13:49:47Z</time>
      </trkpt>
      <trkpt lat="44.6389" lon="3.55811">
        <ele>1390.8613987595</ele>
        <time>2015-04-22T13:49:52Z</time>
      </trkpt>
      <trkpt lat="44.6389" lon="3.55805">
        <ele>1391.3680190753</ele>
        <time>2015-04-22T13:49:57Z</time>
      </trkpt>
      <trkpt lat="44.63892" lon="3.55799">
        <ele>1391.3680190753</ele>
        <time>2015-04-22T13:50:02Z</time>
      </trkpt>
      <trkpt lat="44.63894" lon="3.55793">
        <ele>1391.4086810174</ele>
        <time>2015-04-22T13:50:07Z</time>
      </trkpt>
      <trkpt lat="44.63896" lon="3.55786">
        <ele>1391.4086810174</ele>
        <time>2015-04-22T13:50:12Z</time>
      </trkpt>
      <trkpt lat="44.639" lon="3.55778">
        <ele>1391.3081302854</ele>
        <time>2015-04-22T13:50:17Z</time>
      </trkpt>
      <trkpt lat="44.63902" lon="3.55769">
        <ele>1391.3081302854</ele>
        <time>2015-04-22T13:50:22Z</time>
      </trkpt>
      <trkpt lat="44.63901" lon="3.55756">
        <ele>1391.5550134986</ele>
        <time>2015-04-22T13:50:27Z</time>
      </trkpt>
      <trkpt lat="44.639" lon="3.55744">
        <ele>1391.9814378873</ele>
        <time>2015-04-22T13:50:32Z</time>
      </trkpt>
      <trkpt lat="44.639" lon="3.55734">
        <ele>1391.9814378873</ele>
        <time>2015-04-22T13:50:37Z</time>
      </trkpt>
      <trkpt lat="44.63901" lon="3.55724">
        <ele>1392.503398673</ele>
        <time>2015-04-22T13:50:42Z</time>
      </trkpt>
      <trkpt lat="44.63904" lon="3.55715">
        <ele>1392.503398673</ele>
        <time>2015-04-22T13:50:47Z</time>
      </trkpt>
      <trkpt lat="44.63905" lon="3.55705">
        <ele>1392.8122138008</ele>
        <time>2015-04-22T13:50:52Z</time>
      </trkpt>
      <trkpt lat="44.63907" lon="3.55699">
        <ele>1392.8122138008</ele>
        <time>2015-04-22T13:50:57Z</time>
      </trkpt>
      <trkpt lat="44.63905" lon="3.55691">
        <ele>1393.0980352453</ele>
        <time>2015-04-22T13:51:02Z</time>
      </trkpt>
      <trkpt lat="44.63902" lon="3.55681">
        <ele>1393.0980352453</ele>
        <time>2015-04-22T13:51:07Z</time>
      </trkpt>
      <trkpt lat="44.63901" lon="3.5567">
        <ele>1394.1856025916</ele>
        <time>2015-04-22T13:51:12Z</time>
      </trkpt>
      <trkpt lat="44.63899" lon="3.5566">
        <ele>1394.1856025916</ele>
        <time>2015-04-22T13:51:17Z</time>
      </trkpt>
      <trkpt lat="44.639" lon="3.55655">
        <ele>1395.0786547519</ele>
        <time>2015-04-22T13:51:22Z</time>
      </trkpt>
      <trkpt lat="44.63898" lon="3.5565">
        <ele>1395.0786547519</ele>
        <time>2015-04-22T13:51:27Z</time>
      </trkpt>
      <trkpt lat="44.63894" lon="3.55642">
        <ele>1395.8201946791</ele>
        <time>2015-04-22T13:51:32Z</time>
      </trkpt>
      <trkpt lat="44.63887" lon="3.55632">
        <ele>1397.1998596428</ele>
        <time>2015-04-22T13:51:37Z</time>
      </trkpt>
      <trkpt lat="44.63882" lon="3.55622">
        <ele>1397.1998596428</ele>
        <time>2015-04-22T13:51:42Z</time>
      </trkpt>
      <trkpt lat="44.63876" lon="3.55614">
        <ele>1398.7945942791</ele>
        <time>2015-04-22T13:51:47Z</time>
      </trkpt>
      <trkpt lat="44.63874" lon="3.55605">
        <ele>1398.7945942791</ele>
        <time>2015-04-22T13:51:52Z</time>
      </trkpt>
      <trkpt lat="44.6387" lon="3.55594">
        <ele>1399.9812355927</ele>
        <time>2015-04-22T13:51:57Z</time>
      </trkpt>
      <trkpt lat="44.63873" lon="3.55585">
        <ele>1399.9812355927</ele>
        <time>2015-04-22T13:52:02Z</time>
      </trkpt>
      <trkpt lat="44.63877" lon="3.55573">
        <ele>1401.7975887227</ele>
        <time>2015-04-22T13:52:07Z</time>
      </trkpt>
      <trkpt lat="44.63881" lon="3.55562">
        <ele>1403.8776403246</ele>
        <time>2015-04-22T13:52:12Z</time>
      </trkpt>
      <trkpt lat="44.63876" lon="3.55552">
        <ele>1403.8776403246</ele>
        <time>2015-04-22T13:52:17Z</time>
      </trkpt>
      <trkpt lat="44.63871" lon="3.55543">
        <ele>1405.9391830926</ele>
        <time>2015-04-22T13:52:22Z</time>
      </trkpt>
      <trkpt lat="44.63864" lon="3.55534">
        <ele>1407.7928693663</ele>
        <time>2015-04-22T13:52:27Z</time>
      </trkpt>
      <trkpt lat="44.63859" lon="3.55525">
        <ele>1407.7928693663</ele>
        <time>2015-04-22T13:52:32Z</time>
      </trkpt>
      <trkpt lat="44.63858" lon="3.55517">
        <ele>1409.0188828455</ele>
        <time>2015-04-22T13:52:37Z</time>
      </trkpt>
      <trkpt lat="44.63861" lon="3.55513">
        <ele>1409.0188828455</ele>
        <time>2015-04-22T13:52:42Z</time>
      </trkpt>
      <trkpt lat="44.63864" lon="3.55505">
        <ele>1410.0226513923</ele>
        <time>2015-04-22T13:52:47Z</time>
      </trkpt>
      <trkpt lat="44.63864" lon="3.55497">
        <ele>1410.0226513923</ele>
        <time>2015-04-22T13:52:52Z</time>
      </trkpt>
      <trkpt lat="44.63866" lon="3.55487">
        <ele>1411.2093009965</ele>
        <time>2015-04-22T13:52:57Z</time>
      </trkpt>
      <trkpt lat="44.63869" lon="3.55478">
        <ele>1411.2093009965</ele>
        <time>2015-04-22T13:53:02Z</time>
      </trkpt>
      <trkpt lat="44.63859" lon="3.55468">
        <ele>1412.3340415017</ele>
        <time>2015-04-22T13:53:07Z</time>
      </trkpt>
      <trkpt lat="44.63849" lon="3.55458">
        <ele>1413.3287950123</ele>
        <time>2015-04-22T13:53:12Z</time>
      </trkpt>
      <trkpt lat="44.63859" lon="3.55448">
        <ele>1414.3614600209</ele>
        <time>2015-04-22T13:53:17Z</time>
      </trkpt>
      <trkpt lat="44.63862" lon="3.55439">
        <ele>1414.3614600209</ele>
        <time>2015-04-22T13:53:22Z</time>
      </trkpt>
      <trkpt lat="44.63862" lon="3.55432">
        <ele>1414.7949140422</ele>
        <time>2015-04-22T13:53:27Z</time>
      </trkpt>
      <trkpt lat="44.6387" lon="3.55424">
        <ele>1415.1934346132</ele>
        <time>2015-04-22T13:53:32Z</time>
      </trkpt>
      <trkpt lat="44.63869" lon="3.55412">
        <ele>1415.1934346132</ele>
        <time>2015-04-22T13:53:37Z</time>
      </trkpt>
      <trkpt lat="44.63869" lon="3.554">
        <ele>1416.1664359222</ele>
        <time>2015-04-22T13:53:42Z</time>
      </trkpt>
      <trkpt lat="44.63873" lon="3.55389">
        <ele>1416.1664359222</ele>
        <time>2015-04-22T13:53:47Z</time>
      </trkpt>
      <trkpt lat="44.63874" lon="3.5538">
        <ele>1416.7493938954</ele>
        <time>2015-04-22T13:53:52Z</time>
      </trkpt>
      <trkpt lat="44.63871" lon="3.5537">
        <ele>1416.7493938954</ele>
        <time>2015-04-22T13:53:57Z</time>
      </trkpt>
      <trkpt lat="44.63871" lon="3.55362">
        <ele>1417.4620360873</ele>
        <time>2015-04-22T13:54:02Z</time>
      </trkpt>
      <trkpt lat="44.63875" lon="3.55356">
        <ele>1417.4620360873</ele>
        <time>2015-04-22T13:54:07Z</time>
      </trkpt>
      <trkpt lat="44.6388" lon="3.55348">
        <ele>1417.8488353491</ele>
        <time>2015-04-22T13:54:12Z</time>
      </trkpt>
      <trkpt lat="44.63881" lon="3.55336">
        <ele>1417.8488353491</ele>
        <time>2015-04-22T13:54:17Z</time>
      </trkpt>
      <trkpt lat="44.6389" lon="3.55335">
        <ele>1418.7712382837</ele>
        <time>2015-04-22T13:54:22Z</time>
      </trkpt>
      <trkpt lat="44.63899" lon="3.55328">
        <ele>1420.1468347579</ele>
        <time>2015-04-22T13:54:27Z</time>
      </trkpt>
      <trkpt lat="44.63906" lon="3.5532">
        <ele>1420.1468347579</ele>
        <time>2015-04-22T13:54:32Z</time>
      </trkpt>
      <trkpt lat="44.63909" lon="3.55314">
        <ele>1421.1198004972</ele>
        <time>2015-04-22T13:54:37Z</time>
      </trkpt>
      <trkpt lat="44.63911" lon="3.55307">
        <ele>1421.1198004972</ele>
        <time>2015-04-22T13:54:42Z</time>
      </trkpt>
      <trkpt lat="44.63914" lon="3.55302">
        <ele>1421.993557023</ele>
        <time>2015-04-22T13:54:47Z</time>
      </trkpt>
      <trkpt lat="44.63921" lon="3.55294">
        <ele>1423.1792187706</ele>
        <time>2015-04-22T13:54:52Z</time>
      </trkpt>
      <trkpt lat="44.6392" lon="3.55286">
        <ele>1423.1792187706</ele>
        <time>2015-04-22T13:54:57Z</time>
      </trkpt>
      <trkpt lat="44.63917" lon="3.55277">
        <ele>1425.4171090318</ele>
        <time>2015-04-22T13:55:02Z</time>
      </trkpt>
      <trkpt lat="44.63924" lon="3.55265">
        <ele>1427.3582572971</ele>
        <time>2015-04-22T13:55:07Z</time>
      </trkpt>
      <trkpt lat="44.63921" lon="3.55256">
        <ele>1427.3582572971</ele>
        <time>2015-04-22T13:55:12Z</time>
      </trkpt>
      <trkpt lat="44.63922" lon="3.55246">
        <ele>1428.9065229232</ele>
        <time>2015-04-22T13:55:17Z</time>
      </trkpt>
      <trkpt lat="44.63921" lon="3.55238">
        <ele>1428.9065229232</ele>
        <time>2015-04-22T13:55:22Z</time>
      </trkpt>
      <trkpt lat="44.63921" lon="3.55233">
        <ele>1429.714547317</ele>
        <time>2015-04-22T13:55:27Z</time>
      </trkpt>
      <trkpt lat="44.63918" lon="3.55227">
        <ele>1429.714547317</ele>
        <time>2015-04-22T13:55:32Z</time>
      </trkpt>
      <trkpt lat="44.6391" lon="3.5522">
        <ele>1430.3416633344</ele>
        <time>2015-04-22T13:55:37Z</time>
      </trkpt>
      <trkpt lat="44.63908" lon="3.55212">
        <ele>1430.3416633344</ele>
        <time>2015-04-22T13:55:42Z</time>
      </trkpt>
      <trkpt lat="44.63904" lon="3.55203">
        <ele>1432.0848445112</ele>
        <time>2015-04-22T13:55:47Z</time>
      </trkpt>
      <trkpt lat="44.63899" lon="3.55197">
        <ele>1432.0848445112</ele>
        <time>2015-04-22T13:55:52Z</time>
      </trkpt>
      <trkpt lat="44.63894" lon="3.55192">
        <ele>1433.1307552517</ele>
        <time>2015-04-22T13:55:57Z</time>
      </trkpt>
      <trkpt lat="44.63892" lon="3.55185">
        <ele>1433.1307552517</ele>
        <time>2015-04-22T13:56:02Z</time>
      </trkpt>
      <trkpt lat="44.6389" lon="3.55179">
        <ele>1434.726699196</ele>
        <time>2015-04-22T13:56:07Z</time>
      </trkpt>
      <trkpt lat="44.63887" lon="3.55172">
        <ele>1434.726699196</ele>
        <time>2015-04-22T13:56:12Z</time>
      </trkpt>
      <trkpt lat="44.63884" lon="3.55164">
        <ele>1436.0957418171</ele>
        <time>2015-04-22T13:56:17Z</time>
      </trkpt>
      <trkpt lat="44.63882" lon="3.55156">
        <ele>1436.0957418171</ele>
        <time>2015-04-22T13:56:22Z</time>
      </trkpt>
      <trkpt lat="44.63873" lon="3.55148">
        <ele>1437.4265807678</ele>
        <time>2015-04-22T13:56:27Z</time>
      </trkpt>
      <trkpt lat="44.63872" lon="3.55143">
        <ele>1437.4265807678</ele>
        <time>2015-04-22T13:56:32Z</time>
      </trkpt>
      <trkpt lat="44.63869" lon="3.55135">
        <ele>1438.8941825867</ele>
        <time>2015-04-22T13:56:37Z</time>
      </trkpt>
      <trkpt lat="44.6386" lon="3.55121">
        <ele>1440.0550345306</ele>
        <time>2015-04-22T13:56:42Z</time>
      </trkpt>
      <trkpt lat="44.63859" lon="3.55115">
        <ele>1440.0550345306</ele>
        <time>2015-04-22T13:56:47Z</time>
      </trkpt>
      <trkpt lat="44.63855" lon="3.55106">
        <ele>1440.8449551668</ele>
        <time>2015-04-22T13:56:52Z</time>
      </trkpt>
      <trkpt lat="44.63847" lon="3.55097">
        <ele>1441.8684525751</ele>
        <time>2015-04-22T13:56:57Z</time>
      </trkpt>
      <trkpt lat="44.63842" lon="3.55091">
        <ele>1441.8684525751</ele>
        <time>2015-04-22T13:57:02Z</time>
      </trkpt>
      <trkpt lat="44.63838" lon="3.55083">
        <ele>1442.532103833</ele>
        <time>2015-04-22T13:57:07Z</time>
      </trkpt>
      <trkpt lat="44.63841" lon="3.55075">
        <ele>1442.532103833</ele>
        <time>2015-04-22T13:57:12Z</time>
      </trkpt>
      <trkpt lat="44.63845" lon="3.55065">
        <ele>1442.5753261484</ele>
        <time>2015-04-22T13:57:17Z</time>
      </trkpt>
      <trkpt lat="44.63849" lon="3.55056">
        <ele>1442.5753261484</ele>
        <time>2015-04-22T13:57:22Z</time>
      </trkpt>
      <trkpt lat="44.63855" lon="3.5505">
        <ele>1442.4501627273</ele>
        <time>2015-04-22T13:57:27Z</time>
      </trkpt>
      <trkpt lat="44.63863" lon="3.55046">
        <ele>1442.4501627273</ele>
        <time>2015-04-22T13:57:32Z</time>
      </trkpt>
      <trkpt lat="44.6387" lon="3.55041">
        <ele>1442.4606356451</ele>
        <time>2015-04-22T13:57:37Z</time>
      </trkpt>
      <trkpt lat="44.63874" lon="3.55033">
        <ele>1442.4606356451</ele>
        <time>2015-04-22T13:57:42Z</time>
      </trkpt>
      <trkpt lat="44.63875" lon="3.55024">
        <ele>1442.7727583174</ele>
        <time>2015-04-22T13:57:47Z</time>
      </trkpt>
      <trkpt lat="44.63883" lon="3.55016">
        <ele>1442.9630438183</ele>
        <time>2015-04-22T13:57:52Z</time>
      </trkpt>
      <trkpt lat="44.63882" lon="3.55004">
        <ele>1442.9630438183</ele>
        <time>2015-04-22T13:57:57Z</time>
      </trkpt>
      <trkpt lat="44.63882" lon="3.54994">
        <ele>1443.0717681653</ele>
        <time>2015-04-22T13:58:02Z</time>
      </trkpt>
      <trkpt lat="44.63882" lon="3.54986">
        <ele>1443.0717681653</ele>
        <time>2015-04-22T13:58:07Z</time>
      </trkpt>
      <trkpt lat="44.63878" lon="3.54978">
        <ele>1442.8194046916</ele>
        <time>2015-04-22T13:58:12Z</time>
      </trkpt>
      <trkpt lat="44.63875" lon="3.54968">
        <ele>1442.8194046916</ele>
        <time>2015-04-22T13:58:17Z</time>
      </trkpt>
      <trkpt lat="44.63875" lon="3.5496">
        <ele>1442.7261391591</ele>
        <time>2015-04-22T13:58:22Z</time>
      </trkpt>
      <trkpt lat="44.63871" lon="3.54953">
        <ele>1442.7261391591</ele>
        <time>2015-04-22T13:58:27Z</time>
      </trkpt>
      <trkpt lat="44.63868" lon="3.54945">
        <ele>1442.2070337201</ele>
        <time>2015-04-22T13:58:32Z</time>
      </trkpt>
      <trkpt lat="44.63867" lon="3.54935">
        <ele>1442.2070337201</ele>
        <time>2015-04-22T13:58:37Z</time>
      </trkpt>
      <trkpt lat="44.63864" lon="3.54925">
        <ele>1441.5138755079</ele>
        <time>2015-04-22T13:58:42Z</time>
      </trkpt>
      <trkpt lat="44.63863" lon="3.54915">
        <ele>1441.5138755079</ele>
        <time>2015-04-22T13:58:47Z</time>
      </trkpt>
      <trkpt lat="44.63862" lon="3.54904">
        <ele>1440.9236184642</ele>
        <time>2015-04-22T13:58:52Z</time>
      </trkpt>
      <trkpt lat="44.63861" lon="3.54894">
        <ele>1440.9236184642</ele>
        <time>2015-04-22T13:58:57Z</time>
      </trkpt>
      <trkpt lat="44.6386" lon="3.54883">
        <ele>1440.6348718943</ele>
        <time>2015-04-22T13:59:02Z</time>
      </trkpt>
      <trkpt lat="44.63858" lon="3.54873">
        <ele>1440.6348718943</ele>
        <time>2015-04-22T13:59:07Z</time>
      </trkpt>
      <trkpt lat="44.63858" lon="3.54862">
        <ele>1439.9948900975</ele>
        <time>2015-04-22T13:59:12Z</time>
      </trkpt>
      <trkpt lat="44.63859" lon="3.54853">
        <ele>1439.9948900975</ele>
        <time>2015-04-22T13:59:17Z</time>
      </trkpt>
      <trkpt lat="44.63859" lon="3.54843">
        <ele>1439.5814931704</ele>
        <time>2015-04-22T13:59:22Z</time>
      </trkpt>
      <trkpt lat="44.6386" lon="3.54835">
        <ele>1439.5814931704</ele>
        <time>2015-04-22T13:59:27Z</time>
      </trkpt>
      <trkpt lat="44.6386" lon="3.54823">
        <ele>1439.2087764525</ele>
        <time>2015-04-22T13:59:32Z</time>
      </trkpt>
      <trkpt lat="44.6386" lon="3.54811">
        <ele>1439.2087764525</ele>
        <time>2015-04-22T13:59:37Z</time>
      </trkpt>
      <trkpt lat="44.63861" lon="3.548">
        <ele>1438.4737075092</ele>
        <time>2015-04-22T13:59:42Z</time>
      </trkpt>
      <trkpt lat="44.63862" lon="3.5479">
        <ele>1438.4737075092</ele>
        <time>2015-04-22T13:59:47Z</time>
      </trkpt>
      <trkpt lat="44.63864" lon="3.5478">
        <ele>1437.5658129313</ele>
        <time>2015-04-22T13:59:52Z</time>
      </trkpt>
      <trkpt lat="44.63867" lon="3.54772">
        <ele>1437.5658129313</ele>
        <time>2015-04-22T13:59:57Z</time>
      </trkpt>
      <trkpt lat="44.63869" lon="3.54764">
        <ele>1436.4449117421</ele>
        <time>2015-04-22T14:00:02Z</time>
      </trkpt>
      <trkpt lat="44.63873" lon="3.54748">
        <ele>1435.2039627423</ele>
        <time>2015-04-22T14:00:07Z</time>
      </trkpt>
      <trkpt lat="44.63877" lon="3.54739">
        <ele>1435.2039627423</ele>
        <time>2015-04-22T14:00:12Z</time>
      </trkpt>
      <trkpt lat="44.63879" lon="3.54729">
        <ele>1434.577817654</ele>
        <time>2015-04-22T14:00:17Z</time>
      </trkpt>
      <trkpt lat="44.63883" lon="3.5472">
        <ele>1434.577817654</ele>
        <time>2015-04-22T14:00:22Z</time>
      </trkpt>
      <trkpt lat="44.63886" lon="3.54711">
        <ele>1433.9629117671</ele>
        <time>2015-04-22T14:00:27Z</time>
      </trkpt>
      <trkpt lat="44.63889" lon="3.54701">
        <ele>1433.9629117671</ele>
        <time>2015-04-22T14:00:32Z</time>
      </trkpt>
      <trkpt lat="44.63893" lon="3.54692">
        <ele>1434.0103970719</ele>
        <time>2015-04-22T14:00:37Z</time>
      </trkpt>
      <trkpt lat="44.63898" lon="3.54683">
        <ele>1434.0103970719</ele>
        <time>2015-04-22T14:00:42Z</time>
      </trkpt>
      <trkpt lat="44.63901" lon="3.54674">
        <ele>1433.8804990926</ele>
        <time>2015-04-22T14:00:47Z</time>
      </trkpt>
      <trkpt lat="44.63901" lon="3.54664">
        <ele>1433.8804990926</ele>
        <time>2015-04-22T14:00:52Z</time>
      </trkpt>
      <trkpt lat="44.63901" lon="3.54656">
        <ele>1433.5016533295</ele>
        <time>2015-04-22T14:00:57Z</time>
      </trkpt>
      <trkpt lat="44.63903" lon="3.54648">
        <ele>1433.5016533295</ele>
        <time>2015-04-22T14:01:02Z</time>
      </trkpt>
      <trkpt lat="44.63906" lon="3.54638">
        <ele>1433.398987856</ele>
        <time>2015-04-22T14:01:07Z</time>
      </trkpt>
      <trkpt lat="44.63907" lon="3.54625">
        <ele>1433.398987856</ele>
        <time>2015-04-22T14:01:12Z</time>
      </trkpt>
      <trkpt lat="44.63907" lon="3.54616">
        <ele>1433.1790869478</ele>
        <time>2015-04-22T14:01:17Z</time>
      </trkpt>
      <trkpt lat="44.63907" lon="3.54607">
        <ele>1433.1790869478</ele>
        <time>2015-04-22T14:01:22Z</time>
      </trkpt>
      <trkpt lat="44.63908" lon="3.54597">
        <ele>1433.0973299088</ele>
        <time>2015-04-22T14:01:27Z</time>
      </trkpt>
      <trkpt lat="44.6391" lon="3.54586">
        <ele>1433.0973299088</ele>
        <time>2015-04-22T14:01:32Z</time>
      </trkpt>
      <trkpt lat="44.63911" lon="3.54575">
        <ele>1433.0583845303</ele>
        <time>2015-04-22T14:01:37Z</time>
      </trkpt>
      <trkpt lat="44.63913" lon="3.54564">
        <ele>1433.0583845303</ele>
        <time>2015-04-22T14:01:42Z</time>
      </trkpt>
      <trkpt lat="44.63913" lon="3.54558">
        <ele>1433.1178088117</ele>
        <time>2015-04-22T14:01:47Z</time>
      </trkpt>
      <trkpt lat="44.63917" lon="3.5455">
        <ele>1433.1178088117</ele>
        <time>2015-04-22T14:01:52Z</time>
      </trkpt>
      <trkpt lat="44.63919" lon="3.54541">
        <ele>1432.8655480489</ele>
        <time>2015-04-22T14:01:57Z</time>
      </trkpt>
      <trkpt lat="44.63921" lon="3.5453">
        <ele>1432.8655480489</ele>
        <time>2015-04-22T14:02:02Z</time>
      </trkpt>
      <trkpt lat="44.63922" lon="3.54519">
        <ele>1432.830349446</ele>
        <time>2015-04-22T14:02:07Z</time>
      </trkpt>
      <trkpt lat="44.63923" lon="3.54509">
        <ele>1432.830349446</ele>
        <time>2015-04-22T14:02:12Z</time>
      </trkpt>
      <trkpt lat="44.63925" lon="3.54499">
        <ele>1432.8817411871</ele>
        <time>2015-04-22T14:02:17Z</time>
      </trkpt>
      <trkpt lat="44.63927" lon="3.5449">
        <ele>1432.8817411871</ele>
        <time>2015-04-22T14:02:22Z</time>
      </trkpt>
      <trkpt lat="44.6393" lon="3.54482">
        <ele>1432.898506811</ele>
        <time>2015-04-22T14:02:27Z</time>
      </trkpt>
      <trkpt lat="44.63932" lon="3.54473">
        <ele>1432.898506811</ele>
        <time>2015-04-22T14:02:32Z</time>
      </trkpt>
      <trkpt lat="44.63935" lon="3.54463">
        <ele>1433.0709836506</ele>
        <time>2015-04-22T14:02:37Z</time>
      </trkpt>
      <trkpt lat="44.63936" lon="3.54454">
        <ele>1433.0709836506</ele>
        <time>2015-04-22T14:02:42Z</time>
      </trkpt>
      <trkpt lat="44.63938" lon="3.54447">
        <ele>1432.9265133881</ele>
        <time>2015-04-22T14:02:47Z</time>
      </trkpt>
      <trkpt lat="44.6394" lon="3.54439">
        <ele>1432.9265133881</ele>
        <time>2015-04-22T14:02:52Z</time>
      </trkpt>
      <trkpt lat="44.63943" lon="3.5443">
        <ele>1433.0367547078</ele>
        <time>2015-04-22T14:02:57Z</time>
      </trkpt>
      <trkpt lat="44.63945" lon="3.54418">
        <ele>1433.0367547078</ele>
        <time>2015-04-22T14:03:02Z</time>
      </trkpt>
      <trkpt lat="44.63948" lon="3.54409">
        <ele>1433.1235687795</ele>
        <time>2015-04-22T14:03:07Z</time>
      </trkpt>
      <trkpt lat="44.6395" lon="3.54399">
        <ele>1433.1235687795</ele>
        <time>2015-04-22T14:03:12Z</time>
      </trkpt>
      <trkpt lat="44.63954" lon="3.54389">
        <ele>1433.3615861181</ele>
        <time>2015-04-22T14:03:17Z</time>
      </trkpt>
      <trkpt lat="44.63958" lon="3.54375">
        <ele>1433.6383168568</ele>
        <time>2015-04-22T14:03:22Z</time>
      </trkpt>
      <trkpt lat="44.6396" lon="3.54366">
        <ele>1433.6383168568</ele>
        <time>2015-04-22T14:03:27Z</time>
      </trkpt>
      <trkpt lat="44.63963" lon="3.54356">
        <ele>1434.0511305935</ele>
        <time>2015-04-22T14:03:32Z</time>
      </trkpt>
      <trkpt lat="44.63965" lon="3.54348">
        <ele>1434.0511305935</ele>
        <time>2015-04-22T14:03:37Z</time>
      </trkpt>
      <trkpt lat="44.63968" lon="3.5434">
        <ele>1434.6898178309</ele>
        <time>2015-04-22T14:03:42Z</time>
      </trkpt>
      <trkpt lat="44.63971" lon="3.54332">
        <ele>1434.6898178309</ele>
        <time>2015-04-22T14:03:47Z</time>
      </trkpt>
      <trkpt lat="44.63974" lon="3.54324">
        <ele>1435.0604566023</ele>
        <time>2015-04-22T14:03:52Z</time>
      </trkpt>
      <trkpt lat="44.63977" lon="3.54316">
        <ele>1435.0604566023</ele>
        <time>2015-04-22T14:03:57Z</time>
      </trkpt>
      <trkpt lat="44.63979" lon="3.54306">
        <ele>1435.801373898</ele>
        <time>2015-04-22T14:04:02Z</time>
      </trkpt>
      <trkpt lat="44.63983" lon="3.54297">
        <ele>1435.801373898</ele>
        <time>2015-04-22T14:04:07Z</time>
      </trkpt>
      <trkpt lat="44.63987" lon="3.54289">
        <ele>1436.3788756335</ele>
        <time>2015-04-22T14:04:12Z</time>
      </trkpt>
      <trkpt lat="44.63991" lon="3.54283">
        <ele>1436.3788756335</ele>
        <time>2015-04-22T14:04:17Z</time>
      </trkpt>
      <trkpt lat="44.63996" lon="3.54276">
        <ele>1436.6880134064</ele>
        <time>2015-04-22T14:04:22Z</time>
      </trkpt>
      <trkpt lat="44.64001" lon="3.54271">
        <ele>1436.6880134064</ele>
        <time>2015-04-22T14:04:27Z</time>
      </trkpt>
      <trkpt lat="44.64007" lon="3.54266">
        <ele>1436.9925668677</ele>
        <time>2015-04-22T14:04:32Z</time>
      </trkpt>
      <trkpt lat="44.64013" lon="3.54261">
        <ele>1436.9925668677</ele>
        <time>2015-04-22T14:04:37Z</time>
      </trkpt>
      <trkpt lat="44.64018" lon="3.54255">
        <ele>1437.4648888155</ele>
        <time>2015-04-22T14:04:42Z</time>
      </trkpt>
      <trkpt lat="44.64023" lon="3.5425">
        <ele>1437.4648888155</ele>
        <time>2015-04-22T14:04:47Z</time>
      </trkpt>
      <trkpt lat="44.64028" lon="3.54245">
        <ele>1437.8606862508</ele>
        <time>2015-04-22T14:04:52Z</time>
      </trkpt>
      <trkpt lat="44.64034" lon="3.54237">
        <ele>1437.8606862508</ele>
        <time>2015-04-22T14:04:57Z</time>
      </trkpt>
      <trkpt lat="44.64038" lon="3.54229">
        <ele>1438.3429274555</ele>
        <time>2015-04-22T14:05:02Z</time>
      </trkpt>
      <trkpt lat="44.64042" lon="3.54223">
        <ele>1438.3429274555</ele>
        <time>2015-04-22T14:05:07Z</time>
      </trkpt>
      <trkpt lat="44.64047" lon="3.54217">
        <ele>1438.9326714194</ele>
        <time>2015-04-22T14:05:12Z</time>
      </trkpt>
      <trkpt lat="44.64052" lon="3.5421">
        <ele>1438.9326714194</ele>
        <time>2015-04-22T14:05:17Z</time>
      </trkpt>
      <trkpt lat="44.64056" lon="3.54202">
        <ele>1439.6779599457</ele>
        <time>2015-04-22T14:05:22Z</time>
      </trkpt>
      <trkpt lat="44.64061" lon="3.54195">
        <ele>1439.6779599457</ele>
        <time>2015-04-22T14:05:27Z</time>
      </trkpt>
      <trkpt lat="44.64065" lon="3.54186">
        <ele>1440.8822838677</ele>
        <time>2015-04-22T14:05:32Z</time>
      </trkpt>
      <trkpt lat="44.6407" lon="3.54178">
        <ele>1440.8822838677</ele>
        <time>2015-04-22T14:05:37Z</time>
      </trkpt>
      <trkpt lat="44.64075" lon="3.54171">
        <ele>1442.3355949864</ele>
        <time>2015-04-22T14:05:42Z</time>
      </trkpt>
      <trkpt lat="44.64081" lon="3.54167">
        <ele>1442.3355949864</ele>
        <time>2015-04-22T14:05:47Z</time>
      </trkpt>
      <trkpt lat="44.64088" lon="3.54163">
        <ele>1443.62643822</ele>
        <time>2015-04-22T14:05:52Z</time>
      </trkpt>
      <trkpt lat="44.64093" lon="3.54158">
        <ele>1443.62643822</ele>
        <time>2015-04-22T14:05:57Z</time>
      </trkpt>
      <trkpt lat="44.641" lon="3.54153">
        <ele>1445.4837329859</ele>
        <time>2015-04-22T14:06:02Z</time>
      </trkpt>
      <trkpt lat="44.64107" lon="3.54151">
        <ele>1445.4837329859</ele>
        <time>2015-04-22T14:06:07Z</time>
      </trkpt>
      <trkpt lat="44.64111" lon="3.54156">
        <ele>1446.491697652</ele>
        <time>2015-04-22T14:06:12Z</time>
      </trkpt>
      <trkpt lat="44.64116" lon="3.54158">
        <ele>1446.491697652</ele>
        <time>2015-04-22T14:06:17Z</time>
      </trkpt>
      <trkpt lat="44.64126" lon="3.54162">
        <ele>1446.9117999887</ele>
        <time>2015-04-22T14:06:22Z</time>
      </trkpt>
      <trkpt lat="44.64134" lon="3.54165">
        <ele>1447.348284514</ele>
        <time>2015-04-22T14:06:27Z</time>
      </trkpt>
      <trkpt lat="44.6414" lon="3.54166">
        <ele>1447.348284514</ele>
        <time>2015-04-22T14:06:32Z</time>
      </trkpt>
      <trkpt lat="44.64147" lon="3.54167">
        <ele>1448.1880883911</ele>
        <time>2015-04-22T14:06:37Z</time>
      </trkpt>
      <trkpt lat="44.64153" lon="3.5417">
        <ele>1448.1880883911</ele>
        <time>2015-04-22T14:06:42Z</time>
      </trkpt>
      <trkpt lat="44.64157" lon="3.54171">
        <ele>1449.1545640698</ele>
        <time>2015-04-22T14:06:47Z</time>
      </trkpt>
      <trkpt lat="44.64163" lon="3.54171">
        <ele>1449.1545640698</ele>
        <time>2015-04-22T14:06:52Z</time>
      </trkpt>
      <trkpt lat="44.64168" lon="3.54168">
        <ele>1449.7461019904</ele>
        <time>2015-04-22T14:06:57Z</time>
      </trkpt>
      <trkpt lat="44.64175" lon="3.54165">
        <ele>1449.7461019904</ele>
        <time>2015-04-22T14:07:02Z</time>
      </trkpt>
      <trkpt lat="44.64179" lon="3.54158">
        <ele>1449.8737408733</ele>
        <time>2015-04-22T14:07:07Z</time>
      </trkpt>
      <trkpt lat="44.64185" lon="3.54154">
        <ele>1449.8737408733</ele>
        <time>2015-04-22T14:07:12Z</time>
      </trkpt>
      <trkpt lat="44.64192" lon="3.5415">
        <ele>1451.7333735871</ele>
        <time>2015-04-22T14:07:17Z</time>
      </trkpt>
      <trkpt lat="44.642" lon="3.54147">
        <ele>1451.7333735871</ele>
        <time>2015-04-22T14:07:22Z</time>
      </trkpt>
      <trkpt lat="44.64206" lon="3.54141">
        <ele>1453.4781982472</ele>
        <time>2015-04-22T14:07:27Z</time>
      </trkpt>
      <trkpt lat="44.64213" lon="3.54138">
        <ele>1453.4781982472</ele>
        <time>2015-04-22T14:07:32Z</time>
      </trkpt>
      <trkpt lat="44.64218" lon="3.54135">
        <ele>1454.8674003823</ele>
        <time>2015-04-22T14:07:37Z</time>
      </trkpt>
      <trkpt lat="44.64223" lon="3.54131">
        <ele>1454.8674003823</ele>
        <time>2015-04-22T14:07:42Z</time>
      </trkpt>
      <trkpt lat="44.64229" lon="3.54129">
        <ele>1456.1544911305</ele>
        <time>2015-04-22T14:07:47Z</time>
      </trkpt>
      <trkpt lat="44.64233" lon="3.54123">
        <ele>1456.1544911305</ele>
        <time>2015-04-22T14:07:52Z</time>
      </trkpt>
      <trkpt lat="44.64241" lon="3.54119">
        <ele>1458.6843797615</ele>
        <time>2015-04-22T14:07:57Z</time>
      </trkpt>
      <trkpt lat="44.64246" lon="3.54116">
        <ele>1458.6843797615</ele>
        <time>2015-04-22T14:08:02Z</time>
      </trkpt>
      <trkpt lat="44.64251" lon="3.54115">
        <ele>1460.7310877121</ele>
        <time>2015-04-22T14:08:07Z</time>
      </trkpt>
      <trkpt lat="44.64254" lon="3.54112">
        <ele>1460.7310877121</ele>
        <time>2015-04-22T14:08:12Z</time>
      </trkpt>
      <trkpt lat="44.64258" lon="3.5411">
        <ele>1460.7310877121</ele>
        <time>2015-04-22T14:08:17Z</time>
      </trkpt>
      <trkpt lat="44.64258" lon="3.54109">
        <ele>1460.7310877121</ele>
        <time>2015-04-22T14:08:22Z</time>
      </trkpt>
      <trkpt lat="44.64258" lon="3.54106">
        <ele>1462.325328364</ele>
        <time>2015-04-22T14:08:27Z</time>
      </trkpt>
      <trkpt lat="44.64258" lon="3.54105">
        <ele>1462.325328364</ele>
        <time>2015-04-22T14:08:32Z</time>
      </trkpt>
      <trkpt lat="44.64258" lon="3.54104">
        <ele>1462.325328364</ele>
        <time>2015-04-22T14:08:37Z</time>
      </trkpt>
      <trkpt lat="44.64258" lon="3.54103">
        <ele>1462.325328364</ele>
        <time>2015-04-22T14:08:42Z</time>
      </trkpt>
      <trkpt lat="44.64258" lon="3.54103">
        <ele>1462.325328364</ele>
        <time>2015-04-22T14:08:47Z</time>
      </trkpt>
      <trkpt lat="44.64258" lon="3.54103">
        <ele>1462.325328364</ele>
        <time>2015-04-22T14:08:52Z</time>
      </trkpt>
      <trkpt lat="44.64258" lon="3.54103">
        <ele>1462.325328364</ele>
        <time>2015-04-22T14:08:57Z</time>
      </trkpt>
      <trkpt lat="44.64258" lon="3.54103">
        <ele>1462.325328364</ele>
        <time>2015-04-22T14:09:02Z</time>
      </trkpt>
      <trkpt lat="44.64258" lon="3.54103">
        <ele>1462.325328364</ele>
        <time>2015-04-22T14:09:07Z</time>
      </trkpt>
      <trkpt lat="44.64258" lon="3.54103">
        <ele>1462.325328364</ele>
        <time>2015-04-22T14:09:12Z</time>
      </trkpt>
      <trkpt lat="44.64258" lon="3.54103">
        <ele>1462.325328364</ele>
        <time>2015-04-22T14:09:17Z</time>
      </trkpt>
      <trkpt lat="44.64258" lon="3.54103">
        <ele>1462.325328364</ele>
        <time>2015-04-22T14:09:22Z</time>
      </trkpt>
      <trkpt lat="44.64258" lon="3.54103">
        <ele>1462.325328364</ele>
        <time>2015-04-22T14:09:27Z</time>
      </trkpt>
      <trkpt lat="44.64258" lon="3.54103">
        <ele>1462.325328364</ele>
        <time>2015-04-22T14:09:32Z</time>
      </trkpt>
      <trkpt lat="44.64258" lon="3.54103">
        <ele>1462.325328364</ele>
        <time>2015-04-22T14:09:37Z</time>
      </trkpt>
      <trkpt lat="44.64258" lon="3.54103">
        <ele>1462.325328364</ele>
        <time>2015-04-22T14:09:42Z</time>
      </trkpt>
      <trkpt lat="44.64258" lon="3.54103">
        <ele>1462.325328364</ele>
        <time>2015-04-22T14:09:47Z</time>
      </trkpt>
      <trkpt lat="44.64258" lon="3.54103">
        <ele>1462.325328364</ele>
        <time>2015-04-22T14:09:52Z</time>
      </trkpt>
      <trkpt lat="44.64258" lon="3.54103">
        <ele>1462.325328364</ele>
        <time>2015-04-22T14:09:57Z</time>
      </trkpt>
      <trkpt lat="44.64258" lon="3.54103">
        <ele>1462.325328364</ele>
        <time>2015-04-22T14:10:02Z</time>
      </trkpt>
      <trkpt lat="44.64258" lon="3.54103">
        <ele>1462.325328364</ele>
        <time>2015-04-22T14:10:07Z</time>
      </trkpt>
      <trkpt lat="44.64258" lon="3.54103">
        <ele>1462.325328364</ele>
        <time>2015-04-22T14:10:12Z</time>
      </trkpt>
      <trkpt lat="44.64258" lon="3.54103">
        <ele>1462.325328364</ele>
        <time>2015-04-22T14:10:17Z</time>
      </trkpt>
      <trkpt lat="44.64258" lon="3.54103">
        <ele>1462.325328364</ele>
        <time>2015-04-22T14:10:22Z</time>
      </trkpt>
      <trkpt lat="44.64258" lon="3.54103">
        <ele>1462.325328364</ele>
        <time>2015-04-22T14:10:27Z</time>
      </trkpt>
      <trkpt lat="44.64258" lon="3.54103">
        <ele>1462.325328364</ele>
        <time>2015-04-22T14:10:32Z</time>
      </trkpt>
      <trkpt lat="44.64258" lon="3.54103">
        <ele>1462.325328364</ele>
        <time>2015-04-22T14:10:37Z</time>
      </trkpt>
      <trkpt lat="44.64258" lon="3.54103">
        <ele>1462.325328364</ele>
        <time>2015-04-22T14:10:42Z</time>
      </trkpt>
      <trkpt lat="44.64258" lon="3.54103">
        <ele>1462.325328364</ele>
        <time>2015-04-22T14:10:47Z</time>
      </trkpt>
      <trkpt lat="44.64258" lon="3.54103">
        <ele>1462.325328364</ele>
        <time>2015-04-22T14:10:52Z</time>
      </trkpt>
      <trkpt lat="44.64258" lon="3.54103">
        <ele>1462.325328364</ele>
        <time>2015-04-22T14:10:57Z</time>
      </trkpt>
      <trkpt lat="44.64258" lon="3.54103">
        <ele>1462.325328364</ele>
        <time>2015-04-22T14:11:02Z</time>
      </trkpt>
      <trkpt lat="44.64258" lon="3.54103">
        <ele>1462.325328364</ele>
        <time>2015-04-22T14:11:07Z</time>
      </trkpt>
      <trkpt lat="44.64258" lon="3.54103">
        <ele>1462.325328364</ele>
        <time>2015-04-22T14:11:12Z</time>
      </trkpt>
      <trkpt lat="44.64258" lon="3.54103">
        <ele>1462.325328364</ele>
        <time>2015-04-22T14:11:17Z</time>
      </trkpt>
      <trkpt lat="44.64258" lon="3.54103">
        <ele>1462.325328364</ele>
        <time>2015-04-22T14:11:22Z</time>
      </trkpt>
      <trkpt lat="44.6426" lon="3.54103">
        <ele>1462.325328364</ele>
        <time>2015-04-22T14:11:27Z</time>
      </trkpt>
      <trkpt lat="44.64265" lon="3.54106">
        <ele>1463.6410358984</ele>
        <time>2015-04-22T14:11:32Z</time>
      </trkpt>
      <trkpt lat="44.6427" lon="3.54108">
        <ele>1463.6410358984</ele>
        <time>2015-04-22T14:11:37Z</time>
      </trkpt>
      <trkpt lat="44.64272" lon="3.54109">
        <ele>1463.6410358984</ele>
        <time>2015-04-22T14:11:42Z</time>
      </trkpt>
      <trkpt lat="44.64277" lon="3.54108">
        <ele>1463.701769169</ele>
        <time>2015-04-22T14:11:47Z</time>
      </trkpt>
      <trkpt lat="44.64283" lon="3.54105">
        <ele>1463.701769169</ele>
        <time>2015-04-22T14:11:52Z</time>
      </trkpt>
      <trkpt lat="44.64291" lon="3.54103">
        <ele>1463.1195989821</ele>
        <time>2015-04-22T14:11:57Z</time>
      </trkpt>
      <trkpt lat="44.64303" lon="3.54102">
        <ele>1462.5499914405</ele>
        <time>2015-04-22T14:12:02Z</time>
      </trkpt>
      <trkpt lat="44.64313" lon="3.541">
        <ele>1461.5050572208</ele>
        <time>2015-04-22T14:12:07Z</time>
      </trkpt>
      <trkpt lat="44.64321" lon="3.541">
        <ele>1461.5050572208</ele>
        <time>2015-04-22T14:12:12Z</time>
      </trkpt>
      <trkpt lat="44.64329" lon="3.54098">
        <ele>1460.7590853124</ele>
        <time>2015-04-22T14:12:17Z</time>
      </trkpt>
      <trkpt lat="44.6434" lon="3.54094">
        <ele>1461.5330834412</ele>
        <time>2015-04-22T14:12:22Z</time>
      </trkpt>
      <trkpt lat="44.64351" lon="3.5409">
        <ele>1463.6427285073</ele>
        <time>2015-04-22T14:12:27Z</time>
      </trkpt>
      <trkpt lat="44.64359" lon="3.54086">
        <ele>1463.6427285073</ele>
        <time>2015-04-22T14:12:32Z</time>
      </trkpt>
      <trkpt lat="44.64364" lon="3.54081">
        <ele>1465.4724153752</ele>
        <time>2015-04-22T14:12:37Z</time>
      </trkpt>
      <trkpt lat="44.64366" lon="3.54074">
        <ele>1465.4724153752</ele>
        <time>2015-04-22T14:12:42Z</time>
      </trkpt>
      <trkpt lat="44.6437" lon="3.54062">
        <ele>1467.5291904455</ele>
        <time>2015-04-22T14:12:47Z</time>
      </trkpt>
      <trkpt lat="44.64371" lon="3.54049">
        <ele>1469.6769959412</ele>
        <time>2015-04-22T14:12:52Z</time>
      </trkpt>
      <trkpt lat="44.64373" lon="3.54037">
        <ele>1469.6769959412</ele>
        <time>2015-04-22T14:12:57Z</time>
      </trkpt>
      <trkpt lat="44.64372" lon="3.54031">
        <ele>1470.9104895145</ele>
        <time>2015-04-22T14:13:02Z</time>
      </trkpt>
      <trkpt lat="44.6437" lon="3.54024">
        <ele>1470.9104895145</ele>
        <time>2015-04-22T14:13:07Z</time>
      </trkpt>
      <trkpt lat="44.64366" lon="3.54015">
        <ele>1472.1742504109</ele>
        <time>2015-04-22T14:13:12Z</time>
      </trkpt>
      <trkpt lat="44.64364" lon="3.54006">
        <ele>1472.1742504109</ele>
        <time>2015-04-22T14:13:17Z</time>
      </trkpt>
      <trkpt lat="44.64368" lon="3.53994">
        <ele>1474.1272823549</ele>
        <time>2015-04-22T14:13:22Z</time>
      </trkpt>
      <trkpt lat="44.64369" lon="3.53982">
        <ele>1474.1272823549</ele>
        <time>2015-04-22T14:13:27Z</time>
      </trkpt>
      <trkpt lat="44.64368" lon="3.5397">
        <ele>1476.4560024494</ele>
        <time>2015-04-22T14:13:32Z</time>
      </trkpt>
      <trkpt lat="44.64364" lon="3.5396">
        <ele>1476.4560024494</ele>
        <time>2015-04-22T14:13:37Z</time>
      </trkpt>
      <trkpt lat="44.64365" lon="3.53952">
        <ele>1478.4509593374</ele>
        <time>2015-04-22T14:13:42Z</time>
      </trkpt>
      <trkpt lat="44.64369" lon="3.53944">
        <ele>1478.4509593374</ele>
        <time>2015-04-22T14:13:47Z</time>
      </trkpt>
      <trkpt lat="44.6437" lon="3.53932">
        <ele>1481.2860443256</ele>
        <time>2015-04-22T14:13:52Z</time>
      </trkpt>
      <trkpt lat="44.64367" lon="3.5392">
        <ele>1481.2860443256</ele>
        <time>2015-04-22T14:13:57Z</time>
      </trkpt>
      <trkpt lat="44.64369" lon="3.53913">
        <ele>1482.9050195069</ele>
        <time>2015-04-22T14:14:02Z</time>
      </trkpt>
      <trkpt lat="44.64369" lon="3.53906">
        <ele>1482.9050195069</ele>
        <time>2015-04-22T14:14:07Z</time>
      </trkpt>
      <trkpt lat="44.64376" lon="3.53896">
        <ele>1485.6142458691</ele>
        <time>2015-04-22T14:14:12Z</time>
      </trkpt>
      <trkpt lat="44.64377" lon="3.53887">
        <ele>1485.6142458691</ele>
        <time>2015-04-22T14:14:17Z</time>
      </trkpt>
      <trkpt lat="44.6438" lon="3.5388">
        <ele>1488.3051982323</ele>
        <time>2015-04-22T14:14:22Z</time>
      </trkpt>
      <trkpt lat="44.64387" lon="3.53874">
        <ele>1488.3051982323</ele>
        <time>2015-04-22T14:14:27Z</time>
      </trkpt>
      <trkpt lat="44.64389" lon="3.53863">
        <ele>1491.5649842061</ele>
        <time>2015-04-22T14:14:32Z</time>
      </trkpt>
      <trkpt lat="44.64392" lon="3.53858">
        <ele>1491.5649842061</ele>
        <time>2015-04-22T14:14:37Z</time>
      </trkpt>
      <trkpt lat="44.64398" lon="3.53855">
        <ele>1494.3364648711</ele>
        <time>2015-04-22T14:14:42Z</time>
      </trkpt>
      <trkpt lat="44.64405" lon="3.53857">
        <ele>1494.3364648711</ele>
        <time>2015-04-22T14:14:47Z</time>
      </trkpt>
      <trkpt lat="44.64413" lon="3.53859">
        <ele>1496.131623955</ele>
        <time>2015-04-22T14:14:52Z</time>
      </trkpt>
      <trkpt lat="44.64417" lon="3.53861">
        <ele>1496.131623955</ele>
        <time>2015-04-22T14:14:57Z</time>
      </trkpt>
      <trkpt lat="44.64422" lon="3.53864">
        <ele>1497.9855008472</ele>
        <time>2015-04-22T14:15:02Z</time>
      </trkpt>
      <trkpt lat="44.64427" lon="3.53869">
        <ele>1497.9855008472</ele>
        <time>2015-04-22T14:15:07Z</time>
      </trkpt>
      <trkpt lat="44.64433" lon="3.53877">
        <ele>1500.0068051465</ele>
        <time>2015-04-22T14:15:12Z</time>
      </trkpt>
      <trkpt lat="44.64438" lon="3.53884">
        <ele>1500.0068051465</ele>
        <time>2015-04-22T14:15:17Z</time>
      </trkpt>
      <trkpt lat="44.64444" lon="3.53886">
        <ele>1500.7683336998</ele>
        <time>2015-04-22T14:15:22Z</time>
      </trkpt>
      <trkpt lat="44.64449" lon="3.53891">
        <ele>1500.7683336998</ele>
        <time>2015-04-22T14:15:27Z</time>
      </trkpt>
      <trkpt lat="44.64453" lon="3.53896">
        <ele>1501.5453751254</ele>
        <time>2015-04-22T14:15:32Z</time>
      </trkpt>
      <trkpt lat="44.64457" lon="3.53903">
        <ele>1501.5453751254</ele>
        <time>2015-04-22T14:15:37Z</time>
      </trkpt>
      <trkpt lat="44.64464" lon="3.53905">
        <ele>1501.5308644501</ele>
        <time>2015-04-22T14:15:42Z</time>
      </trkpt>
      <trkpt lat="44.64469" lon="3.5391">
        <ele>1501.5308644501</ele>
        <time>2015-04-22T14:15:47Z</time>
      </trkpt>
      <trkpt lat="44.64475" lon="3.5392">
        <ele>1501.4492713342</ele>
        <time>2015-04-22T14:15:52Z</time>
      </trkpt>
      <trkpt lat="44.64482" lon="3.53925">
        <ele>1501.4492713342</ele>
        <time>2015-04-22T14:15:57Z</time>
      </trkpt>
      <trkpt lat="44.64488" lon="3.5393">
        <ele>1501.0498011286</ele>
        <time>2015-04-22T14:16:02Z</time>
      </trkpt>
      <trkpt lat="44.64493" lon="3.53933">
        <ele>1501.0498011286</ele>
        <time>2015-04-22T14:16:07Z</time>
      </trkpt>
      <trkpt lat="44.645" lon="3.53937">
        <ele>1500.6054244783</ele>
        <time>2015-04-22T14:16:12Z</time>
      </trkpt>
      <trkpt lat="44.64506" lon="3.53941">
        <ele>1500.6054244783</ele>
        <time>2015-04-22T14:16:17Z</time>
      </trkpt>
      <trkpt lat="44.64512" lon="3.53948">
        <ele>1500.225118266</ele>
        <time>2015-04-22T14:16:22Z</time>
      </trkpt>
      <trkpt lat="44.64519" lon="3.53953">
        <ele>1500.225118266</ele>
        <time>2015-04-22T14:16:27Z</time>
      </trkpt>
      <trkpt lat="44.64525" lon="3.53957">
        <ele>1499.5773669087</ele>
        <time>2015-04-22T14:16:32Z</time>
      </trkpt>
      <trkpt lat="44.64531" lon="3.5396">
        <ele>1499.5773669087</ele>
        <time>2015-04-22T14:16:37Z</time>
      </trkpt>
      <trkpt lat="44.64537" lon="3.53961">
        <ele>1498.9610340943</ele>
        <time>2015-04-22T14:16:42Z</time>
      </trkpt>
      <trkpt lat="44.64542" lon="3.53964">
        <ele>1498.9610340943</ele>
        <time>2015-04-22T14:16:47Z</time>
      </trkpt>
      <trkpt lat="44.64548" lon="3.53969">
        <ele>1497.6585657965</ele>
        <time>2015-04-22T14:16:52Z</time>
      </trkpt>
      <trkpt lat="44.64553" lon="3.53972">
        <ele>1497.6585657965</ele>
        <time>2015-04-22T14:16:57Z</time>
      </trkpt>
      <trkpt lat="44.6456" lon="3.53975">
        <ele>1496.909286781</ele>
        <time>2015-04-22T14:17:02Z</time>
      </trkpt>
      <trkpt lat="44.64567" lon="3.53977">
        <ele>1496.909286781</ele>
        <time>2015-04-22T14:17:07Z</time>
      </trkpt>
      <trkpt lat="44.64574" lon="3.5398">
        <ele>1495.5973430895</ele>
        <time>2015-04-22T14:17:12Z</time>
      </trkpt>
      <trkpt lat="44.6458" lon="3.53981">
        <ele>1495.5973430895</ele>
        <time>2015-04-22T14:17:17Z</time>
      </trkpt>
      <trkpt lat="44.64586" lon="3.53984">
        <ele>1494.4197054401</ele>
        <time>2015-04-22T14:17:22Z</time>
      </trkpt>
      <trkpt lat="44.64593" lon="3.53989">
        <ele>1494.4197054401</ele>
        <time>2015-04-22T14:17:27Z</time>
      </trkpt>
      <trkpt lat="44.64601" lon="3.53991">
        <ele>1493.5173067331</ele>
        <time>2015-04-22T14:17:32Z</time>
      </trkpt>
      <trkpt lat="44.64607" lon="3.53994">
        <ele>1493.5173067331</ele>
        <time>2015-04-22T14:17:37Z</time>
      </trkpt>
      <trkpt lat="44.64613" lon="3.53996">
        <ele>1491.4634658693</ele>
        <time>2015-04-22T14:17:42Z</time>
      </trkpt>
      <trkpt lat="44.64617" lon="3.54">
        <ele>1491.4634658693</ele>
        <time>2015-04-22T14:17:47Z</time>
      </trkpt>
      <trkpt lat="44.64624" lon="3.54004">
        <ele>1489.6775436988</ele>
        <time>2015-04-22T14:17:52Z</time>
      </trkpt>
      <trkpt lat="44.6463" lon="3.54008">
        <ele>1489.6775436988</ele>
        <time>2015-04-22T14:17:57Z</time>
      </trkpt>
      <trkpt lat="44.64636" lon="3.54011">
        <ele>1489.1423121621</ele>
        <time>2015-04-22T14:18:02Z</time>
      </trkpt>
      <trkpt lat="44.64642" lon="3.54013">
        <ele>1489.1423121621</ele>
        <time>2015-04-22T14:18:07Z</time>
      </trkpt>
      <trkpt lat="44.64651" lon="3.54015">
        <ele>1488.7615685375</ele>
        <time>2015-04-22T14:18:12Z</time>
      </trkpt>
      <trkpt lat="44.64658" lon="3.54018">
        <ele>1488.7615685375</ele>
        <time>2015-04-22T14:18:17Z</time>
      </trkpt>
      <trkpt lat="44.64667" lon="3.54021">
        <ele>1488.8160694789</ele>
        <time>2015-04-22T14:18:22Z</time>
      </trkpt>
      <trkpt lat="44.64675" lon="3.54025">
        <ele>1488.8160694789</ele>
        <time>2015-04-22T14:18:27Z</time>
      </trkpt>
      <trkpt lat="44.64684" lon="3.54026">
        <ele>1489.5069465287</ele>
        <time>2015-04-22T14:18:32Z</time>
      </trkpt>
      <trkpt lat="44.64691" lon="3.5403">
        <ele>1489.5069465287</ele>
        <time>2015-04-22T14:18:37Z</time>
      </trkpt>
      <trkpt lat="44.64697" lon="3.54032">
        <ele>1490.0386823288</ele>
        <time>2015-04-22T14:18:42Z</time>
      </trkpt>
      <trkpt lat="44.64702" lon="3.54036">
        <ele>1490.0386823288</ele>
        <time>2015-04-22T14:18:47Z</time>
      </trkpt>
      <trkpt lat="44.64711" lon="3.54036">
        <ele>1490.6400614595</ele>
        <time>2015-04-22T14:18:52Z</time>
      </trkpt>
      <trkpt lat="44.64718" lon="3.54038">
        <ele>1490.6400614595</ele>
        <time>2015-04-22T14:18:57Z</time>
      </trkpt>
      <trkpt lat="44.64726" lon="3.54036">
        <ele>1491.335401647</ele>
        <time>2015-04-22T14:19:02Z</time>
      </trkpt>
      <trkpt lat="44.64731" lon="3.54041">
        <ele>1491.335401647</ele>
        <time>2015-04-22T14:19:07Z</time>
      </trkpt>
      <trkpt lat="44.64738" lon="3.54046">
        <ele>1491.9739241954</ele>
        <time>2015-04-22T14:19:12Z</time>
      </trkpt>
      <trkpt lat="44.64744" lon="3.54047">
        <ele>1491.9739241954</ele>
        <time>2015-04-22T14:19:17Z</time>
      </trkpt>
      <trkpt lat="44.64751" lon="3.54048">
        <ele>1492.8771363647</ele>
        <time>2015-04-22T14:19:22Z</time>
      </trkpt>
      <trkpt lat="44.64756" lon="3.54047">
        <ele>1492.8771363647</ele>
        <time>2015-04-22T14:19:27Z</time>
      </trkpt>
      <trkpt lat="44.64768" lon="3.54048">
        <ele>1492.7568632879</ele>
        <time>2015-04-22T14:19:37Z</time>
      </trkpt>
      <trkpt lat="44.64776" lon="3.5405">
        <ele>1492.7568632879</ele>
        <time>2015-04-22T14:19:42Z</time>
      </trkpt>
      <trkpt lat="44.6478" lon="3.54052">
        <ele>1493.0883934427</ele>
        <time>2015-04-22T14:19:47Z</time>
      </trkpt>
      <trkpt lat="44.64788" lon="3.54052">
        <ele>1493.0883934427</ele>
        <time>2015-04-22T14:19:52Z</time>
      </trkpt>
      <trkpt lat="44.64798" lon="3.54048">
        <ele>1493.0756177804</ele>
        <time>2015-04-22T14:19:57Z</time>
      </trkpt>
      <trkpt lat="44.64802" lon="3.54045">
        <ele>1493.0756177804</ele>
        <time>2015-04-22T14:20:02Z</time>
      </trkpt>
      <trkpt lat="44.64807" lon="3.54042">
        <ele>1492.788811081</ele>
        <time>2015-04-22T14:20:07Z</time>
      </trkpt>
      <trkpt lat="44.64812" lon="3.54039">
        <ele>1492.788811081</ele>
        <time>2015-04-22T14:20:12Z</time>
      </trkpt>
      <trkpt lat="44.64817" lon="3.54034">
        <ele>1492.2361242864</ele>
        <time>2015-04-22T14:20:17Z</time>
      </trkpt>
      <trkpt lat="44.64825" lon="3.54033">
        <ele>1492.2361242864</ele>
        <time>2015-04-22T14:20:22Z</time>
      </trkpt>
      <trkpt lat="44.64833" lon="3.5403">
        <ele>1491.6707583909</ele>
        <time>2015-04-22T14:20:27Z</time>
      </trkpt>
      <trkpt lat="44.64841" lon="3.54026">
        <ele>1491.6707583909</ele>
        <time>2015-04-22T14:20:32Z</time>
      </trkpt>
      <trkpt lat="44.64851" lon="3.54026">
        <ele>1491.4137295866</ele>
        <time>2015-04-22T14:20:37Z</time>
      </trkpt>
      <trkpt lat="44.64859" lon="3.54021">
        <ele>1491.3868305141</ele>
        <time>2015-04-22T14:20:42Z</time>
      </trkpt>
      <trkpt lat="44.64866" lon="3.54019">
        <ele>1491.3868305141</ele>
        <time>2015-04-22T14:20:47Z</time>
      </trkpt>
      <trkpt lat="44.64872" lon="3.54013">
        <ele>1491.401576634</ele>
        <time>2015-04-22T14:20:52Z</time>
      </trkpt>
      <trkpt lat="44.6488" lon="3.54007">
        <ele>1491.974860912</ele>
        <time>2015-04-22T14:20:57Z</time>
      </trkpt>
      <trkpt lat="44.64889" lon="3.53999">
        <ele>1492.9354582713</ele>
        <time>2015-04-22T14:21:02Z</time>
      </trkpt>
      <trkpt lat="44.64897" lon="3.5399">
        <ele>1494.325318189</ele>
        <time>2015-04-22T14:21:07Z</time>
      </trkpt>
      <trkpt lat="44.64904" lon="3.53983">
        <ele>1495.4326629588</ele>
        <time>2015-04-22T14:21:12Z</time>
      </trkpt>
      <trkpt lat="44.64909" lon="3.53976">
        <ele>1495.4326629588</ele>
        <time>2015-04-22T14:21:17Z</time>
      </trkpt>
      <trkpt lat="44.64915" lon="3.53968">
        <ele>1496.1751857268</ele>
        <time>2015-04-22T14:21:22Z</time>
      </trkpt>
      <trkpt lat="44.64919" lon="3.53962">
        <ele>1496.1751857268</ele>
        <time>2015-04-22T14:21:27Z</time>
      </trkpt>
      <trkpt lat="44.64925" lon="3.53958">
        <ele>1496.9387618264</ele>
        <time>2015-04-22T14:21:32Z</time>
      </trkpt>
      <trkpt lat="44.64931" lon="3.53954">
        <ele>1496.9387618264</ele>
        <time>2015-04-22T14:21:37Z</time>
      </trkpt>
      <trkpt lat="44.64937" lon="3.53951">
        <ele>1497.0720475045</ele>
        <time>2015-04-22T14:21:42Z</time>
      </trkpt>
      <trkpt lat="44.64944" lon="3.53945">
        <ele>1497.0720475045</ele>
        <time>2015-04-22T14:21:47Z</time>
      </trkpt>
      <trkpt lat="44.6495" lon="3.53937">
        <ele>1498.999621549</ele>
        <time>2015-04-22T14:21:52Z</time>
      </trkpt>
      <trkpt lat="44.64954" lon="3.5393">
        <ele>1498.999621549</ele>
        <time>2015-04-22T14:21:57Z</time>
      </trkpt>
      <trkpt lat="44.64955" lon="3.53925">
        <ele>1499.5010863412</ele>
        <time>2015-04-22T14:22:02Z</time>
      </trkpt>
      <trkpt lat="44.6496" lon="3.53919">
        <ele>1499.5010863412</ele>
        <time>2015-04-22T14:22:07Z</time>
      </trkpt>
      <trkpt lat="44.64965" lon="3.53912">
        <ele>1499.4731873862</ele>
        <time>2015-04-22T14:22:12Z</time>
      </trkpt>
      <trkpt lat="44.64968" lon="3.53906">
        <ele>1499.4731873862</ele>
        <time>2015-04-22T14:22:17Z</time>
      </trkpt>
      <trkpt lat="44.64972" lon="3.53897">
        <ele>1499.5465127906</ele>
        <time>2015-04-22T14:22:22Z</time>
      </trkpt>
      <trkpt lat="44.64977" lon="3.53892">
        <ele>1499.5465127906</ele>
        <time>2015-04-22T14:22:27Z</time>
      </trkpt>
      <trkpt lat="44.64982" lon="3.53888">
        <ele>1499.3827222064</ele>
        <time>2015-04-22T14:22:32Z</time>
      </trkpt>
      <trkpt lat="44.64987" lon="3.53883">
        <ele>1499.3827222064</ele>
        <time>2015-04-22T14:22:37Z</time>
      </trkpt>
      <trkpt lat="44.64995" lon="3.53878">
        <ele>1499.4904172513</ele>
        <time>2015-04-22T14:22:42Z</time>
      </trkpt>
      <trkpt lat="44.65003" lon="3.53873">
        <ele>1499.4904172513</ele>
        <time>2015-04-22T14:22:47Z</time>
      </trkpt>
      <trkpt lat="44.65006" lon="3.53864">
        <ele>1500.2103649339</ele>
        <time>2015-04-22T14:22:52Z</time>
      </trkpt>
      <trkpt lat="44.65011" lon="3.53856">
        <ele>1500.2103649339</ele>
        <time>2015-04-22T14:22:57Z</time>
      </trkpt>
      <trkpt lat="44.65017" lon="3.5385">
        <ele>1501.5971727009</ele>
        <time>2015-04-22T14:23:02Z</time>
      </trkpt>
      <trkpt lat="44.65022" lon="3.53843">
        <ele>1501.5971727009</ele>
        <time>2015-04-22T14:23:07Z</time>
      </trkpt>
      <trkpt lat="44.65025" lon="3.53834">
        <ele>1502.5466706335</ele>
        <time>2015-04-22T14:23:12Z</time>
      </trkpt>
      <trkpt lat="44.65026" lon="3.53824">
        <ele>1502.5466706335</ele>
        <time>2015-04-22T14:23:17Z</time>
      </trkpt>
      <trkpt lat="44.65024" lon="3.53813">
        <ele>1503.492549811</ele>
        <time>2015-04-22T14:23:22Z</time>
      </trkpt>
      <trkpt lat="44.65021" lon="3.53803">
        <ele>1503.492549811</ele>
        <time>2015-04-22T14:23:27Z</time>
      </trkpt>
      <trkpt lat="44.65017" lon="3.53793">
        <ele>1504.6060814103</ele>
        <time>2015-04-22T14:23:32Z</time>
      </trkpt>
      <trkpt lat="44.65009" lon="3.53785">
        <ele>1505.5122861021</ele>
        <time>2015-04-22T14:23:37Z</time>
      </trkpt>
      <trkpt lat="44.65003" lon="3.53775">
        <ele>1506.296662887</ele>
        <time>2015-04-22T14:23:42Z</time>
      </trkpt>
      <trkpt lat="44.65" lon="3.53768">
        <ele>1506.296662887</ele>
        <time>2015-04-22T14:23:47Z</time>
      </trkpt>
      <trkpt lat="44.64997" lon="3.53761">
        <ele>1506.7938039632</ele>
        <time>2015-04-22T14:23:52Z</time>
      </trkpt>
      <trkpt lat="44.64994" lon="3.53752">
        <ele>1506.7938039632</ele>
        <time>2015-04-22T14:23:57Z</time>
      </trkpt>
      <trkpt lat="44.64988" lon="3.53747">
        <ele>1506.8656920746</ele>
        <time>2015-04-22T14:24:02Z</time>
      </trkpt>
      <trkpt lat="44.64985" lon="3.53739">
        <ele>1506.8656920746</ele>
        <time>2015-04-22T14:24:07Z</time>
      </trkpt>
      <trkpt lat="44.64979" lon="3.5373">
        <ele>1507.2215096125</ele>
        <time>2015-04-22T14:24:12Z</time>
      </trkpt>
      <trkpt lat="44.64975" lon="3.53722">
        <ele>1507.2215096125</ele>
        <time>2015-04-22T14:24:17Z</time>
      </trkpt>
      <trkpt lat="44.64974" lon="3.53715">
        <ele>1507.6961351915</ele>
        <time>2015-04-22T14:24:22Z</time>
      </trkpt>
      <trkpt lat="44.64973" lon="3.53708">
        <ele>1507.6961351915</ele>
        <time>2015-04-22T14:24:27Z</time>
      </trkpt>
      <trkpt lat="44.64968" lon="3.53698">
        <ele>1508.2371430248</ele>
        <time>2015-04-22T14:24:32Z</time>
      </trkpt>
      <trkpt lat="44.64963" lon="3.5369">
        <ele>1508.2371430248</ele>
        <time>2015-04-22T14:24:37Z</time>
      </trkpt>
      <trkpt lat="44.6496" lon="3.5368">
        <ele>1509.5595833657</ele>
        <time>2015-04-22T14:24:42Z</time>
      </trkpt>
      <trkpt lat="44.64957" lon="3.53668">
        <ele>1510.6809436673</ele>
        <time>2015-04-22T14:24:47Z</time>
      </trkpt>
      <trkpt lat="44.64954" lon="3.53657">
        <ele>1510.6809436673</ele>
        <time>2015-04-22T14:24:52Z</time>
      </trkpt>
      <trkpt lat="44.64951" lon="3.53649">
        <ele>1511.2967434253</ele>
        <time>2015-04-22T14:24:57Z</time>
      </trkpt>
      <trkpt lat="44.64949" lon="3.53641">
        <ele>1511.2967434253</ele>
        <time>2015-04-22T14:25:02Z</time>
      </trkpt>
      <trkpt lat="44.64947" lon="3.5363">
        <ele>1511.9189277599</ele>
        <time>2015-04-22T14:25:07Z</time>
      </trkpt>
      <trkpt lat="44.64944" lon="3.53623">
        <ele>1511.9189277599</ele>
        <time>2015-04-22T14:25:12Z</time>
      </trkpt>
      <trkpt lat="44.6494" lon="3.53616">
        <ele>1512.4165806558</ele>
        <time>2015-04-22T14:25:17Z</time>
      </trkpt>
      <trkpt lat="44.64934" lon="3.53608">
        <ele>1512.4165806558</ele>
        <time>2015-04-22T14:25:22Z</time>
      </trkpt>
      <trkpt lat="44.64928" lon="3.53603">
        <ele>1513.1155284757</ele>
        <time>2015-04-22T14:25:27Z</time>
      </trkpt>
      <trkpt lat="44.64922" lon="3.53599">
        <ele>1513.1155284757</ele>
        <time>2015-04-22T14:25:32Z</time>
      </trkpt>
      <trkpt lat="44.64917" lon="3.53593">
        <ele>1513.5389282429</ele>
        <time>2015-04-22T14:25:37Z</time>
      </trkpt>
      <trkpt lat="44.64911" lon="3.53585">
        <ele>1513.5389282429</ele>
        <time>2015-04-22T14:25:42Z</time>
      </trkpt>
      <trkpt lat="44.64907" lon="3.53578">
        <ele>1513.8798572645</ele>
        <time>2015-04-22T14:25:47Z</time>
      </trkpt>
      <trkpt lat="44.64903" lon="3.53572">
        <ele>1513.8798572645</ele>
        <time>2015-04-22T14:25:52Z</time>
      </trkpt>
      <trkpt lat="44.64899" lon="3.53565">
        <ele>1514.1301241735</ele>
        <time>2015-04-22T14:25:57Z</time>
      </trkpt>
      <trkpt lat="44.64894" lon="3.53558">
        <ele>1514.1301241735</ele>
        <time>2015-04-22T14:26:02Z</time>
      </trkpt>
      <trkpt lat="44.64889" lon="3.5355">
        <ele>1514.4841750774</ele>
        <time>2015-04-22T14:26:07Z</time>
      </trkpt>
      <trkpt lat="44.64884" lon="3.53543">
        <ele>1514.4841750774</ele>
        <time>2015-04-22T14:26:12Z</time>
      </trkpt>
      <trkpt lat="44.64873" lon="3.53533">
        <ele>1515.0642601764</ele>
        <time>2015-04-22T14:26:17Z</time>
      </trkpt>
      <trkpt lat="44.64863" lon="3.53525">
        <ele>1516.0262709105</ele>
        <time>2015-04-22T14:26:22Z</time>
      </trkpt>
      <trkpt lat="44.64856" lon="3.53521">
        <ele>1516.0262709105</ele>
        <time>2015-04-22T14:26:27Z</time>
      </trkpt>
      <trkpt lat="44.6485" lon="3.53519">
        <ele>1516.9083308771</ele>
        <time>2015-04-22T14:26:32Z</time>
      </trkpt>
      <trkpt lat="44.64844" lon="3.53518">
        <ele>1516.9083308771</ele>
        <time>2015-04-22T14:26:37Z</time>
      </trkpt>
      <trkpt lat="44.64839" lon="3.53514">
        <ele>1517.3403839527</ele>
        <time>2015-04-22T14:26:42Z</time>
      </trkpt>
      <trkpt lat="44.64833" lon="3.53512">
        <ele>1517.3403839527</ele>
        <time>2015-04-22T14:26:47Z</time>
      </trkpt>
      <trkpt lat="44.64827" lon="3.53508">
        <ele>1518.0472664005</ele>
        <time>2015-04-22T14:26:52Z</time>
      </trkpt>
      <trkpt lat="44.6482" lon="3.53505">
        <ele>1518.0472664005</ele>
        <time>2015-04-22T14:26:57Z</time>
      </trkpt>
      <trkpt lat="44.64815" lon="3.53501">
        <ele>1518.8783878281</ele>
        <time>2015-04-22T14:27:02Z</time>
      </trkpt>
      <trkpt lat="44.64809" lon="3.53497">
        <ele>1518.8783878281</ele>
        <time>2015-04-22T14:27:07Z</time>
      </trkpt>
      <trkpt lat="44.64804" lon="3.53495">
        <ele>1519.405673117</ele>
        <time>2015-04-22T14:27:12Z</time>
      </trkpt>
      <trkpt lat="44.64798" lon="3.53493">
        <ele>1519.405673117</ele>
        <time>2015-04-22T14:27:17Z</time>
      </trkpt>
      <trkpt lat="44.64792" lon="3.53489">
        <ele>1519.8962803616</ele>
        <time>2015-04-22T14:27:22Z</time>
      </trkpt>
      <trkpt lat="44.64785" lon="3.53485">
        <ele>1519.8962803616</ele>
        <time>2015-04-22T14:27:27Z</time>
      </trkpt>
      <trkpt lat="44.64778" lon="3.53482">
        <ele>1520.8140355262</ele>
        <time>2015-04-22T14:27:32Z</time>
      </trkpt>
      <trkpt lat="44.64771" lon="3.53478">
        <ele>1520.8140355262</ele>
        <time>2015-04-22T14:27:37Z</time>
      </trkpt>
      <trkpt lat="44.64764" lon="3.53475">
        <ele>1522.1407736477</ele>
        <time>2015-04-22T14:27:42Z</time>
      </trkpt>
      <trkpt lat="44.64758" lon="3.53472">
        <ele>1522.1407736477</ele>
        <time>2015-04-22T14:27:47Z</time>
      </trkpt>
      <trkpt lat="44.64752" lon="3.53469">
        <ele>1523.3253312637</ele>
        <time>2015-04-22T14:27:52Z</time>
      </trkpt>
      <trkpt lat="44.64745" lon="3.53467">
        <ele>1523.3253312637</ele>
        <time>2015-04-22T14:27:57Z</time>
      </trkpt>
      <trkpt lat="44.64738" lon="3.53464">
        <ele>1524.6068385626</ele>
        <time>2015-04-22T14:28:02Z</time>
      </trkpt>
      <trkpt lat="44.64731" lon="3.53462">
        <ele>1524.6068385626</ele>
        <time>2015-04-22T14:28:07Z</time>
      </trkpt>
      <trkpt lat="44.64724" lon="3.53458">
        <ele>1526.3795540002</ele>
        <time>2015-04-22T14:28:12Z</time>
      </trkpt>
      <trkpt lat="44.64718" lon="3.53455">
        <ele>1526.3795540002</ele>
        <time>2015-04-22T14:28:17Z</time>
      </trkpt>
      <trkpt lat="44.64712" lon="3.53452">
        <ele>1528.286878957</ele>
        <time>2015-04-22T14:28:22Z</time>
      </trkpt>
      <trkpt lat="44.64705" lon="3.53448">
        <ele>1528.286878957</ele>
        <time>2015-04-22T14:28:27Z</time>
      </trkpt>
      <trkpt lat="44.64699" lon="3.53445">
        <ele>1530.098955289</ele>
        <time>2015-04-22T14:28:32Z</time>
      </trkpt>
      <trkpt lat="44.64693" lon="3.53443">
        <ele>1530.098955289</ele>
        <time>2015-04-22T14:28:37Z</time>
      </trkpt>
      <trkpt lat="44.64687" lon="3.53441">
        <ele>1531.545483633</ele>
        <time>2015-04-22T14:28:42Z</time>
      </trkpt>
      <trkpt lat="44.64681" lon="3.53438">
        <ele>1531.545483633</ele>
        <time>2015-04-22T14:28:47Z</time>
      </trkpt>
      <trkpt lat="44.64676" lon="3.53437">
        <ele>1532.6653243785</ele>
        <time>2015-04-22T14:28:52Z</time>
      </trkpt>
      <trkpt lat="44.6467" lon="3.53434">
        <ele>1532.6653243785</ele>
        <time>2015-04-22T14:28:57Z</time>
      </trkpt>
      <trkpt lat="44.64663" lon="3.53428">
        <ele>1533.8125035982</ele>
        <time>2015-04-22T14:29:02Z</time>
      </trkpt>
      <trkpt lat="44.64657" lon="3.53426">
        <ele>1533.8125035982</ele>
        <time>2015-04-22T14:29:07Z</time>
      </trkpt>
      <trkpt lat="44.64651" lon="3.53422">
        <ele>1534.6809353045</ele>
        <time>2015-04-22T14:29:12Z</time>
      </trkpt>
      <trkpt lat="44.64643" lon="3.53418">
        <ele>1534.6809353045</ele>
        <time>2015-04-22T14:29:17Z</time>
      </trkpt>
      <trkpt lat="44.64637" lon="3.53416">
        <ele>1535.1896149602</ele>
        <time>2015-04-22T14:29:22Z</time>
      </trkpt>
      <trkpt lat="44.6463" lon="3.53415">
        <ele>1535.1896149602</ele>
        <time>2015-04-22T14:29:27Z</time>
      </trkpt>
      <trkpt lat="44.64623" lon="3.53412">
        <ele>1535.8265876278</ele>
        <time>2015-04-22T14:29:32Z</time>
      </trkpt>
      <trkpt lat="44.64617" lon="3.53406">
        <ele>1535.8265876278</ele>
        <time>2015-04-22T14:29:37Z</time>
      </trkpt>
      <trkpt lat="44.6461" lon="3.53404">
        <ele>1536.8275734325</ele>
        <time>2015-04-22T14:29:42Z</time>
      </trkpt>
      <trkpt lat="44.64604" lon="3.53399">
        <ele>1536.8275734325</ele>
        <time>2015-04-22T14:29:47Z</time>
      </trkpt>
      <trkpt lat="44.64597" lon="3.53394">
        <ele>1537.588571274</ele>
        <time>2015-04-22T14:29:52Z</time>
      </trkpt>
      <trkpt lat="44.6459" lon="3.5339">
        <ele>1537.588571274</ele>
        <time>2015-04-22T14:29:57Z</time>
      </trkpt>
      <trkpt lat="44.64584" lon="3.53386">
        <ele>1538.2424022835</ele>
        <time>2015-04-22T14:30:02Z</time>
      </trkpt>
      <trkpt lat="44.64578" lon="3.53381">
        <ele>1538.2424022835</ele>
        <time>2015-04-22T14:30:07Z</time>
      </trkpt>
      <trkpt lat="44.64572" lon="3.53377">
        <ele>1538.7107179174</ele>
        <time>2015-04-22T14:30:12Z</time>
      </trkpt>
      <trkpt lat="44.64567" lon="3.53372">
        <ele>1538.7107179174</ele>
        <time>2015-04-22T14:30:17Z</time>
      </trkpt>
      <trkpt lat="44.64561" lon="3.53366">
        <ele>1538.8494277703</ele>
        <time>2015-04-22T14:30:22Z</time>
      </trkpt>
      <trkpt lat="44.64555" lon="3.53361">
        <ele>1538.8494277703</ele>
        <time>2015-04-22T14:30:27Z</time>
      </trkpt>
      <trkpt lat="44.6455" lon="3.53356">
        <ele>1538.7277383461</ele>
        <time>2015-04-22T14:30:32Z</time>
      </trkpt>
      <trkpt lat="44.64545" lon="3.5335">
        <ele>1538.7277383461</ele>
        <time>2015-04-22T14:30:37Z</time>
      </trkpt>
      <trkpt lat="44.6454" lon="3.53344">
        <ele>1538.7563944743</ele>
        <time>2015-04-22T14:30:42Z</time>
      </trkpt>
      <trkpt lat="44.64533" lon="3.53337">
        <ele>1538.7563944743</ele>
        <time>2015-04-22T14:30:47Z</time>
      </trkpt>
      <trkpt lat="44.64527" lon="3.5333">
        <ele>1539.4740867984</ele>
        <time>2015-04-22T14:30:52Z</time>
      </trkpt>
      <trkpt lat="44.64521" lon="3.53325">
        <ele>1539.4740867984</ele>
        <time>2015-04-22T14:30:57Z</time>
      </trkpt>
      <trkpt lat="44.64516" lon="3.53319">
        <ele>1539.1875221836</ele>
        <time>2015-04-22T14:31:02Z</time>
      </trkpt>
      <trkpt lat="44.6451" lon="3.53315">
        <ele>1539.1875221836</ele>
        <time>2015-04-22T14:31:07Z</time>
      </trkpt>
      <trkpt lat="44.64504" lon="3.53312">
        <ele>1538.3193499312</ele>
        <time>2015-04-22T14:31:12Z</time>
      </trkpt>
      <trkpt lat="44.64494" lon="3.53301">
        <ele>1537.7671870851</ele>
        <time>2015-04-22T14:31:17Z</time>
      </trkpt>
      <trkpt lat="44.64483" lon="3.53287">
        <ele>1537.3962665815</ele>
        <time>2015-04-22T14:31:22Z</time>
      </trkpt>
      <trkpt lat="44.64477" lon="3.53281">
        <ele>1537.3962665815</ele>
        <time>2015-04-22T14:31:27Z</time>
      </trkpt>
      <trkpt lat="44.64473" lon="3.53275">
        <ele>1537.3550003246</ele>
        <time>2015-04-22T14:31:32Z</time>
      </trkpt>
      <trkpt lat="44.64468" lon="3.5327">
        <ele>1537.3550003246</ele>
        <time>2015-04-22T14:31:37Z</time>
      </trkpt>
      <trkpt lat="44.64462" lon="3.53264">
        <ele>1537.2179078473</ele>
        <time>2015-04-22T14:31:42Z</time>
      </trkpt>
      <trkpt lat="44.64457" lon="3.53261">
        <ele>1537.2179078473</ele>
        <time>2015-04-22T14:31:47Z</time>
      </trkpt>
      <trkpt lat="44.64451" lon="3.53256">
        <ele>1537.2394957587</ele>
        <time>2015-04-22T14:31:52Z</time>
      </trkpt>
      <trkpt lat="44.64445" lon="3.5325">
        <ele>1537.2394957587</ele>
        <time>2015-04-22T14:31:57Z</time>
      </trkpt>
      <trkpt lat="44.6444" lon="3.53245">
        <ele>1537.5109770704</ele>
        <time>2015-04-22T14:32:02Z</time>
      </trkpt>
      <trkpt lat="44.64433" lon="3.53239">
        <ele>1537.5109770704</ele>
        <time>2015-04-22T14:32:07Z</time>
      </trkpt>
      <trkpt lat="44.64427" lon="3.53234">
        <ele>1537.799074894</ele>
        <time>2015-04-22T14:32:12Z</time>
      </trkpt>
      <trkpt lat="44.64421" lon="3.5323">
        <ele>1537.799074894</ele>
        <time>2015-04-22T14:32:17Z</time>
      </trkpt>
      <trkpt lat="44.64414" lon="3.53228">
        <ele>1538.2622461613</ele>
        <time>2015-04-22T14:32:22Z</time>
      </trkpt>
      <trkpt lat="44.64408" lon="3.53226">
        <ele>1538.2622461613</ele>
        <time>2015-04-22T14:32:27Z</time>
      </trkpt>
      <trkpt lat="44.64399" lon="3.53224">
        <ele>1538.8738384732</ele>
        <time>2015-04-22T14:32:32Z</time>
      </trkpt>
      <trkpt lat="44.64386" lon="3.53221">
        <ele>1539.3781196142</ele>
        <time>2015-04-22T14:32:37Z</time>
      </trkpt>
      <trkpt lat="44.64379" lon="3.53221">
        <ele>1539.3781196142</ele>
        <time>2015-04-22T14:32:42Z</time>
      </trkpt>
      <trkpt lat="44.64372" lon="3.5322">
        <ele>1540.0283808762</ele>
        <time>2015-04-22T14:32:47Z</time>
      </trkpt>
      <trkpt lat="44.64365" lon="3.53219">
        <ele>1540.0283808762</ele>
        <time>2015-04-22T14:32:52Z</time>
      </trkpt>
      <trkpt lat="44.64358" lon="3.53217">
        <ele>1540.8282808605</ele>
        <time>2015-04-22T14:32:57Z</time>
      </trkpt>
      <trkpt lat="44.64352" lon="3.53217">
        <ele>1540.8282808605</ele>
        <time>2015-04-22T14:33:02Z</time>
      </trkpt>
      <trkpt lat="44.64346" lon="3.53216">
        <ele>1541.1466641356</ele>
        <time>2015-04-22T14:33:07Z</time>
      </trkpt>
      <trkpt lat="44.64338" lon="3.53215">
        <ele>1541.1466641356</ele>
        <time>2015-04-22T14:33:12Z</time>
      </trkpt>
      <trkpt lat="44.64332" lon="3.53214">
        <ele>1541.50971213</ele>
        <time>2015-04-22T14:33:17Z</time>
      </trkpt>
      <trkpt lat="44.64325" lon="3.53213">
        <ele>1541.50971213</ele>
        <time>2015-04-22T14:33:22Z</time>
      </trkpt>
      <trkpt lat="44.64317" lon="3.5321">
        <ele>1542.4624409038</ele>
        <time>2015-04-22T14:33:27Z</time>
      </trkpt>
      <trkpt lat="44.6431" lon="3.53207">
        <ele>1542.4624409038</ele>
        <time>2015-04-22T14:33:32Z</time>
      </trkpt>
      <trkpt lat="44.64304" lon="3.53205">
        <ele>1543.513779979</ele>
        <time>2015-04-22T14:33:37Z</time>
      </trkpt>
      <trkpt lat="44.64298" lon="3.53205">
        <ele>1543.513779979</ele>
        <time>2015-04-22T14:33:42Z</time>
      </trkpt>
      <trkpt lat="44.64295" lon="3.53209">
        <ele>1544.2516636047</ele>
        <time>2015-04-22T14:33:47Z</time>
      </trkpt>
      <trkpt lat="44.64296" lon="3.53216">
        <ele>1544.2516636047</ele>
        <time>2015-04-22T14:33:52Z</time>
      </trkpt>
      <trkpt lat="44.64293" lon="3.5322">
        <ele>1544.7274866087</ele>
        <time>2015-04-22T14:33:57Z</time>
      </trkpt>
      <trkpt lat="44.64287" lon="3.53228">
        <ele>1544.7274866087</ele>
        <time>2015-04-22T14:34:02Z</time>
      </trkpt>
      <trkpt lat="44.64282" lon="3.53235">
        <ele>1545.4939739539</ele>
        <time>2015-04-22T14:34:07Z</time>
      </trkpt>
      <trkpt lat="44.64277" lon="3.53244">
        <ele>1545.4939739539</ele>
        <time>2015-04-22T14:34:12Z</time>
      </trkpt>
      <trkpt lat="44.64273" lon="3.5325">
        <ele>1546.2121605437</ele>
        <time>2015-04-22T14:34:17Z</time>
      </trkpt>
      <trkpt lat="44.64267" lon="3.53255">
        <ele>1546.2121605437</ele>
        <time>2015-04-22T14:34:22Z</time>
      </trkpt>
      <trkpt lat="44.64261" lon="3.53259">
        <ele>1547.1589593774</ele>
        <time>2015-04-22T14:34:27Z</time>
      </trkpt>
      <trkpt lat="44.64259" lon="3.53259">
        <ele>1547.1589593774</ele>
        <time>2015-04-22T14:34:32Z</time>
      </trkpt>
      <trkpt lat="44.6426" lon="3.5326">
        <ele>1547.1589593774</ele>
        <time>2015-04-22T14:34:37Z</time>
      </trkpt>
      <trkpt lat="44.6426" lon="3.53261">
        <ele>1547.1589593774</ele>
        <time>2015-04-22T14:34:42Z</time>
      </trkpt>
      <trkpt lat="44.6426" lon="3.53262">
        <ele>1547.1589593774</ele>
        <time>2015-04-22T14:34:47Z</time>
      </trkpt>
      <trkpt lat="44.64261" lon="3.53264">
        <ele>1547.1589593774</ele>
        <time>2015-04-22T14:34:52Z</time>
      </trkpt>
      <trkpt lat="44.64262" lon="3.53264">
        <ele>1547.1589593774</ele>
        <time>2015-04-22T14:34:57Z</time>
      </trkpt>
      <trkpt lat="44.64263" lon="3.53265">
        <ele>1547.1589593774</ele>
        <time>2015-04-22T14:35:02Z</time>
      </trkpt>
      <trkpt lat="44.64263" lon="3.53265">
        <ele>1547.1589593774</ele>
        <time>2015-04-22T14:35:07Z</time>
      </trkpt>
      <trkpt lat="44.64263" lon="3.53265">
        <ele>1547.1589593774</ele>
        <time>2015-04-22T14:35:12Z</time>
      </trkpt>
      <trkpt lat="44.64262" lon="3.53264">
        <ele>1548.0426671997</ele>
        <time>2015-04-22T14:35:17Z</time>
      </trkpt>
      <trkpt lat="44.64257" lon="3.53267">
        <ele>1548.0426671997</ele>
        <time>2015-04-22T14:35:22Z</time>
      </trkpt>
      <trkpt lat="44.64252" lon="3.53267">
        <ele>1548.8381675326</ele>
        <time>2015-04-22T14:35:27Z</time>
      </trkpt>
      <trkpt lat="44.64251" lon="3.53266">
        <ele>1548.8381675326</ele>
        <time>2015-04-22T14:35:32Z</time>
      </trkpt>
      <trkpt lat="44.6425" lon="3.53266">
        <ele>1548.8381675326</ele>
        <time>2015-04-22T14:35:37Z</time>
      </trkpt>
      <trkpt lat="44.64249" lon="3.53266">
        <ele>1548.8381675326</ele>
        <time>2015-04-22T14:35:42Z</time>
      </trkpt>
      <trkpt lat="44.64247" lon="3.53264">
        <ele>1548.8381675326</ele>
        <time>2015-04-22T14:35:47Z</time>
      </trkpt>
      <trkpt lat="44.64247" lon="3.53262">
        <ele>1548.8381675326</ele>
        <time>2015-04-22T14:35:52Z</time>
      </trkpt>
      <trkpt lat="44.64249" lon="3.5326">
        <ele>1550.473567018</ele>
        <time>2015-04-22T14:35:57Z</time>
      </trkpt>
      <trkpt lat="44.64252" lon="3.53258">
        <ele>1550.473567018</ele>
        <time>2015-04-22T14:36:02Z</time>
      </trkpt>
      <trkpt lat="44.64253" lon="3.53258">
        <ele>1550.473567018</ele>
        <time>2015-04-22T14:36:07Z</time>
      </trkpt>
      <trkpt lat="44.64253" lon="3.53259">
        <ele>1550.473567018</ele>
        <time>2015-04-22T14:36:12Z</time>
      </trkpt>
      <trkpt lat="44.64253" lon="3.53259">
        <ele>1550.473567018</ele>
        <time>2015-04-22T14:36:17Z</time>
      </trkpt>
      <trkpt lat="44.64253" lon="3.53258">
        <ele>1550.473567018</ele>
        <time>2015-04-22T14:36:22Z</time>
      </trkpt>
      <trkpt lat="44.64253" lon="3.53258">
        <ele>1550.473567018</ele>
        <time>2015-04-22T14:36:27Z</time>
      </trkpt>
      <trkpt lat="44.64253" lon="3.53258">
        <ele>1550.473567018</ele>
        <time>2015-04-22T14:36:32Z</time>
      </trkpt>
      <trkpt lat="44.64252" lon="3.53258">
        <ele>1550.473567018</ele>
        <time>2015-04-22T14:36:37Z</time>
      </trkpt>
      <trkpt lat="44.64252" lon="3.53258">
        <ele>1550.473567018</ele>
        <time>2015-04-22T14:36:42Z</time>
      </trkpt>
      <trkpt lat="44.64251" lon="3.53258">
        <ele>1550.473567018</ele>
        <time>2015-04-22T14:36:47Z</time>
      </trkpt>
      <trkpt lat="44.64251" lon="3.53259">
        <ele>1550.473567018</ele>
        <time>2015-04-22T14:36:52Z</time>
      </trkpt>
      <trkpt lat="44.64251" lon="3.53261">
        <ele>1552.1491618249</ele>
        <time>2015-04-22T14:36:57Z</time>
      </trkpt>
      <trkpt lat="44.6425" lon="3.53261">
        <ele>1552.1491618249</ele>
        <time>2015-04-22T14:37:02Z</time>
      </trkpt>
      <trkpt lat="44.6425" lon="3.5326">
        <ele>1552.1491618249</ele>
        <time>2015-04-22T14:37:07Z</time>
      </trkpt>
      <trkpt lat="44.64248" lon="3.5326">
        <ele>1552.1491618249</ele>
        <time>2015-04-22T14:37:12Z</time>
      </trkpt>
      <trkpt lat="44.64245" lon="3.53263">
        <ele>1552.1491618249</ele>
        <time>2015-04-22T14:37:17Z</time>
      </trkpt>
      <trkpt lat="44.64244" lon="3.53267">
        <ele>1552.1491618249</ele>
        <time>2015-04-22T14:37:22Z</time>
      </trkpt>
      <trkpt lat="44.64246" lon="3.53265">
        <ele>1553.0518329332</ele>
        <time>2015-04-22T14:37:27Z</time>
      </trkpt>
      <trkpt lat="44.64248" lon="3.53265">
        <ele>1553.0518329332</ele>
        <time>2015-04-22T14:37:32Z</time>
      </trkpt>
      <trkpt lat="44.64251" lon="3.53266">
        <ele>1553.0518329332</ele>
        <time>2015-04-22T14:37:37Z</time>
      </trkpt>
      <trkpt lat="44.64257" lon="3.53267">
        <ele>1554.5343975618</ele>
        <time>2015-04-22T14:37:42Z</time>
      </trkpt>
      <trkpt lat="44.6426" lon="3.53267">
        <ele>1554.5343975618</ele>
        <time>2015-04-22T14:37:47Z</time>
      </trkpt>
      <trkpt lat="44.64261" lon="3.53267">
        <ele>1554.5343975618</ele>
        <time>2015-04-22T14:37:52Z</time>
      </trkpt>
      <trkpt lat="44.6426" lon="3.53267">
        <ele>1554.5343975618</ele>
        <time>2015-04-22T14:37:57Z</time>
      </trkpt>
      <trkpt lat="44.64258" lon="3.53265">
        <ele>1554.5343975618</ele>
        <time>2015-04-22T14:38:02Z</time>
      </trkpt>
      <trkpt lat="44.64256" lon="3.53265">
        <ele>1555.0817528493</ele>
        <time>2015-04-22T14:38:07Z</time>
      </trkpt>
      <trkpt lat="44.64254" lon="3.53267">
        <ele>1555.0817528493</ele>
        <time>2015-04-22T14:38:12Z</time>
      </trkpt>
      <trkpt lat="44.6425" lon="3.53268">
        <ele>1555.0817528493</ele>
        <time>2015-04-22T14:38:17Z</time>
      </trkpt>
      <trkpt lat="44.64248" lon="3.53263">
        <ele>1555.6417509334</ele>
        <time>2015-04-22T14:38:22Z</time>
      </trkpt>
      <trkpt lat="44.6425" lon="3.53259">
        <ele>1555.6417509334</ele>
        <time>2015-04-22T14:38:27Z</time>
      </trkpt>
      <trkpt lat="44.64251" lon="3.5326">
        <ele>1555.6417509334</ele>
        <time>2015-04-22T14:38:32Z</time>
      </trkpt>
      <trkpt lat="44.64251" lon="3.5326">
        <ele>1555.6417509334</ele>
        <time>2015-04-22T14:38:37Z</time>
      </trkpt>
      <trkpt lat="44.6425" lon="3.53259">
        <ele>1555.6417509334</ele>
        <time>2015-04-22T14:38:42Z</time>
      </trkpt>
      <trkpt lat="44.64251" lon="3.53259">
        <ele>1555.6417509334</ele>
        <time>2015-04-22T14:38:47Z</time>
      </trkpt>
      <trkpt lat="44.64251" lon="3.53259">
        <ele>1555.6417509334</ele>
        <time>2015-04-22T14:38:52Z</time>
      </trkpt>
      <trkpt lat="44.6425" lon="3.5326">
        <ele>1555.6417509334</ele>
        <time>2015-04-22T14:38:57Z</time>
      </trkpt>
      <trkpt lat="44.6425" lon="3.5326">
        <ele>1555.6417509334</ele>
        <time>2015-04-22T14:39:02Z</time>
      </trkpt>
      <trkpt lat="44.6425" lon="3.5326">
        <ele>1555.6417509334</ele>
        <time>2015-04-22T14:39:07Z</time>
      </trkpt>
      <trkpt lat="44.6425" lon="3.5326">
        <ele>1555.6417509334</ele>
        <time>2015-04-22T14:39:12Z</time>
      </trkpt>
      <trkpt lat="44.6425" lon="3.5326">
        <ele>1555.6417509334</ele>
        <time>2015-04-22T14:39:17Z</time>
      </trkpt>
      <trkpt lat="44.6425" lon="3.5326">
        <ele>1555.6417509334</ele>
        <time>2015-04-22T14:39:22Z</time>
      </trkpt>
      <trkpt lat="44.6425" lon="3.5326">
        <ele>1555.6417509334</ele>
        <time>2015-04-22T14:39:27Z</time>
      </trkpt>
      <trkpt lat="44.6425" lon="3.5326">
        <ele>1555.6417509334</ele>
        <time>2015-04-22T14:39:32Z</time>
      </trkpt>
      <trkpt lat="44.6425" lon="3.53259">
        <ele>1555.6417509334</ele>
        <time>2015-04-22T14:39:37Z</time>
      </trkpt>
      <trkpt lat="44.6425" lon="3.53259">
        <ele>1555.6417509334</ele>
        <time>2015-04-22T14:39:42Z</time>
      </trkpt>
      <trkpt lat="44.6425" lon="3.53258">
        <ele>1555.6417509334</ele>
        <time>2015-04-22T14:39:47Z</time>
      </trkpt>
      <trkpt lat="44.6425" lon="3.53257">
        <ele>1556.5882128639</ele>
        <time>2015-04-22T14:39:52Z</time>
      </trkpt>
      <trkpt lat="44.6425" lon="3.53257">
        <ele>1556.5882128639</ele>
        <time>2015-04-22T14:39:57Z</time>
      </trkpt>
      <trkpt lat="44.6425" lon="3.53259">
        <ele>1556.5882128639</ele>
        <time>2015-04-22T14:40:02Z</time>
      </trkpt>
      <trkpt lat="44.64248" lon="3.5326">
        <ele>1556.5882128639</ele>
        <time>2015-04-22T14:40:07Z</time>
      </trkpt>
      <trkpt lat="44.64248" lon="3.5326">
        <ele>1556.5882128639</ele>
        <time>2015-04-22T14:40:12Z</time>
      </trkpt>
      <trkpt lat="44.64249" lon="3.53259">
        <ele>1556.5882128639</ele>
        <time>2015-04-22T14:40:17Z</time>
      </trkpt>
      <trkpt lat="44.64249" lon="3.53258">
        <ele>1556.5882128639</ele>
        <time>2015-04-22T14:40:22Z</time>
      </trkpt>
      <trkpt lat="44.64245" lon="3.53259">
        <ele>1556.5882128639</ele>
        <time>2015-04-22T14:40:27Z</time>
      </trkpt>
      <trkpt lat="44.64242" lon="3.53263">
        <ele>1557.1711920437</ele>
        <time>2015-04-22T14:40:32Z</time>
      </trkpt>
      <trkpt lat="44.64243" lon="3.53264">
        <ele>1557.1711920437</ele>
        <time>2015-04-22T14:40:37Z</time>
      </trkpt>
      <trkpt lat="44.64243" lon="3.53265">
        <ele>1557.1711920437</ele>
        <time>2015-04-22T14:40:42Z</time>
      </trkpt>
      <trkpt lat="44.64243" lon="3.53265">
        <ele>1557.1711920437</ele>
        <time>2015-04-22T14:40:47Z</time>
      </trkpt>
      <trkpt lat="44.64243" lon="3.53265">
        <ele>1557.1711920437</ele>
        <time>2015-04-22T14:40:52Z</time>
      </trkpt>
      <trkpt lat="44.64243" lon="3.53265">
        <ele>1557.1711920437</ele>
        <time>2015-04-22T14:40:57Z</time>
      </trkpt>
      <trkpt lat="44.64243" lon="3.53265">
        <ele>1557.1711920437</ele>
        <time>2015-04-22T14:41:02Z</time>
      </trkpt>
      <trkpt lat="44.64243" lon="3.53265">
        <ele>1557.1711920437</ele>
        <time>2015-04-22T14:41:07Z</time>
      </trkpt>
      <trkpt lat="44.64243" lon="3.53265">
        <ele>1557.1711920437</ele>
        <time>2015-04-22T14:41:12Z</time>
      </trkpt>
      <trkpt lat="44.64243" lon="3.53265">
        <ele>1557.1711920437</ele>
        <time>2015-04-22T14:41:17Z</time>
      </trkpt>
      <trkpt lat="44.64246" lon="3.53265">
        <ele>1557.1711920437</ele>
        <time>2015-04-22T14:41:22Z</time>
      </trkpt>
      <trkpt lat="44.64253" lon="3.53266">
        <ele>1557.1436166989</ele>
        <time>2015-04-22T14:41:27Z</time>
      </trkpt>
      <trkpt lat="44.64259" lon="3.53262">
        <ele>1557.1436166989</ele>
        <time>2015-04-22T14:41:32Z</time>
      </trkpt>
      <trkpt lat="44.64261" lon="3.53261">
        <ele>1557.1436166989</ele>
        <time>2015-04-22T14:41:37Z</time>
      </trkpt>
      <trkpt lat="44.64261" lon="3.53261">
        <ele>1557.1436166989</ele>
        <time>2015-04-22T14:41:42Z</time>
      </trkpt>
      <trkpt lat="44.6426" lon="3.53261">
        <ele>1556.9556168662</ele>
        <time>2015-04-22T14:41:47Z</time>
      </trkpt>
      <trkpt lat="44.64259" lon="3.5326">
        <ele>1556.9556168662</ele>
        <time>2015-04-22T14:41:52Z</time>
      </trkpt>
      <trkpt lat="44.6426" lon="3.53261">
        <ele>1556.9556168662</ele>
        <time>2015-04-22T14:41:57Z</time>
      </trkpt>
      <trkpt lat="44.64261" lon="3.53262">
        <ele>1556.9556168662</ele>
        <time>2015-04-22T14:42:02Z</time>
      </trkpt>
      <trkpt lat="44.64263" lon="3.53262">
        <ele>1556.9556168662</ele>
        <time>2015-04-22T14:42:07Z</time>
      </trkpt>
      <trkpt lat="44.64267" lon="3.53256">
        <ele>1556.9094298569</ele>
        <time>2015-04-22T14:42:12Z</time>
      </trkpt>
      <trkpt lat="44.64272" lon="3.5325">
        <ele>1556.9094298569</ele>
        <time>2015-04-22T14:42:17Z</time>
      </trkpt>
      <trkpt lat="44.64276" lon="3.53245">
        <ele>1556.5641431901</ele>
        <time>2015-04-22T14:42:22Z</time>
      </trkpt>
      <trkpt lat="44.6428" lon="3.53239">
        <ele>1556.5641431901</ele>
        <time>2015-04-22T14:42:27Z</time>
      </trkpt>
      <trkpt lat="44.64284" lon="3.53235">
        <ele>1555.8579376305</ele>
        <time>2015-04-22T14:42:32Z</time>
      </trkpt>
      <trkpt lat="44.64286" lon="3.5323">
        <ele>1555.8579376305</ele>
        <time>2015-04-22T14:42:37Z</time>
      </trkpt>
      <trkpt lat="44.64288" lon="3.53225">
        <ele>1555.8579376305</ele>
        <time>2015-04-22T14:42:42Z</time>
      </trkpt>
      <trkpt lat="44.6429" lon="3.53218">
        <ele>1554.8498259885</ele>
        <time>2015-04-22T14:42:47Z</time>
      </trkpt>
      <trkpt lat="44.6429" lon="3.5321">
        <ele>1554.8498259885</ele>
        <time>2015-04-22T14:42:52Z</time>
      </trkpt>
      <trkpt lat="44.64296" lon="3.53207">
        <ele>1553.8979462982</ele>
        <time>2015-04-22T14:42:57Z</time>
      </trkpt>
      <trkpt lat="44.64297" lon="3.53207">
        <ele>1553.8979462982</ele>
        <time>2015-04-22T14:43:02Z</time>
      </trkpt>
      <trkpt lat="44.64297" lon="3.53207">
        <ele>1553.8979462982</ele>
        <time>2015-04-22T14:43:07Z</time>
      </trkpt>
      <trkpt lat="44.64302" lon="3.53209">
        <ele>1553.8979462982</ele>
        <time>2015-04-22T14:43:12Z</time>
      </trkpt>
      <trkpt lat="44.64308" lon="3.53211">
        <ele>1553.2330623819</ele>
        <time>2015-04-22T14:43:17Z</time>
      </trkpt>
      <trkpt lat="44.64315" lon="3.53213">
        <ele>1553.2330623819</ele>
        <time>2015-04-22T14:43:22Z</time>
      </trkpt>
      <trkpt lat="44.64322" lon="3.53214">
        <ele>1552.6646303756</ele>
        <time>2015-04-22T14:43:27Z</time>
      </trkpt>
      <trkpt lat="44.64328" lon="3.53216">
        <ele>1552.6646303756</ele>
        <time>2015-04-22T14:43:32Z</time>
      </trkpt>
      <trkpt lat="44.64335" lon="3.53217">
        <ele>1552.1166631602</ele>
        <time>2015-04-22T14:43:37Z</time>
      </trkpt>
      <trkpt lat="44.64342" lon="3.53219">
        <ele>1552.1166631602</ele>
        <time>2015-04-22T14:43:42Z</time>
      </trkpt>
      <trkpt lat="44.64348" lon="3.5322">
        <ele>1551.3024766737</ele>
        <time>2015-04-22T14:43:47Z</time>
      </trkpt>
      <trkpt lat="44.64355" lon="3.53221">
        <ele>1551.3024766737</ele>
        <time>2015-04-22T14:43:52Z</time>
      </trkpt>
      <trkpt lat="44.64361" lon="3.53222">
        <ele>1550.5479884054</ele>
        <time>2015-04-22T14:43:57Z</time>
      </trkpt>
      <trkpt lat="44.64367" lon="3.53221">
        <ele>1550.5479884054</ele>
        <time>2015-04-22T14:44:02Z</time>
      </trkpt>
      <trkpt lat="44.64374" lon="3.53222">
        <ele>1549.6217287499</ele>
        <time>2015-04-22T14:44:07Z</time>
      </trkpt>
      <trkpt lat="44.6438" lon="3.53222">
        <ele>1549.6217287499</ele>
        <time>2015-04-22T14:44:12Z</time>
      </trkpt>
      <trkpt lat="44.64387" lon="3.53223">
        <ele>1548.4681630185</ele>
        <time>2015-04-22T14:44:17Z</time>
      </trkpt>
      <trkpt lat="44.64394" lon="3.53223">
        <ele>1548.4681630185</ele>
        <time>2015-04-22T14:44:22Z</time>
      </trkpt>
      <trkpt lat="44.644" lon="3.53226">
        <ele>1547.3822613286</ele>
        <time>2015-04-22T14:44:27Z</time>
      </trkpt>
      <trkpt lat="44.64407" lon="3.53227">
        <ele>1547.3822613286</ele>
        <time>2015-04-22T14:44:32Z</time>
      </trkpt>
      <trkpt lat="44.64413" lon="3.53229">
        <ele>1546.1758942497</ele>
        <time>2015-04-22T14:44:37Z</time>
      </trkpt>
      <trkpt lat="44.6442" lon="3.53232">
        <ele>1546.1758942497</ele>
        <time>2015-04-22T14:44:42Z</time>
      </trkpt>
      <trkpt lat="44.64427" lon="3.53235">
        <ele>1545.1505652443</ele>
        <time>2015-04-22T14:44:47Z</time>
      </trkpt>
      <trkpt lat="44.64433" lon="3.53239">
        <ele>1545.1505652443</ele>
        <time>2015-04-22T14:44:52Z</time>
      </trkpt>
      <trkpt lat="44.64438" lon="3.53244">
        <ele>1544.0374017384</ele>
        <time>2015-04-22T14:44:57Z</time>
      </trkpt>
      <trkpt lat="44.64444" lon="3.53245">
        <ele>1544.0374017384</ele>
        <time>2015-04-22T14:45:02Z</time>
      </trkpt>
      <trkpt lat="44.64447" lon="3.53245">
        <ele>1544.0374017384</ele>
        <time>2015-04-22T14:45:07Z</time>
      </trkpt>
      <trkpt lat="44.64448" lon="3.53248">
        <ele>1542.7747707055</ele>
        <time>2015-04-22T14:45:12Z</time>
      </trkpt>
      <trkpt lat="44.64452" lon="3.53255">
        <ele>1542.7747707055</ele>
        <time>2015-04-22T14:45:17Z</time>
      </trkpt>
      <trkpt lat="44.64457" lon="3.53261">
        <ele>1542.0264354767</ele>
        <time>2015-04-22T14:45:22Z</time>
      </trkpt>
      <trkpt lat="44.64462" lon="3.53267">
        <ele>1542.0264354767</ele>
        <time>2015-04-22T14:45:27Z</time>
      </trkpt>
      <trkpt lat="44.64468" lon="3.53272">
        <ele>1541.368247772</ele>
        <time>2015-04-22T14:45:32Z</time>
      </trkpt>
      <trkpt lat="44.64473" lon="3.53277">
        <ele>1541.368247772</ele>
        <time>2015-04-22T14:45:37Z</time>
      </trkpt>
      <trkpt lat="44.64479" lon="3.53283">
        <ele>1540.6662541179</ele>
        <time>2015-04-22T14:45:42Z</time>
      </trkpt>
      <trkpt lat="44.64484" lon="3.53289">
        <ele>1540.6662541179</ele>
        <time>2015-04-22T14:45:47Z</time>
      </trkpt>
      <trkpt lat="44.6449" lon="3.53294">
        <ele>1539.7963537853</ele>
        <time>2015-04-22T14:45:52Z</time>
      </trkpt>
      <trkpt lat="44.64495" lon="3.533">
        <ele>1539.7963537853</ele>
        <time>2015-04-22T14:45:57Z</time>
      </trkpt>
      <trkpt lat="44.645" lon="3.53306">
        <ele>1538.9033239217</ele>
        <time>2015-04-22T14:46:02Z</time>
      </trkpt>
      <trkpt lat="44.64506" lon="3.53311">
        <ele>1538.9033239217</ele>
        <time>2015-04-22T14:46:07Z</time>
      </trkpt>
      <trkpt lat="44.64511" lon="3.53317">
        <ele>1537.8474508082</ele>
        <time>2015-04-22T14:46:12Z</time>
      </trkpt>
      <trkpt lat="44.64517" lon="3.53322">
        <ele>1537.8474508082</ele>
        <time>2015-04-22T14:46:17Z</time>
      </trkpt>
      <trkpt lat="44.64523" lon="3.53328">
        <ele>1537.4363552217</ele>
        <time>2015-04-22T14:46:22Z</time>
      </trkpt>
      <trkpt lat="44.64529" lon="3.53334">
        <ele>1537.4363552217</ele>
        <time>2015-04-22T14:46:27Z</time>
      </trkpt>
      <trkpt lat="44.64534" lon="3.53341">
        <ele>1537.3211708449</ele>
        <time>2015-04-22T14:46:32Z</time>
      </trkpt>
      <trkpt lat="44.6454" lon="3.53346">
        <ele>1537.3211708449</ele>
        <time>2015-04-22T14:46:37Z</time>
      </trkpt>
      <trkpt lat="44.64546" lon="3.53351">
        <ele>1536.9039145602</ele>
        <time>2015-04-22T14:46:42Z</time>
      </trkpt>
      <trkpt lat="44.6455" lon="3.53358">
        <ele>1536.9039145602</ele>
        <time>2015-04-22T14:46:47Z</time>
      </trkpt>
      <trkpt lat="44.64555" lon="3.53363">
        <ele>1536.3806574929</ele>
        <time>2015-04-22T14:46:52Z</time>
      </trkpt>
      <trkpt lat="44.6456" lon="3.53367">
        <ele>1536.3806574929</ele>
        <time>2015-04-22T14:46:57Z</time>
      </trkpt>
      <trkpt lat="44.64565" lon="3.53372">
        <ele>1535.6450483911</ele>
        <time>2015-04-22T14:47:02Z</time>
      </trkpt>
      <trkpt lat="44.64569" lon="3.53379">
        <ele>1535.6450483911</ele>
        <time>2015-04-22T14:47:07Z</time>
      </trkpt>
      <trkpt lat="44.64573" lon="3.53384">
        <ele>1534.2964193666</ele>
        <time>2015-04-22T14:47:12Z</time>
      </trkpt>
      <trkpt lat="44.64579" lon="3.53389">
        <ele>1534.2964193666</ele>
        <time>2015-04-22T14:47:17Z</time>
      </trkpt>
      <trkpt lat="44.64586" lon="3.53393">
        <ele>1533.4062770537</ele>
        <time>2015-04-22T14:47:22Z</time>
      </trkpt>
      <trkpt lat="44.64592" lon="3.53398">
        <ele>1533.4062770537</ele>
        <time>2015-04-22T14:47:27Z</time>
      </trkpt>
      <trkpt lat="44.64599" lon="3.53402">
        <ele>1532.4816955531</ele>
        <time>2015-04-22T14:47:32Z</time>
      </trkpt>
      <trkpt lat="44.64606" lon="3.53405">
        <ele>1532.4816955531</ele>
        <time>2015-04-22T14:47:37Z</time>
      </trkpt>
      <trkpt lat="44.64612" lon="3.53409">
        <ele>1531.88740097</ele>
        <time>2015-04-22T14:47:42Z</time>
      </trkpt>
      <trkpt lat="44.64619" lon="3.53413">
        <ele>1531.88740097</ele>
        <time>2015-04-22T14:47:47Z</time>
      </trkpt>
      <trkpt lat="44.64626" lon="3.53417">
        <ele>1531.2541686429</ele>
        <time>2015-04-22T14:47:52Z</time>
      </trkpt>
      <trkpt lat="44.64633" lon="3.5342">
        <ele>1531.2541686429</ele>
        <time>2015-04-22T14:47:57Z</time>
      </trkpt>
      <trkpt lat="44.64641" lon="3.53422">
        <ele>1531.3063457705</ele>
        <time>2015-04-22T14:48:02Z</time>
      </trkpt>
      <trkpt lat="44.64649" lon="3.53425">
        <ele>1531.3063457705</ele>
        <time>2015-04-22T14:48:07Z</time>
      </trkpt>
      <trkpt lat="44.64655" lon="3.53429">
        <ele>1531.473713101</ele>
        <time>2015-04-22T14:48:12Z</time>
      </trkpt>
      <trkpt lat="44.64656" lon="3.53428">
        <ele>1531.473713101</ele>
        <time>2015-04-22T14:48:17Z</time>
      </trkpt>
      <trkpt lat="44.64662" lon="3.53432">
        <ele>1531.473713101</ele>
        <time>2015-04-22T14:48:22Z</time>
      </trkpt>
      <trkpt lat="44.64669" lon="3.53435">
        <ele>1531.5013569189</ele>
        <time>2015-04-22T14:48:27Z</time>
      </trkpt>
      <trkpt lat="44.64676" lon="3.53439">
        <ele>1531.5013569189</ele>
        <time>2015-04-22T14:48:32Z</time>
      </trkpt>
      <trkpt lat="44.64683" lon="3.53442">
        <ele>1531.7442749903</ele>
        <time>2015-04-22T14:48:37Z</time>
      </trkpt>
      <trkpt lat="44.6469" lon="3.53446">
        <ele>1531.7442749903</ele>
        <time>2015-04-22T14:48:42Z</time>
      </trkpt>
      <trkpt lat="44.64697" lon="3.5345">
        <ele>1532.1992749915</ele>
        <time>2015-04-22T14:48:47Z</time>
      </trkpt>
      <trkpt lat="44.64704" lon="3.53452">
        <ele>1532.1992749915</ele>
        <time>2015-04-22T14:48:52Z</time>
      </trkpt>
      <trkpt lat="44.64711" lon="3.53456">
        <ele>1532.7618834969</ele>
        <time>2015-04-22T14:48:57Z</time>
      </trkpt>
      <trkpt lat="44.64718" lon="3.53458">
        <ele>1532.7618834969</ele>
        <time>2015-04-22T14:49:02Z</time>
      </trkpt>
      <trkpt lat="44.64725" lon="3.53462">
        <ele>1533.0611551906</ele>
        <time>2015-04-22T14:49:07Z</time>
      </trkpt>
      <trkpt lat="44.64733" lon="3.53466">
        <ele>1533.0611551906</ele>
        <time>2015-04-22T14:49:12Z</time>
      </trkpt>
      <trkpt lat="44.6474" lon="3.53468">
        <ele>1533.0567419274</ele>
        <time>2015-04-22T14:49:17Z</time>
      </trkpt>
      <trkpt lat="44.64748" lon="3.53471">
        <ele>1533.0567419274</ele>
        <time>2015-04-22T14:49:22Z</time>
      </trkpt>
      <trkpt lat="44.64755" lon="3.53474">
        <ele>1532.7120942697</ele>
        <time>2015-04-22T14:49:27Z</time>
      </trkpt>
      <trkpt lat="44.64762" lon="3.53478">
        <ele>1532.7120942697</ele>
        <time>2015-04-22T14:49:32Z</time>
      </trkpt>
      <trkpt lat="44.64769" lon="3.53481">
        <ele>1532.0375230533</ele>
        <time>2015-04-22T14:49:37Z</time>
      </trkpt>
      <trkpt lat="44.64775" lon="3.53484">
        <ele>1532.0375230533</ele>
        <time>2015-04-22T14:49:42Z</time>
      </trkpt>
      <trkpt lat="44.64782" lon="3.53488">
        <ele>1531.3317193705</ele>
        <time>2015-04-22T14:49:47Z</time>
      </trkpt>
      <trkpt lat="44.64788" lon="3.53492">
        <ele>1531.3317193705</ele>
        <time>2015-04-22T14:49:52Z</time>
      </trkpt>
      <trkpt lat="44.64794" lon="3.53495">
        <ele>1530.2518317084</ele>
        <time>2015-04-22T14:49:57Z</time>
      </trkpt>
      <trkpt lat="44.648" lon="3.53497">
        <ele>1530.2518317084</ele>
        <time>2015-04-22T14:50:02Z</time>
      </trkpt>
      <trkpt lat="44.64806" lon="3.53499">
        <ele>1528.5388744959</ele>
        <time>2015-04-22T14:50:07Z</time>
      </trkpt>
      <trkpt lat="44.64813" lon="3.53503">
        <ele>1528.5388744959</ele>
        <time>2015-04-22T14:50:12Z</time>
      </trkpt>
      <trkpt lat="44.64819" lon="3.53505">
        <ele>1526.5743220712</ele>
        <time>2015-04-22T14:50:17Z</time>
      </trkpt>
      <trkpt lat="44.64825" lon="3.53509">
        <ele>1526.5743220712</ele>
        <time>2015-04-22T14:50:22Z</time>
      </trkpt>
      <trkpt lat="44.64832" lon="3.53512">
        <ele>1524.8996503994</ele>
        <time>2015-04-22T14:50:27Z</time>
      </trkpt>
      <trkpt lat="44.64839" lon="3.53516">
        <ele>1524.8996503994</ele>
        <time>2015-04-22T14:50:32Z</time>
      </trkpt>
      <trkpt lat="44.64846" lon="3.5352">
        <ele>1523.0069332585</ele>
        <time>2015-04-22T14:50:37Z</time>
      </trkpt>
      <trkpt lat="44.64852" lon="3.53522">
        <ele>1523.0069332585</ele>
        <time>2015-04-22T14:50:42Z</time>
      </trkpt>
      <trkpt lat="44.64858" lon="3.53525">
        <ele>1521.1610919761</ele>
        <time>2015-04-22T14:50:47Z</time>
      </trkpt>
      <trkpt lat="44.64864" lon="3.53529">
        <ele>1521.1610919761</ele>
        <time>2015-04-22T14:50:52Z</time>
      </trkpt>
      <trkpt lat="44.6487" lon="3.53535">
        <ele>1519.6794605034</ele>
        <time>2015-04-22T14:50:57Z</time>
      </trkpt>
      <trkpt lat="44.64876" lon="3.53539">
        <ele>1519.6794605034</ele>
        <time>2015-04-22T14:51:02Z</time>
      </trkpt>
      <trkpt lat="44.64882" lon="3.53544">
        <ele>1518.4658835479</ele>
        <time>2015-04-22T14:51:07Z</time>
      </trkpt>
      <trkpt lat="44.64887" lon="3.53551">
        <ele>1518.4658835479</ele>
        <time>2015-04-22T14:51:12Z</time>
      </trkpt>
      <trkpt lat="44.64892" lon="3.53558">
        <ele>1517.4736906719</ele>
        <time>2015-04-22T14:51:17Z</time>
      </trkpt>
      <trkpt lat="44.64896" lon="3.53565">
        <ele>1517.4736906719</ele>
        <time>2015-04-22T14:51:22Z</time>
      </trkpt>
      <trkpt lat="44.64901" lon="3.53572">
        <ele>1516.932769029</ele>
        <time>2015-04-22T14:51:27Z</time>
      </trkpt>
      <trkpt lat="44.64905" lon="3.53578">
        <ele>1516.932769029</ele>
        <time>2015-04-22T14:51:32Z</time>
      </trkpt>
      <trkpt lat="44.6491" lon="3.53585">
        <ele>1516.6656932342</ele>
        <time>2015-04-22T14:51:37Z</time>
      </trkpt>
      <trkpt lat="44.64915" lon="3.53591">
        <ele>1516.6656932342</ele>
        <time>2015-04-22T14:51:42Z</time>
      </trkpt>
      <trkpt lat="44.64916" lon="3.5359">
        <ele>1516.6656932342</ele>
        <time>2015-04-22T14:51:47Z</time>
      </trkpt>
      <trkpt lat="44.64916" lon="3.5359">
        <ele>1516.6656932342</ele>
        <time>2015-04-22T14:51:52Z</time>
      </trkpt>
      <trkpt lat="44.64918" lon="3.53589">
        <ele>1515.7146356096</ele>
        <time>2015-04-22T14:51:57Z</time>
      </trkpt>
      <trkpt lat="44.64918" lon="3.53583">
        <ele>1515.7146356096</ele>
        <time>2015-04-22T14:52:02Z</time>
      </trkpt>
      <trkpt lat="44.6492" lon="3.53574">
        <ele>1514.4621738647</ele>
        <time>2015-04-22T14:52:07Z</time>
      </trkpt>
      <trkpt lat="44.64923" lon="3.53567">
        <ele>1514.4621738647</ele>
        <time>2015-04-22T14:52:12Z</time>
      </trkpt>
      <trkpt lat="44.64923" lon="3.53567">
        <ele>1514.4621738647</ele>
        <time>2015-04-22T14:52:17Z</time>
      </trkpt>
      <trkpt lat="44.64923" lon="3.53568">
        <ele>1514.4621738647</ele>
        <time>2015-04-22T14:52:22Z</time>
      </trkpt>
      <trkpt lat="44.64923" lon="3.53567">
        <ele>1514.4621738647</ele>
        <time>2015-04-22T14:52:27Z</time>
      </trkpt>
      <trkpt lat="44.64923" lon="3.53567">
        <ele>1514.4621738647</ele>
        <time>2015-04-22T14:52:32Z</time>
      </trkpt>
      <trkpt lat="44.64923" lon="3.53567">
        <ele>1514.4621738647</ele>
        <time>2015-04-22T14:52:37Z</time>
      </trkpt>
      <trkpt lat="44.64923" lon="3.53567">
        <ele>1514.4621738647</ele>
        <time>2015-04-22T14:52:42Z</time>
      </trkpt>
      <trkpt lat="44.64923" lon="3.53567">
        <ele>1514.4621738647</ele>
        <time>2015-04-22T14:52:47Z</time>
      </trkpt>
      <trkpt lat="44.64923" lon="3.53567">
        <ele>1514.4621738647</ele>
        <time>2015-04-22T14:52:52Z</time>
      </trkpt>
      <trkpt lat="44.64923" lon="3.53567">
        <ele>1514.4621738647</ele>
        <time>2015-04-22T14:52:57Z</time>
      </trkpt>
      <trkpt lat="44.64923" lon="3.53567">
        <ele>1514.4621738647</ele>
        <time>2015-04-22T14:53:02Z</time>
      </trkpt>
      <trkpt lat="44.64921" lon="3.53568">
        <ele>1514.4621738647</ele>
        <time>2015-04-22T14:53:07Z</time>
      </trkpt>
      <trkpt lat="44.6492" lon="3.53572">
        <ele>1513.0762318356</ele>
        <time>2015-04-22T14:53:12Z</time>
      </trkpt>
      <trkpt lat="44.64919" lon="3.53574">
        <ele>1513.0762318356</ele>
        <time>2015-04-22T14:53:17Z</time>
      </trkpt>
      <trkpt lat="44.64918" lon="3.5358">
        <ele>1513.0762318356</ele>
        <time>2015-04-22T14:53:22Z</time>
      </trkpt>
      <trkpt lat="44.64919" lon="3.53588">
        <ele>1511.7991885161</ele>
        <time>2015-04-22T14:53:27Z</time>
      </trkpt>
      <trkpt lat="44.64919" lon="3.53593">
        <ele>1511.7991885161</ele>
        <time>2015-04-22T14:53:32Z</time>
      </trkpt>
      <trkpt lat="44.64919" lon="3.53593">
        <ele>1511.7991885161</ele>
        <time>2015-04-22T14:53:37Z</time>
      </trkpt>
      <trkpt lat="44.6492" lon="3.53592">
        <ele>1511.7991885161</ele>
        <time>2015-04-22T14:53:42Z</time>
      </trkpt>
      <trkpt lat="44.6492" lon="3.53593">
        <ele>1511.7991885161</ele>
        <time>2015-04-22T14:53:47Z</time>
      </trkpt>
      <trkpt lat="44.6492" lon="3.53592">
        <ele>1511.7991885161</ele>
        <time>2015-04-22T14:53:52Z</time>
      </trkpt>
      <trkpt lat="44.6492" lon="3.53591">
        <ele>1511.7991885161</ele>
        <time>2015-04-22T14:53:57Z</time>
      </trkpt>
      <trkpt lat="44.6492" lon="3.53591">
        <ele>1511.7991885161</ele>
        <time>2015-04-22T14:54:02Z</time>
      </trkpt>
      <trkpt lat="44.64921" lon="3.53591">
        <ele>1511.7991885161</ele>
        <time>2015-04-22T14:54:07Z</time>
      </trkpt>
      <trkpt lat="44.64921" lon="3.53591">
        <ele>1511.7991885161</ele>
        <time>2015-04-22T14:54:12Z</time>
      </trkpt>
      <trkpt lat="44.64921" lon="3.53592">
        <ele>1511.7991885161</ele>
        <time>2015-04-22T14:54:17Z</time>
      </trkpt>
      <trkpt lat="44.64921" lon="3.53592">
        <ele>1511.7991885161</ele>
        <time>2015-04-22T14:54:22Z</time>
      </trkpt>
      <trkpt lat="44.64921" lon="3.53592">
        <ele>1511.7991885161</ele>
        <time>2015-04-22T14:54:27Z</time>
      </trkpt>
      <trkpt lat="44.64921" lon="3.53592">
        <ele>1511.7991885161</ele>
        <time>2015-04-22T14:54:32Z</time>
      </trkpt>
      <trkpt lat="44.64923" lon="3.53594">
        <ele>1510.7687947069</ele>
        <time>2015-04-22T14:54:37Z</time>
      </trkpt>
      <trkpt lat="44.64923" lon="3.53593">
        <ele>1510.7687947069</ele>
        <time>2015-04-22T14:54:42Z</time>
      </trkpt>
      <trkpt lat="44.64922" lon="3.53593">
        <ele>1510.7687947069</ele>
        <time>2015-04-22T14:54:47Z</time>
      </trkpt>
      <trkpt lat="44.64923" lon="3.53592">
        <ele>1510.7687947069</ele>
        <time>2015-04-22T14:54:52Z</time>
      </trkpt>
      <trkpt lat="44.64922" lon="3.53592">
        <ele>1510.7687947069</ele>
        <time>2015-04-22T14:54:57Z</time>
      </trkpt>
      <trkpt lat="44.64922" lon="3.53591">
        <ele>1510.7687947069</ele>
        <time>2015-04-22T14:55:02Z</time>
      </trkpt>
      <trkpt lat="44.64922" lon="3.53591">
        <ele>1510.7687947069</ele>
        <time>2015-04-22T14:55:07Z</time>
      </trkpt>
      <trkpt lat="44.64922" lon="3.5359">
        <ele>1510.7687947069</ele>
        <time>2015-04-22T14:55:12Z</time>
      </trkpt>
      <trkpt lat="44.64922" lon="3.5359">
        <ele>1510.7687947069</ele>
        <time>2015-04-22T14:55:17Z</time>
      </trkpt>
      <trkpt lat="44.64922" lon="3.5359">
        <ele>1510.7687947069</ele>
        <time>2015-04-22T14:55:22Z</time>
      </trkpt>
      <trkpt lat="44.64922" lon="3.5359">
        <ele>1510.7687947069</ele>
        <time>2015-04-22T14:55:27Z</time>
      </trkpt>
      <trkpt lat="44.64922" lon="3.5359">
        <ele>1510.7687947069</ele>
        <time>2015-04-22T14:55:32Z</time>
      </trkpt>
      <trkpt lat="44.64922" lon="3.5359">
        <ele>1510.7687947069</ele>
        <time>2015-04-22T14:55:37Z</time>
      </trkpt>
      <trkpt lat="44.64922" lon="3.5359">
        <ele>1510.7687947069</ele>
        <time>2015-04-22T14:55:42Z</time>
      </trkpt>
      <trkpt lat="44.64922" lon="3.5359">
        <ele>1510.7687947069</ele>
        <time>2015-04-22T14:55:47Z</time>
      </trkpt>
      <trkpt lat="44.64922" lon="3.5359">
        <ele>1510.7687947069</ele>
        <time>2015-04-22T14:55:52Z</time>
      </trkpt>
      <trkpt lat="44.64925" lon="3.53591">
        <ele>1510.7687947069</ele>
        <time>2015-04-22T14:55:57Z</time>
      </trkpt>
      <trkpt lat="44.64923" lon="3.53592">
        <ele>1510.7687947069</ele>
        <time>2015-04-22T14:56:02Z</time>
      </trkpt>
      <trkpt lat="44.64923" lon="3.53591">
        <ele>1509.982239086</ele>
        <time>2015-04-22T14:56:07Z</time>
      </trkpt>
      <trkpt lat="44.64923" lon="3.53591">
        <ele>1509.982239086</ele>
        <time>2015-04-22T14:56:12Z</time>
      </trkpt>
      <trkpt lat="44.64924" lon="3.53592">
        <ele>1509.982239086</ele>
        <time>2015-04-22T14:56:17Z</time>
      </trkpt>
      <trkpt lat="44.64924" lon="3.53593">
        <ele>1509.982239086</ele>
        <time>2015-04-22T14:56:22Z</time>
      </trkpt>
      <trkpt lat="44.64924" lon="3.53593">
        <ele>1509.982239086</ele>
        <time>2015-04-22T14:56:27Z</time>
      </trkpt>
      <trkpt lat="44.64925" lon="3.53594">
        <ele>1509.982239086</ele>
        <time>2015-04-22T14:56:32Z</time>
      </trkpt>
      <trkpt lat="44.64925" lon="3.53594">
        <ele>1509.982239086</ele>
        <time>2015-04-22T14:56:37Z</time>
      </trkpt>
      <trkpt lat="44.64925" lon="3.53594">
        <ele>1509.982239086</ele>
        <time>2015-04-22T14:56:42Z</time>
      </trkpt>
      <trkpt lat="44.64925" lon="3.53593">
        <ele>1509.982239086</ele>
        <time>2015-04-22T14:56:47Z</time>
      </trkpt>
      <trkpt lat="44.64926" lon="3.53595">
        <ele>1509.982239086</ele>
        <time>2015-04-22T14:56:52Z</time>
      </trkpt>
      <trkpt lat="44.64929" lon="3.53601">
        <ele>1509.1767825814</ele>
        <time>2015-04-22T14:56:57Z</time>
      </trkpt>
      <trkpt lat="44.64932" lon="3.53606">
        <ele>1509.1767825814</ele>
        <time>2015-04-22T14:57:02Z</time>
      </trkpt>
      <trkpt lat="44.64934" lon="3.53609">
        <ele>1509.1767825814</ele>
        <time>2015-04-22T14:57:07Z</time>
      </trkpt>
      <trkpt lat="44.64934" lon="3.53608">
        <ele>1509.1767825814</ele>
        <time>2015-04-22T14:57:12Z</time>
      </trkpt>
      <trkpt lat="44.64938" lon="3.53613">
        <ele>1508.9304264133</ele>
        <time>2015-04-22T14:57:17Z</time>
      </trkpt>
      <trkpt lat="44.64944" lon="3.53618">
        <ele>1508.9304264133</ele>
        <time>2015-04-22T14:57:22Z</time>
      </trkpt>
      <trkpt lat="44.6495" lon="3.53622">
        <ele>1508.7827343484</ele>
        <time>2015-04-22T14:57:27Z</time>
      </trkpt>
      <trkpt lat="44.64956" lon="3.53626">
        <ele>1508.7827343484</ele>
        <time>2015-04-22T14:57:32Z</time>
      </trkpt>
      <trkpt lat="44.64963" lon="3.5363">
        <ele>1508.9696924109</ele>
        <time>2015-04-22T14:57:37Z</time>
      </trkpt>
      <trkpt lat="44.64969" lon="3.53634">
        <ele>1508.9696924109</ele>
        <time>2015-04-22T14:57:42Z</time>
      </trkpt>
      <trkpt lat="44.64974" lon="3.53639">
        <ele>1509.4351739781</ele>
        <time>2015-04-22T14:57:47Z</time>
      </trkpt>
      <trkpt lat="44.64979" lon="3.53643">
        <ele>1509.4351739781</ele>
        <time>2015-04-22T14:57:52Z</time>
      </trkpt>
      <trkpt lat="44.64985" lon="3.53647">
        <ele>1509.7516874952</ele>
        <time>2015-04-22T14:57:57Z</time>
      </trkpt>
      <trkpt lat="44.6499" lon="3.53651">
        <ele>1509.7516874952</ele>
        <time>2015-04-22T14:58:02Z</time>
      </trkpt>
      <trkpt lat="44.64996" lon="3.53655">
        <ele>1510.4746895494</ele>
        <time>2015-04-22T14:58:07Z</time>
      </trkpt>
      <trkpt lat="44.65002" lon="3.53659">
        <ele>1510.4746895494</ele>
        <time>2015-04-22T14:58:12Z</time>
      </trkpt>
      <trkpt lat="44.65008" lon="3.53663">
        <ele>1510.9071631501</ele>
        <time>2015-04-22T14:58:17Z</time>
      </trkpt>
      <trkpt lat="44.65014" lon="3.53668">
        <ele>1510.9071631501</ele>
        <time>2015-04-22T14:58:22Z</time>
      </trkpt>
      <trkpt lat="44.6502" lon="3.53671">
        <ele>1511.3408459054</ele>
        <time>2015-04-22T14:58:27Z</time>
      </trkpt>
      <trkpt lat="44.65025" lon="3.53675">
        <ele>1511.3408459054</ele>
        <time>2015-04-22T14:58:32Z</time>
      </trkpt>
      <trkpt lat="44.6503" lon="3.5368">
        <ele>1511.5993204304</ele>
        <time>2015-04-22T14:58:37Z</time>
      </trkpt>
      <trkpt lat="44.65036" lon="3.53684">
        <ele>1511.5993204304</ele>
        <time>2015-04-22T14:58:42Z</time>
      </trkpt>
      <trkpt lat="44.65042" lon="3.53687">
        <ele>1511.8799305154</ele>
        <time>2015-04-22T14:58:47Z</time>
      </trkpt>
      <trkpt lat="44.65049" lon="3.53691">
        <ele>1511.8799305154</ele>
        <time>2015-04-22T14:58:52Z</time>
      </trkpt>
      <trkpt lat="44.65055" lon="3.53696">
        <ele>1512.0628665916</ele>
        <time>2015-04-22T14:58:57Z</time>
      </trkpt>
      <trkpt lat="44.65061" lon="3.537">
        <ele>1512.0628665916</ele>
        <time>2015-04-22T14:59:02Z</time>
      </trkpt>
      <trkpt lat="44.65066" lon="3.53704">
        <ele>1512.0230273301</ele>
        <time>2015-04-22T14:59:07Z</time>
      </trkpt>
      <trkpt lat="44.65073" lon="3.53709">
        <ele>1512.0230273301</ele>
        <time>2015-04-22T14:59:12Z</time>
      </trkpt>
      <trkpt lat="44.65079" lon="3.53714">
        <ele>1511.9622190007</ele>
        <time>2015-04-22T14:59:17Z</time>
      </trkpt>
      <trkpt lat="44.65085" lon="3.53718">
        <ele>1511.9622190007</ele>
        <time>2015-04-22T14:59:22Z</time>
      </trkpt>
      <trkpt lat="44.65091" lon="3.53721">
        <ele>1511.5343212824</ele>
        <time>2015-04-22T14:59:27Z</time>
      </trkpt>
      <trkpt lat="44.65097" lon="3.53724">
        <ele>1511.5343212824</ele>
        <time>2015-04-22T14:59:32Z</time>
      </trkpt>
      <trkpt lat="44.65103" lon="3.53725">
        <ele>1511.3708548958</ele>
        <time>2015-04-22T14:59:37Z</time>
      </trkpt>
      <trkpt lat="44.6511" lon="3.53728">
        <ele>1511.3708548958</ele>
        <time>2015-04-22T14:59:42Z</time>
      </trkpt>
      <trkpt lat="44.65117" lon="3.5373">
        <ele>1510.9177809297</ele>
        <time>2015-04-22T14:59:47Z</time>
      </trkpt>
      <trkpt lat="44.65123" lon="3.53732">
        <ele>1510.9177809297</ele>
        <time>2015-04-22T14:59:52Z</time>
      </trkpt>
      <trkpt lat="44.65129" lon="3.53735">
        <ele>1510.3975896803</ele>
        <time>2015-04-22T14:59:57Z</time>
      </trkpt>
      <trkpt lat="44.65136" lon="3.53737">
        <ele>1510.3975896803</ele>
        <time>2015-04-22T15:00:02Z</time>
      </trkpt>
      <trkpt lat="44.65143" lon="3.5374">
        <ele>1510.0887203139</ele>
        <time>2015-04-22T15:00:07Z</time>
      </trkpt>
      <trkpt lat="44.6515" lon="3.53742">
        <ele>1510.0887203139</ele>
        <time>2015-04-22T15:00:12Z</time>
      </trkpt>
      <trkpt lat="44.65164" lon="3.53746">
        <ele>1509.470411819</ele>
        <time>2015-04-22T15:00:17Z</time>
      </trkpt>
      <trkpt lat="44.65174" lon="3.5375">
        <ele>1509.0410266483</ele>
        <time>2015-04-22T15:00:22Z</time>
      </trkpt>
      <trkpt lat="44.65182" lon="3.53751">
        <ele>1509.0410266483</ele>
        <time>2015-04-22T15:00:27Z</time>
      </trkpt>
      <trkpt lat="44.65189" lon="3.53751">
        <ele>1508.7430302832</ele>
        <time>2015-04-22T15:00:32Z</time>
      </trkpt>
      <trkpt lat="44.65196" lon="3.53752">
        <ele>1508.7430302832</ele>
        <time>2015-04-22T15:00:37Z</time>
      </trkpt>
      <trkpt lat="44.65202" lon="3.53752">
        <ele>1508.3210310712</ele>
        <time>2015-04-22T15:00:42Z</time>
      </trkpt>
      <trkpt lat="44.65209" lon="3.53753">
        <ele>1508.3210310712</ele>
        <time>2015-04-22T15:00:47Z</time>
      </trkpt>
      <trkpt lat="44.65216" lon="3.53753">
        <ele>1508.028763064</ele>
        <time>2015-04-22T15:00:52Z</time>
      </trkpt>
      <trkpt lat="44.65223" lon="3.53753">
        <ele>1508.028763064</ele>
        <time>2015-04-22T15:00:57Z</time>
      </trkpt>
      <trkpt lat="44.65229" lon="3.53753">
        <ele>1507.7407170368</ele>
        <time>2015-04-22T15:01:02Z</time>
      </trkpt>
      <trkpt lat="44.65236" lon="3.53753">
        <ele>1507.7407170368</ele>
        <time>2015-04-22T15:01:07Z</time>
      </trkpt>
      <trkpt lat="44.65243" lon="3.53753">
        <ele>1507.4270950973</ele>
        <time>2015-04-22T15:01:12Z</time>
      </trkpt>
      <trkpt lat="44.6525" lon="3.53754">
        <ele>1507.4270950973</ele>
        <time>2015-04-22T15:01:17Z</time>
      </trkpt>
      <trkpt lat="44.65256" lon="3.53755">
        <ele>1507.2333292381</ele>
        <time>2015-04-22T15:01:22Z</time>
      </trkpt>
      <trkpt lat="44.65262" lon="3.53756">
        <ele>1507.2333292381</ele>
        <time>2015-04-22T15:01:27Z</time>
      </trkpt>
      <trkpt lat="44.65269" lon="3.53757">
        <ele>1506.9335889805</ele>
        <time>2015-04-22T15:01:32Z</time>
      </trkpt>
      <trkpt lat="44.65275" lon="3.53757">
        <ele>1506.9335889805</ele>
        <time>2015-04-22T15:01:37Z</time>
      </trkpt>
      <trkpt lat="44.65282" lon="3.53758">
        <ele>1507.1259881583</ele>
        <time>2015-04-22T15:01:42Z</time>
      </trkpt>
      <trkpt lat="44.65288" lon="3.53758">
        <ele>1507.1259881583</ele>
        <time>2015-04-22T15:01:47Z</time>
      </trkpt>
      <trkpt lat="44.65295" lon="3.53757">
        <ele>1507.3689916988</ele>
        <time>2015-04-22T15:01:52Z</time>
      </trkpt>
      <trkpt lat="44.65301" lon="3.53756">
        <ele>1507.3689916988</ele>
        <time>2015-04-22T15:01:57Z</time>
      </trkpt>
      <trkpt lat="44.65308" lon="3.53756">
        <ele>1507.7866065067</ele>
        <time>2015-04-22T15:02:02Z</time>
      </trkpt>
      <trkpt lat="44.65315" lon="3.53756">
        <ele>1507.7866065067</ele>
        <time>2015-04-22T15:02:07Z</time>
      </trkpt>
      <trkpt lat="44.65322" lon="3.53756">
        <ele>1508.5365146213</ele>
        <time>2015-04-22T15:02:12Z</time>
      </trkpt>
      <trkpt lat="44.65328" lon="3.53758">
        <ele>1508.5365146213</ele>
        <time>2015-04-22T15:02:17Z</time>
      </trkpt>
      <trkpt lat="44.65334" lon="3.53759">
        <ele>1509.3315949186</ele>
        <time>2015-04-22T15:02:22Z</time>
      </trkpt>
      <trkpt lat="44.65341" lon="3.53761">
        <ele>1509.3315949186</ele>
        <time>2015-04-22T15:02:27Z</time>
      </trkpt>
      <trkpt lat="44.65347" lon="3.53762">
        <ele>1510.309253952</ele>
        <time>2015-04-22T15:02:32Z</time>
      </trkpt>
      <trkpt lat="44.65354" lon="3.53765">
        <ele>1510.309253952</ele>
        <time>2015-04-22T15:02:37Z</time>
      </trkpt>
      <trkpt lat="44.6536" lon="3.53768">
        <ele>1511.5242947851</ele>
        <time>2015-04-22T15:02:42Z</time>
      </trkpt>
      <trkpt lat="44.65366" lon="3.53773">
        <ele>1511.5242947851</ele>
        <time>2015-04-22T15:02:47Z</time>
      </trkpt>
      <trkpt lat="44.65371" lon="3.53779">
        <ele>1512.6089714807</ele>
        <time>2015-04-22T15:02:52Z</time>
      </trkpt>
      <trkpt lat="44.65376" lon="3.53785">
        <ele>1512.6089714807</ele>
        <time>2015-04-22T15:02:57Z</time>
      </trkpt>
      <trkpt lat="44.65382" lon="3.53791">
        <ele>1513.7706129175</ele>
        <time>2015-04-22T15:03:02Z</time>
      </trkpt>
      <trkpt lat="44.65387" lon="3.53798">
        <ele>1513.7706129175</ele>
        <time>2015-04-22T15:03:07Z</time>
      </trkpt>
      <trkpt lat="44.65392" lon="3.53803">
        <ele>1514.7688472516</ele>
        <time>2015-04-22T15:03:12Z</time>
      </trkpt>
      <trkpt lat="44.65398" lon="3.53808">
        <ele>1514.7688472516</ele>
        <time>2015-04-22T15:03:17Z</time>
      </trkpt>
      <trkpt lat="44.65402" lon="3.53814">
        <ele>1515.4535585257</ele>
        <time>2015-04-22T15:03:22Z</time>
      </trkpt>
      <trkpt lat="44.65408" lon="3.5382">
        <ele>1515.4535585257</ele>
        <time>2015-04-22T15:03:27Z</time>
      </trkpt>
      <trkpt lat="44.65412" lon="3.53827">
        <ele>1516.1189594605</ele>
        <time>2015-04-22T15:03:32Z</time>
      </trkpt>
      <trkpt lat="44.65418" lon="3.53831">
        <ele>1516.1189594605</ele>
        <time>2015-04-22T15:03:37Z</time>
      </trkpt>
      <trkpt lat="44.65422" lon="3.53837">
        <ele>1517.0377953628</ele>
        <time>2015-04-22T15:03:42Z</time>
      </trkpt>
      <trkpt lat="44.65426" lon="3.53843">
        <ele>1517.0377953628</ele>
        <time>2015-04-22T15:03:47Z</time>
      </trkpt>
      <trkpt lat="44.6543" lon="3.53849">
        <ele>1517.3236785047</ele>
        <time>2015-04-22T15:03:52Z</time>
      </trkpt>
      <trkpt lat="44.65436" lon="3.53854">
        <ele>1517.3236785047</ele>
        <time>2015-04-22T15:03:57Z</time>
      </trkpt>
      <trkpt lat="44.65441" lon="3.53858">
        <ele>1517.7136025435</ele>
        <time>2015-04-22T15:04:02Z</time>
      </trkpt>
      <trkpt lat="44.65446" lon="3.53864">
        <ele>1517.7136025435</ele>
        <time>2015-04-22T15:04:07Z</time>
      </trkpt>
      <trkpt lat="44.65452" lon="3.53869">
        <ele>1517.9823200873</ele>
        <time>2015-04-22T15:04:12Z</time>
      </trkpt>
      <trkpt lat="44.65458" lon="3.53874">
        <ele>1517.9823200873</ele>
        <time>2015-04-22T15:04:17Z</time>
      </trkpt>
      <trkpt lat="44.65464" lon="3.5388">
        <ele>1518.310658449</ele>
        <time>2015-04-22T15:04:22Z</time>
      </trkpt>
      <trkpt lat="44.6547" lon="3.53886">
        <ele>1518.310658449</ele>
        <time>2015-04-22T15:04:27Z</time>
      </trkpt>
      <trkpt lat="44.65476" lon="3.53892">
        <ele>1518.5634454269</ele>
        <time>2015-04-22T15:04:32Z</time>
      </trkpt>
      <trkpt lat="44.65482" lon="3.53896">
        <ele>1518.5634454269</ele>
        <time>2015-04-22T15:04:37Z</time>
      </trkpt>
      <trkpt lat="44.65491" lon="3.53903">
        <ele>1518.8030761673</ele>
        <time>2015-04-22T15:04:42Z</time>
      </trkpt>
      <trkpt lat="44.65505" lon="3.53915">
        <ele>1518.9721877318</ele>
        <time>2015-04-22T15:04:47Z</time>
      </trkpt>
      <trkpt lat="44.65518" lon="3.53926">
        <ele>1519.1476024654</ele>
        <time>2015-04-22T15:04:52Z</time>
      </trkpt>
      <trkpt lat="44.65525" lon="3.53929">
        <ele>1519.1476024654</ele>
        <time>2015-04-22T15:04:57Z</time>
      </trkpt>
      <trkpt lat="44.65531" lon="3.53933">
        <ele>1519.5158404501</ele>
        <time>2015-04-22T15:05:02Z</time>
      </trkpt>
      <trkpt lat="44.65537" lon="3.53937">
        <ele>1519.5158404501</ele>
        <time>2015-04-22T15:05:07Z</time>
      </trkpt>
      <trkpt lat="44.65544" lon="3.5394">
        <ele>1520.0330789449</ele>
        <time>2015-04-22T15:05:12Z</time>
      </trkpt>
      <trkpt lat="44.6555" lon="3.53943">
        <ele>1520.0330789449</ele>
        <time>2015-04-22T15:05:17Z</time>
      </trkpt>
      <trkpt lat="44.65556" lon="3.53946">
        <ele>1520.6871826526</ele>
        <time>2015-04-22T15:05:22Z</time>
      </trkpt>
      <trkpt lat="44.65562" lon="3.53949">
        <ele>1520.6871826526</ele>
        <time>2015-04-22T15:05:27Z</time>
      </trkpt>
      <trkpt lat="44.65567" lon="3.53953">
        <ele>1521.2792415445</ele>
        <time>2015-04-22T15:05:32Z</time>
      </trkpt>
      <trkpt lat="44.65573" lon="3.53955">
        <ele>1521.2792415445</ele>
        <time>2015-04-22T15:05:37Z</time>
      </trkpt>
      <trkpt lat="44.65579" lon="3.53958">
        <ele>1521.8269482686</ele>
        <time>2015-04-22T15:05:42Z</time>
      </trkpt>
      <trkpt lat="44.65586" lon="3.53961">
        <ele>1521.8269482686</ele>
        <time>2015-04-22T15:05:47Z</time>
      </trkpt>
      <trkpt lat="44.65592" lon="3.53963">
        <ele>1522.1018910035</ele>
        <time>2015-04-22T15:05:52Z</time>
      </trkpt>
      <trkpt lat="44.65597" lon="3.53966">
        <ele>1522.1018910035</ele>
        <time>2015-04-22T15:05:57Z</time>
      </trkpt>
      <trkpt lat="44.65603" lon="3.53967">
        <ele>1522.1526597424</ele>
        <time>2015-04-22T15:06:02Z</time>
      </trkpt>
      <trkpt lat="44.65609" lon="3.53967">
        <ele>1522.1526597424</ele>
        <time>2015-04-22T15:06:07Z</time>
      </trkpt>
      <trkpt lat="44.65615" lon="3.53967">
        <ele>1522.1114247451</ele>
        <time>2015-04-22T15:06:12Z</time>
      </trkpt>
      <trkpt lat="44.65621" lon="3.53967">
        <ele>1522.1114247451</ele>
        <time>2015-04-22T15:06:17Z</time>
      </trkpt>
      <trkpt lat="44.65628" lon="3.53968">
        <ele>1522.0433102541</ele>
        <time>2015-04-22T15:06:22Z</time>
      </trkpt>
      <trkpt lat="44.65634" lon="3.53969">
        <ele>1522.0433102541</ele>
        <time>2015-04-22T15:06:27Z</time>
      </trkpt>
      <trkpt lat="44.6564" lon="3.53969">
        <ele>1522.1384763356</ele>
        <time>2015-04-22T15:06:32Z</time>
      </trkpt>
      <trkpt lat="44.65647" lon="3.53969">
        <ele>1522.1384763356</ele>
        <time>2015-04-22T15:06:37Z</time>
      </trkpt>
      <trkpt lat="44.65655" lon="3.53968">
        <ele>1522.5150511301</ele>
        <time>2015-04-22T15:06:42Z</time>
      </trkpt>
      <trkpt lat="44.65661" lon="3.53969">
        <ele>1522.5150511301</ele>
        <time>2015-04-22T15:06:47Z</time>
      </trkpt>
      <trkpt lat="44.65668" lon="3.53969">
        <ele>1522.9070424058</ele>
        <time>2015-04-22T15:06:52Z</time>
      </trkpt>
      <trkpt lat="44.65675" lon="3.53969">
        <ele>1522.9070424058</ele>
        <time>2015-04-22T15:06:57Z</time>
      </trkpt>
      <trkpt lat="44.65682" lon="3.53968">
        <ele>1523.5003210458</ele>
        <time>2015-04-22T15:07:02Z</time>
      </trkpt>
      <trkpt lat="44.65687" lon="3.53968">
        <ele>1523.5003210458</ele>
        <time>2015-04-22T15:07:07Z</time>
      </trkpt>
      <trkpt lat="44.65694" lon="3.53967">
        <ele>1524.1207044587</ele>
        <time>2015-04-22T15:07:12Z</time>
      </trkpt>
      <trkpt lat="44.657" lon="3.53966">
        <ele>1524.1207044587</ele>
        <time>2015-04-22T15:07:17Z</time>
      </trkpt>
      <trkpt lat="44.65705" lon="3.53965">
        <ele>1524.4050047064</ele>
        <time>2015-04-22T15:07:22Z</time>
      </trkpt>
      <trkpt lat="44.65712" lon="3.53963">
        <ele>1524.4050047064</ele>
        <time>2015-04-22T15:07:27Z</time>
      </trkpt>
      <trkpt lat="44.65718" lon="3.53962">
        <ele>1524.6805975782</ele>
        <time>2015-04-22T15:07:32Z</time>
      </trkpt>
      <trkpt lat="44.65725" lon="3.53961">
        <ele>1524.6805975782</ele>
        <time>2015-04-22T15:07:37Z</time>
      </trkpt>
      <trkpt lat="44.65732" lon="3.5396">
        <ele>1525.0635187183</ele>
        <time>2015-04-22T15:07:42Z</time>
      </trkpt>
      <trkpt lat="44.6574" lon="3.53958">
        <ele>1525.0635187183</ele>
        <time>2015-04-22T15:07:47Z</time>
      </trkpt>
      <trkpt lat="44.65746" lon="3.53956">
        <ele>1525.4160168125</ele>
        <time>2015-04-22T15:07:52Z</time>
      </trkpt>
      <trkpt lat="44.65753" lon="3.53956">
        <ele>1525.4160168125</ele>
        <time>2015-04-22T15:07:57Z</time>
      </trkpt>
      <trkpt lat="44.65759" lon="3.53955">
        <ele>1525.5961586317</ele>
        <time>2015-04-22T15:08:02Z</time>
      </trkpt>
      <trkpt lat="44.65767" lon="3.53953">
        <ele>1525.5961586317</ele>
        <time>2015-04-22T15:08:07Z</time>
      </trkpt>
      <trkpt lat="44.65774" lon="3.53953">
        <ele>1525.4441204163</ele>
        <time>2015-04-22T15:08:12Z</time>
      </trkpt>
      <trkpt lat="44.6578" lon="3.53951">
        <ele>1525.4441204163</ele>
        <time>2015-04-22T15:08:17Z</time>
      </trkpt>
      <trkpt lat="44.65786" lon="3.53949">
        <ele>1525.3748029539</ele>
        <time>2015-04-22T15:08:22Z</time>
      </trkpt>
      <trkpt lat="44.65793" lon="3.53948">
        <ele>1525.3748029539</ele>
        <time>2015-04-22T15:08:27Z</time>
      </trkpt>
      <trkpt lat="44.658" lon="3.53947">
        <ele>1525.2968442726</ele>
        <time>2015-04-22T15:08:32Z</time>
      </trkpt>
      <trkpt lat="44.65807" lon="3.53945">
        <ele>1525.2968442726</ele>
        <time>2015-04-22T15:08:37Z</time>
      </trkpt>
      <trkpt lat="44.65814" lon="3.53944">
        <ele>1525.1544501387</ele>
        <time>2015-04-22T15:08:42Z</time>
      </trkpt>
      <trkpt lat="44.65821" lon="3.53943">
        <ele>1525.1544501387</ele>
        <time>2015-04-22T15:08:47Z</time>
      </trkpt>
      <trkpt lat="44.65828" lon="3.53942">
        <ele>1525.1843334777</ele>
        <time>2015-04-22T15:08:52Z</time>
      </trkpt>
      <trkpt lat="44.65836" lon="3.53941">
        <ele>1525.1843334777</ele>
        <time>2015-04-22T15:08:57Z</time>
      </trkpt>
      <trkpt lat="44.65843" lon="3.53939">
        <ele>1525.3171145348</ele>
        <time>2015-04-22T15:09:02Z</time>
      </trkpt>
      <trkpt lat="44.6585" lon="3.53939">
        <ele>1525.3171145348</ele>
        <time>2015-04-22T15:09:07Z</time>
      </trkpt>
      <trkpt lat="44.65856" lon="3.53939">
        <ele>1525.3008753612</ele>
        <time>2015-04-22T15:09:12Z</time>
      </trkpt>
      <trkpt lat="44.65862" lon="3.53938">
        <ele>1525.3008753612</ele>
        <time>2015-04-22T15:09:17Z</time>
      </trkpt>
      <trkpt lat="44.65868" lon="3.53936">
        <ele>1525.3061286665</ele>
        <time>2015-04-22T15:09:22Z</time>
      </trkpt>
      <trkpt lat="44.65875" lon="3.53935">
        <ele>1525.3061286665</ele>
        <time>2015-04-22T15:09:27Z</time>
      </trkpt>
      <trkpt lat="44.65882" lon="3.53933">
        <ele>1525.3755054874</ele>
        <time>2015-04-22T15:09:32Z</time>
      </trkpt>
      <trkpt lat="44.65889" lon="3.53932">
        <ele>1525.3755054874</ele>
        <time>2015-04-22T15:09:37Z</time>
      </trkpt>
      <trkpt lat="44.65896" lon="3.53932">
        <ele>1525.3033272946</ele>
        <time>2015-04-22T15:09:42Z</time>
      </trkpt>
      <trkpt lat="44.65904" lon="3.53932">
        <ele>1525.3033272946</ele>
        <time>2015-04-22T15:09:47Z</time>
      </trkpt>
      <trkpt lat="44.6591" lon="3.5393">
        <ele>1525.2020436645</ele>
        <time>2015-04-22T15:09:52Z</time>
      </trkpt>
      <trkpt lat="44.65917" lon="3.53929">
        <ele>1525.2020436645</ele>
        <time>2015-04-22T15:09:57Z</time>
      </trkpt>
      <trkpt lat="44.65924" lon="3.53929">
        <ele>1524.9741556408</ele>
        <time>2015-04-22T15:10:02Z</time>
      </trkpt>
      <trkpt lat="44.65931" lon="3.5393">
        <ele>1524.9741556408</ele>
        <time>2015-04-22T15:10:07Z</time>
      </trkpt>
      <trkpt lat="44.65939" lon="3.53933">
        <ele>1524.6881869766</ele>
        <time>2015-04-22T15:10:12Z</time>
      </trkpt>
      <trkpt lat="44.65946" lon="3.53933">
        <ele>1524.6881869766</ele>
        <time>2015-04-22T15:10:17Z</time>
      </trkpt>
      <trkpt lat="44.65953" lon="3.53933">
        <ele>1524.2348367999</ele>
        <time>2015-04-22T15:10:22Z</time>
      </trkpt>
      <trkpt lat="44.65962" lon="3.53932">
        <ele>1523.9312013702</ele>
        <time>2015-04-22T15:10:27Z</time>
      </trkpt>
      <trkpt lat="44.65973" lon="3.53933">
        <ele>1523.7535912901</ele>
        <time>2015-04-22T15:10:32Z</time>
      </trkpt>
      <trkpt lat="44.65979" lon="3.53933">
        <ele>1523.7535912901</ele>
        <time>2015-04-22T15:10:37Z</time>
      </trkpt>
      <trkpt lat="44.65986" lon="3.53933">
        <ele>1523.636440194</ele>
        <time>2015-04-22T15:10:42Z</time>
      </trkpt>
      <trkpt lat="44.65993" lon="3.53934">
        <ele>1523.636440194</ele>
        <time>2015-04-22T15:10:47Z</time>
      </trkpt>
      <trkpt lat="44.66" lon="3.53935">
        <ele>1523.2449844234</ele>
        <time>2015-04-22T15:10:52Z</time>
      </trkpt>
      <trkpt lat="44.66007" lon="3.53935">
        <ele>1523.2449844234</ele>
        <time>2015-04-22T15:10:57Z</time>
      </trkpt>
      <trkpt lat="44.66015" lon="3.53936">
        <ele>1523.0623980713</ele>
        <time>2015-04-22T15:11:02Z</time>
      </trkpt>
      <trkpt lat="44.66021" lon="3.53937">
        <ele>1523.0623980713</ele>
        <time>2015-04-22T15:11:07Z</time>
      </trkpt>
      <trkpt lat="44.66029" lon="3.53939">
        <ele>1522.6998942893</ele>
        <time>2015-04-22T15:11:12Z</time>
      </trkpt>
      <trkpt lat="44.66035" lon="3.53941">
        <ele>1522.6998942893</ele>
        <time>2015-04-22T15:11:17Z</time>
      </trkpt>
      <trkpt lat="44.66043" lon="3.53942">
        <ele>1522.3741573199</ele>
        <time>2015-04-22T15:11:22Z</time>
      </trkpt>
      <trkpt lat="44.66049" lon="3.53944">
        <ele>1522.3741573199</ele>
        <time>2015-04-22T15:11:27Z</time>
      </trkpt>
      <trkpt lat="44.66056" lon="3.53945">
        <ele>1522.1849330133</ele>
        <time>2015-04-22T15:11:32Z</time>
      </trkpt>
      <trkpt lat="44.66062" lon="3.53948">
        <ele>1522.1849330133</ele>
        <time>2015-04-22T15:11:37Z</time>
      </trkpt>
      <trkpt lat="44.66069" lon="3.53951">
        <ele>1521.3163143621</ele>
        <time>2015-04-22T15:11:42Z</time>
      </trkpt>
      <trkpt lat="44.66076" lon="3.53955">
        <ele>1521.3163143621</ele>
        <time>2015-04-22T15:11:47Z</time>
      </trkpt>
      <trkpt lat="44.66084" lon="3.53956">
        <ele>1520.6714699977</ele>
        <time>2015-04-22T15:11:52Z</time>
      </trkpt>
      <trkpt lat="44.6609" lon="3.53959">
        <ele>1520.6714699977</ele>
        <time>2015-04-22T15:11:57Z</time>
      </trkpt>
      <trkpt lat="44.66096" lon="3.53962">
        <ele>1519.8183683057</ele>
        <time>2015-04-22T15:12:02Z</time>
      </trkpt>
      <trkpt lat="44.66101" lon="3.53965">
        <ele>1519.8183683057</ele>
        <time>2015-04-22T15:12:07Z</time>
      </trkpt>
      <trkpt lat="44.66107" lon="3.53968">
        <ele>1519.0057471551</ele>
        <time>2015-04-22T15:12:12Z</time>
      </trkpt>
      <trkpt lat="44.66114" lon="3.53969">
        <ele>1519.0057471551</ele>
        <time>2015-04-22T15:12:17Z</time>
      </trkpt>
      <trkpt lat="44.66121" lon="3.5397">
        <ele>1518.4206697926</ele>
        <time>2015-04-22T15:12:22Z</time>
      </trkpt>
      <trkpt lat="44.66127" lon="3.53973">
        <ele>1518.4206697926</ele>
        <time>2015-04-22T15:12:27Z</time>
      </trkpt>
      <trkpt lat="44.66134" lon="3.53976">
        <ele>1517.7746051061</ele>
        <time>2015-04-22T15:12:32Z</time>
      </trkpt>
      <trkpt lat="44.66142" lon="3.53978">
        <ele>1517.7746051061</ele>
        <time>2015-04-22T15:12:37Z</time>
      </trkpt>
      <trkpt lat="44.66151" lon="3.53981">
        <ele>1517.0164936449</ele>
        <time>2015-04-22T15:12:42Z</time>
      </trkpt>
      <trkpt lat="44.6616" lon="3.53985">
        <ele>1516.2577997298</ele>
        <time>2015-04-22T15:12:47Z</time>
      </trkpt>
      <trkpt lat="44.66166" lon="3.53987">
        <ele>1516.2577997298</ele>
        <time>2015-04-22T15:12:52Z</time>
      </trkpt>
      <trkpt lat="44.66173" lon="3.5399">
        <ele>1515.731436214</ele>
        <time>2015-04-22T15:12:57Z</time>
      </trkpt>
      <trkpt lat="44.66179" lon="3.53994">
        <ele>1515.731436214</ele>
        <time>2015-04-22T15:13:02Z</time>
      </trkpt>
      <trkpt lat="44.66186" lon="3.53998">
        <ele>1514.6725315402</ele>
        <time>2015-04-22T15:13:07Z</time>
      </trkpt>
      <trkpt lat="44.66192" lon="3.54002">
        <ele>1514.6725315402</ele>
        <time>2015-04-22T15:13:12Z</time>
      </trkpt>
      <trkpt lat="44.66198" lon="3.54006">
        <ele>1512.9070360436</ele>
        <time>2015-04-22T15:13:17Z</time>
      </trkpt>
      <trkpt lat="44.66206" lon="3.5401">
        <ele>1512.9070360436</ele>
        <time>2015-04-22T15:13:22Z</time>
      </trkpt>
      <trkpt lat="44.66214" lon="3.54015">
        <ele>1510.9529152114</ele>
        <time>2015-04-22T15:13:27Z</time>
      </trkpt>
      <trkpt lat="44.66221" lon="3.54017">
        <ele>1510.9529152114</ele>
        <time>2015-04-22T15:13:32Z</time>
      </trkpt>
      <trkpt lat="44.66228" lon="3.54023">
        <ele>1508.6996762235</ele>
        <time>2015-04-22T15:13:37Z</time>
      </trkpt>
      <trkpt lat="44.66236" lon="3.54028">
        <ele>1508.6996762235</ele>
        <time>2015-04-22T15:13:42Z</time>
      </trkpt>
      <trkpt lat="44.66241" lon="3.54033">
        <ele>1506.0601010711</ele>
        <time>2015-04-22T15:13:47Z</time>
      </trkpt>
      <trkpt lat="44.66247" lon="3.54036">
        <ele>1506.0601010711</ele>
        <time>2015-04-22T15:13:52Z</time>
      </trkpt>
      <trkpt lat="44.66253" lon="3.54041">
        <ele>1503.3578701583</ele>
        <time>2015-04-22T15:13:57Z</time>
      </trkpt>
      <trkpt lat="44.6626" lon="3.54045">
        <ele>1503.3578701583</ele>
        <time>2015-04-22T15:14:02Z</time>
      </trkpt>
      <trkpt lat="44.66267" lon="3.5405">
        <ele>1501.1091141901</ele>
        <time>2015-04-22T15:14:07Z</time>
      </trkpt>
      <trkpt lat="44.66272" lon="3.54053">
        <ele>1501.1091141901</ele>
        <time>2015-04-22T15:14:12Z</time>
      </trkpt>
      <trkpt lat="44.66279" lon="3.54057">
        <ele>1498.565706095</ele>
        <time>2015-04-22T15:14:17Z</time>
      </trkpt>
      <trkpt lat="44.66285" lon="3.54061">
        <ele>1498.565706095</ele>
        <time>2015-04-22T15:14:22Z</time>
      </trkpt>
      <trkpt lat="44.66292" lon="3.54064">
        <ele>1495.7268992746</ele>
        <time>2015-04-22T15:14:27Z</time>
      </trkpt>
      <trkpt lat="44.66299" lon="3.54069">
        <ele>1495.7268992746</ele>
        <time>2015-04-22T15:14:32Z</time>
      </trkpt>
      <trkpt lat="44.66306" lon="3.54071">
        <ele>1492.2612276198</ele>
        <time>2015-04-22T15:14:37Z</time>
      </trkpt>
      <trkpt lat="44.66313" lon="3.54076">
        <ele>1492.2612276198</ele>
        <time>2015-04-22T15:14:42Z</time>
      </trkpt>
      <trkpt lat="44.66318" lon="3.54082">
        <ele>1489.5204543638</ele>
        <time>2015-04-22T15:14:47Z</time>
      </trkpt>
      <trkpt lat="44.66324" lon="3.54086">
        <ele>1489.5204543638</ele>
        <time>2015-04-22T15:14:52Z</time>
      </trkpt>
      <trkpt lat="44.6633" lon="3.54091">
        <ele>1487.0110981537</ele>
        <time>2015-04-22T15:14:57Z</time>
      </trkpt>
      <trkpt lat="44.66337" lon="3.54096">
        <ele>1487.0110981537</ele>
        <time>2015-04-22T15:15:02Z</time>
      </trkpt>
      <trkpt lat="44.66344" lon="3.541">
        <ele>1484.2462825264</ele>
        <time>2015-04-22T15:15:07Z</time>
      </trkpt>
      <trkpt lat="44.6635" lon="3.54103">
        <ele>1484.2462825264</ele>
        <time>2015-04-22T15:15:12Z</time>
      </trkpt>
      <trkpt lat="44.66355" lon="3.54109">
        <ele>1481.193354206</ele>
        <time>2015-04-22T15:15:17Z</time>
      </trkpt>
      <trkpt lat="44.66359" lon="3.54115">
        <ele>1481.193354206</ele>
        <time>2015-04-22T15:15:22Z</time>
      </trkpt>
      <trkpt lat="44.66364" lon="3.54119">
        <ele>1478.283835993</ele>
        <time>2015-04-22T15:15:27Z</time>
      </trkpt>
      <trkpt lat="44.66369" lon="3.54122">
        <ele>1478.283835993</ele>
        <time>2015-04-22T15:15:32Z</time>
      </trkpt>
      <trkpt lat="44.66374" lon="3.54126">
        <ele>1475.6719691766</ele>
        <time>2015-04-22T15:15:37Z</time>
      </trkpt>
      <trkpt lat="44.6638" lon="3.5413">
        <ele>1475.6719691766</ele>
        <time>2015-04-22T15:15:42Z</time>
      </trkpt>
      <trkpt lat="44.66386" lon="3.54133">
        <ele>1473.5861028301</ele>
        <time>2015-04-22T15:15:47Z</time>
      </trkpt>
      <trkpt lat="44.66392" lon="3.54137">
        <ele>1473.5861028301</ele>
        <time>2015-04-22T15:15:52Z</time>
      </trkpt>
      <trkpt lat="44.66397" lon="3.54142">
        <ele>1471.068840776</ele>
        <time>2015-04-22T15:15:57Z</time>
      </trkpt>
      <trkpt lat="44.66403" lon="3.54148">
        <ele>1471.068840776</ele>
        <time>2015-04-22T15:16:02Z</time>
      </trkpt>
      <trkpt lat="44.66409" lon="3.54153">
        <ele>1468.2573213356</ele>
        <time>2015-04-22T15:16:07Z</time>
      </trkpt>
      <trkpt lat="44.66412" lon="3.54159">
        <ele>1468.2573213356</ele>
        <time>2015-04-22T15:16:12Z</time>
      </trkpt>
      <trkpt lat="44.66419" lon="3.54164">
        <ele>1465.5386405768</ele>
        <time>2015-04-22T15:16:17Z</time>
      </trkpt>
      <trkpt lat="44.66424" lon="3.54168">
        <ele>1465.5386405768</ele>
        <time>2015-04-22T15:16:22Z</time>
      </trkpt>
      <trkpt lat="44.66427" lon="3.54172">
        <ele>1463.4439399198</ele>
        <time>2015-04-22T15:16:27Z</time>
      </trkpt>
      <trkpt lat="44.66431" lon="3.54178">
        <ele>1463.4439399198</ele>
        <time>2015-04-22T15:16:32Z</time>
      </trkpt>
      <trkpt lat="44.66437" lon="3.54183">
        <ele>1461.9013709109</ele>
        <time>2015-04-22T15:16:37Z</time>
      </trkpt>
      <trkpt lat="44.66444" lon="3.54189">
        <ele>1461.9013709109</ele>
        <time>2015-04-22T15:16:42Z</time>
      </trkpt>
      <trkpt lat="44.66448" lon="3.54195">
        <ele>1460.2517749946</ele>
        <time>2015-04-22T15:16:47Z</time>
      </trkpt>
      <trkpt lat="44.66453" lon="3.542">
        <ele>1460.2517749946</ele>
        <time>2015-04-22T15:16:52Z</time>
      </trkpt>
      <trkpt lat="44.66461" lon="3.54204">
        <ele>1459.3832970653</ele>
        <time>2015-04-22T15:16:57Z</time>
      </trkpt>
      <trkpt lat="44.66468" lon="3.54209">
        <ele>1459.3832970653</ele>
        <time>2015-04-22T15:17:02Z</time>
      </trkpt>
      <trkpt lat="44.66473" lon="3.54213">
        <ele>1458.7906632353</ele>
        <time>2015-04-22T15:17:07Z</time>
      </trkpt>
      <trkpt lat="44.66478" lon="3.54217">
        <ele>1458.7906632353</ele>
        <time>2015-04-22T15:17:12Z</time>
      </trkpt>
      <trkpt lat="44.66484" lon="3.54222">
        <ele>1458.1056726103</ele>
        <time>2015-04-22T15:17:17Z</time>
      </trkpt>
      <trkpt lat="44.66492" lon="3.54227">
        <ele>1457.4196318718</ele>
        <time>2015-04-22T15:17:22Z</time>
      </trkpt>
      <trkpt lat="44.665" lon="3.54232">
        <ele>1457.4196318718</ele>
        <time>2015-04-22T15:17:27Z</time>
      </trkpt>
      <trkpt lat="44.66506" lon="3.54236">
        <ele>1457.1484828289</ele>
        <time>2015-04-22T15:17:32Z</time>
      </trkpt>
      <trkpt lat="44.66509" lon="3.54237">
        <ele>1457.1484828289</ele>
        <time>2015-04-22T15:17:37Z</time>
      </trkpt>
      <trkpt lat="44.66513" lon="3.5424">
        <ele>1457.1484828289</ele>
        <time>2015-04-22T15:17:42Z</time>
      </trkpt>
      <trkpt lat="44.66516" lon="3.54245">
        <ele>1456.6531592097</ele>
        <time>2015-04-22T15:17:47Z</time>
      </trkpt>
      <trkpt lat="44.66521" lon="3.54248">
        <ele>1456.6531592097</ele>
        <time>2015-04-22T15:17:52Z</time>
      </trkpt>
      <trkpt lat="44.6653" lon="3.54255">
        <ele>1456.0049956899</ele>
        <time>2015-04-22T15:17:57Z</time>
      </trkpt>
      <trkpt lat="44.66536" lon="3.5426">
        <ele>1456.0049956899</ele>
        <time>2015-04-22T15:18:02Z</time>
      </trkpt>
      <trkpt lat="44.66544" lon="3.54265">
        <ele>1455.5442569005</ele>
        <time>2015-04-22T15:18:07Z</time>
      </trkpt>
      <trkpt lat="44.66551" lon="3.54269">
        <ele>1455.5442569005</ele>
        <time>2015-04-22T15:18:12Z</time>
      </trkpt>
      <trkpt lat="44.66558" lon="3.54274">
        <ele>1455.2974083092</ele>
        <time>2015-04-22T15:18:17Z</time>
      </trkpt>
      <trkpt lat="44.66566" lon="3.54278">
        <ele>1455.2974083092</ele>
        <time>2015-04-22T15:18:22Z</time>
      </trkpt>
      <trkpt lat="44.66577" lon="3.54284">
        <ele>1455.5477303165</ele>
        <time>2015-04-22T15:18:27Z</time>
      </trkpt>
      <trkpt lat="44.66585" lon="3.5429">
        <ele>1455.5477303165</ele>
        <time>2015-04-22T15:18:32Z</time>
      </trkpt>
      <trkpt lat="44.66593" lon="3.54293">
        <ele>1455.4322049673</ele>
        <time>2015-04-22T15:18:37Z</time>
      </trkpt>
      <trkpt lat="44.666" lon="3.54296">
        <ele>1455.4322049673</ele>
        <time>2015-04-22T15:18:42Z</time>
      </trkpt>
      <trkpt lat="44.66608" lon="3.543">
        <ele>1455.5933369084</ele>
        <time>2015-04-22T15:18:47Z</time>
      </trkpt>
      <trkpt lat="44.66614" lon="3.54301">
        <ele>1455.5933369084</ele>
        <time>2015-04-22T15:18:52Z</time>
      </trkpt>
      <trkpt lat="44.66619" lon="3.54304">
        <ele>1455.8474589474</ele>
        <time>2015-04-22T15:18:57Z</time>
      </trkpt>
      <trkpt lat="44.66628" lon="3.54307">
        <ele>1455.8474589474</ele>
        <time>2015-04-22T15:19:02Z</time>
      </trkpt>
      <trkpt lat="44.66635" lon="3.54309">
        <ele>1456.4132526326</ele>
        <time>2015-04-22T15:19:07Z</time>
      </trkpt>
      <trkpt lat="44.66638" lon="3.54313">
        <ele>1456.4132526326</ele>
        <time>2015-04-22T15:19:12Z</time>
      </trkpt>
      <trkpt lat="44.66641" lon="3.54317">
        <ele>1456.4132526326</ele>
        <time>2015-04-22T15:19:17Z</time>
      </trkpt>
      <trkpt lat="44.6665" lon="3.54321">
        <ele>1455.6046339412</ele>
        <time>2015-04-22T15:19:22Z</time>
      </trkpt>
      <trkpt lat="44.66659" lon="3.54323">
        <ele>1455.3075305013</ele>
        <time>2015-04-22T15:19:27Z</time>
      </trkpt>
      <trkpt lat="44.66668" lon="3.54324">
        <ele>1455.3075305013</ele>
        <time>2015-04-22T15:19:32Z</time>
      </trkpt>
      <trkpt lat="44.66675" lon="3.54325">
        <ele>1456.3600470254</ele>
        <time>2015-04-22T15:19:37Z</time>
      </trkpt>
      <trkpt lat="44.66683" lon="3.54324">
        <ele>1456.3600470254</ele>
        <time>2015-04-22T15:19:42Z</time>
      </trkpt>
      <trkpt lat="44.66691" lon="3.54322">
        <ele>1457.920953466</ele>
        <time>2015-04-22T15:19:47Z</time>
      </trkpt>
      <trkpt lat="44.66699" lon="3.54321">
        <ele>1457.920953466</ele>
        <time>2015-04-22T15:19:52Z</time>
      </trkpt>
      <trkpt lat="44.66705" lon="3.54319">
        <ele>1458.6186087274</ele>
        <time>2015-04-22T15:19:57Z</time>
      </trkpt>
      <trkpt lat="44.66711" lon="3.54317">
        <ele>1458.6186087274</ele>
        <time>2015-04-22T15:20:02Z</time>
      </trkpt>
      <trkpt lat="44.66718" lon="3.54317">
        <ele>1459.7498212571</ele>
        <time>2015-04-22T15:20:07Z</time>
      </trkpt>
      <trkpt lat="44.66724" lon="3.54314">
        <ele>1459.7498212571</ele>
        <time>2015-04-22T15:20:12Z</time>
      </trkpt>
      <trkpt lat="44.66732" lon="3.54311">
        <ele>1461.5783030278</ele>
        <time>2015-04-22T15:20:17Z</time>
      </trkpt>
      <trkpt lat="44.6674" lon="3.54311">
        <ele>1461.5783030278</ele>
        <time>2015-04-22T15:20:22Z</time>
      </trkpt>
      <trkpt lat="44.66746" lon="3.5431">
        <ele>1463.395424523</ele>
        <time>2015-04-22T15:20:27Z</time>
      </trkpt>
      <trkpt lat="44.66754" lon="3.54309">
        <ele>1463.395424523</ele>
        <time>2015-04-22T15:20:32Z</time>
      </trkpt>
      <trkpt lat="44.6676" lon="3.54308">
        <ele>1464.400666224</ele>
        <time>2015-04-22T15:20:37Z</time>
      </trkpt>
      <trkpt lat="44.66766" lon="3.54307">
        <ele>1464.400666224</ele>
        <time>2015-04-22T15:20:42Z</time>
      </trkpt>
      <trkpt lat="44.66772" lon="3.54306">
        <ele>1465.1805608411</ele>
        <time>2015-04-22T15:20:47Z</time>
      </trkpt>
      <trkpt lat="44.6678" lon="3.54307">
        <ele>1465.1805608411</ele>
        <time>2015-04-22T15:20:52Z</time>
      </trkpt>
      <trkpt lat="44.66788" lon="3.54314">
        <ele>1464.6797069804</ele>
        <time>2015-04-22T15:20:57Z</time>
      </trkpt>
      <trkpt lat="44.66791" lon="3.54323">
        <ele>1464.6797069804</ele>
        <time>2015-04-22T15:21:02Z</time>
      </trkpt>
      <trkpt lat="44.66793" lon="3.54331">
        <ele>1463.1201030708</ele>
        <time>2015-04-22T15:21:07Z</time>
      </trkpt>
      <trkpt lat="44.66794" lon="3.54349">
        <ele>1462.0796167663</ele>
        <time>2015-04-22T15:21:12Z</time>
      </trkpt>
      <trkpt lat="44.66792" lon="3.54373">
        <ele>1460.8139912209</ele>
        <time>2015-04-22T15:21:17Z</time>
      </trkpt>
      <trkpt lat="44.6679" lon="3.54386">
        <ele>1459.6287710068</ele>
        <time>2015-04-22T15:21:22Z</time>
      </trkpt>
      <trkpt lat="44.66788" lon="3.54397">
        <ele>1459.6287710068</ele>
        <time>2015-04-22T15:21:27Z</time>
      </trkpt>
      <trkpt lat="44.66785" lon="3.54406">
        <ele>1457.884635694</ele>
        <time>2015-04-22T15:21:32Z</time>
      </trkpt>
      <trkpt lat="44.66781" lon="3.54414">
        <ele>1457.884635694</ele>
        <time>2015-04-22T15:21:37Z</time>
      </trkpt>
      <trkpt lat="44.66776" lon="3.54421">
        <ele>1455.7258675928</ele>
        <time>2015-04-22T15:21:42Z</time>
      </trkpt>
      <trkpt lat="44.66771" lon="3.54427">
        <ele>1455.7258675928</ele>
        <time>2015-04-22T15:21:47Z</time>
      </trkpt>
      <trkpt lat="44.66766" lon="3.54433">
        <ele>1453.6476805818</ele>
        <time>2015-04-22T15:21:52Z</time>
      </trkpt>
      <trkpt lat="44.66761" lon="3.54438">
        <ele>1453.6476805818</ele>
        <time>2015-04-22T15:21:57Z</time>
      </trkpt>
      <trkpt lat="44.66754" lon="3.54443">
        <ele>1451.5755471275</ele>
        <time>2015-04-22T15:22:02Z</time>
      </trkpt>
      <trkpt lat="44.66748" lon="3.54446">
        <ele>1451.5755471275</ele>
        <time>2015-04-22T15:22:07Z</time>
      </trkpt>
      <trkpt lat="44.66741" lon="3.5445">
        <ele>1450.002490189</ele>
        <time>2015-04-22T15:22:12Z</time>
      </trkpt>
      <trkpt lat="44.66734" lon="3.54452">
        <ele>1450.002490189</ele>
        <time>2015-04-22T15:22:17Z</time>
      </trkpt>
      <trkpt lat="44.66728" lon="3.54453">
        <ele>1448.6057610101</ele>
        <time>2015-04-22T15:22:22Z</time>
      </trkpt>
      <trkpt lat="44.6672" lon="3.54455">
        <ele>1448.6057610101</ele>
        <time>2015-04-22T15:22:27Z</time>
      </trkpt>
      <trkpt lat="44.66712" lon="3.54456">
        <ele>1447.6478941532</ele>
        <time>2015-04-22T15:22:32Z</time>
      </trkpt>
      <trkpt lat="44.6671" lon="3.54453">
        <ele>1447.6478941532</ele>
        <time>2015-04-22T15:22:37Z</time>
      </trkpt>
      <trkpt lat="44.66713" lon="3.54447">
        <ele>1447.6478941532</ele>
        <time>2015-04-22T15:22:42Z</time>
      </trkpt>
      <trkpt lat="44.66713" lon="3.54446">
        <ele>1447.1259469735</ele>
        <time>2015-04-22T15:22:47Z</time>
      </trkpt>
      <trkpt lat="44.66714" lon="3.54444">
        <ele>1447.1259469735</ele>
        <time>2015-04-22T15:22:52Z</time>
      </trkpt>
      <trkpt lat="44.66715" lon="3.54441">
        <ele>1447.1259469735</ele>
        <time>2015-04-22T15:22:57Z</time>
      </trkpt>
      <trkpt lat="44.66715" lon="3.54441">
        <ele>1447.1259469735</ele>
        <time>2015-04-22T15:23:02Z</time>
      </trkpt>
      <trkpt lat="44.66716" lon="3.5444">
        <ele>1447.1259469735</ele>
        <time>2015-04-22T15:23:07Z</time>
      </trkpt>
      <trkpt lat="44.66717" lon="3.54443">
        <ele>1447.1259469735</ele>
        <time>2015-04-22T15:23:12Z</time>
      </trkpt>
      <trkpt lat="44.66716" lon="3.54446">
        <ele>1446.3874940528</ele>
        <time>2015-04-22T15:23:17Z</time>
      </trkpt>
      <trkpt lat="44.66716" lon="3.54447">
        <ele>1446.3874940528</ele>
        <time>2015-04-22T15:23:22Z</time>
      </trkpt>
      <trkpt lat="44.66716" lon="3.54448">
        <ele>1446.3874940528</ele>
        <time>2015-04-22T15:23:27Z</time>
      </trkpt>
      <trkpt lat="44.66713" lon="3.54453">
        <ele>1446.3874940528</ele>
        <time>2015-04-22T15:23:32Z</time>
      </trkpt>
      <trkpt lat="44.6671" lon="3.54454">
        <ele>1445.4771658926</ele>
        <time>2015-04-22T15:23:37Z</time>
      </trkpt>
      <trkpt lat="44.66708" lon="3.54453">
        <ele>1445.4771658926</ele>
        <time>2015-04-22T15:23:42Z</time>
      </trkpt>
      <trkpt lat="44.66709" lon="3.54453">
        <ele>1445.4771658926</ele>
        <time>2015-04-22T15:23:47Z</time>
      </trkpt>
      <trkpt lat="44.66706" lon="3.54453">
        <ele>1445.4771658926</ele>
        <time>2015-04-22T15:23:52Z</time>
      </trkpt>
      <trkpt lat="44.66703" lon="3.54455">
        <ele>1445.4771658926</ele>
        <time>2015-04-22T15:23:57Z</time>
      </trkpt>
      <trkpt lat="44.66697" lon="3.54458">
        <ele>1444.782683574</ele>
        <time>2015-04-22T15:24:02Z</time>
      </trkpt>
      <trkpt lat="44.6669" lon="3.54458">
        <ele>1444.782683574</ele>
        <time>2015-04-22T15:24:07Z</time>
      </trkpt>
      <trkpt lat="44.66684" lon="3.54458">
        <ele>1444.7203453887</ele>
        <time>2015-04-22T15:24:13Z</time>
      </trkpt>
      <trkpt lat="44.66679" lon="3.54459">
        <ele>1444.7203453887</ele>
        <time>2015-04-22T15:24:17Z</time>
      </trkpt>
      <trkpt lat="44.66674" lon="3.54462">
        <ele>1444.7518044386</ele>
        <time>2015-04-22T15:24:22Z</time>
      </trkpt>
      <trkpt lat="44.6667" lon="3.54465">
        <ele>1444.7518044386</ele>
        <time>2015-04-22T15:24:27Z</time>
      </trkpt>
      <trkpt lat="44.66665" lon="3.54471">
        <ele>1445.2426879441</ele>
        <time>2015-04-22T15:24:32Z</time>
      </trkpt>
      <trkpt lat="44.66661" lon="3.54476">
        <ele>1445.2426879441</ele>
        <time>2015-04-22T15:24:37Z</time>
      </trkpt>
      <trkpt lat="44.66658" lon="3.54488">
        <ele>1445.8387707432</ele>
        <time>2015-04-22T15:24:42Z</time>
      </trkpt>
      <trkpt lat="44.66658" lon="3.54497">
        <ele>1445.8387707432</ele>
        <time>2015-04-22T15:24:47Z</time>
      </trkpt>
      <trkpt lat="44.66658" lon="3.54506">
        <ele>1446.6151009542</ele>
        <time>2015-04-22T15:24:52Z</time>
      </trkpt>
      <trkpt lat="44.6666" lon="3.54516">
        <ele>1446.6151009542</ele>
        <time>2015-04-22T15:24:57Z</time>
      </trkpt>
      <trkpt lat="44.66663" lon="3.54524">
        <ele>1446.8625508012</ele>
        <time>2015-04-22T15:25:02Z</time>
      </trkpt>
      <trkpt lat="44.66664" lon="3.54532">
        <ele>1446.8625508012</ele>
        <time>2015-04-22T15:25:07Z</time>
      </trkpt>
      <trkpt lat="44.66664" lon="3.54541">
        <ele>1446.891162672</ele>
        <time>2015-04-22T15:25:12Z</time>
      </trkpt>
      <trkpt lat="44.66667" lon="3.5455">
        <ele>1446.891162672</ele>
        <time>2015-04-22T15:25:17Z</time>
      </trkpt>
      <trkpt lat="44.66669" lon="3.5456">
        <ele>1446.2827260795</ele>
        <time>2015-04-22T15:25:22Z</time>
      </trkpt>
      <trkpt lat="44.66674" lon="3.5457">
        <ele>1446.2827260795</ele>
        <time>2015-04-22T15:25:27Z</time>
      </trkpt>
      <trkpt lat="44.66679" lon="3.54579">
        <ele>1446.236817741</ele>
        <time>2015-04-22T15:25:32Z</time>
      </trkpt>
      <trkpt lat="44.66684" lon="3.54587">
        <ele>1446.236817741</ele>
        <time>2015-04-22T15:25:37Z</time>
      </trkpt>
      <trkpt lat="44.66687" lon="3.54597">
        <ele>1445.5143589377</ele>
        <time>2015-04-22T15:25:42Z</time>
      </trkpt>
      <trkpt lat="44.66692" lon="3.54605">
        <ele>1445.5143589377</ele>
        <time>2015-04-22T15:25:47Z</time>
      </trkpt>
      <trkpt lat="44.66696" lon="3.54613">
        <ele>1445.3759008577</ele>
        <time>2015-04-22T15:25:52Z</time>
      </trkpt>
      <trkpt lat="44.66701" lon="3.54622">
        <ele>1445.3759008577</ele>
        <time>2015-04-22T15:25:57Z</time>
      </trkpt>
      <trkpt lat="44.66703" lon="3.54631">
        <ele>1444.7973183157</ele>
        <time>2015-04-22T15:26:02Z</time>
      </trkpt>
      <trkpt lat="44.66707" lon="3.5464">
        <ele>1444.7973183157</ele>
        <time>2015-04-22T15:26:07Z</time>
      </trkpt>
      <trkpt lat="44.66713" lon="3.54649">
        <ele>1445.0647255497</ele>
        <time>2015-04-22T15:26:12Z</time>
      </trkpt>
      <trkpt lat="44.66718" lon="3.54657">
        <ele>1445.0647255497</ele>
        <time>2015-04-22T15:26:17Z</time>
      </trkpt>
      <trkpt lat="44.66721" lon="3.54664">
        <ele>1445.4363463549</ele>
        <time>2015-04-22T15:26:22Z</time>
      </trkpt>
      <trkpt lat="44.66726" lon="3.54673">
        <ele>1445.4363463549</ele>
        <time>2015-04-22T15:26:27Z</time>
      </trkpt>
      <trkpt lat="44.6673" lon="3.54682">
        <ele>1445.8010981926</ele>
        <time>2015-04-22T15:26:32Z</time>
      </trkpt>
      <trkpt lat="44.66738" lon="3.54688">
        <ele>1446.3875871387</ele>
        <time>2015-04-22T15:26:37Z</time>
      </trkpt>
      <trkpt lat="44.66746" lon="3.54696">
        <ele>1446.744149773</ele>
        <time>2015-04-22T15:26:42Z</time>
      </trkpt>
      <trkpt lat="44.66748" lon="3.54713">
        <ele>1447.4185525607</ele>
        <time>2015-04-22T15:26:47Z</time>
      </trkpt>
      <trkpt lat="44.66743" lon="3.54733">
        <ele>1448.0816519269</ele>
        <time>2015-04-22T15:26:52Z</time>
      </trkpt>
      <trkpt lat="44.66739" lon="3.54742">
        <ele>1448.0816519269</ele>
        <time>2015-04-22T15:26:57Z</time>
      </trkpt>
      <trkpt lat="44.66735" lon="3.54751">
        <ele>1448.630338924</ele>
        <time>2015-04-22T15:27:02Z</time>
      </trkpt>
      <trkpt lat="44.66732" lon="3.5476">
        <ele>1448.630338924</ele>
        <time>2015-04-22T15:27:07Z</time>
      </trkpt>
      <trkpt lat="44.66729" lon="3.54768">
        <ele>1449.6756173459</ele>
        <time>2015-04-22T15:27:12Z</time>
      </trkpt>
      <trkpt lat="44.66725" lon="3.54777">
        <ele>1449.6756173459</ele>
        <time>2015-04-22T15:27:17Z</time>
      </trkpt>
      <trkpt lat="44.6672" lon="3.54785">
        <ele>1450.370001077</ele>
        <time>2015-04-22T15:27:22Z</time>
      </trkpt>
      <trkpt lat="44.66714" lon="3.54791">
        <ele>1450.370001077</ele>
        <time>2015-04-22T15:27:27Z</time>
      </trkpt>
      <trkpt lat="44.66708" lon="3.54796">
        <ele>1451.6442483007</ele>
        <time>2015-04-22T15:27:32Z</time>
      </trkpt>
      <trkpt lat="44.66702" lon="3.54798">
        <ele>1451.6442483007</ele>
        <time>2015-04-22T15:27:37Z</time>
      </trkpt>
      <trkpt lat="44.66699" lon="3.54801">
        <ele>1453.3360151562</ele>
        <time>2015-04-22T15:27:42Z</time>
      </trkpt>
      <trkpt lat="44.66693" lon="3.54803">
        <ele>1453.3360151562</ele>
        <time>2015-04-22T15:27:47Z</time>
      </trkpt>
      <trkpt lat="44.66686" lon="3.54804">
        <ele>1454.7317716997</ele>
        <time>2015-04-22T15:27:52Z</time>
      </trkpt>
      <trkpt lat="44.66678" lon="3.54801">
        <ele>1454.7317716997</ele>
        <time>2015-04-22T15:27:57Z</time>
      </trkpt>
      <trkpt lat="44.66672" lon="3.54796">
        <ele>1456.1512894554</ele>
        <time>2015-04-22T15:28:02Z</time>
      </trkpt>
      <trkpt lat="44.66665" lon="3.54791">
        <ele>1456.1512894554</ele>
        <time>2015-04-22T15:28:07Z</time>
      </trkpt>
      <trkpt lat="44.66658" lon="3.54783">
        <ele>1458.2079352266</ele>
        <time>2015-04-22T15:28:12Z</time>
      </trkpt>
      <trkpt lat="44.66656" lon="3.54779">
        <ele>1458.2079352266</ele>
        <time>2015-04-22T15:28:17Z</time>
      </trkpt>
      <trkpt lat="44.66652" lon="3.54773">
        <ele>1460.4883908708</ele>
        <time>2015-04-22T15:28:22Z</time>
      </trkpt>
      <trkpt lat="44.66643" lon="3.54764">
        <ele>1462.652430092</ele>
        <time>2015-04-22T15:28:27Z</time>
      </trkpt>
      <trkpt lat="44.66637" lon="3.5476">
        <ele>1462.652430092</ele>
        <time>2015-04-22T15:28:32Z</time>
      </trkpt>
      <trkpt lat="44.66629" lon="3.54756">
        <ele>1464.7023235602</ele>
        <time>2015-04-22T15:28:37Z</time>
      </trkpt>
      <trkpt lat="44.66624" lon="3.54754">
        <ele>1464.7023235602</ele>
        <time>2015-04-22T15:28:42Z</time>
      </trkpt>
      <trkpt lat="44.66618" lon="3.54751">
        <ele>1466.4100584895</ele>
        <time>2015-04-22T15:28:47Z</time>
      </trkpt>
      <trkpt lat="44.66613" lon="3.5475">
        <ele>1466.4100584895</ele>
        <time>2015-04-22T15:28:52Z</time>
      </trkpt>
      <trkpt lat="44.66608" lon="3.5475">
        <ele>1467.8681119979</ele>
        <time>2015-04-22T15:28:57Z</time>
      </trkpt>
      <trkpt lat="44.66603" lon="3.54753">
        <ele>1467.8681119979</ele>
        <time>2015-04-22T15:29:02Z</time>
      </trkpt>
      <trkpt lat="44.66599" lon="3.54757">
        <ele>1468.8171511406</ele>
        <time>2015-04-22T15:29:07Z</time>
      </trkpt>
      <trkpt lat="44.66594" lon="3.54764">
        <ele>1468.8171511406</ele>
        <time>2015-04-22T15:29:12Z</time>
      </trkpt>
      <trkpt lat="44.66589" lon="3.54771">
        <ele>1470.4163504366</ele>
        <time>2015-04-22T15:29:17Z</time>
      </trkpt>
      <trkpt lat="44.66587" lon="3.5478">
        <ele>1470.4163504366</ele>
        <time>2015-04-22T15:29:22Z</time>
      </trkpt>
      <trkpt lat="44.66582" lon="3.54789">
        <ele>1472.4266475663</ele>
        <time>2015-04-22T15:29:27Z</time>
      </trkpt>
      <trkpt lat="44.66578" lon="3.54797">
        <ele>1472.4266475663</ele>
        <time>2015-04-22T15:29:32Z</time>
      </trkpt>
      <trkpt lat="44.66575" lon="3.54804">
        <ele>1474.121149896</ele>
        <time>2015-04-22T15:29:37Z</time>
      </trkpt>
      <trkpt lat="44.66573" lon="3.54813">
        <ele>1474.121149896</ele>
        <time>2015-04-22T15:29:42Z</time>
      </trkpt>
      <trkpt lat="44.66568" lon="3.54821">
        <ele>1475.3173758257</ele>
        <time>2015-04-22T15:29:47Z</time>
      </trkpt>
      <trkpt lat="44.66565" lon="3.5483">
        <ele>1475.3173758257</ele>
        <time>2015-04-22T15:29:52Z</time>
      </trkpt>
      <trkpt lat="44.66563" lon="3.5484">
        <ele>1476.9862750582</ele>
        <time>2015-04-22T15:29:57Z</time>
      </trkpt>
      <trkpt lat="44.6656" lon="3.54848">
        <ele>1476.9862750582</ele>
        <time>2015-04-22T15:30:02Z</time>
      </trkpt>
      <trkpt lat="44.66556" lon="3.54856">
        <ele>1478.4266611369</ele>
        <time>2015-04-22T15:30:07Z</time>
      </trkpt>
      <trkpt lat="44.66554" lon="3.54864">
        <ele>1478.4266611369</ele>
        <time>2015-04-22T15:30:12Z</time>
      </trkpt>
      <trkpt lat="44.66549" lon="3.54871">
        <ele>1479.6237330439</ele>
        <time>2015-04-22T15:30:17Z</time>
      </trkpt>
      <trkpt lat="44.66547" lon="3.5488">
        <ele>1479.6237330439</ele>
        <time>2015-04-22T15:30:22Z</time>
      </trkpt>
      <trkpt lat="44.66543" lon="3.54888">
        <ele>1481.1554590518</ele>
        <time>2015-04-22T15:30:27Z</time>
      </trkpt>
      <trkpt lat="44.66538" lon="3.54896">
        <ele>1481.1554590518</ele>
        <time>2015-04-22T15:30:32Z</time>
      </trkpt>
      <trkpt lat="44.66534" lon="3.54904">
        <ele>1482.4468957559</ele>
        <time>2015-04-22T15:30:37Z</time>
      </trkpt>
      <trkpt lat="44.66531" lon="3.54913">
        <ele>1482.4468957559</ele>
        <time>2015-04-22T15:30:42Z</time>
      </trkpt>
      <trkpt lat="44.66527" lon="3.54922">
        <ele>1483.4417115429</ele>
        <time>2015-04-22T15:30:47Z</time>
      </trkpt>
      <trkpt lat="44.66523" lon="3.54929">
        <ele>1483.4417115429</ele>
        <time>2015-04-22T15:30:52Z</time>
      </trkpt>
      <trkpt lat="44.66519" lon="3.54938">
        <ele>1484.3913091325</ele>
        <time>2015-04-22T15:30:57Z</time>
      </trkpt>
      <trkpt lat="44.66515" lon="3.54946">
        <ele>1484.3913091325</ele>
        <time>2015-04-22T15:31:02Z</time>
      </trkpt>
      <trkpt lat="44.66512" lon="3.54954">
        <ele>1485.2118302309</ele>
        <time>2015-04-22T15:31:07Z</time>
      </trkpt>
      <trkpt lat="44.66508" lon="3.5496">
        <ele>1485.2118302309</ele>
        <time>2015-04-22T15:31:12Z</time>
      </trkpt>
      <trkpt lat="44.66502" lon="3.54965">
        <ele>1485.7684113098</ele>
        <time>2015-04-22T15:31:17Z</time>
      </trkpt>
      <trkpt lat="44.66496" lon="3.54971">
        <ele>1485.7684113098</ele>
        <time>2015-04-22T15:31:22Z</time>
      </trkpt>
      <trkpt lat="44.66492" lon="3.54978">
        <ele>1485.1731535062</ele>
        <time>2015-04-22T15:31:27Z</time>
      </trkpt>
      <trkpt lat="44.66489" lon="3.54985">
        <ele>1485.1731535062</ele>
        <time>2015-04-22T15:31:32Z</time>
      </trkpt>
      <trkpt lat="44.66484" lon="3.54992">
        <ele>1485.1862986377</ele>
        <time>2015-04-22T15:31:37Z</time>
      </trkpt>
      <trkpt lat="44.66479" lon="3.54999">
        <ele>1485.1862986377</ele>
        <time>2015-04-22T15:31:42Z</time>
      </trkpt>
      <trkpt lat="44.66475" lon="3.55006">
        <ele>1485.160200895</ele>
        <time>2015-04-22T15:31:47Z</time>
      </trkpt>
      <trkpt lat="44.66469" lon="3.55016">
        <ele>1485.085823977</ele>
        <time>2015-04-22T15:31:52Z</time>
      </trkpt>
      <trkpt lat="44.66465" lon="3.55023">
        <ele>1485.085823977</ele>
        <time>2015-04-22T15:31:57Z</time>
      </trkpt>
      <trkpt lat="44.66461" lon="3.5503">
        <ele>1485.1711522387</ele>
        <time>2015-04-22T15:32:02Z</time>
      </trkpt>
      <trkpt lat="44.66456" lon="3.55038">
        <ele>1485.1711522387</ele>
        <time>2015-04-22T15:32:07Z</time>
      </trkpt>
      <trkpt lat="44.66451" lon="3.55046">
        <ele>1485.6949541581</ele>
        <time>2015-04-22T15:32:12Z</time>
      </trkpt>
      <trkpt lat="44.66446" lon="3.55053">
        <ele>1485.6949541581</ele>
        <time>2015-04-22T15:32:17Z</time>
      </trkpt>
      <trkpt lat="44.6644" lon="3.55061">
        <ele>1486.4964025919</ele>
        <time>2015-04-22T15:32:22Z</time>
      </trkpt>
      <trkpt lat="44.66434" lon="3.55068">
        <ele>1486.4964025919</ele>
        <time>2015-04-22T15:32:27Z</time>
      </trkpt>
      <trkpt lat="44.6643" lon="3.55076">
        <ele>1486.7916439733</ele>
        <time>2015-04-22T15:32:32Z</time>
      </trkpt>
      <trkpt lat="44.66427" lon="3.55085">
        <ele>1486.7916439733</ele>
        <time>2015-04-22T15:32:37Z</time>
      </trkpt>
      <trkpt lat="44.66423" lon="3.55091">
        <ele>1487.0807922731</ele>
        <time>2015-04-22T15:32:42Z</time>
      </trkpt>
      <trkpt lat="44.66418" lon="3.55096">
        <ele>1487.0807922731</ele>
        <time>2015-04-22T15:32:47Z</time>
      </trkpt>
      <trkpt lat="44.66413" lon="3.55104">
        <ele>1487.5534450439</ele>
        <time>2015-04-22T15:32:52Z</time>
      </trkpt>
      <trkpt lat="44.66408" lon="3.55112">
        <ele>1487.5534450439</ele>
        <time>2015-04-22T15:32:57Z</time>
      </trkpt>
      <trkpt lat="44.66402" lon="3.55119">
        <ele>1488.1397789335</ele>
        <time>2015-04-22T15:33:02Z</time>
      </trkpt>
      <trkpt lat="44.66398" lon="3.55127">
        <ele>1488.1397789335</ele>
        <time>2015-04-22T15:33:07Z</time>
      </trkpt>
      <trkpt lat="44.66393" lon="3.55136">
        <ele>1488.3712745656</ele>
        <time>2015-04-22T15:33:12Z</time>
      </trkpt>
      <trkpt lat="44.66389" lon="3.55143">
        <ele>1488.3712745656</ele>
        <time>2015-04-22T15:33:17Z</time>
      </trkpt>
      <trkpt lat="44.66384" lon="3.55152">
        <ele>1488.6218475924</ele>
        <time>2015-04-22T15:33:22Z</time>
      </trkpt>
      <trkpt lat="44.66379" lon="3.55158">
        <ele>1488.6218475924</ele>
        <time>2015-04-22T15:33:27Z</time>
      </trkpt>
      <trkpt lat="44.66374" lon="3.55166">
        <ele>1489.0217210463</ele>
        <time>2015-04-22T15:33:32Z</time>
      </trkpt>
      <trkpt lat="44.66373" lon="3.55176">
        <ele>1489.0217210463</ele>
        <time>2015-04-22T15:33:37Z</time>
      </trkpt>
      <trkpt lat="44.66373" lon="3.55185">
        <ele>1489.7487687431</ele>
        <time>2015-04-22T15:33:42Z</time>
      </trkpt>
      <trkpt lat="44.66374" lon="3.55194">
        <ele>1489.7487687431</ele>
        <time>2015-04-22T15:33:47Z</time>
      </trkpt>
      <trkpt lat="44.66375" lon="3.55202">
        <ele>1490.0877892564</ele>
        <time>2015-04-22T15:33:52Z</time>
      </trkpt>
      <trkpt lat="44.66376" lon="3.5521">
        <ele>1490.0877892564</ele>
        <time>2015-04-22T15:33:57Z</time>
      </trkpt>
      <trkpt lat="44.66378" lon="3.5522">
        <ele>1489.5068903849</ele>
        <time>2015-04-22T15:34:02Z</time>
      </trkpt>
      <trkpt lat="44.66378" lon="3.55229">
        <ele>1489.5068903849</ele>
        <time>2015-04-22T15:34:07Z</time>
      </trkpt>
      <trkpt lat="44.66379" lon="3.55243">
        <ele>1488.2651867589</ele>
        <time>2015-04-22T15:34:12Z</time>
      </trkpt>
      <trkpt lat="44.66379" lon="3.55253">
        <ele>1488.2651867589</ele>
        <time>2015-04-22T15:34:17Z</time>
      </trkpt>
      <trkpt lat="44.6638" lon="3.55263">
        <ele>1487.181023668</ele>
        <time>2015-04-22T15:34:22Z</time>
      </trkpt>
      <trkpt lat="44.66381" lon="3.55274">
        <ele>1487.181023668</ele>
        <time>2015-04-22T15:34:27Z</time>
      </trkpt>
      <trkpt lat="44.66382" lon="3.55286">
        <ele>1486.9256789747</ele>
        <time>2015-04-22T15:34:32Z</time>
      </trkpt>
      <trkpt lat="44.66384" lon="3.55296">
        <ele>1486.9256789747</ele>
        <time>2015-04-22T15:34:37Z</time>
      </trkpt>
      <trkpt lat="44.66384" lon="3.55309">
        <ele>1487.3981851204</ele>
        <time>2015-04-22T15:34:42Z</time>
      </trkpt>
      <trkpt lat="44.66385" lon="3.5532">
        <ele>1487.3981851204</ele>
        <time>2015-04-22T15:34:47Z</time>
      </trkpt>
      <trkpt lat="44.66386" lon="3.55328">
        <ele>1485.995353084</ele>
        <time>2015-04-22T15:34:52Z</time>
      </trkpt>
      <trkpt lat="44.66387" lon="3.55338">
        <ele>1485.995353084</ele>
        <time>2015-04-22T15:34:57Z</time>
      </trkpt>
      <trkpt lat="44.66387" lon="3.55351">
        <ele>1485.426361217</ele>
        <time>2015-04-22T15:35:02Z</time>
      </trkpt>
      <trkpt lat="44.66387" lon="3.55363">
        <ele>1485.426361217</ele>
        <time>2015-04-22T15:35:07Z</time>
      </trkpt>
      <trkpt lat="44.66386" lon="3.55376">
        <ele>1484.4088351667</ele>
        <time>2015-04-22T15:35:12Z</time>
      </trkpt>
      <trkpt lat="44.66388" lon="3.55387">
        <ele>1484.4088351667</ele>
        <time>2015-04-22T15:35:17Z</time>
      </trkpt>
      <trkpt lat="44.6639" lon="3.55395">
        <ele>1483.1248342612</ele>
        <time>2015-04-22T15:35:22Z</time>
      </trkpt>
      <trkpt lat="44.66393" lon="3.55404">
        <ele>1483.1248342612</ele>
        <time>2015-04-22T15:35:27Z</time>
      </trkpt>
      <trkpt lat="44.66394" lon="3.55414">
        <ele>1481.0519640504</ele>
        <time>2015-04-22T15:35:32Z</time>
      </trkpt>
      <trkpt lat="44.66396" lon="3.55425">
        <ele>1481.0519640504</ele>
        <time>2015-04-22T15:35:37Z</time>
      </trkpt>
      <trkpt lat="44.66396" lon="3.55436">
        <ele>1479.5673483217</ele>
        <time>2015-04-22T15:35:42Z</time>
      </trkpt>
      <trkpt lat="44.66398" lon="3.55447">
        <ele>1479.5673483217</ele>
        <time>2015-04-22T15:35:47Z</time>
      </trkpt>
      <trkpt lat="44.664" lon="3.55456">
        <ele>1478.7346508838</ele>
        <time>2015-04-22T15:35:52Z</time>
      </trkpt>
      <trkpt lat="44.66401" lon="3.55466">
        <ele>1478.7346508838</ele>
        <time>2015-04-22T15:35:57Z</time>
      </trkpt>
      <trkpt lat="44.66401" lon="3.55476">
        <ele>1478.6397318737</ele>
        <time>2015-04-22T15:36:02Z</time>
      </trkpt>
      <trkpt lat="44.66402" lon="3.55486">
        <ele>1478.6397318737</ele>
        <time>2015-04-22T15:36:07Z</time>
      </trkpt>
      <trkpt lat="44.66403" lon="3.55497">
        <ele>1479.5328854612</ele>
        <time>2015-04-22T15:36:12Z</time>
      </trkpt>
      <trkpt lat="44.66405" lon="3.55506">
        <ele>1479.5328854612</ele>
        <time>2015-04-22T15:36:17Z</time>
      </trkpt>
      <trkpt lat="44.66406" lon="3.55517">
        <ele>1478.5303239818</ele>
        <time>2015-04-22T15:36:22Z</time>
      </trkpt>
      <trkpt lat="44.66407" lon="3.55527">
        <ele>1478.5303239818</ele>
        <time>2015-04-22T15:36:27Z</time>
      </trkpt>
      <trkpt lat="44.66407" lon="3.55539">
        <ele>1478.6576921712</ele>
        <time>2015-04-22T15:36:32Z</time>
      </trkpt>
      <trkpt lat="44.66408" lon="3.5555">
        <ele>1478.6576921712</ele>
        <time>2015-04-22T15:36:37Z</time>
      </trkpt>
      <trkpt lat="44.66407" lon="3.55561">
        <ele>1479.3284782605</ele>
        <time>2015-04-22T15:36:42Z</time>
      </trkpt>
      <trkpt lat="44.66409" lon="3.5557">
        <ele>1479.3284782605</ele>
        <time>2015-04-22T15:36:47Z</time>
      </trkpt>
      <trkpt lat="44.6641" lon="3.55579">
        <ele>1479.7526355612</ele>
        <time>2015-04-22T15:36:52Z</time>
      </trkpt>
      <trkpt lat="44.66411" lon="3.55588">
        <ele>1479.7526355612</ele>
        <time>2015-04-22T15:36:57Z</time>
      </trkpt>
      <trkpt lat="44.66414" lon="3.55596">
        <ele>1479.1987438749</ele>
        <time>2015-04-22T15:37:02Z</time>
      </trkpt>
      <trkpt lat="44.66416" lon="3.55605">
        <ele>1479.1987438749</ele>
        <time>2015-04-22T15:37:07Z</time>
      </trkpt>
      <trkpt lat="44.6642" lon="3.55613">
        <ele>1479.3263620741</ele>
        <time>2015-04-22T15:37:12Z</time>
      </trkpt>
      <trkpt lat="44.66424" lon="3.55622">
        <ele>1479.3263620741</ele>
        <time>2015-04-22T15:37:17Z</time>
      </trkpt>
      <trkpt lat="44.66427" lon="3.55631">
        <ele>1480.4173717039</ele>
        <time>2015-04-22T15:37:22Z</time>
      </trkpt>
      <trkpt lat="44.66431" lon="3.55639">
        <ele>1480.4173717039</ele>
        <time>2015-04-22T15:37:27Z</time>
      </trkpt>
      <trkpt lat="44.66434" lon="3.55649">
        <ele>1481.8943198932</ele>
        <time>2015-04-22T15:37:32Z</time>
      </trkpt>
      <trkpt lat="44.66439" lon="3.55655">
        <ele>1481.8943198932</ele>
        <time>2015-04-22T15:37:37Z</time>
      </trkpt>
      <trkpt lat="44.66443" lon="3.5566">
        <ele>1482.428407282</ele>
        <time>2015-04-22T15:37:42Z</time>
      </trkpt>
      <trkpt lat="44.66446" lon="3.55668">
        <ele>1482.428407282</ele>
        <time>2015-04-22T15:37:47Z</time>
      </trkpt>
      <trkpt lat="44.6645" lon="3.55676">
        <ele>1482.9382873213</ele>
        <time>2015-04-22T15:37:52Z</time>
      </trkpt>
      <trkpt lat="44.66453" lon="3.55686">
        <ele>1482.9382873213</ele>
        <time>2015-04-22T15:37:57Z</time>
      </trkpt>
      <trkpt lat="44.66456" lon="3.557">
        <ele>1482.6178662357</ele>
        <time>2015-04-22T15:38:02Z</time>
      </trkpt>
      <trkpt lat="44.66458" lon="3.55715">
        <ele>1482.2068919594</ele>
        <time>2015-04-22T15:38:07Z</time>
      </trkpt>
      <trkpt lat="44.6646" lon="3.55727">
        <ele>1482.2068919594</ele>
        <time>2015-04-22T15:38:12Z</time>
      </trkpt>
      <trkpt lat="44.66462" lon="3.55738">
        <ele>1482.0739350453</ele>
        <time>2015-04-22T15:38:17Z</time>
      </trkpt>
      <trkpt lat="44.66464" lon="3.55748">
        <ele>1482.0739350453</ele>
        <time>2015-04-22T15:38:22Z</time>
      </trkpt>
      <trkpt lat="44.66465" lon="3.55758">
        <ele>1481.5220654122</ele>
        <time>2015-04-22T15:38:27Z</time>
      </trkpt>
      <trkpt lat="44.66465" lon="3.55768">
        <ele>1481.5220654122</ele>
        <time>2015-04-22T15:38:32Z</time>
      </trkpt>
      <trkpt lat="44.66466" lon="3.5578">
        <ele>1481.5063126588</ele>
        <time>2015-04-22T15:38:37Z</time>
      </trkpt>
      <trkpt lat="44.66466" lon="3.55791">
        <ele>1481.5063126588</ele>
        <time>2015-04-22T15:38:42Z</time>
      </trkpt>
      <trkpt lat="44.66465" lon="3.55806">
        <ele>1482.0885686424</ele>
        <time>2015-04-22T15:38:47Z</time>
      </trkpt>
      <trkpt lat="44.66464" lon="3.55817">
        <ele>1482.0885686424</ele>
        <time>2015-04-22T15:38:52Z</time>
      </trkpt>
      <trkpt lat="44.66462" lon="3.55826">
        <ele>1482.430970011</ele>
        <time>2015-04-22T15:38:57Z</time>
      </trkpt>
      <trkpt lat="44.6646" lon="3.55835">
        <ele>1482.430970011</ele>
        <time>2015-04-22T15:39:02Z</time>
      </trkpt>
      <trkpt lat="44.66458" lon="3.55844">
        <ele>1482.7233818294</ele>
        <time>2015-04-22T15:39:07Z</time>
      </trkpt>
      <trkpt lat="44.66456" lon="3.55853">
        <ele>1482.7233818294</ele>
        <time>2015-04-22T15:39:12Z</time>
      </trkpt>
      <trkpt lat="44.66455" lon="3.55862">
        <ele>1483.3291737049</ele>
        <time>2015-04-22T15:39:17Z</time>
      </trkpt>
      <trkpt lat="44.66455" lon="3.55871">
        <ele>1483.3291737049</ele>
        <time>2015-04-22T15:39:22Z</time>
      </trkpt>
      <trkpt lat="44.66454" lon="3.5588">
        <ele>1483.6618041488</ele>
        <time>2015-04-22T15:39:27Z</time>
      </trkpt>
      <trkpt lat="44.66452" lon="3.55888">
        <ele>1483.6618041488</ele>
        <time>2015-04-22T15:39:32Z</time>
      </trkpt>
      <trkpt lat="44.66449" lon="3.55898">
        <ele>1483.7550064047</ele>
        <time>2015-04-22T15:39:37Z</time>
      </trkpt>
      <trkpt lat="44.66448" lon="3.55908">
        <ele>1483.7550064047</ele>
        <time>2015-04-22T15:39:42Z</time>
      </trkpt>
      <trkpt lat="44.66446" lon="3.55921">
        <ele>1483.8712658157</ele>
        <time>2015-04-22T15:39:47Z</time>
      </trkpt>
      <trkpt lat="44.66443" lon="3.55934">
        <ele>1483.8934265369</ele>
        <time>2015-04-22T15:39:52Z</time>
      </trkpt>
      <trkpt lat="44.66444" lon="3.55944">
        <ele>1483.8934265369</ele>
        <time>2015-04-22T15:39:57Z</time>
      </trkpt>
      <trkpt lat="44.66443" lon="3.55953">
        <ele>1484.2608111057</ele>
        <time>2015-04-22T15:40:02Z</time>
      </trkpt>
      <trkpt lat="44.66443" lon="3.55963">
        <ele>1484.2608111057</ele>
        <time>2015-04-22T15:40:07Z</time>
      </trkpt>
      <trkpt lat="44.66441" lon="3.55973">
        <ele>1484.6877557094</ele>
        <time>2015-04-22T15:40:12Z</time>
      </trkpt>
      <trkpt lat="44.66438" lon="3.55983">
        <ele>1484.6877557094</ele>
        <time>2015-04-22T15:40:17Z</time>
      </trkpt>
      <trkpt lat="44.66434" lon="3.55994">
        <ele>1484.6211818342</ele>
        <time>2015-04-22T15:40:22Z</time>
      </trkpt>
      <trkpt lat="44.66431" lon="3.56004">
        <ele>1484.6211818342</ele>
        <time>2015-04-22T15:40:27Z</time>
      </trkpt>
      <trkpt lat="44.66429" lon="3.56014">
        <ele>1484.2273380295</ele>
        <time>2015-04-22T15:40:32Z</time>
      </trkpt>
      <trkpt lat="44.66426" lon="3.56025">
        <ele>1484.2273380295</ele>
        <time>2015-04-22T15:40:37Z</time>
      </trkpt>
      <trkpt lat="44.66425" lon="3.56033">
        <ele>1482.9982572247</ele>
        <time>2015-04-22T15:40:42Z</time>
      </trkpt>
      <trkpt lat="44.66424" lon="3.5604">
        <ele>1482.9982572247</ele>
        <time>2015-04-22T15:40:47Z</time>
      </trkpt>
      <trkpt lat="44.66423" lon="3.56051">
        <ele>1481.9355510658</ele>
        <time>2015-04-22T15:40:52Z</time>
      </trkpt>
      <trkpt lat="44.66422" lon="3.56062">
        <ele>1481.9355510658</ele>
        <time>2015-04-22T15:40:57Z</time>
      </trkpt>
      <trkpt lat="44.66421" lon="3.56073">
        <ele>1481.1309231923</ele>
        <time>2015-04-22T15:41:02Z</time>
      </trkpt>
      <trkpt lat="44.66423" lon="3.56081">
        <ele>1481.1309231923</ele>
        <time>2015-04-22T15:41:07Z</time>
      </trkpt>
      <trkpt lat="44.66426" lon="3.56089">
        <ele>1479.4436451805</ele>
        <time>2015-04-22T15:41:12Z</time>
      </trkpt>
      <trkpt lat="44.66429" lon="3.56098">
        <ele>1479.4436451805</ele>
        <time>2015-04-22T15:41:17Z</time>
      </trkpt>
      <trkpt lat="44.66432" lon="3.56108">
        <ele>1478.2547061265</ele>
        <time>2015-04-22T15:41:22Z</time>
      </trkpt>
      <trkpt lat="44.66438" lon="3.56114">
        <ele>1478.2547061265</ele>
        <time>2015-04-22T15:41:28Z</time>
      </trkpt>
      <trkpt lat="44.66445" lon="3.56117">
        <ele>1477.3434527508</ele>
        <time>2015-04-22T15:41:32Z</time>
      </trkpt>
      <trkpt lat="44.66456" lon="3.56117">
        <ele>1476.6054919268</ele>
        <time>2015-04-22T15:41:37Z</time>
      </trkpt>
      <trkpt lat="44.66462" lon="3.56122">
        <ele>1476.6054919268</ele>
        <time>2015-04-22T15:41:42Z</time>
      </trkpt>
      <trkpt lat="44.6647" lon="3.56123">
        <ele>1475.5112262806</ele>
        <time>2015-04-22T15:41:47Z</time>
      </trkpt>
      <trkpt lat="44.66476" lon="3.56124">
        <ele>1475.5112262806</ele>
        <time>2015-04-22T15:41:52Z</time>
      </trkpt>
      <trkpt lat="44.66483" lon="3.56121">
        <ele>1473.8014815753</ele>
        <time>2015-04-22T15:41:57Z</time>
      </trkpt>
      <trkpt lat="44.66493" lon="3.56119">
        <ele>1472.5780202757</ele>
        <time>2015-04-22T15:42:02Z</time>
      </trkpt>
      <trkpt lat="44.66498" lon="3.56122">
        <ele>1472.5780202757</ele>
        <time>2015-04-22T15:42:07Z</time>
      </trkpt>
      <trkpt lat="44.66503" lon="3.56123">
        <ele>1471.2317820061</ele>
        <time>2015-04-22T15:42:12Z</time>
      </trkpt>
      <trkpt lat="44.66509" lon="3.56124">
        <ele>1471.2317820061</ele>
        <time>2015-04-22T15:42:17Z</time>
      </trkpt>
      <trkpt lat="44.66515" lon="3.56127">
        <ele>1471.2595110232</ele>
        <time>2015-04-22T15:42:22Z</time>
      </trkpt>
      <trkpt lat="44.6652" lon="3.56128">
        <ele>1471.2595110232</ele>
        <time>2015-04-22T15:42:27Z</time>
      </trkpt>
      <trkpt lat="44.66525" lon="3.56131">
        <ele>1471.1474410102</ele>
        <time>2015-04-22T15:42:32Z</time>
      </trkpt>
      <trkpt lat="44.66532" lon="3.56132">
        <ele>1471.1474410102</ele>
        <time>2015-04-22T15:42:37Z</time>
      </trkpt>
      <trkpt lat="44.66541" lon="3.56131">
        <ele>1470.8623844609</ele>
        <time>2015-04-22T15:42:42Z</time>
      </trkpt>
      <trkpt lat="44.66549" lon="3.5613">
        <ele>1470.8623844609</ele>
        <time>2015-04-22T15:42:47Z</time>
      </trkpt>
      <trkpt lat="44.66555" lon="3.56133">
        <ele>1470.6334115173</ele>
        <time>2015-04-22T15:42:52Z</time>
      </trkpt>
      <trkpt lat="44.66562" lon="3.56133">
        <ele>1470.6334115173</ele>
        <time>2015-04-22T15:42:57Z</time>
      </trkpt>
      <trkpt lat="44.66568" lon="3.56131">
        <ele>1470.0528686983</ele>
        <time>2015-04-22T15:43:02Z</time>
      </trkpt>
      <trkpt lat="44.66578" lon="3.56134">
        <ele>1469.5365890507</ele>
        <time>2015-04-22T15:43:07Z</time>
      </trkpt>
      <trkpt lat="44.66585" lon="3.5614">
        <ele>1469.5365890507</ele>
        <time>2015-04-22T15:43:12Z</time>
      </trkpt>
      <trkpt lat="44.66591" lon="3.56146">
        <ele>1468.6049565547</ele>
        <time>2015-04-22T15:43:17Z</time>
      </trkpt>
      <trkpt lat="44.66593" lon="3.56154">
        <ele>1468.6049565547</ele>
        <time>2015-04-22T15:43:22Z</time>
      </trkpt>
      <trkpt lat="44.66596" lon="3.56164">
        <ele>1467.7225993232</ele>
        <time>2015-04-22T15:43:27Z</time>
      </trkpt>
      <trkpt lat="44.66596" lon="3.56176">
        <ele>1467.7225993232</ele>
        <time>2015-04-22T15:43:32Z</time>
      </trkpt>
      <trkpt lat="44.66597" lon="3.56182">
        <ele>1467.0316003719</ele>
        <time>2015-04-22T15:43:37Z</time>
      </trkpt>
      <trkpt lat="44.66598" lon="3.56181">
        <ele>1467.0316003719</ele>
        <time>2015-04-22T15:43:42Z</time>
      </trkpt>
      <trkpt lat="44.66597" lon="3.56183">
        <ele>1467.0316003719</ele>
        <time>2015-04-22T15:43:47Z</time>
      </trkpt>
      <trkpt lat="44.66599" lon="3.56192">
        <ele>1467.0316003719</ele>
        <time>2015-04-22T15:43:52Z</time>
      </trkpt>
      <trkpt lat="44.66602" lon="3.56198">
        <ele>1465.582180504</ele>
        <time>2015-04-22T15:43:57Z</time>
      </trkpt>
      <trkpt lat="44.66604" lon="3.56205">
        <ele>1465.582180504</ele>
        <time>2015-04-22T15:44:02Z</time>
      </trkpt>
      <trkpt lat="44.66604" lon="3.56213">
        <ele>1464.2545585385</ele>
        <time>2015-04-22T15:44:07Z</time>
      </trkpt>
      <trkpt lat="44.66604" lon="3.56224">
        <ele>1464.2545585385</ele>
        <time>2015-04-22T15:44:12Z</time>
      </trkpt>
      <trkpt lat="44.66606" lon="3.56233">
        <ele>1463.3883268129</ele>
        <time>2015-04-22T15:44:17Z</time>
      </trkpt>
      <trkpt lat="44.66606" lon="3.56242">
        <ele>1463.3883268129</ele>
        <time>2015-04-22T15:44:22Z</time>
      </trkpt>
      <trkpt lat="44.66607" lon="3.56251">
        <ele>1461.9277207118</ele>
        <time>2015-04-22T15:44:27Z</time>
      </trkpt>
      <trkpt lat="44.66607" lon="3.56259">
        <ele>1461.9277207118</ele>
        <time>2015-04-22T15:44:32Z</time>
      </trkpt>
      <trkpt lat="44.66608" lon="3.56269">
        <ele>1460.8704593282</ele>
        <time>2015-04-22T15:44:37Z</time>
      </trkpt>
      <trkpt lat="44.66609" lon="3.56283">
        <ele>1459.7418959706</ele>
        <time>2015-04-22T15:44:42Z</time>
      </trkpt>
      <trkpt lat="44.6661" lon="3.56293">
        <ele>1459.7418959706</ele>
        <time>2015-04-22T15:44:47Z</time>
      </trkpt>
      <trkpt lat="44.66611" lon="3.56303">
        <ele>1458.8949979299</ele>
        <time>2015-04-22T15:44:52Z</time>
      </trkpt>
      <trkpt lat="44.66613" lon="3.56312">
        <ele>1458.8949979299</ele>
        <time>2015-04-22T15:44:57Z</time>
      </trkpt>
      <trkpt lat="44.66613" lon="3.56325">
        <ele>1458.1515598033</ele>
        <time>2015-04-22T15:45:02Z</time>
      </trkpt>
      <trkpt lat="44.66614" lon="3.56334">
        <ele>1458.1515598033</ele>
        <time>2015-04-22T15:45:07Z</time>
      </trkpt>
      <trkpt lat="44.66616" lon="3.56345">
        <ele>1457.634336211</ele>
        <time>2015-04-22T15:45:12Z</time>
      </trkpt>
      <trkpt lat="44.66615" lon="3.56351">
        <ele>1457.634336211</ele>
        <time>2015-04-22T15:45:17Z</time>
      </trkpt>
      <trkpt lat="44.66616" lon="3.56357">
        <ele>1456.7502241848</ele>
        <time>2015-04-22T15:45:22Z</time>
      </trkpt>
      <trkpt lat="44.66615" lon="3.56367">
        <ele>1456.7502241848</ele>
        <time>2015-04-22T15:45:27Z</time>
      </trkpt>
      <trkpt lat="44.66615" lon="3.56383">
        <ele>1456.1035506659</ele>
        <time>2015-04-22T15:45:32Z</time>
      </trkpt>
      <trkpt lat="44.66613" lon="3.56396">
        <ele>1455.446506042</ele>
        <time>2015-04-22T15:45:37Z</time>
      </trkpt>
      <trkpt lat="44.6661" lon="3.56404">
        <ele>1455.446506042</ele>
        <time>2015-04-22T15:45:42Z</time>
      </trkpt>
      <trkpt lat="44.66606" lon="3.56409">
        <ele>1454.7223957775</ele>
        <time>2015-04-22T15:45:47Z</time>
      </trkpt>
      <trkpt lat="44.66602" lon="3.56416">
        <ele>1454.7223957775</ele>
        <time>2015-04-22T15:45:52Z</time>
      </trkpt>
      <trkpt lat="44.66598" lon="3.56422">
        <ele>1452.8124050165</ele>
        <time>2015-04-22T15:45:57Z</time>
      </trkpt>
      <trkpt lat="44.66592" lon="3.56434">
        <ele>1450.6430934257</ele>
        <time>2015-04-22T15:46:02Z</time>
      </trkpt>
      <trkpt lat="44.66587" lon="3.56446">
        <ele>1448.8430511252</ele>
        <time>2015-04-22T15:46:07Z</time>
      </trkpt>
      <trkpt lat="44.66581" lon="3.56455">
        <ele>1447.6333198015</ele>
        <time>2015-04-22T15:46:12Z</time>
      </trkpt>
      <trkpt lat="44.66576" lon="3.5646">
        <ele>1447.6333198015</ele>
        <time>2015-04-22T15:46:17Z</time>
      </trkpt>
      <trkpt lat="44.66567" lon="3.56465">
        <ele>1446.2658506242</ele>
        <time>2015-04-22T15:46:22Z</time>
      </trkpt>
      <trkpt lat="44.66563" lon="3.56469">
        <ele>1446.2658506242</ele>
        <time>2015-04-22T15:46:27Z</time>
      </trkpt>
      <trkpt lat="44.66556" lon="3.56473">
        <ele>1445.3305128335</ele>
        <time>2015-04-22T15:46:32Z</time>
      </trkpt>
      <trkpt lat="44.6655" lon="3.56482">
        <ele>1445.1131685323</ele>
        <time>2015-04-22T15:46:37Z</time>
      </trkpt>
      <trkpt lat="44.66541" lon="3.56488">
        <ele>1444.4210835439</ele>
        <time>2015-04-22T15:46:42Z</time>
      </trkpt>
      <trkpt lat="44.66531" lon="3.56487">
        <ele>1443.8365185145</ele>
        <time>2015-04-22T15:46:47Z</time>
      </trkpt>
      <trkpt lat="44.66525" lon="3.56491">
        <ele>1443.8365185145</ele>
        <time>2015-04-22T15:46:52Z</time>
      </trkpt>
      <trkpt lat="44.66518" lon="3.56495">
        <ele>1443.1636435405</ele>
        <time>2015-04-22T15:46:57Z</time>
      </trkpt>
      <trkpt lat="44.66512" lon="3.56496">
        <ele>1443.1636435405</ele>
        <time>2015-04-22T15:47:02Z</time>
      </trkpt>
      <trkpt lat="44.66506" lon="3.56501">
        <ele>1442.3509179195</ele>
        <time>2015-04-22T15:47:07Z</time>
      </trkpt>
      <trkpt lat="44.66501" lon="3.56509">
        <ele>1442.3509179195</ele>
        <time>2015-04-22T15:47:12Z</time>
      </trkpt>
      <trkpt lat="44.66494" lon="3.56513">
        <ele>1441.4806394819</ele>
        <time>2015-04-22T15:47:17Z</time>
      </trkpt>
      <trkpt lat="44.66488" lon="3.56519">
        <ele>1441.4806394819</ele>
        <time>2015-04-22T15:47:22Z</time>
      </trkpt>
      <trkpt lat="44.66482" lon="3.56523">
        <ele>1440.1536178826</ele>
        <time>2015-04-22T15:47:27Z</time>
      </trkpt>
      <trkpt lat="44.66477" lon="3.56526">
        <ele>1440.1536178826</ele>
        <time>2015-04-22T15:47:32Z</time>
      </trkpt>
      <trkpt lat="44.6647" lon="3.56531">
        <ele>1438.9667777278</ele>
        <time>2015-04-22T15:47:37Z</time>
      </trkpt>
      <trkpt lat="44.66464" lon="3.56536">
        <ele>1438.9667777278</ele>
        <time>2015-04-22T15:47:42Z</time>
      </trkpt>
      <trkpt lat="44.66456" lon="3.56541">
        <ele>1437.881910278</ele>
        <time>2015-04-22T15:47:47Z</time>
      </trkpt>
      <trkpt lat="44.66449" lon="3.56543">
        <ele>1437.881910278</ele>
        <time>2015-04-22T15:47:52Z</time>
      </trkpt>
      <trkpt lat="44.66441" lon="3.56548">
        <ele>1437.1082828083</ele>
        <time>2015-04-22T15:47:57Z</time>
      </trkpt>
      <trkpt lat="44.66431" lon="3.5655">
        <ele>1436.1183281237</ele>
        <time>2015-04-22T15:48:02Z</time>
      </trkpt>
      <trkpt lat="44.66423" lon="3.56553">
        <ele>1436.1183281237</ele>
        <time>2015-04-22T15:48:07Z</time>
      </trkpt>
      <trkpt lat="44.66417" lon="3.5656">
        <ele>1435.6487552312</ele>
        <time>2015-04-22T15:48:12Z</time>
      </trkpt>
      <trkpt lat="44.6641" lon="3.56566">
        <ele>1435.6487552312</ele>
        <time>2015-04-22T15:48:17Z</time>
      </trkpt>
      <trkpt lat="44.66403" lon="3.56568">
        <ele>1434.7522112541</ele>
        <time>2015-04-22T15:48:22Z</time>
      </trkpt>
      <trkpt lat="44.66396" lon="3.56573">
        <ele>1434.7522112541</ele>
        <time>2015-04-22T15:48:27Z</time>
      </trkpt>
      <trkpt lat="44.66389" lon="3.56578">
        <ele>1433.7770532462</ele>
        <time>2015-04-22T15:48:32Z</time>
      </trkpt>
      <trkpt lat="44.66382" lon="3.56582">
        <ele>1433.7770532462</ele>
        <time>2015-04-22T15:48:37Z</time>
      </trkpt>
      <trkpt lat="44.66375" lon="3.56586">
        <ele>1432.6859683526</ele>
        <time>2015-04-22T15:48:42Z</time>
      </trkpt>
      <trkpt lat="44.66367" lon="3.56588">
        <ele>1432.6859683526</ele>
        <time>2015-04-22T15:48:47Z</time>
      </trkpt>
      <trkpt lat="44.66359" lon="3.56594">
        <ele>1431.9202566554</ele>
        <time>2015-04-22T15:48:52Z</time>
      </trkpt>
      <trkpt lat="44.66352" lon="3.56598">
        <ele>1431.9202566554</ele>
        <time>2015-04-22T15:48:57Z</time>
      </trkpt>
      <trkpt lat="44.66345" lon="3.56598">
        <ele>1430.547634485</ele>
        <time>2015-04-22T15:49:02Z</time>
      </trkpt>
      <trkpt lat="44.66338" lon="3.56599">
        <ele>1430.547634485</ele>
        <time>2015-04-22T15:49:07Z</time>
      </trkpt>
      <trkpt lat="44.6633" lon="3.56602">
        <ele>1429.9685330897</ele>
        <time>2015-04-22T15:49:12Z</time>
      </trkpt>
      <trkpt lat="44.66323" lon="3.56605">
        <ele>1429.9685330897</ele>
        <time>2015-04-22T15:49:17Z</time>
      </trkpt>
      <trkpt lat="44.66317" lon="3.56609">
        <ele>1429.1148429899</ele>
        <time>2015-04-22T15:49:22Z</time>
      </trkpt>
      <trkpt lat="44.66311" lon="3.56609">
        <ele>1429.1148429899</ele>
        <time>2015-04-22T15:49:27Z</time>
      </trkpt>
      <trkpt lat="44.66304" lon="3.56614">
        <ele>1428.0496839069</ele>
        <time>2015-04-22T15:49:32Z</time>
      </trkpt>
      <trkpt lat="44.66298" lon="3.56618">
        <ele>1428.0496839069</ele>
        <time>2015-04-22T15:49:37Z</time>
      </trkpt>
      <trkpt lat="44.66288" lon="3.56623">
        <ele>1427.3653299448</ele>
        <time>2015-04-22T15:49:42Z</time>
      </trkpt>
      <trkpt lat="44.66282" lon="3.56628">
        <ele>1427.3653299448</ele>
        <time>2015-04-22T15:49:47Z</time>
      </trkpt>
      <trkpt lat="44.66273" lon="3.5663">
        <ele>1427.047434874</ele>
        <time>2015-04-22T15:49:52Z</time>
      </trkpt>
      <trkpt lat="44.66263" lon="3.5663">
        <ele>1426.4764038646</ele>
        <time>2015-04-22T15:49:57Z</time>
      </trkpt>
      <trkpt lat="44.66251" lon="3.56625">
        <ele>1425.7705966583</ele>
        <time>2015-04-22T15:50:02Z</time>
      </trkpt>
      <trkpt lat="44.66242" lon="3.56622">
        <ele>1425.7705966583</ele>
        <time>2015-04-22T15:50:07Z</time>
      </trkpt>
      <trkpt lat="44.66235" lon="3.56619">
        <ele>1425.256222935</ele>
        <time>2015-04-22T15:50:12Z</time>
      </trkpt>
      <trkpt lat="44.66232" lon="3.56612">
        <ele>1425.256222935</ele>
        <time>2015-04-22T15:50:17Z</time>
      </trkpt>
      <trkpt lat="44.66226" lon="3.56608">
        <ele>1424.1541607744</ele>
        <time>2015-04-22T15:50:22Z</time>
      </trkpt>
      <trkpt lat="44.6622" lon="3.56604">
        <ele>1424.1541607744</ele>
        <time>2015-04-22T15:50:27Z</time>
      </trkpt>
      <trkpt lat="44.66214" lon="3.566">
        <ele>1422.7673632647</ele>
        <time>2015-04-22T15:50:32Z</time>
      </trkpt>
      <trkpt lat="44.66205" lon="3.56593">
        <ele>1421.6367307282</ele>
        <time>2015-04-22T15:50:37Z</time>
      </trkpt>
      <trkpt lat="44.66198" lon="3.56585">
        <ele>1420.2827561738</ele>
        <time>2015-04-22T15:50:42Z</time>
      </trkpt>
      <trkpt lat="44.66191" lon="3.5658">
        <ele>1420.2827561738</ele>
        <time>2015-04-22T15:50:47Z</time>
      </trkpt>
      <trkpt lat="44.66185" lon="3.56574">
        <ele>1418.751759885</ele>
        <time>2015-04-22T15:50:52Z</time>
      </trkpt>
      <trkpt lat="44.66179" lon="3.5657">
        <ele>1418.751759885</ele>
        <time>2015-04-22T15:50:57Z</time>
      </trkpt>
      <trkpt lat="44.66172" lon="3.56567">
        <ele>1417.6203632293</ele>
        <time>2015-04-22T15:51:02Z</time>
      </trkpt>
      <trkpt lat="44.66165" lon="3.56561">
        <ele>1417.6203632293</ele>
        <time>2015-04-22T15:51:07Z</time>
      </trkpt>
      <trkpt lat="44.66161" lon="3.56555">
        <ele>1415.6347218459</ele>
        <time>2015-04-22T15:51:12Z</time>
      </trkpt>
      <trkpt lat="44.66155" lon="3.56548">
        <ele>1415.6347218459</ele>
        <time>2015-04-22T15:51:17Z</time>
      </trkpt>
      <trkpt lat="44.66148" lon="3.56544">
        <ele>1414.6185847855</ele>
        <time>2015-04-22T15:51:22Z</time>
      </trkpt>
      <trkpt lat="44.66142" lon="3.5654">
        <ele>1414.6185847855</ele>
        <time>2015-04-22T15:51:27Z</time>
      </trkpt>
      <trkpt lat="44.66136" lon="3.56537">
        <ele>1413.5352953784</ele>
        <time>2015-04-22T15:51:32Z</time>
      </trkpt>
      <trkpt lat="44.66131" lon="3.56532">
        <ele>1413.5352953784</ele>
        <time>2015-04-22T15:51:37Z</time>
      </trkpt>
      <trkpt lat="44.66124" lon="3.56527">
        <ele>1412.8224014914</ele>
        <time>2015-04-22T15:51:42Z</time>
      </trkpt>
      <trkpt lat="44.66119" lon="3.56521">
        <ele>1412.8224014914</ele>
        <time>2015-04-22T15:51:47Z</time>
      </trkpt>
      <trkpt lat="44.66112" lon="3.56516">
        <ele>1412.6248566519</ele>
        <time>2015-04-22T15:51:52Z</time>
      </trkpt>
      <trkpt lat="44.66106" lon="3.56511">
        <ele>1412.6248566519</ele>
        <time>2015-04-22T15:51:57Z</time>
      </trkpt>
      <trkpt lat="44.661" lon="3.56503">
        <ele>1412.6287668251</ele>
        <time>2015-04-22T15:52:02Z</time>
      </trkpt>
      <trkpt lat="44.66095" lon="3.56497">
        <ele>1412.6287668251</ele>
        <time>2015-04-22T15:52:07Z</time>
      </trkpt>
      <trkpt lat="44.66088" lon="3.56492">
        <ele>1412.3553830843</ele>
        <time>2015-04-22T15:52:12Z</time>
      </trkpt>
      <trkpt lat="44.6608" lon="3.56488">
        <ele>1412.3553830843</ele>
        <time>2015-04-22T15:52:17Z</time>
      </trkpt>
      <trkpt lat="44.6608" lon="3.56506">
        <ele>1412.2553953455</ele>
        <time>2015-04-22T15:52:22Z</time>
      </trkpt>
      <trkpt lat="44.6609" lon="3.56522">
        <ele>1412.4288657419</ele>
        <time>2015-04-22T15:52:27Z</time>
      </trkpt>
      <trkpt lat="44.66094" lon="3.56529">
        <ele>1412.4288657419</ele>
        <time>2015-04-22T15:52:32Z</time>
      </trkpt>
      <trkpt lat="44.661" lon="3.56537">
        <ele>1412.7804125501</ele>
        <time>2015-04-22T15:52:37Z</time>
      </trkpt>
      <trkpt lat="44.66106" lon="3.56543">
        <ele>1412.7804125501</ele>
        <time>2015-04-22T15:52:42Z</time>
      </trkpt>
      <trkpt lat="44.66111" lon="3.56552">
        <ele>1413.0914871517</ele>
        <time>2015-04-22T15:52:47Z</time>
      </trkpt>
      <trkpt lat="44.66116" lon="3.56562">
        <ele>1413.0914871517</ele>
        <time>2015-04-22T15:52:52Z</time>
      </trkpt>
      <trkpt lat="44.66121" lon="3.56571">
        <ele>1413.6497214943</ele>
        <time>2015-04-22T15:52:57Z</time>
      </trkpt>
      <trkpt lat="44.66126" lon="3.56579">
        <ele>1413.6497214943</ele>
        <time>2015-04-22T15:53:02Z</time>
      </trkpt>
      <trkpt lat="44.6613" lon="3.56587">
        <ele>1413.8995341203</ele>
        <time>2015-04-22T15:53:07Z</time>
      </trkpt>
      <trkpt lat="44.66136" lon="3.56593">
        <ele>1413.8995341203</ele>
        <time>2015-04-22T15:53:12Z</time>
      </trkpt>
      <trkpt lat="44.66137" lon="3.56609">
        <ele>1414.8258294142</ele>
        <time>2015-04-22T15:53:17Z</time>
      </trkpt>
      <trkpt lat="44.66137" lon="3.56625">
        <ele>1416.1720244289</ele>
        <time>2015-04-22T15:53:22Z</time>
      </trkpt>
      <trkpt lat="44.66138" lon="3.56634">
        <ele>1416.1720244289</ele>
        <time>2015-04-22T15:53:27Z</time>
      </trkpt>
      <trkpt lat="44.66137" lon="3.56644">
        <ele>1417.1228330024</ele>
        <time>2015-04-22T15:53:32Z</time>
      </trkpt>
      <trkpt lat="44.66136" lon="3.56649">
        <ele>1417.1228330024</ele>
        <time>2015-04-22T15:53:37Z</time>
      </trkpt>
      <trkpt lat="44.6613" lon="3.56649">
        <ele>1416.4052463804</ele>
        <time>2015-04-22T15:53:42Z</time>
      </trkpt>
      <trkpt lat="44.66125" lon="3.56647">
        <ele>1416.4052463804</ele>
        <time>2015-04-22T15:53:47Z</time>
      </trkpt>
      <trkpt lat="44.66116" lon="3.56643">
        <ele>1415.4097118547</ele>
        <time>2015-04-22T15:53:52Z</time>
      </trkpt>
      <trkpt lat="44.66108" lon="3.56642">
        <ele>1415.4097118547</ele>
        <time>2015-04-22T15:53:57Z</time>
      </trkpt>
      <trkpt lat="44.661" lon="3.56643">
        <ele>1414.690430863</ele>
        <time>2015-04-22T15:54:02Z</time>
      </trkpt>
      <trkpt lat="44.66091" lon="3.56645">
        <ele>1413.9387636657</ele>
        <time>2015-04-22T15:54:07Z</time>
      </trkpt>
      <trkpt lat="44.66082" lon="3.56648">
        <ele>1413.9387636657</ele>
        <time>2015-04-22T15:54:12Z</time>
      </trkpt>
      <trkpt lat="44.66075" lon="3.5665">
        <ele>1412.9841949284</ele>
        <time>2015-04-22T15:54:17Z</time>
      </trkpt>
      <trkpt lat="44.66067" lon="3.56651">
        <ele>1412.9841949284</ele>
        <time>2015-04-22T15:54:22Z</time>
      </trkpt>
      <trkpt lat="44.6606" lon="3.56655">
        <ele>1411.712602886</ele>
        <time>2015-04-22T15:54:27Z</time>
      </trkpt>
      <trkpt lat="44.66054" lon="3.56659">
        <ele>1411.712602886</ele>
        <time>2015-04-22T15:54:32Z</time>
      </trkpt>
      <trkpt lat="44.66045" lon="3.56664">
        <ele>1411.3161982686</ele>
        <time>2015-04-22T15:54:37Z</time>
      </trkpt>
      <trkpt lat="44.66039" lon="3.56676">
        <ele>1410.634665674</ele>
        <time>2015-04-22T15:54:42Z</time>
      </trkpt>
      <trkpt lat="44.66036" lon="3.56686">
        <ele>1410.634665674</ele>
        <time>2015-04-22T15:54:47Z</time>
      </trkpt>
      <trkpt lat="44.66031" lon="3.567">
        <ele>1409.8331298231</ele>
        <time>2015-04-22T15:54:52Z</time>
      </trkpt>
      <trkpt lat="44.66026" lon="3.56726">
        <ele>1408.6470427203</ele>
        <time>2015-04-22T15:54:57Z</time>
      </trkpt>
      <trkpt lat="44.66021" lon="3.56755">
        <ele>1407.5673737832</ele>
        <time>2015-04-22T15:55:02Z</time>
      </trkpt>
      <trkpt lat="44.66018" lon="3.56779">
        <ele>1406.8470048416</ele>
        <time>2015-04-22T15:55:07Z</time>
      </trkpt>
      <trkpt lat="44.6601" lon="3.56805">
        <ele>1407.0074848331</ele>
        <time>2015-04-22T15:55:12Z</time>
      </trkpt>
      <trkpt lat="44.66004" lon="3.56819">
        <ele>1407.6072957045</ele>
        <time>2015-04-22T15:55:17Z</time>
      </trkpt>
      <trkpt lat="44.66001" lon="3.56824">
        <ele>1407.6072957045</ele>
        <time>2015-04-22T15:55:22Z</time>
      </trkpt>
      <trkpt lat="44.65995" lon="3.56831">
        <ele>1408.6252518635</ele>
        <time>2015-04-22T15:55:27Z</time>
      </trkpt>
      <trkpt lat="44.6599" lon="3.56836">
        <ele>1408.6252518635</ele>
        <time>2015-04-22T15:55:32Z</time>
      </trkpt>
      <trkpt lat="44.65981" lon="3.56843">
        <ele>1409.9685333726</ele>
        <time>2015-04-22T15:55:37Z</time>
      </trkpt>
      <trkpt lat="44.65974" lon="3.56849">
        <ele>1409.9685333726</ele>
        <time>2015-04-22T15:55:42Z</time>
      </trkpt>
      <trkpt lat="44.65967" lon="3.56857">
        <ele>1411.7808524192</ele>
        <time>2015-04-22T15:55:47Z</time>
      </trkpt>
      <trkpt lat="44.6596" lon="3.56862">
        <ele>1411.7808524192</ele>
        <time>2015-04-22T15:55:52Z</time>
      </trkpt>
      <trkpt lat="44.65956" lon="3.56869">
        <ele>1413.3870860975</ele>
        <time>2015-04-22T15:55:57Z</time>
      </trkpt>
      <trkpt lat="44.65948" lon="3.56875">
        <ele>1414.349700067</ele>
        <time>2015-04-22T15:56:02Z</time>
      </trkpt>
      <trkpt lat="44.65944" lon="3.5688">
        <ele>1414.349700067</ele>
        <time>2015-04-22T15:56:07Z</time>
      </trkpt>
      <trkpt lat="44.65937" lon="3.56887">
        <ele>1415.4324895285</ele>
        <time>2015-04-22T15:56:12Z</time>
      </trkpt>
      <trkpt lat="44.65931" lon="3.56895">
        <ele>1415.4324895285</ele>
        <time>2015-04-22T15:56:17Z</time>
      </trkpt>
      <trkpt lat="44.65921" lon="3.56907">
        <ele>1416.7376293713</ele>
        <time>2015-04-22T15:56:22Z</time>
      </trkpt>
      <trkpt lat="44.65913" lon="3.56919">
        <ele>1417.6242961414</ele>
        <time>2015-04-22T15:56:27Z</time>
      </trkpt>
      <trkpt lat="44.65909" lon="3.56938">
        <ele>1418.652907375</ele>
        <time>2015-04-22T15:56:32Z</time>
      </trkpt>
      <trkpt lat="44.65899" lon="3.56949">
        <ele>1420.1550783443</ele>
        <time>2015-04-22T15:56:37Z</time>
      </trkpt>
      <trkpt lat="44.65887" lon="3.56962">
        <ele>1421.7307042466</ele>
        <time>2015-04-22T15:56:42Z</time>
      </trkpt>
      <trkpt lat="44.65877" lon="3.56976">
        <ele>1422.7928164667</ele>
        <time>2015-04-22T15:56:47Z</time>
      </trkpt>
      <trkpt lat="44.65869" lon="3.57001">
        <ele>1423.418804195</ele>
        <time>2015-04-22T15:56:52Z</time>
      </trkpt>
      <trkpt lat="44.65856" lon="3.57031">
        <ele>1424.560796846</ele>
        <time>2015-04-22T15:56:57Z</time>
      </trkpt>
      <trkpt lat="44.65848" lon="3.57054">
        <ele>1425.4423792073</ele>
        <time>2015-04-22T15:57:02Z</time>
      </trkpt>
      <trkpt lat="44.65841" lon="3.57076">
        <ele>1426.0511693539</ele>
        <time>2015-04-22T15:57:07Z</time>
      </trkpt>
      <trkpt lat="44.65833" lon="3.5711">
        <ele>1426.7368593679</ele>
        <time>2015-04-22T15:57:12Z</time>
      </trkpt>
      <trkpt lat="44.65826" lon="3.57126">
        <ele>1427.7080679673</ele>
        <time>2015-04-22T15:57:17Z</time>
      </trkpt>
      <trkpt lat="44.65822" lon="3.57137">
        <ele>1428.5953713011</ele>
        <time>2015-04-22T15:57:22Z</time>
      </trkpt>
      <trkpt lat="44.65817" lon="3.57144">
        <ele>1428.5953713011</ele>
        <time>2015-04-22T15:57:27Z</time>
      </trkpt>
      <trkpt lat="44.65813" lon="3.57151">
        <ele>1429.0280100649</ele>
        <time>2015-04-22T15:57:32Z</time>
      </trkpt>
      <trkpt lat="44.65811" lon="3.5716">
        <ele>1429.0280100649</ele>
        <time>2015-04-22T15:57:37Z</time>
      </trkpt>
      <trkpt lat="44.65807" lon="3.57171">
        <ele>1429.831147597</ele>
        <time>2015-04-22T15:57:42Z</time>
      </trkpt>
      <trkpt lat="44.65803" lon="3.57178">
        <ele>1429.831147597</ele>
        <time>2015-04-22T15:57:47Z</time>
      </trkpt>
      <trkpt lat="44.65799" lon="3.57188">
        <ele>1430.6587437717</ele>
        <time>2015-04-22T15:57:52Z</time>
      </trkpt>
      <trkpt lat="44.65794" lon="3.57198">
        <ele>1430.6587437717</ele>
        <time>2015-04-22T15:57:57Z</time>
      </trkpt>
      <trkpt lat="44.6579" lon="3.57206">
        <ele>1430.9452243278</ele>
        <time>2015-04-22T15:58:02Z</time>
      </trkpt>
      <trkpt lat="44.65787" lon="3.5721">
        <ele>1430.9452243278</ele>
        <time>2015-04-22T15:58:07Z</time>
      </trkpt>
      <trkpt lat="44.65781" lon="3.5722">
        <ele>1431.2634233522</ele>
        <time>2015-04-22T15:58:12Z</time>
      </trkpt>
      <trkpt lat="44.65778" lon="3.5723">
        <ele>1431.2634233522</ele>
        <time>2015-04-22T15:58:17Z</time>
      </trkpt>
      <trkpt lat="44.65773" lon="3.57239">
        <ele>1431.04885358</ele>
        <time>2015-04-22T15:58:22Z</time>
      </trkpt>
      <trkpt lat="44.65771" lon="3.57248">
        <ele>1431.04885358</ele>
        <time>2015-04-22T15:58:27Z</time>
      </trkpt>
      <trkpt lat="44.65768" lon="3.57257">
        <ele>1430.0394727939</ele>
        <time>2015-04-22T15:58:32Z</time>
      </trkpt>
      <trkpt lat="44.65767" lon="3.57264">
        <ele>1430.0394727939</ele>
        <time>2015-04-22T15:58:37Z</time>
      </trkpt>
      <trkpt lat="44.65763" lon="3.57275">
        <ele>1429.853825403</ele>
        <time>2015-04-22T15:58:42Z</time>
      </trkpt>
      <trkpt lat="44.6576" lon="3.57283">
        <ele>1429.853825403</ele>
        <time>2015-04-22T15:58:47Z</time>
      </trkpt>
      <trkpt lat="44.65758" lon="3.57293">
        <ele>1430.0005765476</ele>
        <time>2015-04-22T15:58:52Z</time>
      </trkpt>
      <trkpt lat="44.65758" lon="3.57301">
        <ele>1430.0005765476</ele>
        <time>2015-04-22T15:58:57Z</time>
      </trkpt>
      <trkpt lat="44.65757" lon="3.57309">
        <ele>1430.9603289954</ele>
        <time>2015-04-22T15:59:02Z</time>
      </trkpt>
      <trkpt lat="44.65756" lon="3.57319">
        <ele>1430.9603289954</ele>
        <time>2015-04-22T15:59:07Z</time>
      </trkpt>
      <trkpt lat="44.65756" lon="3.57333">
        <ele>1431.1009463538</ele>
        <time>2015-04-22T15:59:12Z</time>
      </trkpt>
      <trkpt lat="44.65756" lon="3.57343">
        <ele>1431.1009463538</ele>
        <time>2015-04-22T15:59:17Z</time>
      </trkpt>
      <trkpt lat="44.65757" lon="3.57362">
        <ele>1431.3624186629</ele>
        <time>2015-04-22T15:59:22Z</time>
      </trkpt>
      <trkpt lat="44.65757" lon="3.57374">
        <ele>1431.3624186629</ele>
        <time>2015-04-22T15:59:27Z</time>
      </trkpt>
      <trkpt lat="44.65756" lon="3.57383">
        <ele>1430.9869279371</ele>
        <time>2015-04-22T15:59:32Z</time>
      </trkpt>
      <trkpt lat="44.65755" lon="3.57389">
        <ele>1430.9869279371</ele>
        <time>2015-04-22T15:59:37Z</time>
      </trkpt>
      <trkpt lat="44.65754" lon="3.57403">
        <ele>1430.4126225977</ele>
        <time>2015-04-22T15:59:42Z</time>
      </trkpt>
      <trkpt lat="44.65756" lon="3.57415">
        <ele>1430.4126225977</ele>
        <time>2015-04-22T15:59:47Z</time>
      </trkpt>
      <trkpt lat="44.65758" lon="3.57423">
        <ele>1429.8442915621</ele>
        <time>2015-04-22T15:59:52Z</time>
      </trkpt>
      <trkpt lat="44.65757" lon="3.57434">
        <ele>1429.8442915621</ele>
        <time>2015-04-22T15:59:57Z</time>
      </trkpt>
      <trkpt lat="44.65756" lon="3.57449">
        <ele>1430.1778252071</ele>
        <time>2015-04-22T16:00:02Z</time>
      </trkpt>
      <trkpt lat="44.65756" lon="3.57462">
        <ele>1429.8341249743</ele>
        <time>2015-04-22T16:00:07Z</time>
      </trkpt>
      <trkpt lat="44.65756" lon="3.57475">
        <ele>1429.3839614051</ele>
        <time>2015-04-22T16:00:12Z</time>
      </trkpt>
      <trkpt lat="44.65756" lon="3.57487">
        <ele>1429.3839614051</ele>
        <time>2015-04-22T16:00:17Z</time>
      </trkpt>
      <trkpt lat="44.65756" lon="3.57497">
        <ele>1428.6935594396</ele>
        <time>2015-04-22T16:00:22Z</time>
      </trkpt>
      <trkpt lat="44.65754" lon="3.57506">
        <ele>1428.6935594396</ele>
        <time>2015-04-22T16:00:27Z</time>
      </trkpt>
      <trkpt lat="44.65752" lon="3.57516">
        <ele>1427.2793546545</ele>
        <time>2015-04-22T16:00:32Z</time>
      </trkpt>
      <trkpt lat="44.65751" lon="3.57526">
        <ele>1427.2793546545</ele>
        <time>2015-04-22T16:00:37Z</time>
      </trkpt>
      <trkpt lat="44.6575" lon="3.57534">
        <ele>1425.5888018472</ele>
        <time>2015-04-22T16:00:42Z</time>
      </trkpt>
      <trkpt lat="44.6575" lon="3.57542">
        <ele>1425.5888018472</ele>
        <time>2015-04-22T16:00:47Z</time>
      </trkpt>
      <trkpt lat="44.65747" lon="3.57554">
        <ele>1425.2477625352</ele>
        <time>2015-04-22T16:00:52Z</time>
      </trkpt>
      <trkpt lat="44.65744" lon="3.5757">
        <ele>1425.2224797013</ele>
        <time>2015-04-22T16:00:57Z</time>
      </trkpt>
      <trkpt lat="44.65741" lon="3.57581">
        <ele>1425.2224797013</ele>
        <time>2015-04-22T16:01:02Z</time>
      </trkpt>
      <trkpt lat="44.65739" lon="3.57592">
        <ele>1424.6983122566</ele>
        <time>2015-04-22T16:01:07Z</time>
      </trkpt>
      <trkpt lat="44.65742" lon="3.57606">
        <ele>1423.8441196998</ele>
        <time>2015-04-22T16:01:12Z</time>
      </trkpt>
      <trkpt lat="44.65749" lon="3.57612">
        <ele>1423.8441196998</ele>
        <time>2015-04-22T16:01:17Z</time>
      </trkpt>
      <trkpt lat="44.65758" lon="3.57614">
        <ele>1423.4513162125</ele>
        <time>2015-04-22T16:01:22Z</time>
      </trkpt>
      <trkpt lat="44.65764" lon="3.57616">
        <ele>1423.4513162125</ele>
        <time>2015-04-22T16:01:27Z</time>
      </trkpt>
      <trkpt lat="44.65771" lon="3.57619">
        <ele>1423.0557034264</ele>
        <time>2015-04-22T16:01:32Z</time>
      </trkpt>
      <trkpt lat="44.65778" lon="3.57621">
        <ele>1423.0557034264</ele>
        <time>2015-04-22T16:01:37Z</time>
      </trkpt>
      <trkpt lat="44.65783" lon="3.57628">
        <ele>1422.1983060741</ele>
        <time>2015-04-22T16:01:42Z</time>
      </trkpt>
      <trkpt lat="44.6579" lon="3.57632">
        <ele>1422.1983060741</ele>
        <time>2015-04-22T16:01:47Z</time>
      </trkpt>
      <trkpt lat="44.65796" lon="3.57636">
        <ele>1421.146828095</ele>
        <time>2015-04-22T16:01:52Z</time>
      </trkpt>
      <trkpt lat="44.65803" lon="3.57637">
        <ele>1421.146828095</ele>
        <time>2015-04-22T16:01:57Z</time>
      </trkpt>
      <trkpt lat="44.65809" lon="3.57639">
        <ele>1419.8903824475</ele>
        <time>2015-04-22T16:02:02Z</time>
      </trkpt>
      <trkpt lat="44.65816" lon="3.57642">
        <ele>1419.8903824475</ele>
        <time>2015-04-22T16:02:07Z</time>
      </trkpt>
      <trkpt lat="44.65822" lon="3.57646">
        <ele>1418.3761479318</ele>
        <time>2015-04-22T16:02:12Z</time>
      </trkpt>
      <trkpt lat="44.65827" lon="3.57651">
        <ele>1418.3761479318</ele>
        <time>2015-04-22T16:02:17Z</time>
      </trkpt>
      <trkpt lat="44.65831" lon="3.57657">
        <ele>1416.3396567957</ele>
        <time>2015-04-22T16:02:22Z</time>
      </trkpt>
      <trkpt lat="44.65834" lon="3.57666">
        <ele>1416.3396567957</ele>
        <time>2015-04-22T16:02:27Z</time>
      </trkpt>
      <trkpt lat="44.65839" lon="3.57674">
        <ele>1414.3442647286</ele>
        <time>2015-04-22T16:02:32Z</time>
      </trkpt>
      <trkpt lat="44.65846" lon="3.57682">
        <ele>1414.3442647286</ele>
        <time>2015-04-22T16:02:37Z</time>
      </trkpt>
      <trkpt lat="44.65848" lon="3.57693">
        <ele>1412.0182372135</ele>
        <time>2015-04-22T16:02:42Z</time>
      </trkpt>
      <trkpt lat="44.65854" lon="3.57698">
        <ele>1412.0182372135</ele>
        <time>2015-04-22T16:02:47Z</time>
      </trkpt>
      <trkpt lat="44.65865" lon="3.57708">
        <ele>1411.4678549256</ele>
        <time>2015-04-22T16:02:52Z</time>
      </trkpt>
      <trkpt lat="44.65868" lon="3.57715">
        <ele>1411.4678549256</ele>
        <time>2015-04-22T16:02:57Z</time>
      </trkpt>
      <trkpt lat="44.65871" lon="3.57723">
        <ele>1410.0712504981</ele>
        <time>2015-04-22T16:03:02Z</time>
      </trkpt>
      <trkpt lat="44.65872" lon="3.5773">
        <ele>1410.0712504981</ele>
        <time>2015-04-22T16:03:07Z</time>
      </trkpt>
      <trkpt lat="44.65877" lon="3.57739">
        <ele>1408.2259883369</ele>
        <time>2015-04-22T16:03:12Z</time>
      </trkpt>
      <trkpt lat="44.65882" lon="3.57748">
        <ele>1408.2259883369</ele>
        <time>2015-04-22T16:03:17Z</time>
      </trkpt>
      <trkpt lat="44.65891" lon="3.57756">
        <ele>1406.2006830504</ele>
        <time>2015-04-22T16:03:22Z</time>
      </trkpt>
      <trkpt lat="44.65897" lon="3.57762">
        <ele>1406.2006830504</ele>
        <time>2015-04-22T16:03:27Z</time>
      </trkpt>
      <trkpt lat="44.65898" lon="3.57771">
        <ele>1403.6393247868</ele>
        <time>2015-04-22T16:03:32Z</time>
      </trkpt>
      <trkpt lat="44.65902" lon="3.5778">
        <ele>1403.6393247868</ele>
        <time>2015-04-22T16:03:37Z</time>
      </trkpt>
      <trkpt lat="44.65909" lon="3.57788">
        <ele>1402.4615589947</ele>
        <time>2015-04-22T16:03:42Z</time>
      </trkpt>
      <trkpt lat="44.65917" lon="3.57797">
        <ele>1401.7759389774</ele>
        <time>2015-04-22T16:03:47Z</time>
      </trkpt>
      <trkpt lat="44.65921" lon="3.57805">
        <ele>1401.7759389774</ele>
        <time>2015-04-22T16:03:52Z</time>
      </trkpt>
      <trkpt lat="44.65927" lon="3.57815">
        <ele>1401.2305511743</ele>
        <time>2015-04-22T16:03:57Z</time>
      </trkpt>
      <trkpt lat="44.6593" lon="3.57822">
        <ele>1401.2305511743</ele>
        <time>2015-04-22T16:04:02Z</time>
      </trkpt>
      <trkpt lat="44.65933" lon="3.57832">
        <ele>1400.6861498241</ele>
        <time>2015-04-22T16:04:07Z</time>
      </trkpt>
      <trkpt lat="44.65936" lon="3.57846">
        <ele>1400.0279983893</ele>
        <time>2015-04-22T16:04:12Z</time>
      </trkpt>
      <trkpt lat="44.6594" lon="3.57856">
        <ele>1400.0279983893</ele>
        <time>2015-04-22T16:04:17Z</time>
      </trkpt>
      <trkpt lat="44.65943" lon="3.57864">
        <ele>1400.1155333164</ele>
        <time>2015-04-22T16:04:22Z</time>
      </trkpt>
      <trkpt lat="44.65946" lon="3.57875">
        <ele>1400.1155333164</ele>
        <time>2015-04-22T16:04:27Z</time>
      </trkpt>
      <trkpt lat="44.65947" lon="3.57883">
        <ele>1399.9558764656</ele>
        <time>2015-04-22T16:04:32Z</time>
      </trkpt>
      <trkpt lat="44.65951" lon="3.57893">
        <ele>1399.9558764656</ele>
        <time>2015-04-22T16:04:37Z</time>
      </trkpt>
      <trkpt lat="44.65956" lon="3.57901">
        <ele>1399.6961007841</ele>
        <time>2015-04-22T16:04:42Z</time>
      </trkpt>
      <trkpt lat="44.65963" lon="3.5791">
        <ele>1399.3717866296</ele>
        <time>2015-04-22T16:04:47Z</time>
      </trkpt>
      <trkpt lat="44.65969" lon="3.57919">
        <ele>1399.3330442902</ele>
        <time>2015-04-22T16:04:52Z</time>
      </trkpt>
      <trkpt lat="44.65976" lon="3.57926">
        <ele>1399.3330442902</ele>
        <time>2015-04-22T16:04:57Z</time>
      </trkpt>
      <trkpt lat="44.65985" lon="3.5793">
        <ele>1399.9178032604</ele>
        <time>2015-04-22T16:05:02Z</time>
      </trkpt>
      <trkpt lat="44.65993" lon="3.57934">
        <ele>1400.8753257062</ele>
        <time>2015-04-22T16:05:07Z</time>
      </trkpt>
      <trkpt lat="44.66001" lon="3.57944">
        <ele>1402.1018999952</ele>
        <time>2015-04-22T16:05:12Z</time>
      </trkpt>
      <trkpt lat="44.66012" lon="3.57946">
        <ele>1403.3709464153</ele>
        <time>2015-04-22T16:05:17Z</time>
      </trkpt>
      <trkpt lat="44.66016" lon="3.57949">
        <ele>1403.3709464153</ele>
        <time>2015-04-22T16:05:22Z</time>
      </trkpt>
      <trkpt lat="44.66021" lon="3.5795">
        <ele>1404.6885619626</ele>
        <time>2015-04-22T16:05:27Z</time>
      </trkpt>
      <trkpt lat="44.66026" lon="3.57955">
        <ele>1404.6885619626</ele>
        <time>2015-04-22T16:05:32Z</time>
      </trkpt>
      <trkpt lat="44.66031" lon="3.57959">
        <ele>1404.3309238095</ele>
        <time>2015-04-22T16:05:37Z</time>
      </trkpt>
      <trkpt lat="44.66039" lon="3.57963">
        <ele>1404.3309238095</ele>
        <time>2015-04-22T16:05:42Z</time>
      </trkpt>
      <trkpt lat="44.66045" lon="3.57967">
        <ele>1404.0201058238</ele>
        <time>2015-04-22T16:05:47Z</time>
      </trkpt>
      <trkpt lat="44.66051" lon="3.57968">
        <ele>1404.0201058238</ele>
        <time>2015-04-22T16:05:52Z</time>
      </trkpt>
      <trkpt lat="44.66058" lon="3.57971">
        <ele>1404.2419090837</ele>
        <time>2015-04-22T16:05:57Z</time>
      </trkpt>
      <trkpt lat="44.66067" lon="3.57976">
        <ele>1403.9606297167</ele>
        <time>2015-04-22T16:06:02Z</time>
      </trkpt>
      <trkpt lat="44.66078" lon="3.57981">
        <ele>1403.7888918341</ele>
        <time>2015-04-22T16:06:07Z</time>
      </trkpt>
      <trkpt lat="44.66087" lon="3.57987">
        <ele>1403.9914011337</ele>
        <time>2015-04-22T16:06:12Z</time>
      </trkpt>
      <trkpt lat="44.66095" lon="3.57991">
        <ele>1403.9914011337</ele>
        <time>2015-04-22T16:06:17Z</time>
      </trkpt>
      <trkpt lat="44.66106" lon="3.58">
        <ele>1403.8180286933</ele>
        <time>2015-04-22T16:06:22Z</time>
      </trkpt>
      <trkpt lat="44.66115" lon="3.58008">
        <ele>1403.4539109354</ele>
        <time>2015-04-22T16:06:27Z</time>
      </trkpt>
      <trkpt lat="44.66118" lon="3.58013">
        <ele>1403.4539109354</ele>
        <time>2015-04-22T16:06:32Z</time>
      </trkpt>
      <trkpt lat="44.66122" lon="3.58017">
        <ele>1402.3505919821</ele>
        <time>2015-04-22T16:06:37Z</time>
      </trkpt>
      <trkpt lat="44.66127" lon="3.58022">
        <ele>1402.3505919821</ele>
        <time>2015-04-22T16:06:42Z</time>
      </trkpt>
      <trkpt lat="44.66133" lon="3.5803">
        <ele>1401.6448733347</ele>
        <time>2015-04-22T16:06:47Z</time>
      </trkpt>
      <trkpt lat="44.66145" lon="3.58037">
        <ele>1401.4234123696</ele>
        <time>2015-04-22T16:06:52Z</time>
      </trkpt>
      <trkpt lat="44.66151" lon="3.58039">
        <ele>1401.4234123696</ele>
        <time>2015-04-22T16:06:57Z</time>
      </trkpt>
      <trkpt lat="44.66159" lon="3.58047">
        <ele>1401.3184201361</ele>
        <time>2015-04-22T16:07:02Z</time>
      </trkpt>
      <trkpt lat="44.66162" lon="3.58053">
        <ele>1401.3184201361</ele>
        <time>2015-04-22T16:07:07Z</time>
      </trkpt>
      <trkpt lat="44.66169" lon="3.58061">
        <ele>1401.4932094327</ele>
        <time>2015-04-22T16:07:12Z</time>
      </trkpt>
      <trkpt lat="44.66177" lon="3.58071">
        <ele>1401.3777781953</ele>
        <time>2015-04-22T16:07:17Z</time>
      </trkpt>
      <trkpt lat="44.66179" lon="3.58078">
        <ele>1401.3777781953</ele>
        <time>2015-04-22T16:07:22Z</time>
      </trkpt>
      <trkpt lat="44.66182" lon="3.58085">
        <ele>1400.1421996431</ele>
        <time>2015-04-22T16:07:27Z</time>
      </trkpt>
      <trkpt lat="44.66186" lon="3.58091">
        <ele>1400.1421996431</ele>
        <time>2015-04-22T16:07:32Z</time>
      </trkpt>
      <trkpt lat="44.6619" lon="3.58101">
        <ele>1398.8076545458</ele>
        <time>2015-04-22T16:07:37Z</time>
      </trkpt>
      <trkpt lat="44.66198" lon="3.58108">
        <ele>1398.8076545458</ele>
        <time>2015-04-22T16:07:42Z</time>
      </trkpt>
      <trkpt lat="44.66205" lon="3.58115">
        <ele>1398.3638373539</ele>
        <time>2015-04-22T16:07:47Z</time>
      </trkpt>
      <trkpt lat="44.66214" lon="3.5812">
        <ele>1398.3273775744</ele>
        <time>2015-04-22T16:07:52Z</time>
      </trkpt>
      <trkpt lat="44.66222" lon="3.58127">
        <ele>1398.3645709752</ele>
        <time>2015-04-22T16:07:57Z</time>
      </trkpt>
      <trkpt lat="44.66229" lon="3.58133">
        <ele>1398.3645709752</ele>
        <time>2015-04-22T16:08:02Z</time>
      </trkpt>
      <trkpt lat="44.66233" lon="3.58139">
        <ele>1398.5118995938</ele>
        <time>2015-04-22T16:08:07Z</time>
      </trkpt>
      <trkpt lat="44.66239" lon="3.58147">
        <ele>1398.5118995938</ele>
        <time>2015-04-22T16:08:12Z</time>
      </trkpt>
      <trkpt lat="44.66242" lon="3.58157">
        <ele>1398.6011158485</ele>
        <time>2015-04-22T16:08:17Z</time>
      </trkpt>
      <trkpt lat="44.66245" lon="3.58167">
        <ele>1398.6011158485</ele>
        <time>2015-04-22T16:08:22Z</time>
      </trkpt>
      <trkpt lat="44.66247" lon="3.58176">
        <ele>1398.3035785618</ele>
        <time>2015-04-22T16:08:27Z</time>
      </trkpt>
      <trkpt lat="44.6625" lon="3.58187">
        <ele>1398.3035785618</ele>
        <time>2015-04-22T16:08:32Z</time>
      </trkpt>
      <trkpt lat="44.66251" lon="3.58195">
        <ele>1397.7770479765</ele>
        <time>2015-04-22T16:08:37Z</time>
      </trkpt>
      <trkpt lat="44.66256" lon="3.58208">
        <ele>1397.5142242414</ele>
        <time>2015-04-22T16:08:42Z</time>
      </trkpt>
      <trkpt lat="44.66261" lon="3.58218">
        <ele>1397.1062263627</ele>
        <time>2015-04-22T16:08:47Z</time>
      </trkpt>
      <trkpt lat="44.66257" lon="3.5823">
        <ele>1395.5117211892</ele>
        <time>2015-04-22T16:08:52Z</time>
      </trkpt>
      <trkpt lat="44.66259" lon="3.58241">
        <ele>1395.5117211892</ele>
        <time>2015-04-22T16:08:57Z</time>
      </trkpt>
      <trkpt lat="44.66261" lon="3.58253">
        <ele>1394.5073240046</ele>
        <time>2015-04-22T16:09:02Z</time>
      </trkpt>
      <trkpt lat="44.66262" lon="3.58262">
        <ele>1394.5073240046</ele>
        <time>2015-04-22T16:09:07Z</time>
      </trkpt>
      <trkpt lat="44.66266" lon="3.58267">
        <ele>1393.2011354657</ele>
        <time>2015-04-22T16:09:12Z</time>
      </trkpt>
      <trkpt lat="44.66268" lon="3.58276">
        <ele>1393.2011354657</ele>
        <time>2015-04-22T16:09:17Z</time>
      </trkpt>
      <trkpt lat="44.66269" lon="3.58289">
        <ele>1391.805220983</ele>
        <time>2015-04-22T16:09:22Z</time>
      </trkpt>
      <trkpt lat="44.6627" lon="3.58301">
        <ele>1391.805220983</ele>
        <time>2015-04-22T16:09:27Z</time>
      </trkpt>
      <trkpt lat="44.66273" lon="3.58308">
        <ele>1389.8822210285</ele>
        <time>2015-04-22T16:09:32Z</time>
      </trkpt>
      <trkpt lat="44.66271" lon="3.58316">
        <ele>1389.8822210285</ele>
        <time>2015-04-22T16:09:37Z</time>
      </trkpt>
      <trkpt lat="44.66273" lon="3.58326">
        <ele>1387.8497983656</ele>
        <time>2015-04-22T16:09:42Z</time>
      </trkpt>
      <trkpt lat="44.66279" lon="3.58337">
        <ele>1386.3257921106</ele>
        <time>2015-04-22T16:09:47Z</time>
      </trkpt>
      <trkpt lat="44.66288" lon="3.58346">
        <ele>1384.9156481937</ele>
        <time>2015-04-22T16:09:52Z</time>
      </trkpt>
      <trkpt lat="44.66296" lon="3.5835">
        <ele>1384.9156481937</ele>
        <time>2015-04-22T16:09:57Z</time>
      </trkpt>
      <trkpt lat="44.66303" lon="3.58352">
        <ele>1383.4263663309</ele>
        <time>2015-04-22T16:10:02Z</time>
      </trkpt>
      <trkpt lat="44.66312" lon="3.58353">
        <ele>1383.4263663309</ele>
        <time>2015-04-22T16:10:07Z</time>
      </trkpt>
      <trkpt lat="44.66321" lon="3.58356">
        <ele>1382.3854413557</ele>
        <time>2015-04-22T16:10:12Z</time>
      </trkpt>
      <trkpt lat="44.66333" lon="3.58357">
        <ele>1381.4012300907</ele>
        <time>2015-04-22T16:10:17Z</time>
      </trkpt>
      <trkpt lat="44.66345" lon="3.58353">
        <ele>1380.2691675436</ele>
        <time>2015-04-22T16:10:22Z</time>
      </trkpt>
      <trkpt lat="44.66353" lon="3.58352">
        <ele>1380.2691675436</ele>
        <time>2015-04-22T16:10:27Z</time>
      </trkpt>
      <trkpt lat="44.6636" lon="3.58349">
        <ele>1379.2756417504</ele>
        <time>2015-04-22T16:10:32Z</time>
      </trkpt>
      <trkpt lat="44.66367" lon="3.58347">
        <ele>1379.2756417504</ele>
        <time>2015-04-22T16:10:37Z</time>
      </trkpt>
      <trkpt lat="44.66376" lon="3.58346">
        <ele>1378.4261584615</ele>
        <time>2015-04-22T16:10:42Z</time>
      </trkpt>
      <trkpt lat="44.66383" lon="3.58344">
        <ele>1378.4261584615</ele>
        <time>2015-04-22T16:10:47Z</time>
      </trkpt>
      <trkpt lat="44.66393" lon="3.58343">
        <ele>1377.4947818112</ele>
        <time>2015-04-22T16:10:52Z</time>
      </trkpt>
      <trkpt lat="44.66407" lon="3.5834">
        <ele>1376.6614487159</ele>
        <time>2015-04-22T16:10:57Z</time>
      </trkpt>
      <trkpt lat="44.66415" lon="3.58337">
        <ele>1376.6614487159</ele>
        <time>2015-04-22T16:11:02Z</time>
      </trkpt>
      <trkpt lat="44.66422" lon="3.58335">
        <ele>1375.6169830816</ele>
        <time>2015-04-22T16:11:07Z</time>
      </trkpt>
      <trkpt lat="44.66429" lon="3.58334">
        <ele>1375.6169830816</ele>
        <time>2015-04-22T16:11:12Z</time>
      </trkpt>
      <trkpt lat="44.66434" lon="3.58333">
        <ele>1374.7960173417</ele>
        <time>2015-04-22T16:11:17Z</time>
      </trkpt>
      <trkpt lat="44.66441" lon="3.58331">
        <ele>1374.7960173417</ele>
        <time>2015-04-22T16:11:22Z</time>
      </trkpt>
      <trkpt lat="44.66448" lon="3.5833">
        <ele>1373.9809011656</ele>
        <time>2015-04-22T16:11:27Z</time>
      </trkpt>
      <trkpt lat="44.66457" lon="3.58328">
        <ele>1373.2148972032</ele>
        <time>2015-04-22T16:11:32Z</time>
      </trkpt>
      <trkpt lat="44.66463" lon="3.58327">
        <ele>1373.2148972032</ele>
        <time>2015-04-22T16:11:37Z</time>
      </trkpt>
      <trkpt lat="44.66469" lon="3.58325">
        <ele>1372.7973070322</ele>
        <time>2015-04-22T16:11:42Z</time>
      </trkpt>
      <trkpt lat="44.66477" lon="3.58321">
        <ele>1372.7973070322</ele>
        <time>2015-04-22T16:11:47Z</time>
      </trkpt>
      <trkpt lat="44.66484" lon="3.58316">
        <ele>1372.0388810758</ele>
        <time>2015-04-22T16:11:52Z</time>
      </trkpt>
      <trkpt lat="44.6649" lon="3.58312">
        <ele>1372.0388810758</ele>
        <time>2015-04-22T16:11:57Z</time>
      </trkpt>
      <trkpt lat="44.66496" lon="3.58309">
        <ele>1371.3827524814</ele>
        <time>2015-04-22T16:12:02Z</time>
      </trkpt>
      <trkpt lat="44.66503" lon="3.58309">
        <ele>1371.3827524814</ele>
        <time>2015-04-22T16:12:07Z</time>
      </trkpt>
      <trkpt lat="44.66511" lon="3.58313">
        <ele>1370.9365464358</ele>
        <time>2015-04-22T16:12:12Z</time>
      </trkpt>
      <trkpt lat="44.66519" lon="3.58329">
        <ele>1370.5543729448</ele>
        <time>2015-04-22T16:12:17Z</time>
      </trkpt>
      <trkpt lat="44.66532" lon="3.58352">
        <ele>1370.4899529216</ele>
        <time>2015-04-22T16:12:22Z</time>
      </trkpt>
      <trkpt lat="44.66538" lon="3.58357">
        <ele>1370.4899529216</ele>
        <time>2015-04-22T16:12:27Z</time>
      </trkpt>
      <trkpt lat="44.66543" lon="3.58363">
        <ele>1370.4298341278</ele>
        <time>2015-04-22T16:12:32Z</time>
      </trkpt>
      <trkpt lat="44.66548" lon="3.58373">
        <ele>1370.4298341278</ele>
        <time>2015-04-22T16:12:37Z</time>
      </trkpt>
      <trkpt lat="44.66553" lon="3.58381">
        <ele>1370.4438413692</ele>
        <time>2015-04-22T16:12:42Z</time>
      </trkpt>
      <trkpt lat="44.66557" lon="3.58388">
        <ele>1370.4438413692</ele>
        <time>2015-04-22T16:12:47Z</time>
      </trkpt>
      <trkpt lat="44.66563" lon="3.58399">
        <ele>1370.6540989092</ele>
        <time>2015-04-22T16:12:52Z</time>
      </trkpt>
      <trkpt lat="44.66566" lon="3.58407">
        <ele>1370.6540989092</ele>
        <time>2015-04-22T16:12:57Z</time>
      </trkpt>
      <trkpt lat="44.6657" lon="3.58414">
        <ele>1370.6255860627</ele>
        <time>2015-04-22T16:13:02Z</time>
      </trkpt>
      <trkpt lat="44.66574" lon="3.5842">
        <ele>1370.6255860627</ele>
        <time>2015-04-22T16:13:07Z</time>
      </trkpt>
      <trkpt lat="44.66579" lon="3.5843">
        <ele>1370.7917593178</ele>
        <time>2015-04-22T16:13:12Z</time>
      </trkpt>
      <trkpt lat="44.66582" lon="3.58437">
        <ele>1370.7917593178</ele>
        <time>2015-04-22T16:13:17Z</time>
      </trkpt>
      <trkpt lat="44.66583" lon="3.58443">
        <ele>1371.0637227207</ele>
        <time>2015-04-22T16:13:22Z</time>
      </trkpt>
      <trkpt lat="44.66583" lon="3.58444">
        <ele>1371.0637227207</ele>
        <time>2015-04-22T16:13:27Z</time>
      </trkpt>
      <trkpt lat="44.66583" lon="3.58445">
        <ele>1371.0637227207</ele>
        <time>2015-04-22T16:13:32Z</time>
      </trkpt>
      <trkpt lat="44.66583" lon="3.58445">
        <ele>1371.0637227207</ele>
        <time>2015-04-22T16:13:37Z</time>
      </trkpt>
      <trkpt lat="44.66584" lon="3.58444">
        <ele>1371.0637227207</ele>
        <time>2015-04-22T16:13:42Z</time>
      </trkpt>
      <trkpt lat="44.66584" lon="3.58445">
        <ele>1371.0637227207</ele>
        <time>2015-04-22T16:13:47Z</time>
      </trkpt>
      <trkpt lat="44.66584" lon="3.58445">
        <ele>1371.0637227207</ele>
        <time>2015-04-22T16:13:52Z</time>
      </trkpt>
      <trkpt lat="44.66584" lon="3.58446">
        <ele>1371.0637227207</ele>
        <time>2015-04-22T16:13:57Z</time>
      </trkpt>
      <trkpt lat="44.66584" lon="3.58446">
        <ele>1371.0637227207</ele>
        <time>2015-04-22T16:14:02Z</time>
      </trkpt>
      <trkpt lat="44.66585" lon="3.58448">
        <ele>1371.0637227207</ele>
        <time>2015-04-22T16:14:07Z</time>
      </trkpt>
      <trkpt lat="44.66591" lon="3.58455">
        <ele>1371.0129662429</ele>
        <time>2015-04-22T16:14:12Z</time>
      </trkpt>
      <trkpt lat="44.66594" lon="3.58462">
        <ele>1371.0129662429</ele>
        <time>2015-04-22T16:14:17Z</time>
      </trkpt>
      <trkpt lat="44.66598" lon="3.58469">
        <ele>1371.1368775059</ele>
        <time>2015-04-22T16:14:22Z</time>
      </trkpt>
      <trkpt lat="44.66603" lon="3.58474">
        <ele>1371.1368775059</ele>
        <time>2015-04-22T16:14:27Z</time>
      </trkpt>
      <trkpt lat="44.66608" lon="3.5848">
        <ele>1371.0311792116</ele>
        <time>2015-04-22T16:14:32Z</time>
      </trkpt>
      <trkpt lat="44.66612" lon="3.58483">
        <ele>1371.0311792116</ele>
        <time>2015-04-22T16:14:37Z</time>
      </trkpt>
      <trkpt lat="44.66618" lon="3.58487">
        <ele>1370.8695923366</ele>
        <time>2015-04-22T16:14:42Z</time>
      </trkpt>
      <trkpt lat="44.66623" lon="3.58492">
        <ele>1370.8695923366</ele>
        <time>2015-04-22T16:14:47Z</time>
      </trkpt>
      <trkpt lat="44.66625" lon="3.58497">
        <ele>1370.539458273</ele>
        <time>2015-04-22T16:14:52Z</time>
      </trkpt>
      <trkpt lat="44.66628" lon="3.58508">
        <ele>1370.539458273</ele>
        <time>2015-04-22T16:14:57Z</time>
      </trkpt>
      <trkpt lat="44.66634" lon="3.58513">
        <ele>1369.9369045655</ele>
        <time>2015-04-22T16:15:02Z</time>
      </trkpt>
      <trkpt lat="44.6664" lon="3.58519">
        <ele>1369.9369045655</ele>
        <time>2015-04-22T16:15:07Z</time>
      </trkpt>
      <trkpt lat="44.66644" lon="3.58524">
        <ele>1369.1394238015</ele>
        <time>2015-04-22T16:15:12Z</time>
      </trkpt>
      <trkpt lat="44.66649" lon="3.58527">
        <ele>1369.1394238015</ele>
        <time>2015-04-22T16:15:17Z</time>
      </trkpt>
      <trkpt lat="44.66652" lon="3.58532">
        <ele>1367.7726524611</ele>
        <time>2015-04-22T16:15:22Z</time>
      </trkpt>
      <trkpt lat="44.66655" lon="3.58536">
        <ele>1367.7726524611</ele>
        <time>2015-04-22T16:15:27Z</time>
      </trkpt>
      <trkpt lat="44.66663" lon="3.58541">
        <ele>1365.6066417567</ele>
        <time>2015-04-22T16:15:32Z</time>
      </trkpt>
      <trkpt lat="44.66671" lon="3.58546">
        <ele>1365.6066417567</ele>
        <time>2015-04-22T16:15:37Z</time>
      </trkpt>
      <trkpt lat="44.66677" lon="3.58552">
        <ele>1363.6267195335</ele>
        <time>2015-04-22T16:15:42Z</time>
      </trkpt>
      <trkpt lat="44.66681" lon="3.58559">
        <ele>1363.6267195335</ele>
        <time>2015-04-22T16:15:47Z</time>
      </trkpt>
      <trkpt lat="44.66687" lon="3.58562">
        <ele>1361.79418598</ele>
        <time>2015-04-22T16:15:52Z</time>
      </trkpt>
      <trkpt lat="44.66693" lon="3.5857">
        <ele>1361.79418598</ele>
        <time>2015-04-22T16:15:57Z</time>
      </trkpt>
      <trkpt lat="44.66697" lon="3.58577">
        <ele>1360.375403232</ele>
        <time>2015-04-22T16:16:02Z</time>
      </trkpt>
      <trkpt lat="44.66699" lon="3.58586">
        <ele>1360.375403232</ele>
        <time>2015-04-22T16:16:07Z</time>
      </trkpt>
      <trkpt lat="44.66698" lon="3.58595">
        <ele>1358.4486940686</ele>
        <time>2015-04-22T16:16:12Z</time>
      </trkpt>
      <trkpt lat="44.66699" lon="3.58604">
        <ele>1358.4486940686</ele>
        <time>2015-04-22T16:16:17Z</time>
      </trkpt>
      <trkpt lat="44.66699" lon="3.58613">
        <ele>1356.1558580656</ele>
        <time>2015-04-22T16:16:22Z</time>
      </trkpt>
      <trkpt lat="44.667" lon="3.58622">
        <ele>1356.1558580656</ele>
        <time>2015-04-22T16:16:27Z</time>
      </trkpt>
      <trkpt lat="44.66701" lon="3.58632">
        <ele>1353.8454417865</ele>
        <time>2015-04-22T16:16:32Z</time>
      </trkpt>
      <trkpt lat="44.667" lon="3.58641">
        <ele>1353.8454417865</ele>
        <time>2015-04-22T16:16:37Z</time>
      </trkpt>
      <trkpt lat="44.66699" lon="3.58652">
        <ele>1351.2639518431</ele>
        <time>2015-04-22T16:16:42Z</time>
      </trkpt>
      <trkpt lat="44.66699" lon="3.58662">
        <ele>1351.2639518431</ele>
        <time>2015-04-22T16:16:47Z</time>
      </trkpt>
      <trkpt lat="44.66698" lon="3.58671">
        <ele>1348.9554258093</ele>
        <time>2015-04-22T16:16:52Z</time>
      </trkpt>
      <trkpt lat="44.66697" lon="3.58681">
        <ele>1348.9554258093</ele>
        <time>2015-04-22T16:16:57Z</time>
      </trkpt>
      <trkpt lat="44.66697" lon="3.58691">
        <ele>1346.5584419962</ele>
        <time>2015-04-22T16:17:02Z</time>
      </trkpt>
      <trkpt lat="44.66696" lon="3.587">
        <ele>1346.5584419962</ele>
        <time>2015-04-22T16:17:07Z</time>
      </trkpt>
      <trkpt lat="44.66698" lon="3.58708">
        <ele>1344.1129940871</ele>
        <time>2015-04-22T16:17:12Z</time>
      </trkpt>
      <trkpt lat="44.66701" lon="3.58717">
        <ele>1344.1129940871</ele>
        <time>2015-04-22T16:17:17Z</time>
      </trkpt>
      <trkpt lat="44.66701" lon="3.58727">
        <ele>1341.2238589988</ele>
        <time>2015-04-22T16:17:22Z</time>
      </trkpt>
      <trkpt lat="44.66702" lon="3.58734">
        <ele>1341.2238589988</ele>
        <time>2015-04-22T16:17:27Z</time>
      </trkpt>
      <trkpt lat="44.66701" lon="3.58742">
        <ele>1338.2753786375</ele>
        <time>2015-04-22T16:17:32Z</time>
      </trkpt>
      <trkpt lat="44.66699" lon="3.58752">
        <ele>1338.2753786375</ele>
        <time>2015-04-22T16:17:37Z</time>
      </trkpt>
      <trkpt lat="44.66699" lon="3.58763">
        <ele>1335.321094273</ele>
        <time>2015-04-22T16:17:42Z</time>
      </trkpt>
      <trkpt lat="44.66699" lon="3.58771">
        <ele>1335.321094273</ele>
        <time>2015-04-22T16:17:47Z</time>
      </trkpt>
      <trkpt lat="44.66699" lon="3.5878">
        <ele>1332.3240538544</ele>
        <time>2015-04-22T16:17:52Z</time>
      </trkpt>
      <trkpt lat="44.66699" lon="3.58788">
        <ele>1332.3240538544</ele>
        <time>2015-04-22T16:17:57Z</time>
      </trkpt>
      <trkpt lat="44.667" lon="3.58798">
        <ele>1329.3653095796</ele>
        <time>2015-04-22T16:18:02Z</time>
      </trkpt>
      <trkpt lat="44.66701" lon="3.58809">
        <ele>1329.3653095796</ele>
        <time>2015-04-22T16:18:07Z</time>
      </trkpt>
      <trkpt lat="44.66701" lon="3.58818">
        <ele>1326.3179689072</ele>
        <time>2015-04-22T16:18:12Z</time>
      </trkpt>
      <trkpt lat="44.66702" lon="3.58818">
        <ele>1326.3179689072</ele>
        <time>2015-04-22T16:18:17Z</time>
      </trkpt>
      <trkpt lat="44.66704" lon="3.5882">
        <ele>1326.3179689072</ele>
        <time>2015-04-22T16:18:22Z</time>
      </trkpt>
      <trkpt lat="44.66703" lon="3.58821">
        <ele>1326.3179689072</ele>
        <time>2015-04-22T16:18:27Z</time>
      </trkpt>
      <trkpt lat="44.66702" lon="3.5883">
        <ele>1324.2030538752</ele>
        <time>2015-04-22T16:18:32Z</time>
      </trkpt>
      <trkpt lat="44.66704" lon="3.58838">
        <ele>1324.2030538752</ele>
        <time>2015-04-22T16:18:37Z</time>
      </trkpt>
      <trkpt lat="44.66703" lon="3.58846">
        <ele>1321.5139386078</ele>
        <time>2015-04-22T16:18:42Z</time>
      </trkpt>
      <trkpt lat="44.66703" lon="3.58854">
        <ele>1321.5139386078</ele>
        <time>2015-04-22T16:18:47Z</time>
      </trkpt>
      <trkpt lat="44.66703" lon="3.58867">
        <ele>1319.0466321021</ele>
        <time>2015-04-22T16:18:52Z</time>
      </trkpt>
      <trkpt lat="44.66705" lon="3.58876">
        <ele>1319.0466321021</ele>
        <time>2015-04-22T16:18:57Z</time>
      </trkpt>
      <trkpt lat="44.66706" lon="3.5889">
        <ele>1316.2841362542</ele>
        <time>2015-04-22T16:19:02Z</time>
      </trkpt>
      <trkpt lat="44.66704" lon="3.58898">
        <ele>1316.2841362542</ele>
        <time>2015-04-22T16:19:07Z</time>
      </trkpt>
      <trkpt lat="44.66705" lon="3.58907">
        <ele>1313.8289492613</ele>
        <time>2015-04-22T16:19:12Z</time>
      </trkpt>
      <trkpt lat="44.66704" lon="3.58916">
        <ele>1313.8289492613</ele>
        <time>2015-04-22T16:19:17Z</time>
      </trkpt>
      <trkpt lat="44.66703" lon="3.58922">
        <ele>1313.8235306253</ele>
        <time>2015-04-22T16:19:22Z</time>
      </trkpt>
      <trkpt lat="44.66702" lon="3.58932">
        <ele>1313.8235306253</ele>
        <time>2015-04-22T16:19:27Z</time>
      </trkpt>
      <trkpt lat="44.66702" lon="3.58945">
        <ele>1311.9194673525</ele>
        <time>2015-04-22T16:19:32Z</time>
      </trkpt>
      <trkpt lat="44.66698" lon="3.58956">
        <ele>1311.9194673525</ele>
        <time>2015-04-22T16:19:37Z</time>
      </trkpt>
      <trkpt lat="44.66694" lon="3.58965">
        <ele>1309.3674429151</ele>
        <time>2015-04-22T16:19:42Z</time>
      </trkpt>
      <trkpt lat="44.66693" lon="3.58977">
        <ele>1309.3674429151</ele>
        <time>2015-04-22T16:19:47Z</time>
      </trkpt>
      <trkpt lat="44.66694" lon="3.58989">
        <ele>1307.2126717202</ele>
        <time>2015-04-22T16:19:52Z</time>
      </trkpt>
      <trkpt lat="44.66693" lon="3.58999">
        <ele>1307.2126717202</ele>
        <time>2015-04-22T16:19:57Z</time>
      </trkpt>
      <trkpt lat="44.66693" lon="3.5901">
        <ele>1305.3271106997</ele>
        <time>2015-04-22T16:20:02Z</time>
      </trkpt>
      <trkpt lat="44.66693" lon="3.5902">
        <ele>1305.3271106997</ele>
        <time>2015-04-22T16:20:07Z</time>
      </trkpt>
      <trkpt lat="44.66696" lon="3.59026">
        <ele>1303.4039088212</ele>
        <time>2015-04-22T16:20:12Z</time>
      </trkpt>
      <trkpt lat="44.66697" lon="3.59025">
        <ele>1303.4039088212</ele>
        <time>2015-04-22T16:20:17Z</time>
      </trkpt>
      <trkpt lat="44.66696" lon="3.59024">
        <ele>1303.4039088212</ele>
        <time>2015-04-22T16:20:22Z</time>
      </trkpt>
      <trkpt lat="44.66696" lon="3.59024">
        <ele>1303.4039088212</ele>
        <time>2015-04-22T16:20:27Z</time>
      </trkpt>
      <trkpt lat="44.66696" lon="3.59024">
        <ele>1303.4039088212</ele>
        <time>2015-04-22T16:20:32Z</time>
      </trkpt>
      <trkpt lat="44.66696" lon="3.59024">
        <ele>1303.4039088212</ele>
        <time>2015-04-22T16:20:37Z</time>
      </trkpt>
      <trkpt lat="44.66697" lon="3.59024">
        <ele>1303.4039088212</ele>
        <time>2015-04-22T16:20:42Z</time>
      </trkpt>
      <trkpt lat="44.66696" lon="3.59028">
        <ele>1303.4039088212</ele>
        <time>2015-04-22T16:20:47Z</time>
      </trkpt>
      <trkpt lat="44.66694" lon="3.59034">
        <ele>1300.8705278242</ele>
        <time>2015-04-22T16:20:52Z</time>
      </trkpt>
      <trkpt lat="44.66694" lon="3.59041">
        <ele>1300.8705278242</ele>
        <time>2015-04-22T16:20:57Z</time>
      </trkpt>
      <trkpt lat="44.66696" lon="3.59042">
        <ele>1300.8705278242</ele>
        <time>2015-04-22T16:21:02Z</time>
      </trkpt>
      <trkpt lat="44.66697" lon="3.59042">
        <ele>1300.8705278242</ele>
        <time>2015-04-22T16:21:07Z</time>
      </trkpt>
      <trkpt lat="44.66697" lon="3.59044">
        <ele>1298.8265478884</ele>
        <time>2015-04-22T16:21:12Z</time>
      </trkpt>
      <trkpt lat="44.66698" lon="3.59045">
        <ele>1298.8265478884</ele>
        <time>2015-04-22T16:21:17Z</time>
      </trkpt>
      <trkpt lat="44.66698" lon="3.59047">
        <ele>1298.8265478884</ele>
        <time>2015-04-22T16:21:22Z</time>
      </trkpt>
      <trkpt lat="44.66698" lon="3.59056">
        <ele>1296.7761302236</ele>
        <time>2015-04-22T16:21:27Z</time>
      </trkpt>
      <trkpt lat="44.66697" lon="3.59065">
        <ele>1296.7761302236</ele>
        <time>2015-04-22T16:21:32Z</time>
      </trkpt>
      <trkpt lat="44.66695" lon="3.59075">
        <ele>1294.7929885493</ele>
        <time>2015-04-22T16:21:37Z</time>
      </trkpt>
      <trkpt lat="44.66693" lon="3.5909">
        <ele>1293.7521598389</ele>
        <time>2015-04-22T16:21:42Z</time>
      </trkpt>
      <trkpt lat="44.66693" lon="3.59099">
        <ele>1293.7521598389</ele>
        <time>2015-04-22T16:21:47Z</time>
      </trkpt>
      <trkpt lat="44.66694" lon="3.59109">
        <ele>1292.4729350509</ele>
        <time>2015-04-22T16:21:52Z</time>
      </trkpt>
      <trkpt lat="44.66695" lon="3.59121">
        <ele>1292.4729350509</ele>
        <time>2015-04-22T16:21:57Z</time>
      </trkpt>
      <trkpt lat="44.66696" lon="3.59132">
        <ele>1291.5047955217</ele>
        <time>2015-04-22T16:22:02Z</time>
      </trkpt>
      <trkpt lat="44.66694" lon="3.59142">
        <ele>1291.5047955217</ele>
        <time>2015-04-22T16:22:07Z</time>
      </trkpt>
      <trkpt lat="44.66695" lon="3.5915">
        <ele>1290.0156810166</ele>
        <time>2015-04-22T16:22:12Z</time>
      </trkpt>
      <trkpt lat="44.66696" lon="3.59161">
        <ele>1290.0156810166</ele>
        <time>2015-04-22T16:22:17Z</time>
      </trkpt>
      <trkpt lat="44.66696" lon="3.59174">
        <ele>1289.5130127936</ele>
        <time>2015-04-22T16:22:22Z</time>
      </trkpt>
      <trkpt lat="44.66696" lon="3.59188">
        <ele>1289.3154624458</ele>
        <time>2015-04-22T16:22:27Z</time>
      </trkpt>
      <trkpt lat="44.66696" lon="3.592">
        <ele>1289.3154624458</ele>
        <time>2015-04-22T16:22:32Z</time>
      </trkpt>
      <trkpt lat="44.66696" lon="3.59211">
        <ele>1289.1223168176</ele>
        <time>2015-04-22T16:22:37Z</time>
      </trkpt>
      <trkpt lat="44.66695" lon="3.5922">
        <ele>1289.1223168176</ele>
        <time>2015-04-22T16:22:42Z</time>
      </trkpt>
      <trkpt lat="44.66694" lon="3.59228">
        <ele>1288.4963969638</ele>
        <time>2015-04-22T16:22:47Z</time>
      </trkpt>
      <trkpt lat="44.66693" lon="3.59238">
        <ele>1288.4963969638</ele>
        <time>2015-04-22T16:22:52Z</time>
      </trkpt>
      <trkpt lat="44.66694" lon="3.5925">
        <ele>1288.0138012776</ele>
        <time>2015-04-22T16:22:57Z</time>
      </trkpt>
      <trkpt lat="44.66698" lon="3.59257">
        <ele>1288.0138012776</ele>
        <time>2015-04-22T16:23:02Z</time>
      </trkpt>
      <trkpt lat="44.66702" lon="3.59259">
        <ele>1286.5506310502</ele>
        <time>2015-04-22T16:23:07Z</time>
      </trkpt>
      <trkpt lat="44.66707" lon="3.59261">
        <ele>1286.5506310502</ele>
        <time>2015-04-22T16:23:12Z</time>
      </trkpt>
      <trkpt lat="44.66706" lon="3.59259">
        <ele>1286.5506310502</ele>
        <time>2015-04-22T16:23:17Z</time>
      </trkpt>
      <trkpt lat="44.66706" lon="3.59257">
        <ele>1286.5506310502</ele>
        <time>2015-04-22T16:23:22Z</time>
      </trkpt>
      <trkpt lat="44.66705" lon="3.59256">
        <ele>1286.5506310502</ele>
        <time>2015-04-22T16:23:27Z</time>
      </trkpt>
      <trkpt lat="44.66706" lon="3.59257">
        <ele>1284.1923761647</ele>
        <time>2015-04-22T16:23:32Z</time>
      </trkpt>
      <trkpt lat="44.66705" lon="3.59257">
        <ele>1284.1923761647</ele>
        <time>2015-04-22T16:23:37Z</time>
      </trkpt>
      <trkpt lat="44.66706" lon="3.59258">
        <ele>1284.1923761647</ele>
        <time>2015-04-22T16:23:42Z</time>
      </trkpt>
      <trkpt lat="44.66706" lon="3.59258">
        <ele>1284.1923761647</ele>
        <time>2015-04-22T16:23:47Z</time>
      </trkpt>
      <trkpt lat="44.66706" lon="3.59258">
        <ele>1284.1923761647</ele>
        <time>2015-04-22T16:23:52Z</time>
      </trkpt>
      <trkpt lat="44.66706" lon="3.59258">
        <ele>1284.1923761647</ele>
        <time>2015-04-22T16:23:57Z</time>
      </trkpt>
      <trkpt lat="44.66706" lon="3.59258">
        <ele>1284.1923761647</ele>
        <time>2015-04-22T16:24:02Z</time>
      </trkpt>
      <trkpt lat="44.66706" lon="3.59258">
        <ele>1284.1923761647</ele>
        <time>2015-04-22T16:24:07Z</time>
      </trkpt>
      <trkpt lat="44.66707" lon="3.59256">
        <ele>1284.1923761647</ele>
        <time>2015-04-22T16:24:12Z</time>
      </trkpt>
      <trkpt lat="44.66707" lon="3.59255">
        <ele>1284.1923761647</ele>
        <time>2015-04-22T16:24:17Z</time>
      </trkpt>
      <trkpt lat="44.66707" lon="3.59256">
        <ele>1284.1923761647</ele>
        <time>2015-04-22T16:24:22Z</time>
      </trkpt>
      <trkpt lat="44.66707" lon="3.59256">
        <ele>1284.1923761647</ele>
        <time>2015-04-22T16:24:27Z</time>
      </trkpt>
      <trkpt lat="44.66707" lon="3.59256">
        <ele>1284.1923761647</ele>
        <time>2015-04-22T16:24:32Z</time>
      </trkpt>
      <trkpt lat="44.66707" lon="3.59256">
        <ele>1284.1923761647</ele>
        <time>2015-04-22T16:24:37Z</time>
      </trkpt>
      <trkpt lat="44.66707" lon="3.59256">
        <ele>1284.1923761647</ele>
        <time>2015-04-22T16:24:42Z</time>
      </trkpt>
      <trkpt lat="44.66708" lon="3.59256">
        <ele>1284.1923761647</ele>
        <time>2015-04-22T16:24:47Z</time>
      </trkpt>
      <trkpt lat="44.66708" lon="3.59257">
        <ele>1284.1923761647</ele>
        <time>2015-04-22T16:24:52Z</time>
      </trkpt>
      <trkpt lat="44.66708" lon="3.59257">
        <ele>1284.1923761647</ele>
        <time>2015-04-22T16:24:57Z</time>
      </trkpt>
      <trkpt lat="44.66713" lon="3.59261">
        <ele>1282.3754155809</ele>
        <time>2015-04-22T16:25:02Z</time>
      </trkpt>
      <trkpt lat="44.66719" lon="3.59265">
        <ele>1282.3754155809</ele>
        <time>2015-04-22T16:25:07Z</time>
      </trkpt>
      <trkpt lat="44.66728" lon="3.59269">
        <ele>1281.103285844</ele>
        <time>2015-04-22T16:25:12Z</time>
      </trkpt>
      <trkpt lat="44.66735" lon="3.59273">
        <ele>1281.103285844</ele>
        <time>2015-04-22T16:25:17Z</time>
      </trkpt>
      <trkpt lat="44.66742" lon="3.59277">
        <ele>1280.5218618082</ele>
        <time>2015-04-22T16:25:22Z</time>
      </trkpt>
      <trkpt lat="44.66749" lon="3.59279">
        <ele>1280.5218618082</ele>
        <time>2015-04-22T16:25:27Z</time>
      </trkpt>
      <trkpt lat="44.66753" lon="3.59282">
        <ele>1279.8853047222</ele>
        <time>2015-04-22T16:25:32Z</time>
      </trkpt>
      <trkpt lat="44.66756" lon="3.59285">
        <ele>1279.8853047222</ele>
        <time>2015-04-22T16:25:37Z</time>
      </trkpt>
      <trkpt lat="44.66759" lon="3.59289">
        <ele>1279.8853047222</ele>
        <time>2015-04-22T16:25:42Z</time>
      </trkpt>
      <trkpt lat="44.66762" lon="3.59294">
        <ele>1278.7333199576</ele>
        <time>2015-04-22T16:25:47Z</time>
      </trkpt>
      <trkpt lat="44.66766" lon="3.59299">
        <ele>1278.7333199576</ele>
        <time>2015-04-22T16:25:52Z</time>
      </trkpt>
      <trkpt lat="44.66769" lon="3.59307">
        <ele>1277.8370232049</ele>
        <time>2015-04-22T16:25:57Z</time>
      </trkpt>
      <trkpt lat="44.66768" lon="3.59317">
        <ele>1277.8370232049</ele>
        <time>2015-04-22T16:26:02Z</time>
      </trkpt>
      <trkpt lat="44.66764" lon="3.59328">
        <ele>1277.2472906602</ele>
        <time>2015-04-22T16:26:07Z</time>
      </trkpt>
      <trkpt lat="44.66762" lon="3.59338">
        <ele>1277.2472906602</ele>
        <time>2015-04-22T16:26:12Z</time>
      </trkpt>
      <trkpt lat="44.6676" lon="3.59347">
        <ele>1276.7942749081</ele>
        <time>2015-04-22T16:26:17Z</time>
      </trkpt>
      <trkpt lat="44.66758" lon="3.59357">
        <ele>1276.7942749081</ele>
        <time>2015-04-22T16:26:22Z</time>
      </trkpt>
      <trkpt lat="44.66755" lon="3.59366">
        <ele>1276.5652574358</ele>
        <time>2015-04-22T16:26:27Z</time>
      </trkpt>
      <trkpt lat="44.66753" lon="3.59379">
        <ele>1276.6117115248</ele>
        <time>2015-04-22T16:26:32Z</time>
      </trkpt>
      <trkpt lat="44.66748" lon="3.59387">
        <ele>1276.6117115248</ele>
        <time>2015-04-22T16:26:37Z</time>
      </trkpt>
      <trkpt lat="44.66744" lon="3.59394">
        <ele>1276.9950305194</ele>
        <time>2015-04-22T16:26:42Z</time>
      </trkpt>
      <trkpt lat="44.66743" lon="3.59399">
        <ele>1276.9950305194</ele>
        <time>2015-04-22T16:26:47Z</time>
      </trkpt>
      <trkpt lat="44.66742" lon="3.59408">
        <ele>1276.402167633</ele>
        <time>2015-04-22T16:26:52Z</time>
      </trkpt>
      <trkpt lat="44.6674" lon="3.59417">
        <ele>1276.402167633</ele>
        <time>2015-04-22T16:26:57Z</time>
      </trkpt>
      <trkpt lat="44.66741" lon="3.59428">
        <ele>1276.1557055804</ele>
        <time>2015-04-22T16:27:02Z</time>
      </trkpt>
      <trkpt lat="44.66743" lon="3.5944">
        <ele>1276.1557055804</ele>
        <time>2015-04-22T16:27:07Z</time>
      </trkpt>
      <trkpt lat="44.66746" lon="3.59451">
        <ele>1276.384940607</ele>
        <time>2015-04-22T16:27:12Z</time>
      </trkpt>
      <trkpt lat="44.66751" lon="3.59456">
        <ele>1276.384940607</ele>
        <time>2015-04-22T16:27:17Z</time>
      </trkpt>
      <trkpt lat="44.6675" lon="3.59451">
        <ele>1276.384940607</ele>
        <time>2015-04-22T16:27:22Z</time>
      </trkpt>
      <trkpt lat="44.66749" lon="3.59458">
        <ele>1275.9402498132</ele>
        <time>2015-04-22T16:27:27Z</time>
      </trkpt>
      <trkpt lat="44.66744" lon="3.59458">
        <ele>1275.9402498132</ele>
        <time>2015-04-22T16:27:32Z</time>
      </trkpt>
      <trkpt lat="44.66739" lon="3.59452">
        <ele>1275.0986803303</ele>
        <time>2015-04-22T16:27:37Z</time>
      </trkpt>
      <trkpt lat="44.66737" lon="3.59447">
        <ele>1275.0986803303</ele>
        <time>2015-04-22T16:27:42Z</time>
      </trkpt>
      <trkpt lat="44.66738" lon="3.59446">
        <ele>1275.0986803303</ele>
        <time>2015-04-22T16:27:47Z</time>
      </trkpt>
      <trkpt lat="44.66738" lon="3.59446">
        <ele>1275.0986803303</ele>
        <time>2015-04-22T16:27:52Z</time>
      </trkpt>
      <trkpt lat="44.66738" lon="3.59444">
        <ele>1275.0986803303</ele>
        <time>2015-04-22T16:27:57Z</time>
      </trkpt>
      <trkpt lat="44.66738" lon="3.59445">
        <ele>1275.0986803303</ele>
        <time>2015-04-22T16:28:02Z</time>
      </trkpt>
      <trkpt lat="44.66738" lon="3.59449">
        <ele>1274.3343051515</ele>
        <time>2015-04-22T16:28:07Z</time>
      </trkpt>
      <trkpt lat="44.66738" lon="3.59452">
        <ele>1274.3343051515</ele>
        <time>2015-04-22T16:28:12Z</time>
      </trkpt>
      <trkpt lat="44.66738" lon="3.59453">
        <ele>1274.3343051515</ele>
        <time>2015-04-22T16:28:17Z</time>
      </trkpt>
      <trkpt lat="44.66739" lon="3.59454">
        <ele>1274.3343051515</ele>
        <time>2015-04-22T16:28:22Z</time>
      </trkpt>
      <trkpt lat="44.66738" lon="3.59453">
        <ele>1274.3343051515</ele>
        <time>2015-04-22T16:28:27Z</time>
      </trkpt>
      <trkpt lat="44.66737" lon="3.59452">
        <ele>1274.3343051515</ele>
        <time>2015-04-22T16:28:32Z</time>
      </trkpt>
      <trkpt lat="44.66738" lon="3.59452">
        <ele>1274.3343051515</ele>
        <time>2015-04-22T16:28:37Z</time>
      </trkpt>
      <trkpt lat="44.66738" lon="3.59453">
        <ele>1274.3343051515</ele>
        <time>2015-04-22T16:28:42Z</time>
      </trkpt>
      <trkpt lat="44.66738" lon="3.59452">
        <ele>1274.3343051515</ele>
        <time>2015-04-22T16:28:47Z</time>
      </trkpt>
      <trkpt lat="44.66738" lon="3.59452">
        <ele>1274.3343051515</ele>
        <time>2015-04-22T16:28:52Z</time>
      </trkpt>
      <trkpt lat="44.66738" lon="3.59453">
        <ele>1274.3343051515</ele>
        <time>2015-04-22T16:28:57Z</time>
      </trkpt>
      <trkpt lat="44.66738" lon="3.59455">
        <ele>1274.3343051515</ele>
        <time>2015-04-22T16:29:02Z</time>
      </trkpt>
      <trkpt lat="44.66738" lon="3.59455">
        <ele>1274.3343051515</ele>
        <time>2015-04-22T16:29:07Z</time>
      </trkpt>
      <trkpt lat="44.66738" lon="3.59456">
        <ele>1274.1006656802</ele>
        <time>2015-04-22T16:29:12Z</time>
      </trkpt>
      <trkpt lat="44.66738" lon="3.59456">
        <ele>1274.1006656802</ele>
        <time>2015-04-22T16:29:17Z</time>
      </trkpt>
      <trkpt lat="44.66738" lon="3.59456">
        <ele>1274.1006656802</ele>
        <time>2015-04-22T16:29:22Z</time>
      </trkpt>
      <trkpt lat="44.6674" lon="3.59457">
        <ele>1274.1006656802</ele>
        <time>2015-04-22T16:29:27Z</time>
      </trkpt>
      <trkpt lat="44.66745" lon="3.5946">
        <ele>1274.1006656802</ele>
        <time>2015-04-22T16:29:32Z</time>
      </trkpt>
      <trkpt lat="44.66751" lon="3.59466">
        <ele>1274.4274976096</ele>
        <time>2015-04-22T16:29:37Z</time>
      </trkpt>
      <trkpt lat="44.66755" lon="3.59473">
        <ele>1274.4274976096</ele>
        <time>2015-04-22T16:29:42Z</time>
      </trkpt>
      <trkpt lat="44.66759" lon="3.59481">
        <ele>1274.8509046618</ele>
        <time>2015-04-22T16:29:47Z</time>
      </trkpt>
      <trkpt lat="44.66764" lon="3.59489">
        <ele>1274.8509046618</ele>
        <time>2015-04-22T16:29:52Z</time>
      </trkpt>
      <trkpt lat="44.66765" lon="3.59501">
        <ele>1275.8199833011</ele>
        <time>2015-04-22T16:29:57Z</time>
      </trkpt>
      <trkpt lat="44.66766" lon="3.59513">
        <ele>1275.8199833011</ele>
        <time>2015-04-22T16:30:02Z</time>
      </trkpt>
      <trkpt lat="44.6677" lon="3.59522">
        <ele>1276.8847574125</ele>
        <time>2015-04-22T16:30:07Z</time>
      </trkpt>
      <trkpt lat="44.66775" lon="3.59525">
        <ele>1276.8847574125</ele>
        <time>2015-04-22T16:30:12Z</time>
      </trkpt>
      <trkpt lat="44.66779" lon="3.59527">
        <ele>1277.4840498147</ele>
        <time>2015-04-22T16:30:17Z</time>
      </trkpt>
      <trkpt lat="44.66779" lon="3.59535">
        <ele>1277.4840498147</ele>
        <time>2015-04-22T16:30:22Z</time>
      </trkpt>
      <trkpt lat="44.66778" lon="3.59543">
        <ele>1277.6469659601</ele>
        <time>2015-04-22T16:30:27Z</time>
      </trkpt>
      <trkpt lat="44.66778" lon="3.59552">
        <ele>1277.6469659601</ele>
        <time>2015-04-22T16:30:32Z</time>
      </trkpt>
      <trkpt lat="44.66782" lon="3.59558">
        <ele>1278.0359230864</ele>
        <time>2015-04-22T16:30:37Z</time>
      </trkpt>
      <trkpt lat="44.66786" lon="3.59559">
        <ele>1278.0359230864</ele>
        <time>2015-04-22T16:30:42Z</time>
      </trkpt>
      <trkpt lat="44.66791" lon="3.59561">
        <ele>1278.2986387205</ele>
        <time>2015-04-22T16:30:47Z</time>
      </trkpt>
      <trkpt lat="44.66795" lon="3.59565">
        <ele>1278.2986387205</ele>
        <time>2015-04-22T16:30:52Z</time>
      </trkpt>
      <trkpt lat="44.66799" lon="3.5957">
        <ele>1278.2389040319</ele>
        <time>2015-04-22T16:30:57Z</time>
      </trkpt>
      <trkpt lat="44.66804" lon="3.59573">
        <ele>1278.2389040319</ele>
        <time>2015-04-22T16:31:02Z</time>
      </trkpt>
      <trkpt lat="44.66806" lon="3.5957">
        <ele>1278.2389040319</ele>
        <time>2015-04-22T16:31:07Z</time>
      </trkpt>
      <trkpt lat="44.66807" lon="3.59569">
        <ele>1278.5838698307</ele>
        <time>2015-04-22T16:31:12Z</time>
      </trkpt>
      <trkpt lat="44.66808" lon="3.59569">
        <ele>1278.5838698307</ele>
        <time>2015-04-22T16:31:17Z</time>
      </trkpt>
      <trkpt lat="44.66808" lon="3.59569">
        <ele>1278.5838698307</ele>
        <time>2015-04-22T16:31:22Z</time>
      </trkpt>
      <trkpt lat="44.66808" lon="3.59569">
        <ele>1278.5838698307</ele>
        <time>2015-04-22T16:31:27Z</time>
      </trkpt>
      <trkpt lat="44.66808" lon="3.5957">
        <ele>1278.5838698307</ele>
        <time>2015-04-22T16:31:32Z</time>
      </trkpt>
      <trkpt lat="44.66809" lon="3.5957">
        <ele>1278.5838698307</ele>
        <time>2015-04-22T16:31:37Z</time>
      </trkpt>
      <trkpt lat="44.66809" lon="3.59569">
        <ele>1278.5838698307</ele>
        <time>2015-04-22T16:31:42Z</time>
      </trkpt>
      <trkpt lat="44.66809" lon="3.59567">
        <ele>1278.5838698307</ele>
        <time>2015-04-22T16:31:47Z</time>
      </trkpt>
      <trkpt lat="44.66808" lon="3.59566">
        <ele>1278.5838698307</ele>
        <time>2015-04-22T16:31:52Z</time>
      </trkpt>
      <trkpt lat="44.66809" lon="3.59566">
        <ele>1278.5838698307</ele>
        <time>2015-04-22T16:31:57Z</time>
      </trkpt>
      <trkpt lat="44.66808" lon="3.59565">
        <ele>1278.5838698307</ele>
        <time>2015-04-22T16:32:02Z</time>
      </trkpt>
      <trkpt lat="44.66809" lon="3.59565">
        <ele>1278.5838698307</ele>
        <time>2015-04-22T16:32:07Z</time>
      </trkpt>
      <trkpt lat="44.66809" lon="3.59565">
        <ele>1278.5838698307</ele>
        <time>2015-04-22T16:32:12Z</time>
      </trkpt>
      <trkpt lat="44.66809" lon="3.59565">
        <ele>1278.5838698307</ele>
        <time>2015-04-22T16:32:17Z</time>
      </trkpt>
      <trkpt lat="44.66809" lon="3.59565">
        <ele>1278.5838698307</ele>
        <time>2015-04-22T16:32:22Z</time>
      </trkpt>
      <trkpt lat="44.66808" lon="3.59563">
        <ele>1278.5838698307</ele>
        <time>2015-04-22T16:32:27Z</time>
      </trkpt>
      <trkpt lat="44.66805" lon="3.59556">
        <ele>1279.1560212369</ele>
        <time>2015-04-22T16:32:32Z</time>
      </trkpt>
      <trkpt lat="44.66811" lon="3.59555">
        <ele>1279.1560212369</ele>
        <time>2015-04-22T16:32:37Z</time>
      </trkpt>
      <trkpt lat="44.6682" lon="3.5956">
        <ele>1279.588631985</ele>
        <time>2015-04-22T16:32:42Z</time>
      </trkpt>
      <trkpt lat="44.66828" lon="3.59566">
        <ele>1279.588631985</ele>
        <time>2015-04-22T16:32:47Z</time>
      </trkpt>
      <trkpt lat="44.66835" lon="3.59572">
        <ele>1280.5512273715</ele>
        <time>2015-04-22T16:32:52Z</time>
      </trkpt>
      <trkpt lat="44.66839" lon="3.59574">
        <ele>1280.5512273715</ele>
        <time>2015-04-22T16:32:57Z</time>
      </trkpt>
      <trkpt lat="44.66842" lon="3.59573">
        <ele>1280.5512273715</ele>
        <time>2015-04-22T16:33:02Z</time>
      </trkpt>
      <trkpt lat="44.66841" lon="3.59572">
        <ele>1280.5512273715</ele>
        <time>2015-04-22T16:33:07Z</time>
      </trkpt>
      <trkpt lat="44.66841" lon="3.59571">
        <ele>1281.798140873</ele>
        <time>2015-04-22T16:33:12Z</time>
      </trkpt>
      <trkpt lat="44.66841" lon="3.59571">
        <ele>1281.798140873</ele>
        <time>2015-04-22T16:33:17Z</time>
      </trkpt>
      <trkpt lat="44.66841" lon="3.59571">
        <ele>1281.798140873</ele>
        <time>2015-04-22T16:33:22Z</time>
      </trkpt>
      <trkpt lat="44.66842" lon="3.59571">
        <ele>1281.798140873</ele>
        <time>2015-04-22T16:33:27Z</time>
      </trkpt>
      <trkpt lat="44.66845" lon="3.59571">
        <ele>1281.798140873</ele>
        <time>2015-04-22T16:33:32Z</time>
      </trkpt>
      <trkpt lat="44.66846" lon="3.5957">
        <ele>1281.798140873</ele>
        <time>2015-04-22T16:33:37Z</time>
      </trkpt>
      <trkpt lat="44.66851" lon="3.59562">
        <ele>1282.3949572264</ele>
        <time>2015-04-22T16:33:42Z</time>
      </trkpt>
      <trkpt lat="44.66855" lon="3.59553">
        <ele>1282.3949572264</ele>
        <time>2015-04-22T16:33:47Z</time>
      </trkpt>
      <trkpt lat="44.66856" lon="3.59544">
        <ele>1282.7460535167</ele>
        <time>2015-04-22T16:33:52Z</time>
      </trkpt>
      <trkpt lat="44.66858" lon="3.59537">
        <ele>1282.7460535167</ele>
        <time>2015-04-22T16:33:57Z</time>
      </trkpt>
      <trkpt lat="44.66859" lon="3.59528">
        <ele>1283.8177974088</ele>
        <time>2015-04-22T16:34:02Z</time>
      </trkpt>
      <trkpt lat="44.66861" lon="3.59519">
        <ele>1283.8177974088</ele>
        <time>2015-04-22T16:34:07Z</time>
      </trkpt>
      <trkpt lat="44.66864" lon="3.59512">
        <ele>1284.9184750908</ele>
        <time>2015-04-22T16:34:12Z</time>
      </trkpt>
      <trkpt lat="44.66867" lon="3.59503">
        <ele>1284.9184750908</ele>
        <time>2015-04-22T16:34:17Z</time>
      </trkpt>
      <trkpt lat="44.66867" lon="3.59495">
        <ele>1286.1854574614</ele>
        <time>2015-04-22T16:34:22Z</time>
      </trkpt>
      <trkpt lat="44.66866" lon="3.59486">
        <ele>1286.1854574614</ele>
        <time>2015-04-22T16:34:27Z</time>
      </trkpt>
      <trkpt lat="44.66869" lon="3.5948">
        <ele>1287.8033572244</ele>
        <time>2015-04-22T16:34:32Z</time>
      </trkpt>
      <trkpt lat="44.66869" lon="3.59474">
        <ele>1287.8033572244</ele>
        <time>2015-04-22T16:34:37Z</time>
      </trkpt>
      <trkpt lat="44.66873" lon="3.59468">
        <ele>1289.6541778139</ele>
        <time>2015-04-22T16:34:42Z</time>
      </trkpt>
      <trkpt lat="44.66876" lon="3.59461">
        <ele>1289.6541778139</ele>
        <time>2015-04-22T16:34:47Z</time>
      </trkpt>
      <trkpt lat="44.6688" lon="3.59453">
        <ele>1291.9451461678</ele>
        <time>2015-04-22T16:34:52Z</time>
      </trkpt>
      <trkpt lat="44.66884" lon="3.59447">
        <ele>1291.9451461678</ele>
        <time>2015-04-22T16:34:57Z</time>
      </trkpt>
      <trkpt lat="44.66887" lon="3.59441">
        <ele>1293.9304794361</ele>
        <time>2015-04-22T16:35:02Z</time>
      </trkpt>
      <trkpt lat="44.66891" lon="3.59437">
        <ele>1293.9304794361</ele>
        <time>2015-04-22T16:35:07Z</time>
      </trkpt>
      <trkpt lat="44.66892" lon="3.59432">
        <ele>1293.9304794361</ele>
        <time>2015-04-22T16:35:12Z</time>
      </trkpt>
      <trkpt lat="44.66894" lon="3.59427">
        <ele>1295.8569361096</ele>
        <time>2015-04-22T16:35:17Z</time>
      </trkpt>
      <trkpt lat="44.66905" lon="3.59423">
        <ele>1297.5788060726</ele>
        <time>2015-04-22T16:35:22Z</time>
      </trkpt>
      <trkpt lat="44.66915" lon="3.59416">
        <ele>1298.9618423508</ele>
        <time>2015-04-22T16:35:27Z</time>
      </trkpt>
      <trkpt lat="44.66922" lon="3.59411">
        <ele>1298.9618423508</ele>
        <time>2015-04-22T16:35:32Z</time>
      </trkpt>
      <trkpt lat="44.66925" lon="3.59411">
        <ele>1300.6321754149</ele>
        <time>2015-04-22T16:35:37Z</time>
      </trkpt>
      <trkpt lat="44.66924" lon="3.59411">
        <ele>1300.6321754149</ele>
        <time>2015-04-22T16:35:42Z</time>
      </trkpt>
      <trkpt lat="44.66927" lon="3.59407">
        <ele>1300.6321754149</ele>
        <time>2015-04-22T16:35:47Z</time>
      </trkpt>
      <trkpt lat="44.66931" lon="3.59401">
        <ele>1302.1605435556</ele>
        <time>2015-04-22T16:35:52Z</time>
      </trkpt>
      <trkpt lat="44.66936" lon="3.59396">
        <ele>1302.1605435556</ele>
        <time>2015-04-22T16:35:57Z</time>
      </trkpt>
      <trkpt lat="44.66934" lon="3.59394">
        <ele>1302.1605435556</ele>
        <time>2015-04-22T16:36:02Z</time>
      </trkpt>
      <trkpt lat="44.66934" lon="3.59394">
        <ele>1302.1605435556</ele>
        <time>2015-04-22T16:36:07Z</time>
      </trkpt>
      <trkpt lat="44.66934" lon="3.59393">
        <ele>1302.1605435556</ele>
        <time>2015-04-22T16:36:12Z</time>
      </trkpt>
      <trkpt lat="44.66936" lon="3.59392">
        <ele>1304.1009370101</ele>
        <time>2015-04-22T16:36:17Z</time>
      </trkpt>
      <trkpt lat="44.66937" lon="3.59391">
        <ele>1304.1009370101</ele>
        <time>2015-04-22T16:36:22Z</time>
      </trkpt>
      <trkpt lat="44.66939" lon="3.5939">
        <ele>1304.1009370101</ele>
        <time>2015-04-22T16:36:27Z</time>
      </trkpt>
      <trkpt lat="44.66941" lon="3.59388">
        <ele>1304.1009370101</ele>
        <time>2015-04-22T16:36:32Z</time>
      </trkpt>
      <trkpt lat="44.66947" lon="3.59383">
        <ele>1305.8416130099</ele>
        <time>2015-04-22T16:36:37Z</time>
      </trkpt>
      <trkpt lat="44.66953" lon="3.59374">
        <ele>1305.8416130099</ele>
        <time>2015-04-22T16:36:42Z</time>
      </trkpt>
      <trkpt lat="44.66959" lon="3.59369">
        <ele>1307.3064898038</ele>
        <time>2015-04-22T16:36:47Z</time>
      </trkpt>
      <trkpt lat="44.6696" lon="3.59368">
        <ele>1307.3064898038</ele>
        <time>2015-04-22T16:36:52Z</time>
      </trkpt>
      <trkpt lat="44.66959" lon="3.59367">
        <ele>1307.3064898038</ele>
        <time>2015-04-22T16:36:57Z</time>
      </trkpt>
      <trkpt lat="44.66961" lon="3.59365">
        <ele>1307.3064898038</ele>
        <time>2015-04-22T16:37:02Z</time>
      </trkpt>
      <trkpt lat="44.66962" lon="3.59362">
        <ele>1307.3064898038</ele>
        <time>2015-04-22T16:37:07Z</time>
      </trkpt>
      <trkpt lat="44.66962" lon="3.59361">
        <ele>1307.3064898038</ele>
        <time>2015-04-22T16:37:12Z</time>
      </trkpt>
      <trkpt lat="44.66963" lon="3.59361">
        <ele>1307.3064898038</ele>
        <time>2015-04-22T16:37:17Z</time>
      </trkpt>
      <trkpt lat="44.66964" lon="3.5936">
        <ele>1309.3915768348</ele>
        <time>2015-04-22T16:37:22Z</time>
      </trkpt>
      <trkpt lat="44.66968" lon="3.59358">
        <ele>1309.3915768348</ele>
        <time>2015-04-22T16:37:27Z</time>
      </trkpt>
      <trkpt lat="44.66973" lon="3.59359">
        <ele>1309.3915768348</ele>
        <time>2015-04-22T16:37:32Z</time>
      </trkpt>
      <trkpt lat="44.66977" lon="3.59356">
        <ele>1311.1961717872</ele>
        <time>2015-04-22T16:37:37Z</time>
      </trkpt>
      <trkpt lat="44.66981" lon="3.59352">
        <ele>1311.1961717872</ele>
        <time>2015-04-22T16:37:42Z</time>
      </trkpt>
      <trkpt lat="44.66983" lon="3.59348">
        <ele>1311.1961717872</ele>
        <time>2015-04-22T16:37:47Z</time>
      </trkpt>
      <trkpt lat="44.66983" lon="3.59347">
        <ele>1311.1961717872</ele>
        <time>2015-04-22T16:37:52Z</time>
      </trkpt>
      <trkpt lat="44.66982" lon="3.59347">
        <ele>1313.255761542</ele>
        <time>2015-04-22T16:37:57Z</time>
      </trkpt>
      <trkpt lat="44.66982" lon="3.59347">
        <ele>1313.255761542</ele>
        <time>2015-04-22T16:38:02Z</time>
      </trkpt>
      <trkpt lat="44.66983" lon="3.59346">
        <ele>1313.255761542</ele>
        <time>2015-04-22T16:38:07Z</time>
      </trkpt>
      <trkpt lat="44.66983" lon="3.59347">
        <ele>1313.255761542</ele>
        <time>2015-04-22T16:38:12Z</time>
      </trkpt>
      <trkpt lat="44.66984" lon="3.59346">
        <ele>1313.255761542</ele>
        <time>2015-04-22T16:38:17Z</time>
      </trkpt>
      <trkpt lat="44.66984" lon="3.59345">
        <ele>1313.255761542</ele>
        <time>2015-04-22T16:38:22Z</time>
      </trkpt>
      <trkpt lat="44.66984" lon="3.59345">
        <ele>1313.255761542</ele>
        <time>2015-04-22T16:38:27Z</time>
      </trkpt>
      <trkpt lat="44.66984" lon="3.59344">
        <ele>1313.255761542</ele>
        <time>2015-04-22T16:38:32Z</time>
      </trkpt>
      <trkpt lat="44.66984" lon="3.59344">
        <ele>1313.255761542</ele>
        <time>2015-04-22T16:38:37Z</time>
      </trkpt>
      <trkpt lat="44.66985" lon="3.59343">
        <ele>1313.255761542</ele>
        <time>2015-04-22T16:38:42Z</time>
      </trkpt>
      <trkpt lat="44.66985" lon="3.59342">
        <ele>1313.255761542</ele>
        <time>2015-04-22T16:38:47Z</time>
      </trkpt>
      <trkpt lat="44.66987" lon="3.59339">
        <ele>1313.255761542</ele>
        <time>2015-04-22T16:38:52Z</time>
      </trkpt>
      <trkpt lat="44.66989" lon="3.59336">
        <ele>1315.1004160164</ele>
        <time>2015-04-22T16:38:57Z</time>
      </trkpt>
      <trkpt lat="44.66991" lon="3.59333">
        <ele>1315.1004160164</ele>
        <time>2015-04-22T16:39:02Z</time>
      </trkpt>
      <trkpt lat="44.66993" lon="3.5933">
        <ele>1315.1004160164</ele>
        <time>2015-04-22T16:39:07Z</time>
      </trkpt>
      <trkpt lat="44.66997" lon="3.59326">
        <ele>1316.6701958024</ele>
        <time>2015-04-22T16:39:12Z</time>
      </trkpt>
      <trkpt lat="44.66999" lon="3.59322">
        <ele>1316.6701958024</ele>
        <time>2015-04-22T16:39:17Z</time>
      </trkpt>
      <trkpt lat="44.67" lon="3.59321">
        <ele>1316.6701958024</ele>
        <time>2015-04-22T16:39:22Z</time>
      </trkpt>
      <trkpt lat="44.67001" lon="3.59321">
        <ele>1316.6701958024</ele>
        <time>2015-04-22T16:39:27Z</time>
      </trkpt>
      <trkpt lat="44.67001" lon="3.59318">
        <ele>1316.6701958024</ele>
        <time>2015-04-22T16:39:32Z</time>
      </trkpt>
      <trkpt lat="44.67002" lon="3.59318">
        <ele>1316.6701958024</ele>
        <time>2015-04-22T16:39:37Z</time>
      </trkpt>
      <trkpt lat="44.67003" lon="3.59318">
        <ele>1318.4437223546</ele>
        <time>2015-04-22T16:39:42Z</time>
      </trkpt>
      <trkpt lat="44.67004" lon="3.59316">
        <ele>1318.4437223546</ele>
        <time>2015-04-22T16:39:47Z</time>
      </trkpt>
      <trkpt lat="44.67007" lon="3.59312">
        <ele>1318.4437223546</ele>
        <time>2015-04-22T16:39:52Z</time>
      </trkpt>
      <trkpt lat="44.6701" lon="3.59307">
        <ele>1320.4173140891</ele>
        <time>2015-04-22T16:39:57Z</time>
      </trkpt>
      <trkpt lat="44.67011" lon="3.59304">
        <ele>1320.4173140891</ele>
        <time>2015-04-22T16:40:02Z</time>
      </trkpt>
      <trkpt lat="44.67011" lon="3.59304">
        <ele>1320.4173140891</ele>
        <time>2015-04-22T16:40:07Z</time>
      </trkpt>
      <trkpt lat="44.67011" lon="3.59304">
        <ele>1320.4173140891</ele>
        <time>2015-04-22T16:40:12Z</time>
      </trkpt>
      <trkpt lat="44.67011" lon="3.59304">
        <ele>1320.4173140891</ele>
        <time>2015-04-22T16:40:17Z</time>
      </trkpt>
      <trkpt lat="44.67011" lon="3.59304">
        <ele>1320.4173140891</ele>
        <time>2015-04-22T16:40:22Z</time>
      </trkpt>
      <trkpt lat="44.67011" lon="3.59304">
        <ele>1320.4173140891</ele>
        <time>2015-04-22T16:40:27Z</time>
      </trkpt>
      <trkpt lat="44.67011" lon="3.59304">
        <ele>1320.4173140891</ele>
        <time>2015-04-22T16:40:32Z</time>
      </trkpt>
      <trkpt lat="44.6701" lon="3.59303">
        <ele>1320.4173140891</ele>
        <time>2015-04-22T16:40:37Z</time>
      </trkpt>
      <trkpt lat="44.6701" lon="3.59304">
        <ele>1320.4173140891</ele>
        <time>2015-04-22T16:40:42Z</time>
      </trkpt>
      <trkpt lat="44.67011" lon="3.59304">
        <ele>1320.4173140891</ele>
        <time>2015-04-22T16:40:47Z</time>
      </trkpt>
      <trkpt lat="44.67011" lon="3.59304">
        <ele>1320.4173140891</ele>
        <time>2015-04-22T16:40:52Z</time>
      </trkpt>
      <trkpt lat="44.67011" lon="3.59304">
        <ele>1320.4173140891</ele>
        <time>2015-04-22T16:40:57Z</time>
      </trkpt>
      <trkpt lat="44.67011" lon="3.59304">
        <ele>1320.4173140891</ele>
        <time>2015-04-22T16:41:02Z</time>
      </trkpt>
      <trkpt lat="44.67011" lon="3.59302">
        <ele>1320.4173140891</ele>
        <time>2015-04-22T16:41:07Z</time>
      </trkpt>
      <trkpt lat="44.67012" lon="3.59302">
        <ele>1320.4173140891</ele>
        <time>2015-04-22T16:41:12Z</time>
      </trkpt>
      <trkpt lat="44.67012" lon="3.59302">
        <ele>1320.4173140891</ele>
        <time>2015-04-22T16:41:17Z</time>
      </trkpt>
      <trkpt lat="44.67014" lon="3.59301">
        <ele>1322.0971891681</ele>
        <time>2015-04-22T16:41:22Z</time>
      </trkpt>
      <trkpt lat="44.67016" lon="3.593">
        <ele>1322.0971891681</ele>
        <time>2015-04-22T16:41:27Z</time>
      </trkpt>
      <trkpt lat="44.67018" lon="3.593">
        <ele>1322.0971891681</ele>
        <time>2015-04-22T16:41:32Z</time>
      </trkpt>
      <trkpt lat="44.6702" lon="3.59299">
        <ele>1322.0971891681</ele>
        <time>2015-04-22T16:41:37Z</time>
      </trkpt>
      <trkpt lat="44.67023" lon="3.59296">
        <ele>1323.7041494474</ele>
        <time>2015-04-22T16:41:42Z</time>
      </trkpt>
      <trkpt lat="44.67026" lon="3.59293">
        <ele>1323.7041494474</ele>
        <time>2015-04-22T16:41:47Z</time>
      </trkpt>
      <trkpt lat="44.67028" lon="3.59289">
        <ele>1323.7041494474</ele>
        <time>2015-04-22T16:41:52Z</time>
      </trkpt>
      <trkpt lat="44.67031" lon="3.59287">
        <ele>1324.7802290067</ele>
        <time>2015-04-22T16:41:57Z</time>
      </trkpt>
      <trkpt lat="44.67033" lon="3.59284">
        <ele>1324.7802290067</ele>
        <time>2015-04-22T16:42:02Z</time>
      </trkpt>
      <trkpt lat="44.67036" lon="3.59282">
        <ele>1324.7802290067</ele>
        <time>2015-04-22T16:42:07Z</time>
      </trkpt>
      <trkpt lat="44.67041" lon="3.5928">
        <ele>1325.6521232763</ele>
        <time>2015-04-22T16:42:12Z</time>
      </trkpt>
      <trkpt lat="44.67045" lon="3.59278">
        <ele>1325.6521232763</ele>
        <time>2015-04-22T16:42:17Z</time>
      </trkpt>
      <trkpt lat="44.67046" lon="3.59277">
        <ele>1325.6521232763</ele>
        <time>2015-04-22T16:42:22Z</time>
      </trkpt>
      <trkpt lat="44.67046" lon="3.59279">
        <ele>1325.6521232763</ele>
        <time>2015-04-22T16:42:27Z</time>
      </trkpt>
      <trkpt lat="44.67046" lon="3.59281">
        <ele>1325.6521232763</ele>
        <time>2015-04-22T16:42:32Z</time>
      </trkpt>
      <trkpt lat="44.67047" lon="3.5928">
        <ele>1327.487913648</ele>
        <time>2015-04-22T16:42:37Z</time>
      </trkpt>
      <trkpt lat="44.67047" lon="3.59279">
        <ele>1327.487913648</ele>
        <time>2015-04-22T16:42:42Z</time>
      </trkpt>
      <trkpt lat="44.67047" lon="3.59279">
        <ele>1327.487913648</ele>
        <time>2015-04-22T16:42:47Z</time>
      </trkpt>
      <trkpt lat="44.67047" lon="3.59279">
        <ele>1327.487913648</ele>
        <time>2015-04-22T16:42:52Z</time>
      </trkpt>
      <trkpt lat="44.67047" lon="3.59279">
        <ele>1327.487913648</ele>
        <time>2015-04-22T16:42:57Z</time>
      </trkpt>
      <trkpt lat="44.67047" lon="3.59279">
        <ele>1327.487913648</ele>
        <time>2015-04-22T16:43:02Z</time>
      </trkpt>
      <trkpt lat="44.67047" lon="3.59279">
        <ele>1327.487913648</ele>
        <time>2015-04-22T16:43:07Z</time>
      </trkpt>
      <trkpt lat="44.67047" lon="3.59279">
        <ele>1327.487913648</ele>
        <time>2015-04-22T16:43:12Z</time>
      </trkpt>
      <trkpt lat="44.67047" lon="3.59279">
        <ele>1327.487913648</ele>
        <time>2015-04-22T16:43:17Z</time>
      </trkpt>
      <trkpt lat="44.67047" lon="3.59279">
        <ele>1327.487913648</ele>
        <time>2015-04-22T16:43:22Z</time>
      </trkpt>
      <trkpt lat="44.67047" lon="3.5928">
        <ele>1327.487913648</ele>
        <time>2015-04-22T16:43:27Z</time>
      </trkpt>
      <trkpt lat="44.67047" lon="3.59281">
        <ele>1327.487913648</ele>
        <time>2015-04-22T16:43:32Z</time>
      </trkpt>
      <trkpt lat="44.67047" lon="3.59281">
        <ele>1327.487913648</ele>
        <time>2015-04-22T16:43:37Z</time>
      </trkpt>
      <trkpt lat="44.67047" lon="3.59281">
        <ele>1327.487913648</ele>
        <time>2015-04-22T16:43:42Z</time>
      </trkpt>
      <trkpt lat="44.67046" lon="3.59281">
        <ele>1327.487913648</ele>
        <time>2015-04-22T16:43:47Z</time>
      </trkpt>
      <trkpt lat="44.67047" lon="3.59281">
        <ele>1327.487913648</ele>
        <time>2015-04-22T16:43:52Z</time>
      </trkpt>
      <trkpt lat="44.67047" lon="3.59281">
        <ele>1327.487913648</ele>
        <time>2015-04-22T16:43:57Z</time>
      </trkpt>
      <trkpt lat="44.67047" lon="3.59281">
        <ele>1327.487913648</ele>
        <time>2015-04-22T16:44:02Z</time>
      </trkpt>
      <trkpt lat="44.67047" lon="3.59281">
        <ele>1327.487913648</ele>
        <time>2015-04-22T16:44:07Z</time>
      </trkpt>
      <trkpt lat="44.67047" lon="3.59281">
        <ele>1327.487913648</ele>
        <time>2015-04-22T16:44:12Z</time>
      </trkpt>
      <trkpt lat="44.67047" lon="3.59281">
        <ele>1327.487913648</ele>
        <time>2015-04-22T16:44:17Z</time>
      </trkpt>
      <trkpt lat="44.67047" lon="3.59281">
        <ele>1327.487913648</ele>
        <time>2015-04-22T16:44:22Z</time>
      </trkpt>
      <trkpt lat="44.67047" lon="3.59281">
        <ele>1327.487913648</ele>
        <time>2015-04-22T16:44:27Z</time>
      </trkpt>
      <trkpt lat="44.67047" lon="3.59281">
        <ele>1327.487913648</ele>
        <time>2015-04-22T16:44:32Z</time>
      </trkpt>
      <trkpt lat="44.67047" lon="3.59281">
        <ele>1327.487913648</ele>
        <time>2015-04-22T16:44:37Z</time>
      </trkpt>
      <trkpt lat="44.67047" lon="3.59281">
        <ele>1327.487913648</ele>
        <time>2015-04-22T16:44:42Z</time>
      </trkpt>
      <trkpt lat="44.67047" lon="3.59281">
        <ele>1327.487913648</ele>
        <time>2015-04-22T16:44:47Z</time>
      </trkpt>
      <trkpt lat="44.67047" lon="3.59281">
        <ele>1327.487913648</ele>
        <time>2015-04-22T16:44:52Z</time>
      </trkpt>
      <trkpt lat="44.67047" lon="3.59281">
        <ele>1327.487913648</ele>
        <time>2015-04-22T16:44:57Z</time>
      </trkpt>
      <trkpt lat="44.67047" lon="3.59281">
        <ele>1327.487913648</ele>
        <time>2015-04-22T16:45:02Z</time>
      </trkpt>
      <trkpt lat="44.67047" lon="3.59281">
        <ele>1327.487913648</ele>
        <time>2015-04-22T16:45:07Z</time>
      </trkpt>
      <trkpt lat="44.67047" lon="3.59281">
        <ele>1327.487913648</ele>
        <time>2015-04-22T16:45:12Z</time>
      </trkpt>
      <trkpt lat="44.67047" lon="3.59281">
        <ele>1327.487913648</ele>
        <time>2015-04-22T16:45:17Z</time>
      </trkpt>
      <trkpt lat="44.67047" lon="3.59279">
        <ele>1327.487913648</ele>
        <time>2015-04-22T16:45:22Z</time>
      </trkpt>
      <trkpt lat="44.67047" lon="3.59278">
        <ele>1327.487913648</ele>
        <time>2015-04-22T16:45:27Z</time>
      </trkpt>
      <trkpt lat="44.67048" lon="3.59277">
        <ele>1327.487913648</ele>
        <time>2015-04-22T16:45:32Z</time>
      </trkpt>
      <trkpt lat="44.67047" lon="3.59277">
        <ele>1327.487913648</ele>
        <time>2015-04-22T16:45:37Z</time>
      </trkpt>
      <trkpt lat="44.67047" lon="3.59276">
        <ele>1327.487913648</ele>
        <time>2015-04-22T16:45:42Z</time>
      </trkpt>
      <trkpt lat="44.67048" lon="3.59276">
        <ele>1327.487913648</ele>
        <time>2015-04-22T16:45:47Z</time>
      </trkpt>
      <trkpt lat="44.67048" lon="3.59276">
        <ele>1327.487913648</ele>
        <time>2015-04-22T16:45:52Z</time>
      </trkpt>
      <trkpt lat="44.67049" lon="3.59277">
        <ele>1327.487913648</ele>
        <time>2015-04-22T16:45:57Z</time>
      </trkpt>
      <trkpt lat="44.67048" lon="3.59277">
        <ele>1329.4218081005</ele>
        <time>2015-04-22T16:46:02Z</time>
      </trkpt>
      <trkpt lat="44.67048" lon="3.59277">
        <ele>1329.4218081005</ele>
        <time>2015-04-22T16:46:07Z</time>
      </trkpt>
      <trkpt lat="44.67048" lon="3.59277">
        <ele>1329.4218081005</ele>
        <time>2015-04-22T16:46:12Z</time>
      </trkpt>
      <trkpt lat="44.67048" lon="3.59276">
        <ele>1329.4218081005</ele>
        <time>2015-04-22T16:46:17Z</time>
      </trkpt>
      <trkpt lat="44.67047" lon="3.59276">
        <ele>1329.4218081005</ele>
        <time>2015-04-22T16:46:22Z</time>
      </trkpt>
      <trkpt lat="44.67048" lon="3.59276">
        <ele>1329.4218081005</ele>
        <time>2015-04-22T16:46:27Z</time>
      </trkpt>
      <trkpt lat="44.67048" lon="3.59276">
        <ele>1329.4218081005</ele>
        <time>2015-04-22T16:46:32Z</time>
      </trkpt>
      <trkpt lat="44.67048" lon="3.59276">
        <ele>1329.4218081005</ele>
        <time>2015-04-22T16:46:37Z</time>
      </trkpt>
      <trkpt lat="44.67048" lon="3.59276">
        <ele>1329.4218081005</ele>
        <time>2015-04-22T16:46:42Z</time>
      </trkpt>
      <trkpt lat="44.67048" lon="3.59276">
        <ele>1329.4218081005</ele>
        <time>2015-04-22T16:46:47Z</time>
      </trkpt>
      <trkpt lat="44.67048" lon="3.59276">
        <ele>1329.4218081005</ele>
        <time>2015-04-22T16:46:52Z</time>
      </trkpt>
      <trkpt lat="44.67048" lon="3.59276">
        <ele>1329.4218081005</ele>
        <time>2015-04-22T16:46:57Z</time>
      </trkpt>
      <trkpt lat="44.67048" lon="3.59276">
        <ele>1329.4218081005</ele>
        <time>2015-04-22T16:47:02Z</time>
      </trkpt>
      <trkpt lat="44.67048" lon="3.59276">
        <ele>1329.4218081005</ele>
        <time>2015-04-22T16:47:07Z</time>
      </trkpt>
      <trkpt lat="44.67048" lon="3.59276">
        <ele>1329.4218081005</ele>
        <time>2015-04-22T16:47:12Z</time>
      </trkpt>
      <trkpt lat="44.67048" lon="3.59276">
        <ele>1329.4218081005</ele>
        <time>2015-04-22T16:47:17Z</time>
      </trkpt>
      <trkpt lat="44.67048" lon="3.59276">
        <ele>1329.4218081005</ele>
        <time>2015-04-22T16:47:22Z</time>
      </trkpt>
      <trkpt lat="44.67048" lon="3.59276">
        <ele>1329.4218081005</ele>
        <time>2015-04-22T16:47:27Z</time>
      </trkpt>
      <trkpt lat="44.67048" lon="3.59276">
        <ele>1329.4218081005</ele>
        <time>2015-04-22T16:47:37Z</time>
      </trkpt>
      <trkpt lat="44.67048" lon="3.59276">
        <ele>1329.4218081005</ele>
        <time>2015-04-22T16:47:42Z</time>
      </trkpt>
      <trkpt lat="44.67048" lon="3.59276">
        <ele>1329.4218081005</ele>
        <time>2015-04-22T16:47:47Z</time>
      </trkpt>
      <trkpt lat="44.67047" lon="3.59275">
        <ele>1329.4218081005</ele>
        <time>2015-04-22T16:47:52Z</time>
      </trkpt>
      <trkpt lat="44.67047" lon="3.59274">
        <ele>1329.4218081005</ele>
        <time>2015-04-22T16:47:57Z</time>
      </trkpt>
      <trkpt lat="44.67047" lon="3.59275">
        <ele>1329.4218081005</ele>
        <time>2015-04-22T16:48:02Z</time>
      </trkpt>
      <trkpt lat="44.67047" lon="3.59275">
        <ele>1329.4218081005</ele>
        <time>2015-04-22T16:48:07Z</time>
      </trkpt>
      <trkpt lat="44.67047" lon="3.59275">
        <ele>1329.4218081005</ele>
        <time>2015-04-22T16:48:12Z</time>
      </trkpt>
      <trkpt lat="44.67048" lon="3.59275">
        <ele>1329.4218081005</ele>
        <time>2015-04-22T16:48:17Z</time>
      </trkpt>
      <trkpt lat="44.67048" lon="3.59276">
        <ele>1329.4218081005</ele>
        <time>2015-04-22T16:48:22Z</time>
      </trkpt>
      <trkpt lat="44.67048" lon="3.59276">
        <ele>1329.4218081005</ele>
        <time>2015-04-22T16:48:27Z</time>
      </trkpt>
      <trkpt lat="44.67048" lon="3.59276">
        <ele>1329.4218081005</ele>
        <time>2015-04-22T16:48:32Z</time>
      </trkpt>
      <trkpt lat="44.67048" lon="3.59276">
        <ele>1329.4218081005</ele>
        <time>2015-04-22T16:48:37Z</time>
      </trkpt>
      <trkpt lat="44.67048" lon="3.59276">
        <ele>1329.4218081005</ele>
        <time>2015-04-22T16:48:42Z</time>
      </trkpt>
      <trkpt lat="44.67048" lon="3.59276">
        <ele>1329.4218081005</ele>
        <time>2015-04-22T16:48:47Z</time>
      </trkpt>
      <trkpt lat="44.67048" lon="3.59276">
        <ele>1329.4218081005</ele>
        <time>2015-04-22T16:48:52Z</time>
      </trkpt>
      <trkpt lat="44.67048" lon="3.59276">
        <ele>1329.4218081005</ele>
        <time>2015-04-22T16:49:02Z</time>
      </trkpt>
      <trkpt lat="44.67048" lon="3.59276">
        <ele>1329.4218081005</ele>
        <time>2015-04-22T16:49:07Z</time>
      </trkpt>
      <trkpt lat="44.67048" lon="3.59276">
        <ele>1329.4218081005</ele>
        <time>2015-04-22T16:49:12Z</time>
      </trkpt>
      <trkpt lat="44.67048" lon="3.59276">
        <ele>1329.4218081005</ele>
        <time>2015-04-22T16:49:17Z</time>
      </trkpt>
      <trkpt lat="44.67048" lon="3.59276">
        <ele>1329.4218081005</ele>
        <time>2015-04-22T16:49:22Z</time>
      </trkpt>
      <trkpt lat="44.67048" lon="3.59276">
        <ele>1329.4218081005</ele>
        <time>2015-04-22T16:49:27Z</time>
      </trkpt>
      <trkpt lat="44.67048" lon="3.59276">
        <ele>1329.4218081005</ele>
        <time>2015-04-22T16:49:32Z</time>
      </trkpt>
      <trkpt lat="44.67048" lon="3.59276">
        <ele>1329.4218081005</ele>
        <time>2015-04-22T16:49:37Z</time>
      </trkpt>
      <trkpt lat="44.67048" lon="3.59276">
        <ele>1329.4218081005</ele>
        <time>2015-04-22T16:49:42Z</time>
      </trkpt>
      <trkpt lat="44.67048" lon="3.59276">
        <ele>1329.4218081005</ele>
        <time>2015-04-22T16:49:47Z</time>
      </trkpt>
      <trkpt lat="44.67048" lon="3.59276">
        <ele>1329.4218081005</ele>
        <time>2015-04-22T16:49:52Z</time>
      </trkpt>
      <trkpt lat="44.67048" lon="3.59276">
        <ele>1329.4218081005</ele>
        <time>2015-04-22T16:49:57Z</time>
      </trkpt>
      <trkpt lat="44.67048" lon="3.59276">
        <ele>1329.4218081005</ele>
        <time>2015-04-22T16:50:02Z</time>
      </trkpt>
      <trkpt lat="44.67048" lon="3.59277">
        <ele>1329.4218081005</ele>
        <time>2015-04-22T16:50:07Z</time>
      </trkpt>
      <trkpt lat="44.67048" lon="3.59277">
        <ele>1329.4218081005</ele>
        <time>2015-04-22T16:50:12Z</time>
      </trkpt>
      <trkpt lat="44.67048" lon="3.59277">
        <ele>1329.4218081005</ele>
        <time>2015-04-22T16:50:17Z</time>
      </trkpt>
      <trkpt lat="44.67048" lon="3.59277">
        <ele>1329.4218081005</ele>
        <time>2015-04-22T16:50:22Z</time>
      </trkpt>
      <trkpt lat="44.67048" lon="3.59276">
        <ele>1329.4218081005</ele>
        <time>2015-04-22T16:50:27Z</time>
      </trkpt>
      <trkpt lat="44.67048" lon="3.59276">
        <ele>1329.4218081005</ele>
        <time>2015-04-22T16:50:32Z</time>
      </trkpt>
      <trkpt lat="44.67048" lon="3.59276">
        <ele>1329.4218081005</ele>
        <time>2015-04-22T16:50:37Z</time>
      </trkpt>
      <trkpt lat="44.67048" lon="3.59276">
        <ele>1329.4218081005</ele>
        <time>2015-04-22T16:50:42Z</time>
      </trkpt>
      <trkpt lat="44.67048" lon="3.59276">
        <ele>1329.4218081005</ele>
        <time>2015-04-22T16:50:47Z</time>
      </trkpt>
      <trkpt lat="44.67048" lon="3.59276">
        <ele>1329.4218081005</ele>
        <time>2015-04-22T16:50:52Z</time>
      </trkpt>
      <trkpt lat="44.67048" lon="3.59276">
        <ele>1329.4218081005</ele>
        <time>2015-04-22T16:50:57Z</time>
      </trkpt>
      <trkpt lat="44.67048" lon="3.59276">
        <ele>1329.4218081005</ele>
        <time>2015-04-22T16:51:02Z</time>
      </trkpt>
      <trkpt lat="44.67048" lon="3.59276">
        <ele>1329.4218081005</ele>
        <time>2015-04-22T16:51:07Z</time>
      </trkpt>
      <trkpt lat="44.67048" lon="3.59276">
        <ele>1329.4218081005</ele>
        <time>2015-04-22T16:51:12Z</time>
      </trkpt>
      <trkpt lat="44.67048" lon="3.59277">
        <ele>1329.4218081005</ele>
        <time>2015-04-22T16:51:17Z</time>
      </trkpt>
      <trkpt lat="44.67048" lon="3.59277">
        <ele>1329.4218081005</ele>
        <time>2015-04-22T16:51:22Z</time>
      </trkpt>
      <trkpt lat="44.67048" lon="3.59277">
        <ele>1329.4218081005</ele>
        <time>2015-04-22T16:51:27Z</time>
      </trkpt>
      <trkpt lat="44.67048" lon="3.59276">
        <ele>1329.4218081005</ele>
        <time>2015-04-22T16:51:32Z</time>
      </trkpt>
      <trkpt lat="44.67048" lon="3.59276">
        <ele>1329.4218081005</ele>
        <time>2015-04-22T16:51:37Z</time>
      </trkpt>
      <trkpt lat="44.67048" lon="3.59276">
        <ele>1329.4218081005</ele>
        <time>2015-04-22T16:51:42Z</time>
      </trkpt>
      <trkpt lat="44.67048" lon="3.59276">
        <ele>1329.4218081005</ele>
        <time>2015-04-22T16:51:47Z</time>
      </trkpt>
      <trkpt lat="44.67048" lon="3.59276">
        <ele>1329.4218081005</ele>
        <time>2015-04-22T16:51:52Z</time>
      </trkpt>
      <trkpt lat="44.67048" lon="3.59276">
        <ele>1329.4218081005</ele>
        <time>2015-04-22T16:51:57Z</time>
      </trkpt>
      <trkpt lat="44.67048" lon="3.59276">
        <ele>1329.4218081005</ele>
        <time>2015-04-22T16:52:02Z</time>
      </trkpt>
      <trkpt lat="44.67048" lon="3.59276">
        <ele>1329.4218081005</ele>
        <time>2015-04-22T16:52:07Z</time>
      </trkpt>
      <trkpt lat="44.67048" lon="3.59276">
        <ele>1329.4218081005</ele>
        <time>2015-04-22T16:52:12Z</time>
      </trkpt>
      <trkpt lat="44.67048" lon="3.59276">
        <ele>1329.4218081005</ele>
        <time>2015-04-22T16:52:17Z</time>
      </trkpt>
      <trkpt lat="44.67051" lon="3.59273">
        <ele>1331.0405715112</ele>
        <time>2015-04-22T16:52:22Z</time>
      </trkpt>
      <trkpt lat="44.67054" lon="3.59269">
        <ele>1331.0405715112</ele>
        <time>2015-04-22T16:52:27Z</time>
      </trkpt>
      <trkpt lat="44.67057" lon="3.59268">
        <ele>1331.0405715112</ele>
        <time>2015-04-22T16:52:32Z</time>
      </trkpt>
      <trkpt lat="44.67056" lon="3.59267">
        <ele>1331.0405715112</ele>
        <time>2015-04-22T16:52:37Z</time>
      </trkpt>
      <trkpt lat="44.67056" lon="3.59267">
        <ele>1331.0405715112</ele>
        <time>2015-04-22T16:52:42Z</time>
      </trkpt>
      <trkpt lat="44.67057" lon="3.59267">
        <ele>1331.0405715112</ele>
        <time>2015-04-22T16:52:47Z</time>
      </trkpt>
      <trkpt lat="44.67057" lon="3.59267">
        <ele>1331.0405715112</ele>
        <time>2015-04-22T16:52:52Z</time>
      </trkpt>
      <trkpt lat="44.67057" lon="3.59267">
        <ele>1331.0405715112</ele>
        <time>2015-04-22T16:52:57Z</time>
      </trkpt>
      <trkpt lat="44.67057" lon="3.59267">
        <ele>1331.0405715112</ele>
        <time>2015-04-22T16:53:02Z</time>
      </trkpt>
      <trkpt lat="44.67058" lon="3.59267">
        <ele>1332.49554621</ele>
        <time>2015-04-22T16:53:07Z</time>
      </trkpt>
      <trkpt lat="44.67058" lon="3.59267">
        <ele>1332.49554621</ele>
        <time>2015-04-22T16:53:12Z</time>
      </trkpt>
      <trkpt lat="44.67059" lon="3.59267">
        <ele>1332.49554621</ele>
        <time>2015-04-22T16:53:17Z</time>
      </trkpt>
      <trkpt lat="44.67059" lon="3.59267">
        <ele>1332.49554621</ele>
        <time>2015-04-22T16:53:22Z</time>
      </trkpt>
      <trkpt lat="44.67059" lon="3.59267">
        <ele>1332.49554621</ele>
        <time>2015-04-22T16:53:27Z</time>
      </trkpt>
      <trkpt lat="44.67059" lon="3.59267">
        <ele>1332.49554621</ele>
        <time>2015-04-22T16:53:32Z</time>
      </trkpt>
      <trkpt lat="44.67059" lon="3.59265">
        <ele>1332.49554621</ele>
        <time>2015-04-22T16:53:37Z</time>
      </trkpt>
      <trkpt lat="44.67061" lon="3.59263">
        <ele>1332.49554621</ele>
        <time>2015-04-22T16:53:42Z</time>
      </trkpt>
      <trkpt lat="44.67061" lon="3.5926">
        <ele>1332.49554621</ele>
        <time>2015-04-22T16:53:47Z</time>
      </trkpt>
      <trkpt lat="44.67061" lon="3.5926">
        <ele>1332.49554621</ele>
        <time>2015-04-22T16:53:52Z</time>
      </trkpt>
      <trkpt lat="44.67061" lon="3.5926">
        <ele>1332.49554621</ele>
        <time>2015-04-22T16:53:57Z</time>
      </trkpt>
      <trkpt lat="44.67061" lon="3.5926">
        <ele>1332.49554621</ele>
        <time>2015-04-22T16:54:02Z</time>
      </trkpt>
      <trkpt lat="44.67061" lon="3.5926">
        <ele>1332.49554621</ele>
        <time>2015-04-22T16:54:07Z</time>
      </trkpt>
      <trkpt lat="44.67061" lon="3.59259">
        <ele>1332.49554621</ele>
        <time>2015-04-22T16:54:12Z</time>
      </trkpt>
      <trkpt lat="44.67061" lon="3.59258">
        <ele>1333.0484582554</ele>
        <time>2015-04-22T16:54:17Z</time>
      </trkpt>
      <trkpt lat="44.67063" lon="3.59253">
        <ele>1333.0484582554</ele>
        <time>2015-04-22T16:54:22Z</time>
      </trkpt>
      <trkpt lat="44.67065" lon="3.59251">
        <ele>1333.0484582554</ele>
        <time>2015-04-22T16:54:27Z</time>
      </trkpt>
      <trkpt lat="44.67068" lon="3.59247">
        <ele>1333.7328322894</ele>
        <time>2015-04-22T16:54:32Z</time>
      </trkpt>
      <trkpt lat="44.67072" lon="3.59244">
        <ele>1333.7328322894</ele>
        <time>2015-04-22T16:54:37Z</time>
      </trkpt>
      <trkpt lat="44.67075" lon="3.59241">
        <ele>1333.7328322894</ele>
        <time>2015-04-22T16:54:42Z</time>
      </trkpt>
      <trkpt lat="44.67079" lon="3.59237">
        <ele>1334.3387033689</ele>
        <time>2015-04-22T16:54:47Z</time>
      </trkpt>
      <trkpt lat="44.67083" lon="3.59234">
        <ele>1334.3387033689</ele>
        <time>2015-04-22T16:54:52Z</time>
      </trkpt>
      <trkpt lat="44.67087" lon="3.5923">
        <ele>1335.0321189122</ele>
        <time>2015-04-22T16:54:57Z</time>
      </trkpt>
      <trkpt lat="44.6709" lon="3.59227">
        <ele>1335.0321189122</ele>
        <time>2015-04-22T16:55:02Z</time>
      </trkpt>
      <trkpt lat="44.67093" lon="3.59223">
        <ele>1335.0321189122</ele>
        <time>2015-04-22T16:55:07Z</time>
      </trkpt>
      <trkpt lat="44.67096" lon="3.59218">
        <ele>1336.2117512985</ele>
        <time>2015-04-22T16:55:12Z</time>
      </trkpt>
      <trkpt lat="44.67099" lon="3.59213">
        <ele>1336.2117512985</ele>
        <time>2015-04-22T16:55:17Z</time>
      </trkpt>
      <trkpt lat="44.67102" lon="3.59209">
        <ele>1336.2117512985</ele>
        <time>2015-04-22T16:55:22Z</time>
      </trkpt>
      <trkpt lat="44.67106" lon="3.59206">
        <ele>1337.3233808586</ele>
        <time>2015-04-22T16:55:27Z</time>
      </trkpt>
      <trkpt lat="44.67109" lon="3.59203">
        <ele>1337.3233808586</ele>
        <time>2015-04-22T16:55:32Z</time>
      </trkpt>
      <trkpt lat="44.67113" lon="3.59199">
        <ele>1338.4157863278</ele>
        <time>2015-04-22T16:55:37Z</time>
      </trkpt>
      <trkpt lat="44.67117" lon="3.59196">
        <ele>1338.4157863278</ele>
        <time>2015-04-22T16:55:42Z</time>
      </trkpt>
      <trkpt lat="44.6712" lon="3.59191">
        <ele>1338.4157863278</ele>
        <time>2015-04-22T16:55:47Z</time>
      </trkpt>
      <trkpt lat="44.67122" lon="3.59185">
        <ele>1339.3757491946</ele>
        <time>2015-04-22T16:55:52Z</time>
      </trkpt>
      <trkpt lat="44.67123" lon="3.59177">
        <ele>1339.3757491946</ele>
        <time>2015-04-22T16:55:57Z</time>
      </trkpt>
      <trkpt lat="44.67125" lon="3.5917">
        <ele>1340.314954143</ele>
        <time>2015-04-22T16:56:02Z</time>
      </trkpt>
      <trkpt lat="44.67127" lon="3.59165">
        <ele>1340.314954143</ele>
        <time>2015-04-22T16:56:07Z</time>
      </trkpt>
      <trkpt lat="44.67128" lon="3.59161">
        <ele>1340.314954143</ele>
        <time>2015-04-22T16:56:12Z</time>
      </trkpt>
      <trkpt lat="44.6713" lon="3.59158">
        <ele>1341.3658036544</ele>
        <time>2015-04-22T16:56:17Z</time>
      </trkpt>
      <trkpt lat="44.67132" lon="3.59154">
        <ele>1341.3658036544</ele>
        <time>2015-04-22T16:56:22Z</time>
      </trkpt>
      <trkpt lat="44.67133" lon="3.59152">
        <ele>1341.3658036544</ele>
        <time>2015-04-22T16:56:27Z</time>
      </trkpt>
      <trkpt lat="44.67133" lon="3.5915">
        <ele>1341.3658036544</ele>
        <time>2015-04-22T16:56:32Z</time>
      </trkpt>
      <trkpt lat="44.67135" lon="3.59144">
        <ele>1342.1030733068</ele>
        <time>2015-04-22T16:56:37Z</time>
      </trkpt>
      <trkpt lat="44.67138" lon="3.59137">
        <ele>1342.1030733068</ele>
        <time>2015-04-22T16:56:42Z</time>
      </trkpt>
      <trkpt lat="44.67141" lon="3.5913">
        <ele>1343.2145177345</ele>
        <time>2015-04-22T16:56:47Z</time>
      </trkpt>
      <trkpt lat="44.67143" lon="3.59121">
        <ele>1343.2145177345</ele>
        <time>2015-04-22T16:56:52Z</time>
      </trkpt>
      <trkpt lat="44.67146" lon="3.59114">
        <ele>1344.457265228</ele>
        <time>2015-04-22T16:56:57Z</time>
      </trkpt>
      <trkpt lat="44.67149" lon="3.59108">
        <ele>1344.457265228</ele>
        <time>2015-04-22T16:57:02Z</time>
      </trkpt>
      <trkpt lat="44.67152" lon="3.59101">
        <ele>1345.6491691214</ele>
        <time>2015-04-22T16:57:07Z</time>
      </trkpt>
      <trkpt lat="44.67152" lon="3.59094">
        <ele>1345.6491691214</ele>
        <time>2015-04-22T16:57:12Z</time>
      </trkpt>
      <trkpt lat="44.67153" lon="3.59088">
        <ele>1346.6360315036</ele>
        <time>2015-04-22T16:57:17Z</time>
      </trkpt>
      <trkpt lat="44.67155" lon="3.5908">
        <ele>1346.6360315036</ele>
        <time>2015-04-22T16:57:22Z</time>
      </trkpt>
      <trkpt lat="44.67155" lon="3.59074">
        <ele>1347.3043897145</ele>
        <time>2015-04-22T16:57:27Z</time>
      </trkpt>
      <trkpt lat="44.67156" lon="3.59068">
        <ele>1347.3043897145</ele>
        <time>2015-04-22T16:57:32Z</time>
      </trkpt>
      <trkpt lat="44.67157" lon="3.59064">
        <ele>1347.3043897145</ele>
        <time>2015-04-22T16:57:37Z</time>
      </trkpt>
      <trkpt lat="44.67159" lon="3.59059">
        <ele>1347.780592969</ele>
        <time>2015-04-22T16:57:42Z</time>
      </trkpt>
      <trkpt lat="44.67159" lon="3.59058">
        <ele>1347.780592969</ele>
        <time>2015-04-22T16:57:47Z</time>
      </trkpt>
      <trkpt lat="44.6716" lon="3.59057">
        <ele>1347.780592969</ele>
        <time>2015-04-22T16:57:52Z</time>
      </trkpt>
      <trkpt lat="44.6716" lon="3.59057">
        <ele>1347.780592969</ele>
        <time>2015-04-22T16:57:57Z</time>
      </trkpt>
      <trkpt lat="44.67159" lon="3.59054">
        <ele>1347.780592969</ele>
        <time>2015-04-22T16:58:02Z</time>
      </trkpt>
      <trkpt lat="44.67159" lon="3.59051">
        <ele>1347.780592969</ele>
        <time>2015-04-22T16:58:07Z</time>
      </trkpt>
      <trkpt lat="44.6716" lon="3.59048">
        <ele>1347.677857564</ele>
        <time>2015-04-22T16:58:12Z</time>
      </trkpt>
      <trkpt lat="44.67162" lon="3.59045">
        <ele>1347.677857564</ele>
        <time>2015-04-22T16:58:17Z</time>
      </trkpt>
      <trkpt lat="44.67165" lon="3.59039">
        <ele>1347.677857564</ele>
        <time>2015-04-22T16:58:22Z</time>
      </trkpt>
      <trkpt lat="44.67168" lon="3.59029">
        <ele>1347.8499612148</ele>
        <time>2015-04-22T16:58:27Z</time>
      </trkpt>
      <trkpt lat="44.67171" lon="3.59023">
        <ele>1347.8499612148</ele>
        <time>2015-04-22T16:58:32Z</time>
      </trkpt>
      <trkpt lat="44.67176" lon="3.59019">
        <ele>1348.5107304014</ele>
        <time>2015-04-22T16:58:37Z</time>
      </trkpt>
      <trkpt lat="44.6718" lon="3.59012">
        <ele>1348.5107304014</ele>
        <time>2015-04-22T16:58:42Z</time>
      </trkpt>
      <trkpt lat="44.67181" lon="3.59004">
        <ele>1348.8336980647</ele>
        <time>2015-04-22T16:58:47Z</time>
      </trkpt>
      <trkpt lat="44.67185" lon="3.58996">
        <ele>1348.8336980647</ele>
        <time>2015-04-22T16:58:52Z</time>
      </trkpt>
      <trkpt lat="44.6719" lon="3.58989">
        <ele>1348.8322232007</ele>
        <time>2015-04-22T16:58:57Z</time>
      </trkpt>
      <trkpt lat="44.67193" lon="3.5898">
        <ele>1348.8322232007</ele>
        <time>2015-04-22T16:59:02Z</time>
      </trkpt>
      <trkpt lat="44.67194" lon="3.58956">
        <ele>1348.6492527833</ele>
        <time>2015-04-22T16:59:07Z</time>
      </trkpt>
      <trkpt lat="44.67196" lon="3.58938">
        <ele>1348.3888714121</ele>
        <time>2015-04-22T16:59:12Z</time>
      </trkpt>
      <trkpt lat="44.67196" lon="3.58929">
        <ele>1348.3888714121</ele>
        <time>2015-04-22T16:59:17Z</time>
      </trkpt>
      <trkpt lat="44.67196" lon="3.58919">
        <ele>1348.0035665213</ele>
        <time>2015-04-22T16:59:22Z</time>
      </trkpt>
      <trkpt lat="44.67196" lon="3.58908">
        <ele>1348.0035665213</ele>
        <time>2015-04-22T16:59:27Z</time>
      </trkpt>
      <trkpt lat="44.67198" lon="3.58898">
        <ele>1347.2910772472</ele>
        <time>2015-04-22T16:59:32Z</time>
      </trkpt>
      <trkpt lat="44.67201" lon="3.58887">
        <ele>1347.2910772472</ele>
        <time>2015-04-22T16:59:37Z</time>
      </trkpt>
      <trkpt lat="44.67203" lon="3.5888">
        <ele>1346.6989314652</ele>
        <time>2015-04-22T16:59:42Z</time>
      </trkpt>
      <trkpt lat="44.67208" lon="3.58867">
        <ele>1346.2954922296</ele>
        <time>2015-04-22T16:59:47Z</time>
      </trkpt>
      <trkpt lat="44.67218" lon="3.58841">
        <ele>1345.9849554451</ele>
        <time>2015-04-22T16:59:52Z</time>
      </trkpt>
      <trkpt lat="44.67231" lon="3.5881">
        <ele>1346.0528831549</ele>
        <time>2015-04-22T16:59:57Z</time>
      </trkpt>
      <trkpt lat="44.67244" lon="3.58776">
        <ele>1345.854793299</ele>
        <time>2015-04-22T17:00:02Z</time>
      </trkpt>
      <trkpt lat="44.67261" lon="3.58736">
        <ele>1345.6588522288</ele>
        <time>2015-04-22T17:00:07Z</time>
      </trkpt>
      <trkpt lat="44.6728" lon="3.58692">
        <ele>1345.6413551597</ele>
        <time>2015-04-22T17:00:12Z</time>
      </trkpt>
      <trkpt lat="44.67299" lon="3.58644">
        <ele>1345.5038787067</ele>
        <time>2015-04-22T17:00:17Z</time>
      </trkpt>
      <trkpt lat="44.67321" lon="3.58596">
        <ele>1345.805990614</ele>
        <time>2015-04-22T17:00:22Z</time>
      </trkpt>
      <trkpt lat="44.67343" lon="3.58551">
        <ele>1346.1713191839</ele>
        <time>2015-04-22T17:00:27Z</time>
      </trkpt>
      <trkpt lat="44.67364" lon="3.58515">
        <ele>1346.913765906</ele>
        <time>2015-04-22T17:00:32Z</time>
      </trkpt>
      <trkpt lat="44.67379" lon="3.58473">
        <ele>1347.746566047</ele>
        <time>2015-04-22T17:00:37Z</time>
      </trkpt>
      <trkpt lat="44.67391" lon="3.58445">
        <ele>1348.5333682154</ele>
        <time>2015-04-22T17:00:42Z</time>
      </trkpt>
      <trkpt lat="44.67394" lon="3.58433">
        <ele>1349.2343407132</ele>
        <time>2015-04-22T17:00:47Z</time>
      </trkpt>
      <trkpt lat="44.67397" lon="3.58423">
        <ele>1349.2343407132</ele>
        <time>2015-04-22T17:00:52Z</time>
      </trkpt>
      <trkpt lat="44.674" lon="3.58414">
        <ele>1349.9424330969</ele>
        <time>2015-04-22T17:00:57Z</time>
      </trkpt>
      <trkpt lat="44.67404" lon="3.58404">
        <ele>1349.9424330969</ele>
        <time>2015-04-22T17:01:02Z</time>
      </trkpt>
      <trkpt lat="44.67408" lon="3.58393">
        <ele>1350.6427898743</ele>
        <time>2015-04-22T17:01:07Z</time>
      </trkpt>
      <trkpt lat="44.67411" lon="3.58384">
        <ele>1350.6427898743</ele>
        <time>2015-04-22T17:01:12Z</time>
      </trkpt>
      <trkpt lat="44.67414" lon="3.58377">
        <ele>1351.2063059926</ele>
        <time>2015-04-22T17:01:17Z</time>
      </trkpt>
      <trkpt lat="44.67417" lon="3.58368">
        <ele>1351.2063059926</ele>
        <time>2015-04-22T17:01:22Z</time>
      </trkpt>
      <trkpt lat="44.67421" lon="3.58361">
        <ele>1351.6721978947</ele>
        <time>2015-04-22T17:01:27Z</time>
      </trkpt>
      <trkpt lat="44.67425" lon="3.58354">
        <ele>1351.6721978947</ele>
        <time>2015-04-22T17:01:32Z</time>
      </trkpt>
      <trkpt lat="44.67429" lon="3.58345">
        <ele>1352.2499443866</ele>
        <time>2015-04-22T17:01:37Z</time>
      </trkpt>
      <trkpt lat="44.67433" lon="3.58336">
        <ele>1352.2499443866</ele>
        <time>2015-04-22T17:01:42Z</time>
      </trkpt>
      <trkpt lat="44.67437" lon="3.58327">
        <ele>1352.9747402616</ele>
        <time>2015-04-22T17:01:47Z</time>
      </trkpt>
      <trkpt lat="44.67441" lon="3.58318">
        <ele>1352.9747402616</ele>
        <time>2015-04-22T17:01:52Z</time>
      </trkpt>
      <trkpt lat="44.67444" lon="3.58309">
        <ele>1353.4319817999</ele>
        <time>2015-04-22T17:01:57Z</time>
      </trkpt>
      <trkpt lat="44.67447" lon="3.58301">
        <ele>1353.4319817999</ele>
        <time>2015-04-22T17:02:02Z</time>
      </trkpt>
      <trkpt lat="44.6745" lon="3.58293">
        <ele>1353.7137866276</ele>
        <time>2015-04-22T17:02:07Z</time>
      </trkpt>
      <trkpt lat="44.67453" lon="3.58284">
        <ele>1353.7137866276</ele>
        <time>2015-04-22T17:02:12Z</time>
      </trkpt>
      <trkpt lat="44.67457" lon="3.58275">
        <ele>1354.1365260453</ele>
        <time>2015-04-22T17:02:17Z</time>
      </trkpt>
      <trkpt lat="44.67461" lon="3.58267">
        <ele>1354.1365260453</ele>
        <time>2015-04-22T17:02:22Z</time>
      </trkpt>
      <trkpt lat="44.67467" lon="3.5826">
        <ele>1354.3876214874</ele>
        <time>2015-04-22T17:02:27Z</time>
      </trkpt>
      <trkpt lat="44.67472" lon="3.58255">
        <ele>1354.3876214874</ele>
        <time>2015-04-22T17:02:32Z</time>
      </trkpt>
      <trkpt lat="44.67477" lon="3.5826">
        <ele>1354.2643582321</ele>
        <time>2015-04-22T17:02:37Z</time>
      </trkpt>
      <trkpt lat="44.6748" lon="3.5827">
        <ele>1354.2643582321</ele>
        <time>2015-04-22T17:02:42Z</time>
      </trkpt>
      <trkpt lat="44.67484" lon="3.58278">
        <ele>1354.0987171706</ele>
        <time>2015-04-22T17:02:47Z</time>
      </trkpt>
      <trkpt lat="44.67489" lon="3.58285">
        <ele>1354.0987171706</ele>
        <time>2015-04-22T17:02:52Z</time>
      </trkpt>
      <trkpt lat="44.67494" lon="3.58293">
        <ele>1353.7948526525</ele>
        <time>2015-04-22T17:02:57Z</time>
      </trkpt>
      <trkpt lat="44.675" lon="3.583">
        <ele>1353.7948526525</ele>
        <time>2015-04-22T17:03:02Z</time>
      </trkpt>
      <trkpt lat="44.67507" lon="3.58306">
        <ele>1353.2354758394</ele>
        <time>2015-04-22T17:03:07Z</time>
      </trkpt>
      <trkpt lat="44.67514" lon="3.58309">
        <ele>1353.2354758394</ele>
        <time>2015-04-22T17:03:12Z</time>
      </trkpt>
      <trkpt lat="44.6752" lon="3.58313">
        <ele>1352.413455208</ele>
        <time>2015-04-22T17:03:17Z</time>
      </trkpt>
      <trkpt lat="44.67527" lon="3.58316">
        <ele>1352.413455208</ele>
        <time>2015-04-22T17:03:22Z</time>
      </trkpt>
      <trkpt lat="44.67534" lon="3.5832">
        <ele>1351.380506204</ele>
        <time>2015-04-22T17:03:27Z</time>
      </trkpt>
      <trkpt lat="44.6754" lon="3.58324">
        <ele>1351.380506204</ele>
        <time>2015-04-22T17:03:32Z</time>
      </trkpt>
      <trkpt lat="44.67548" lon="3.58328">
        <ele>1350.2715395233</ele>
        <time>2015-04-22T17:03:37Z</time>
      </trkpt>
      <trkpt lat="44.67555" lon="3.58331">
        <ele>1350.2715395233</ele>
        <time>2015-04-22T17:03:42Z</time>
      </trkpt>
      <trkpt lat="44.67562" lon="3.58333">
        <ele>1348.966708384</ele>
        <time>2015-04-22T17:03:47Z</time>
      </trkpt>
      <trkpt lat="44.67569" lon="3.58336">
        <ele>1348.966708384</ele>
        <time>2015-04-22T17:03:52Z</time>
      </trkpt>
      <trkpt lat="44.67576" lon="3.58338">
        <ele>1347.6004293809</ele>
        <time>2015-04-22T17:03:57Z</time>
      </trkpt>
      <trkpt lat="44.67583" lon="3.58341">
        <ele>1347.6004293809</ele>
        <time>2015-04-22T17:04:02Z</time>
      </trkpt>
      <trkpt lat="44.67591" lon="3.58343">
        <ele>1346.2108638924</ele>
        <time>2015-04-22T17:04:07Z</time>
      </trkpt>
      <trkpt lat="44.67598" lon="3.58346">
        <ele>1346.2108638924</ele>
        <time>2015-04-22T17:04:12Z</time>
      </trkpt>
      <trkpt lat="44.67605" lon="3.58348">
        <ele>1344.7324630191</ele>
        <time>2015-04-22T17:04:17Z</time>
      </trkpt>
      <trkpt lat="44.67611" lon="3.58352">
        <ele>1344.7324630191</ele>
        <time>2015-04-22T17:04:22Z</time>
      </trkpt>
      <trkpt lat="44.67618" lon="3.58353">
        <ele>1342.744361556</ele>
        <time>2015-04-22T17:04:27Z</time>
      </trkpt>
      <trkpt lat="44.67625" lon="3.58354">
        <ele>1342.744361556</ele>
        <time>2015-04-22T17:04:32Z</time>
      </trkpt>
      <trkpt lat="44.67633" lon="3.58355">
        <ele>1340.7225964672</ele>
        <time>2015-04-22T17:04:37Z</time>
      </trkpt>
      <trkpt lat="44.67641" lon="3.58357">
        <ele>1340.7225964672</ele>
        <time>2015-04-22T17:04:42Z</time>
      </trkpt>
      <trkpt lat="44.67648" lon="3.58358">
        <ele>1338.8199876885</ele>
        <time>2015-04-22T17:04:47Z</time>
      </trkpt>
      <trkpt lat="44.67655" lon="3.5836">
        <ele>1338.8199876885</ele>
        <time>2015-04-22T17:04:52Z</time>
      </trkpt>
      <trkpt lat="44.67662" lon="3.58363">
        <ele>1336.9038552797</ele>
        <time>2015-04-22T17:04:57Z</time>
      </trkpt>
      <trkpt lat="44.67668" lon="3.58367">
        <ele>1336.9038552797</ele>
        <time>2015-04-22T17:05:02Z</time>
      </trkpt>
      <trkpt lat="44.67676" lon="3.58372">
        <ele>1335.0241008831</ele>
        <time>2015-04-22T17:05:07Z</time>
      </trkpt>
      <trkpt lat="44.67683" lon="3.58375">
        <ele>1335.0241008831</ele>
        <time>2015-04-22T17:05:12Z</time>
      </trkpt>
      <trkpt lat="44.6769" lon="3.58378">
        <ele>1333.342004495</ele>
        <time>2015-04-22T17:05:17Z</time>
      </trkpt>
      <trkpt lat="44.67698" lon="3.58382">
        <ele>1333.342004495</ele>
        <time>2015-04-22T17:05:22Z</time>
      </trkpt>
      <trkpt lat="44.67704" lon="3.58387">
        <ele>1331.9342411606</ele>
        <time>2015-04-22T17:05:27Z</time>
      </trkpt>
      <trkpt lat="44.6771" lon="3.58394">
        <ele>1331.9342411606</ele>
        <time>2015-04-22T17:05:32Z</time>
      </trkpt>
      <trkpt lat="44.67714" lon="3.58404">
        <ele>1331.0294567094</ele>
        <time>2015-04-22T17:05:37Z</time>
      </trkpt>
      <trkpt lat="44.67721" lon="3.58413">
        <ele>1330.319140734</ele>
        <time>2015-04-22T17:05:42Z</time>
      </trkpt>
      <trkpt lat="44.67728" lon="3.58422">
        <ele>1329.9058551833</ele>
        <time>2015-04-22T17:05:47Z</time>
      </trkpt>
      <trkpt lat="44.67733" lon="3.58429">
        <ele>1329.9058551833</ele>
        <time>2015-04-22T17:05:52Z</time>
      </trkpt>
      <trkpt lat="44.67736" lon="3.58439">
        <ele>1330.2871679494</ele>
        <time>2015-04-22T17:05:57Z</time>
      </trkpt>
      <trkpt lat="44.67738" lon="3.58449">
        <ele>1330.2871679494</ele>
        <time>2015-04-22T17:06:02Z</time>
      </trkpt>
      <trkpt lat="44.67741" lon="3.58459">
        <ele>1331.0570724768</ele>
        <time>2015-04-22T17:06:07Z</time>
      </trkpt>
      <trkpt lat="44.67745" lon="3.58468">
        <ele>1331.0570724768</ele>
        <time>2015-04-22T17:06:12Z</time>
      </trkpt>
      <trkpt lat="44.67749" lon="3.58475">
        <ele>1332.1552281061</ele>
        <time>2015-04-22T17:06:17Z</time>
      </trkpt>
      <trkpt lat="44.67752" lon="3.5848">
        <ele>1332.1552281061</ele>
        <time>2015-04-22T17:06:22Z</time>
      </trkpt>
      <trkpt lat="44.67755" lon="3.58489">
        <ele>1333.3950088488</ele>
        <time>2015-04-22T17:06:27Z</time>
      </trkpt>
      <trkpt lat="44.67758" lon="3.58498">
        <ele>1333.3950088488</ele>
        <time>2015-04-22T17:06:32Z</time>
      </trkpt>
      <trkpt lat="44.6776" lon="3.58505">
        <ele>1334.747133469</ele>
        <time>2015-04-22T17:06:37Z</time>
      </trkpt>
      <trkpt lat="44.67762" lon="3.58513">
        <ele>1334.747133469</ele>
        <time>2015-04-22T17:06:42Z</time>
      </trkpt>
      <trkpt lat="44.67765" lon="3.58521">
        <ele>1336.2849750771</ele>
        <time>2015-04-22T17:06:47Z</time>
      </trkpt>
      <trkpt lat="44.67771" lon="3.58531">
        <ele>1337.9174336074</ele>
        <time>2015-04-22T17:06:52Z</time>
      </trkpt>
      <trkpt lat="44.67775" lon="3.58539">
        <ele>1337.9174336074</ele>
        <time>2015-04-22T17:06:57Z</time>
      </trkpt>
      <trkpt lat="44.6778" lon="3.58545">
        <ele>1339.2715918597</ele>
        <time>2015-04-22T17:07:02Z</time>
      </trkpt>
      <trkpt lat="44.67784" lon="3.58552">
        <ele>1339.2715918597</ele>
        <time>2015-04-22T17:07:07Z</time>
      </trkpt>
      <trkpt lat="44.67788" lon="3.58561">
        <ele>1340.7088483874</ele>
        <time>2015-04-22T17:07:12Z</time>
      </trkpt>
      <trkpt lat="44.6779" lon="3.58572">
        <ele>1340.7088483874</ele>
        <time>2015-04-22T17:07:17Z</time>
      </trkpt>
      <trkpt lat="44.67792" lon="3.58582">
        <ele>1342.4773666503</ele>
        <time>2015-04-22T17:07:22Z</time>
      </trkpt>
      <trkpt lat="44.67795" lon="3.58591">
        <ele>1342.4773666503</ele>
        <time>2015-04-22T17:07:27Z</time>
      </trkpt>
      <trkpt lat="44.67798" lon="3.586">
        <ele>1344.1288567123</ele>
        <time>2015-04-22T17:07:32Z</time>
      </trkpt>
      <trkpt lat="44.67799" lon="3.58611">
        <ele>1344.1288567123</ele>
        <time>2015-04-22T17:07:37Z</time>
      </trkpt>
      <trkpt lat="44.67802" lon="3.5862">
        <ele>1345.7815421994</ele>
        <time>2015-04-22T17:07:42Z</time>
      </trkpt>
      <trkpt lat="44.67805" lon="3.58627">
        <ele>1345.7815421994</ele>
        <time>2015-04-22T17:07:47Z</time>
      </trkpt>
      <trkpt lat="44.67807" lon="3.58636">
        <ele>1347.5017821601</ele>
        <time>2015-04-22T17:07:52Z</time>
      </trkpt>
      <trkpt lat="44.6781" lon="3.58645">
        <ele>1347.5017821601</ele>
        <time>2015-04-22T17:07:57Z</time>
      </trkpt>
      <trkpt lat="44.67812" lon="3.58655">
        <ele>1349.3653525737</ele>
        <time>2015-04-22T17:08:02Z</time>
      </trkpt>
      <trkpt lat="44.67813" lon="3.58667">
        <ele>1349.3653525737</ele>
        <time>2015-04-22T17:08:07Z</time>
      </trkpt>
      <trkpt lat="44.67813" lon="3.58678">
        <ele>1351.3412654848</ele>
        <time>2015-04-22T17:08:12Z</time>
      </trkpt>
      <trkpt lat="44.67815" lon="3.58685">
        <ele>1351.3412654848</ele>
        <time>2015-04-22T17:08:17Z</time>
      </trkpt>
      <trkpt lat="44.67814" lon="3.58695">
        <ele>1353.4149996436</ele>
        <time>2015-04-22T17:08:22Z</time>
      </trkpt>
      <trkpt lat="44.67811" lon="3.58702">
        <ele>1353.4149996436</ele>
        <time>2015-04-22T17:08:27Z</time>
      </trkpt>
      <trkpt lat="44.67811" lon="3.58712">
        <ele>1355.4720541483</ele>
        <time>2015-04-22T17:08:32Z</time>
      </trkpt>
      <trkpt lat="44.67813" lon="3.58721">
        <ele>1355.4720541483</ele>
        <time>2015-04-22T17:08:37Z</time>
      </trkpt>
      <trkpt lat="44.6782" lon="3.58727">
        <ele>1357.3776802964</ele>
        <time>2015-04-22T17:08:42Z</time>
      </trkpt>
      <trkpt lat="44.67825" lon="3.58733">
        <ele>1357.3776802964</ele>
        <time>2015-04-22T17:08:47Z</time>
      </trkpt>
      <trkpt lat="44.6783" lon="3.5874">
        <ele>1359.3390345606</ele>
        <time>2015-04-22T17:08:52Z</time>
      </trkpt>
      <trkpt lat="44.67835" lon="3.58745">
        <ele>1359.3390345606</ele>
        <time>2015-04-22T17:08:57Z</time>
      </trkpt>
      <trkpt lat="44.6784" lon="3.58751">
        <ele>1361.2742227585</ele>
        <time>2015-04-22T17:09:02Z</time>
      </trkpt>
      <trkpt lat="44.67845" lon="3.58758">
        <ele>1361.2742227585</ele>
        <time>2015-04-22T17:09:07Z</time>
      </trkpt>
      <trkpt lat="44.6785" lon="3.58761">
        <ele>1362.9778811133</ele>
        <time>2015-04-22T17:09:12Z</time>
      </trkpt>
      <trkpt lat="44.67855" lon="3.58767">
        <ele>1362.9778811133</ele>
        <time>2015-04-22T17:09:17Z</time>
      </trkpt>
      <trkpt lat="44.6786" lon="3.58771">
        <ele>1364.4911052196</ele>
        <time>2015-04-22T17:09:22Z</time>
      </trkpt>
      <trkpt lat="44.67865" lon="3.58774">
        <ele>1364.4911052196</ele>
        <time>2015-04-22T17:09:27Z</time>
      </trkpt>
      <trkpt lat="44.67871" lon="3.58777">
        <ele>1365.7373661467</ele>
        <time>2015-04-22T17:09:32Z</time>
      </trkpt>
      <trkpt lat="44.67877" lon="3.58783">
        <ele>1365.7373661467</ele>
        <time>2015-04-22T17:09:37Z</time>
      </trkpt>
      <trkpt lat="44.67882" lon="3.58787">
        <ele>1367.1942785116</ele>
        <time>2015-04-22T17:09:42Z</time>
      </trkpt>
      <trkpt lat="44.67889" lon="3.58788">
        <ele>1367.1942785116</ele>
        <time>2015-04-22T17:09:47Z</time>
      </trkpt>
      <trkpt lat="44.67897" lon="3.58791">
        <ele>1368.5833750562</ele>
        <time>2015-04-22T17:09:52Z</time>
      </trkpt>
      <trkpt lat="44.67904" lon="3.58795">
        <ele>1368.5833750562</ele>
        <time>2015-04-22T17:09:57Z</time>
      </trkpt>
      <trkpt lat="44.6791" lon="3.588">
        <ele>1370.3963626639</ele>
        <time>2015-04-22T17:10:02Z</time>
      </trkpt>
      <trkpt lat="44.67916" lon="3.58804">
        <ele>1370.3963626639</ele>
        <time>2015-04-22T17:10:07Z</time>
      </trkpt>
      <trkpt lat="44.67923" lon="3.58809">
        <ele>1372.4825216152</ele>
        <time>2015-04-22T17:10:12Z</time>
      </trkpt>
      <trkpt lat="44.67929" lon="3.58812">
        <ele>1372.4825216152</ele>
        <time>2015-04-22T17:10:17Z</time>
      </trkpt>
      <trkpt lat="44.67935" lon="3.58815">
        <ele>1374.4854217541</ele>
        <time>2015-04-22T17:10:22Z</time>
      </trkpt>
      <trkpt lat="44.6794" lon="3.58818">
        <ele>1374.4854217541</ele>
        <time>2015-04-22T17:10:27Z</time>
      </trkpt>
      <trkpt lat="44.67949" lon="3.58826">
        <ele>1376.4066576381</ele>
        <time>2015-04-22T17:10:32Z</time>
      </trkpt>
      <trkpt lat="44.67955" lon="3.58829">
        <ele>1376.4066576381</ele>
        <time>2015-04-22T17:10:37Z</time>
      </trkpt>
      <trkpt lat="44.67961" lon="3.58831">
        <ele>1378.0175114163</ele>
        <time>2015-04-22T17:10:42Z</time>
      </trkpt>
      <trkpt lat="44.67968" lon="3.58833">
        <ele>1378.0175114163</ele>
        <time>2015-04-22T17:10:47Z</time>
      </trkpt>
      <trkpt lat="44.67974" lon="3.58836">
        <ele>1379.6258913767</ele>
        <time>2015-04-22T17:10:52Z</time>
      </trkpt>
      <trkpt lat="44.6798" lon="3.5884">
        <ele>1379.6258913767</ele>
        <time>2015-04-22T17:10:57Z</time>
      </trkpt>
      <trkpt lat="44.67986" lon="3.58844">
        <ele>1380.7678677007</ele>
        <time>2015-04-22T17:11:02Z</time>
      </trkpt>
      <trkpt lat="44.67992" lon="3.5885">
        <ele>1380.7678677007</ele>
        <time>2015-04-22T17:11:07Z</time>
      </trkpt>
      <trkpt lat="44.67997" lon="3.58856">
        <ele>1382.4273374588</ele>
        <time>2015-04-22T17:11:12Z</time>
      </trkpt>
      <trkpt lat="44.68002" lon="3.5886">
        <ele>1382.4273374588</ele>
        <time>2015-04-22T17:11:17Z</time>
      </trkpt>
      <trkpt lat="44.68009" lon="3.58862">
        <ele>1384.2032034616</ele>
        <time>2015-04-22T17:11:22Z</time>
      </trkpt>
      <trkpt lat="44.68015" lon="3.58863">
        <ele>1384.2032034616</ele>
        <time>2015-04-22T17:11:27Z</time>
      </trkpt>
      <trkpt lat="44.68023" lon="3.58864">
        <ele>1385.8245261266</ele>
        <time>2015-04-22T17:11:32Z</time>
      </trkpt>
      <trkpt lat="44.68031" lon="3.58863">
        <ele>1385.8245261266</ele>
        <time>2015-04-22T17:11:37Z</time>
      </trkpt>
      <trkpt lat="44.68038" lon="3.58864">
        <ele>1387.4587634835</ele>
        <time>2015-04-22T17:11:42Z</time>
      </trkpt>
      <trkpt lat="44.68046" lon="3.58866">
        <ele>1387.4587634835</ele>
        <time>2015-04-22T17:11:47Z</time>
      </trkpt>
      <trkpt lat="44.68052" lon="3.58869">
        <ele>1388.9729491919</ele>
        <time>2015-04-22T17:11:52Z</time>
      </trkpt>
      <trkpt lat="44.68059" lon="3.58871">
        <ele>1388.9729491919</ele>
        <time>2015-04-22T17:11:57Z</time>
      </trkpt>
      <trkpt lat="44.68066" lon="3.58878">
        <ele>1390.6910983264</ele>
        <time>2015-04-22T17:12:02Z</time>
      </trkpt>
      <trkpt lat="44.68072" lon="3.58882">
        <ele>1390.6910983264</ele>
        <time>2015-04-22T17:12:07Z</time>
      </trkpt>
      <trkpt lat="44.68077" lon="3.58888">
        <ele>1392.0771353843</ele>
        <time>2015-04-22T17:12:12Z</time>
      </trkpt>
      <trkpt lat="44.68081" lon="3.58892">
        <ele>1392.0771353843</ele>
        <time>2015-04-22T17:12:17Z</time>
      </trkpt>
      <trkpt lat="44.68084" lon="3.58896">
        <ele>1392.5489519685</ele>
        <time>2015-04-22T17:12:22Z</time>
      </trkpt>
      <trkpt lat="44.68089" lon="3.58899">
        <ele>1392.5489519685</ele>
        <time>2015-04-22T17:12:27Z</time>
      </trkpt>
      <trkpt lat="44.68099" lon="3.58904">
        <ele>1393.5730266356</ele>
        <time>2015-04-22T17:12:32Z</time>
      </trkpt>
      <trkpt lat="44.68108" lon="3.5891">
        <ele>1394.7196915576</ele>
        <time>2015-04-22T17:12:37Z</time>
      </trkpt>
      <trkpt lat="44.68113" lon="3.58914">
        <ele>1394.7196915576</ele>
        <time>2015-04-22T17:12:42Z</time>
      </trkpt>
      <trkpt lat="44.68118" lon="3.58917">
        <ele>1395.9652868679</ele>
        <time>2015-04-22T17:12:47Z</time>
      </trkpt>
      <trkpt lat="44.68123" lon="3.58918">
        <ele>1395.9652868679</ele>
        <time>2015-04-22T17:12:52Z</time>
      </trkpt>
      <trkpt lat="44.68129" lon="3.58922">
        <ele>1397.2156495988</ele>
        <time>2015-04-22T17:12:57Z</time>
      </trkpt>
      <trkpt lat="44.68135" lon="3.58927">
        <ele>1397.2156495988</ele>
        <time>2015-04-22T17:13:02Z</time>
      </trkpt>
      <trkpt lat="44.68142" lon="3.58931">
        <ele>1398.3836061936</ele>
        <time>2015-04-22T17:13:07Z</time>
      </trkpt>
      <trkpt lat="44.68146" lon="3.58937">
        <ele>1398.3836061936</ele>
        <time>2015-04-22T17:13:12Z</time>
      </trkpt>
      <trkpt lat="44.68151" lon="3.58944">
        <ele>1399.4895754712</ele>
        <time>2015-04-22T17:13:17Z</time>
      </trkpt>
      <trkpt lat="44.68156" lon="3.58952">
        <ele>1399.4895754712</ele>
        <time>2015-04-22T17:13:22Z</time>
      </trkpt>
      <trkpt lat="44.68161" lon="3.5896">
        <ele>1400.5671350651</ele>
        <time>2015-04-22T17:13:27Z</time>
      </trkpt>
      <trkpt lat="44.68163" lon="3.58969">
        <ele>1400.5671350651</ele>
        <time>2015-04-22T17:13:32Z</time>
      </trkpt>
      <trkpt lat="44.68167" lon="3.58979">
        <ele>1401.6331323336</ele>
        <time>2015-04-22T17:13:37Z</time>
      </trkpt>
      <trkpt lat="44.6817" lon="3.58986">
        <ele>1401.6331323336</ele>
        <time>2015-04-22T17:13:42Z</time>
      </trkpt>
      <trkpt lat="44.68175" lon="3.58995">
        <ele>1402.4871040134</ele>
        <time>2015-04-22T17:13:47Z</time>
      </trkpt>
      <trkpt lat="44.68179" lon="3.59006">
        <ele>1402.4871040134</ele>
        <time>2015-04-22T17:13:52Z</time>
      </trkpt>
      <trkpt lat="44.68183" lon="3.59015">
        <ele>1403.6933409275</ele>
        <time>2015-04-22T17:13:57Z</time>
      </trkpt>
      <trkpt lat="44.68186" lon="3.5902">
        <ele>1403.6933409275</ele>
        <time>2015-04-22T17:14:02Z</time>
      </trkpt>
      <trkpt lat="44.68189" lon="3.59027">
        <ele>1404.9378981175</ele>
        <time>2015-04-22T17:14:07Z</time>
      </trkpt>
      <trkpt lat="44.68194" lon="3.59032">
        <ele>1404.9378981175</ele>
        <time>2015-04-22T17:14:12Z</time>
      </trkpt>
      <trkpt lat="44.68199" lon="3.59037">
        <ele>1406.2036412259</ele>
        <time>2015-04-22T17:14:17Z</time>
      </trkpt>
      <trkpt lat="44.68204" lon="3.59046">
        <ele>1406.2036412259</ele>
        <time>2015-04-22T17:14:22Z</time>
      </trkpt>
      <trkpt lat="44.6821" lon="3.59051">
        <ele>1407.1432193384</ele>
        <time>2015-04-22T17:14:27Z</time>
      </trkpt>
      <trkpt lat="44.68214" lon="3.59058">
        <ele>1407.1432193384</ele>
        <time>2015-04-22T17:14:32Z</time>
      </trkpt>
      <trkpt lat="44.68217" lon="3.59064">
        <ele>1407.7527922082</ele>
        <time>2015-04-22T17:14:37Z</time>
      </trkpt>
      <trkpt lat="44.68222" lon="3.59071">
        <ele>1407.7527922082</ele>
        <time>2015-04-22T17:14:42Z</time>
      </trkpt>
      <trkpt lat="44.68227" lon="3.59077">
        <ele>1408.0874006517</ele>
        <time>2015-04-22T17:14:47Z</time>
      </trkpt>
      <trkpt lat="44.68232" lon="3.59085">
        <ele>1408.0874006517</ele>
        <time>2015-04-22T17:14:52Z</time>
      </trkpt>
      <trkpt lat="44.68237" lon="3.59095">
        <ele>1408.587935276</ele>
        <time>2015-04-22T17:14:57Z</time>
      </trkpt>
      <trkpt lat="44.68242" lon="3.59102">
        <ele>1408.587935276</ele>
        <time>2015-04-22T17:15:02Z</time>
      </trkpt>
      <trkpt lat="44.68247" lon="3.59111">
        <ele>1409.3309917973</ele>
        <time>2015-04-22T17:15:07Z</time>
      </trkpt>
      <trkpt lat="44.68253" lon="3.59117">
        <ele>1409.3309917973</ele>
        <time>2015-04-22T17:15:12Z</time>
      </trkpt>
      <trkpt lat="44.68258" lon="3.59124">
        <ele>1409.7527755434</ele>
        <time>2015-04-22T17:15:17Z</time>
      </trkpt>
      <trkpt lat="44.68263" lon="3.59131">
        <ele>1409.7527755434</ele>
        <time>2015-04-22T17:15:22Z</time>
      </trkpt>
      <trkpt lat="44.68268" lon="3.59138">
        <ele>1409.5479731179</ele>
        <time>2015-04-22T17:15:27Z</time>
      </trkpt>
      <trkpt lat="44.68271" lon="3.59145">
        <ele>1409.5479731179</ele>
        <time>2015-04-22T17:15:32Z</time>
      </trkpt>
      <trkpt lat="44.68274" lon="3.59153">
        <ele>1409.1127676805</ele>
        <time>2015-04-22T17:15:37Z</time>
      </trkpt>
      <trkpt lat="44.6828" lon="3.5916">
        <ele>1409.1127676805</ele>
        <time>2015-04-22T17:15:42Z</time>
      </trkpt>
      <trkpt lat="44.68284" lon="3.59169">
        <ele>1408.6995743877</ele>
        <time>2015-04-22T17:15:47Z</time>
      </trkpt>
      <trkpt lat="44.68288" lon="3.59179">
        <ele>1408.6995743877</ele>
        <time>2015-04-22T17:15:52Z</time>
      </trkpt>
      <trkpt lat="44.68293" lon="3.59185">
        <ele>1407.9945479061</ele>
        <time>2015-04-22T17:15:57Z</time>
      </trkpt>
      <trkpt lat="44.68297" lon="3.59192">
        <ele>1407.9945479061</ele>
        <time>2015-04-22T17:16:02Z</time>
      </trkpt>
      <trkpt lat="44.68303" lon="3.59205">
        <ele>1408.2496609494</ele>
        <time>2015-04-22T17:16:07Z</time>
      </trkpt>
      <trkpt lat="44.68311" lon="3.59225">
        <ele>1408.8063688183</ele>
        <time>2015-04-22T17:16:12Z</time>
      </trkpt>
      <trkpt lat="44.68317" lon="3.59237">
        <ele>1409.0824183699</ele>
        <time>2015-04-22T17:16:17Z</time>
      </trkpt>
      <trkpt lat="44.68322" lon="3.59244">
        <ele>1409.0824183699</ele>
        <time>2015-04-22T17:16:22Z</time>
      </trkpt>
      <trkpt lat="44.68327" lon="3.59253">
        <ele>1409.6054735142</ele>
        <time>2015-04-22T17:16:27Z</time>
      </trkpt>
      <trkpt lat="44.68331" lon="3.59258">
        <ele>1409.6054735142</ele>
        <time>2015-04-22T17:16:32Z</time>
      </trkpt>
      <trkpt lat="44.68336" lon="3.59267">
        <ele>1410.388110273</ele>
        <time>2015-04-22T17:16:37Z</time>
      </trkpt>
      <trkpt lat="44.68341" lon="3.59277">
        <ele>1410.388110273</ele>
        <time>2015-04-22T17:16:42Z</time>
      </trkpt>
      <trkpt lat="44.68346" lon="3.59283">
        <ele>1410.6485737373</ele>
        <time>2015-04-22T17:16:47Z</time>
      </trkpt>
      <trkpt lat="44.68349" lon="3.59288">
        <ele>1410.6485737373</ele>
        <time>2015-04-22T17:16:52Z</time>
      </trkpt>
      <trkpt lat="44.68354" lon="3.5929">
        <ele>1410.1250869833</ele>
        <time>2015-04-22T17:16:57Z</time>
      </trkpt>
      <trkpt lat="44.68359" lon="3.59296">
        <ele>1410.1250869833</ele>
        <time>2015-04-22T17:17:02Z</time>
      </trkpt>
      <trkpt lat="44.68363" lon="3.59309">
        <ele>1410.1336306975</ele>
        <time>2015-04-22T17:17:07Z</time>
      </trkpt>
      <trkpt lat="44.68368" lon="3.59317">
        <ele>1410.1336306975</ele>
        <time>2015-04-22T17:17:12Z</time>
      </trkpt>
      <trkpt lat="44.68373" lon="3.59325">
        <ele>1410.104967672</ele>
        <time>2015-04-22T17:17:17Z</time>
      </trkpt>
      <trkpt lat="44.68377" lon="3.59334">
        <ele>1410.104967672</ele>
        <time>2015-04-22T17:17:22Z</time>
      </trkpt>
      <trkpt lat="44.68382" lon="3.59341">
        <ele>1410.0016786754</ele>
        <time>2015-04-22T17:17:27Z</time>
      </trkpt>
      <trkpt lat="44.68387" lon="3.59346">
        <ele>1410.0016786754</ele>
        <time>2015-04-22T17:17:32Z</time>
      </trkpt>
      <trkpt lat="44.68392" lon="3.59349">
        <ele>1409.0110165451</ele>
        <time>2015-04-22T17:17:37Z</time>
      </trkpt>
      <trkpt lat="44.68396" lon="3.59354">
        <ele>1409.0110165451</ele>
        <time>2015-04-22T17:17:42Z</time>
      </trkpt>
      <trkpt lat="44.68402" lon="3.5936">
        <ele>1407.3478796727</ele>
        <time>2015-04-22T17:17:47Z</time>
      </trkpt>
      <trkpt lat="44.68409" lon="3.59366">
        <ele>1407.3478796727</ele>
        <time>2015-04-22T17:17:52Z</time>
      </trkpt>
      <trkpt lat="44.68414" lon="3.59371">
        <ele>1405.3284535201</ele>
        <time>2015-04-22T17:17:57Z</time>
      </trkpt>
      <trkpt lat="44.68418" lon="3.5938">
        <ele>1405.3284535201</ele>
        <time>2015-04-22T17:18:02Z</time>
      </trkpt>
      <trkpt lat="44.68422" lon="3.59388">
        <ele>1403.7221495643</ele>
        <time>2015-04-22T17:18:07Z</time>
      </trkpt>
      <trkpt lat="44.68427" lon="3.59395">
        <ele>1403.7221495643</ele>
        <time>2015-04-22T17:18:12Z</time>
      </trkpt>
      <trkpt lat="44.68433" lon="3.59401">
        <ele>1402.4623736146</ele>
        <time>2015-04-22T17:18:17Z</time>
      </trkpt>
      <trkpt lat="44.68439" lon="3.59407">
        <ele>1402.4623736146</ele>
        <time>2015-04-22T17:18:22Z</time>
      </trkpt>
      <trkpt lat="44.68446" lon="3.59416">
        <ele>1402.2789273247</ele>
        <time>2015-04-22T17:18:27Z</time>
      </trkpt>
      <trkpt lat="44.68453" lon="3.59422">
        <ele>1402.2789273247</ele>
        <time>2015-04-22T17:18:32Z</time>
      </trkpt>
      <trkpt lat="44.68458" lon="3.59427">
        <ele>1401.8416951703</ele>
        <time>2015-04-22T17:18:37Z</time>
      </trkpt>
      <trkpt lat="44.68465" lon="3.59432">
        <ele>1401.8416951703</ele>
        <time>2015-04-22T17:18:42Z</time>
      </trkpt>
      <trkpt lat="44.68473" lon="3.59433">
        <ele>1401.2158392275</ele>
        <time>2015-04-22T17:18:47Z</time>
      </trkpt>
      <trkpt lat="44.68481" lon="3.59438">
        <ele>1401.2158392275</ele>
        <time>2015-04-22T17:18:52Z</time>
      </trkpt>
      <trkpt lat="44.68487" lon="3.59443">
        <ele>1400.7647532279</ele>
        <time>2015-04-22T17:18:57Z</time>
      </trkpt>
      <trkpt lat="44.68493" lon="3.59449">
        <ele>1400.7647532279</ele>
        <time>2015-04-22T17:19:02Z</time>
      </trkpt>
      <trkpt lat="44.685" lon="3.59453">
        <ele>1399.9742466884</ele>
        <time>2015-04-22T17:19:07Z</time>
      </trkpt>
      <trkpt lat="44.68508" lon="3.59456">
        <ele>1399.9742466884</ele>
        <time>2015-04-22T17:19:12Z</time>
      </trkpt>
      <trkpt lat="44.68515" lon="3.59461">
        <ele>1399.2333775213</ele>
        <time>2015-04-22T17:19:17Z</time>
      </trkpt>
      <trkpt lat="44.68521" lon="3.59467">
        <ele>1399.2333775213</ele>
        <time>2015-04-22T17:19:22Z</time>
      </trkpt>
      <trkpt lat="44.68528" lon="3.59474">
        <ele>1398.9743982487</ele>
        <time>2015-04-22T17:19:27Z</time>
      </trkpt>
      <trkpt lat="44.6854" lon="3.59484">
        <ele>1398.0399147994</ele>
        <time>2015-04-22T17:19:32Z</time>
      </trkpt>
      <trkpt lat="44.68552" lon="3.59496">
        <ele>1397.059820856</ele>
        <time>2015-04-22T17:19:37Z</time>
      </trkpt>
      <trkpt lat="44.68557" lon="3.595">
        <ele>1397.059820856</ele>
        <time>2015-04-22T17:19:42Z</time>
      </trkpt>
      <trkpt lat="44.68561" lon="3.59506">
        <ele>1396.1133375215</ele>
        <time>2015-04-22T17:19:47Z</time>
      </trkpt>
      <trkpt lat="44.68567" lon="3.59513">
        <ele>1396.1133375215</ele>
        <time>2015-04-22T17:19:52Z</time>
      </trkpt>
      <trkpt lat="44.68572" lon="3.5952">
        <ele>1395.6483224089</ele>
        <time>2015-04-22T17:19:57Z</time>
      </trkpt>
      <trkpt lat="44.68578" lon="3.59524">
        <ele>1395.6483224089</ele>
        <time>2015-04-22T17:20:02Z</time>
      </trkpt>
      <trkpt lat="44.68584" lon="3.59529">
        <ele>1394.8821223776</ele>
        <time>2015-04-22T17:20:07Z</time>
      </trkpt>
      <trkpt lat="44.68589" lon="3.59535">
        <ele>1394.8821223776</ele>
        <time>2015-04-22T17:20:12Z</time>
      </trkpt>
      <trkpt lat="44.68594" lon="3.59542">
        <ele>1394.1422975514</ele>
        <time>2015-04-22T17:20:17Z</time>
      </trkpt>
      <trkpt lat="44.686" lon="3.59547">
        <ele>1394.1422975514</ele>
        <time>2015-04-22T17:20:22Z</time>
      </trkpt>
      <trkpt lat="44.68606" lon="3.59552">
        <ele>1393.2709816843</ele>
        <time>2015-04-22T17:20:27Z</time>
      </trkpt>
      <trkpt lat="44.68611" lon="3.59558">
        <ele>1393.2709816843</ele>
        <time>2015-04-22T17:20:32Z</time>
      </trkpt>
      <trkpt lat="44.68617" lon="3.59564">
        <ele>1392.7418208075</ele>
        <time>2015-04-22T17:20:37Z</time>
      </trkpt>
      <trkpt lat="44.68623" lon="3.5957">
        <ele>1392.7418208075</ele>
        <time>2015-04-22T17:20:42Z</time>
      </trkpt>
      <trkpt lat="44.68629" lon="3.59576">
        <ele>1391.7243997703</ele>
        <time>2015-04-22T17:20:47Z</time>
      </trkpt>
      <trkpt lat="44.68635" lon="3.59581">
        <ele>1391.7243997703</ele>
        <time>2015-04-22T17:20:52Z</time>
      </trkpt>
      <trkpt lat="44.68641" lon="3.59584">
        <ele>1391.1078268622</ele>
        <time>2015-04-22T17:20:57Z</time>
      </trkpt>
      <trkpt lat="44.68648" lon="3.59589">
        <ele>1391.1078268622</ele>
        <time>2015-04-22T17:21:02Z</time>
      </trkpt>
      <trkpt lat="44.68653" lon="3.59594">
        <ele>1390.7779269406</ele>
        <time>2015-04-22T17:21:07Z</time>
      </trkpt>
      <trkpt lat="44.68659" lon="3.59598">
        <ele>1390.7779269406</ele>
        <time>2015-04-22T17:21:12Z</time>
      </trkpt>
      <trkpt lat="44.6867" lon="3.59606">
        <ele>1390.3109444364</ele>
        <time>2015-04-22T17:21:17Z</time>
      </trkpt>
      <trkpt lat="44.68684" lon="3.59618">
        <ele>1390.1936016737</ele>
        <time>2015-04-22T17:21:22Z</time>
      </trkpt>
      <trkpt lat="44.6869" lon="3.59624">
        <ele>1390.1936016737</ele>
        <time>2015-04-22T17:21:27Z</time>
      </trkpt>
      <trkpt lat="44.68696" lon="3.59629">
        <ele>1389.5643662037</ele>
        <time>2015-04-22T17:21:32Z</time>
      </trkpt>
      <trkpt lat="44.68701" lon="3.59633">
        <ele>1389.5643662037</ele>
        <time>2015-04-22T17:21:37Z</time>
      </trkpt>
      <trkpt lat="44.68707" lon="3.59637">
        <ele>1388.8800940104</ele>
        <time>2015-04-22T17:21:42Z</time>
      </trkpt>
      <trkpt lat="44.68714" lon="3.5964">
        <ele>1388.8800940104</ele>
        <time>2015-04-22T17:21:47Z</time>
      </trkpt>
      <trkpt lat="44.68719" lon="3.59644">
        <ele>1388.0021036737</ele>
        <time>2015-04-22T17:21:52Z</time>
      </trkpt>
      <trkpt lat="44.68725" lon="3.59651">
        <ele>1388.0021036737</ele>
        <time>2015-04-22T17:21:57Z</time>
      </trkpt>
      <trkpt lat="44.68732" lon="3.59656">
        <ele>1387.5084957235</ele>
        <time>2015-04-22T17:22:02Z</time>
      </trkpt>
      <trkpt lat="44.68738" lon="3.59662">
        <ele>1387.5084957235</ele>
        <time>2015-04-22T17:22:07Z</time>
      </trkpt>
      <trkpt lat="44.68744" lon="3.59666">
        <ele>1387.0546572455</ele>
        <time>2015-04-22T17:22:12Z</time>
      </trkpt>
      <trkpt lat="44.6875" lon="3.59671">
        <ele>1387.0546572455</ele>
        <time>2015-04-22T17:22:17Z</time>
      </trkpt>
      <trkpt lat="44.68756" lon="3.59676">
        <ele>1386.3210921846</ele>
        <time>2015-04-22T17:22:22Z</time>
      </trkpt>
      <trkpt lat="44.68763" lon="3.5968">
        <ele>1386.3210921846</ele>
        <time>2015-04-22T17:22:27Z</time>
      </trkpt>
      <trkpt lat="44.68769" lon="3.59684">
        <ele>1385.3295203408</ele>
        <time>2015-04-22T17:22:32Z</time>
      </trkpt>
      <trkpt lat="44.68775" lon="3.59689">
        <ele>1385.3295203408</ele>
        <time>2015-04-22T17:22:37Z</time>
      </trkpt>
      <trkpt lat="44.68781" lon="3.59694">
        <ele>1384.2448202659</ele>
        <time>2015-04-22T17:22:42Z</time>
      </trkpt>
      <trkpt lat="44.68787" lon="3.597">
        <ele>1384.2448202659</ele>
        <time>2015-04-22T17:22:47Z</time>
      </trkpt>
      <trkpt lat="44.68793" lon="3.59706">
        <ele>1383.0470072296</ele>
        <time>2015-04-22T17:22:52Z</time>
      </trkpt>
      <trkpt lat="44.688" lon="3.59709">
        <ele>1383.0470072296</ele>
        <time>2015-04-22T17:22:57Z</time>
      </trkpt>
      <trkpt lat="44.68808" lon="3.59712">
        <ele>1381.933969843</ele>
        <time>2015-04-22T17:23:02Z</time>
      </trkpt>
      <trkpt lat="44.68814" lon="3.59717">
        <ele>1381.933969843</ele>
        <time>2015-04-22T17:23:07Z</time>
      </trkpt>
      <trkpt lat="44.6882" lon="3.59721">
        <ele>1380.6564095521</ele>
        <time>2015-04-22T17:23:12Z</time>
      </trkpt>
      <trkpt lat="44.68826" lon="3.59725">
        <ele>1380.6564095521</ele>
        <time>2015-04-22T17:23:17Z</time>
      </trkpt>
      <trkpt lat="44.68833" lon="3.5973">
        <ele>1379.0846004915</ele>
        <time>2015-04-22T17:23:22Z</time>
      </trkpt>
      <trkpt lat="44.68839" lon="3.59736">
        <ele>1379.0846004915</ele>
        <time>2015-04-22T17:23:27Z</time>
      </trkpt>
      <trkpt lat="44.68845" lon="3.5974">
        <ele>1377.3152569246</ele>
        <time>2015-04-22T17:23:32Z</time>
      </trkpt>
      <trkpt lat="44.68851" lon="3.59748">
        <ele>1377.3152569246</ele>
        <time>2015-04-22T17:23:37Z</time>
      </trkpt>
      <trkpt lat="44.68858" lon="3.59754">
        <ele>1375.7555035724</ele>
        <time>2015-04-22T17:23:42Z</time>
      </trkpt>
      <trkpt lat="44.68863" lon="3.59759">
        <ele>1375.7555035724</ele>
        <time>2015-04-22T17:23:47Z</time>
      </trkpt>
      <trkpt lat="44.68869" lon="3.59761">
        <ele>1374.2774948866</ele>
        <time>2015-04-22T17:23:52Z</time>
      </trkpt>
      <trkpt lat="44.68874" lon="3.59764">
        <ele>1374.2774948866</ele>
        <time>2015-04-22T17:23:57Z</time>
      </trkpt>
      <trkpt lat="44.68879" lon="3.59769">
        <ele>1372.5462919765</ele>
        <time>2015-04-22T17:24:02Z</time>
      </trkpt>
      <trkpt lat="44.68886" lon="3.59774">
        <ele>1372.5462919765</ele>
        <time>2015-04-22T17:24:07Z</time>
      </trkpt>
      <trkpt lat="44.68893" lon="3.59778">
        <ele>1371.3474255037</ele>
        <time>2015-04-22T17:24:12Z</time>
      </trkpt>
      <trkpt lat="44.68899" lon="3.59783">
        <ele>1371.3474255037</ele>
        <time>2015-04-22T17:24:17Z</time>
      </trkpt>
      <trkpt lat="44.68906" lon="3.59788">
        <ele>1370.0813150208</ele>
        <time>2015-04-22T17:24:22Z</time>
      </trkpt>
      <trkpt lat="44.68912" lon="3.59792">
        <ele>1370.0813150208</ele>
        <time>2015-04-22T17:24:27Z</time>
      </trkpt>
      <trkpt lat="44.68918" lon="3.59795">
        <ele>1368.1925225988</ele>
        <time>2015-04-22T17:24:32Z</time>
      </trkpt>
      <trkpt lat="44.68924" lon="3.59801">
        <ele>1368.1925225988</ele>
        <time>2015-04-22T17:24:37Z</time>
      </trkpt>
      <trkpt lat="44.6893" lon="3.59805">
        <ele>1366.0903789137</ele>
        <time>2015-04-22T17:24:42Z</time>
      </trkpt>
      <trkpt lat="44.68937" lon="3.5981">
        <ele>1366.0903789137</ele>
        <time>2015-04-22T17:24:47Z</time>
      </trkpt>
      <trkpt lat="44.68943" lon="3.59816">
        <ele>1364.0681840946</ele>
        <time>2015-04-22T17:24:52Z</time>
      </trkpt>
      <trkpt lat="44.6895" lon="3.59822">
        <ele>1364.0681840946</ele>
        <time>2015-04-22T17:24:57Z</time>
      </trkpt>
      <trkpt lat="44.68956" lon="3.59824">
        <ele>1361.6624049134</ele>
        <time>2015-04-22T17:25:02Z</time>
      </trkpt>
      <trkpt lat="44.68963" lon="3.5983">
        <ele>1361.6624049134</ele>
        <time>2015-04-22T17:25:07Z</time>
      </trkpt>
      <trkpt lat="44.6897" lon="3.59836">
        <ele>1360.0441695506</ele>
        <time>2015-04-22T17:25:12Z</time>
      </trkpt>
      <trkpt lat="44.68976" lon="3.59842">
        <ele>1360.0441695506</ele>
        <time>2015-04-22T17:25:17Z</time>
      </trkpt>
      <trkpt lat="44.68982" lon="3.59847">
        <ele>1358.3507637985</ele>
        <time>2015-04-22T17:25:22Z</time>
      </trkpt>
      <trkpt lat="44.68988" lon="3.59852">
        <ele>1358.3507637985</ele>
        <time>2015-04-22T17:25:27Z</time>
      </trkpt>
      <trkpt lat="44.68994" lon="3.59856">
        <ele>1356.7340895609</ele>
        <time>2015-04-22T17:25:32Z</time>
      </trkpt>
      <trkpt lat="44.69" lon="3.59862">
        <ele>1356.7340895609</ele>
        <time>2015-04-22T17:25:37Z</time>
      </trkpt>
      <trkpt lat="44.69007" lon="3.59866">
        <ele>1355.0319387254</ele>
        <time>2015-04-22T17:25:42Z</time>
      </trkpt>
      <trkpt lat="44.69014" lon="3.59871">
        <ele>1355.0319387254</ele>
        <time>2015-04-22T17:25:47Z</time>
      </trkpt>
      <trkpt lat="44.6902" lon="3.59875">
        <ele>1353.4544356337</ele>
        <time>2015-04-22T17:25:52Z</time>
      </trkpt>
      <trkpt lat="44.69027" lon="3.5988">
        <ele>1353.4544356337</ele>
        <time>2015-04-22T17:25:57Z</time>
      </trkpt>
      <trkpt lat="44.69038" lon="3.59888">
        <ele>1351.576141783</ele>
        <time>2015-04-22T17:26:02Z</time>
      </trkpt>
      <trkpt lat="44.69055" lon="3.59904">
        <ele>1349.7529949559</ele>
        <time>2015-04-22T17:26:07Z</time>
      </trkpt>
      <trkpt lat="44.6906" lon="3.59909">
        <ele>1349.7529949559</ele>
        <time>2015-04-22T17:26:12Z</time>
      </trkpt>
      <trkpt lat="44.69066" lon="3.59913">
        <ele>1348.2713017091</ele>
        <time>2015-04-22T17:26:17Z</time>
      </trkpt>
      <trkpt lat="44.69072" lon="3.59918">
        <ele>1348.2713017091</ele>
        <time>2015-04-22T17:26:23Z</time>
      </trkpt>
      <trkpt lat="44.69077" lon="3.59921">
        <ele>1346.8188401518</ele>
        <time>2015-04-22T17:26:27Z</time>
      </trkpt>
      <trkpt lat="44.69082" lon="3.59926">
        <ele>1346.8188401518</ele>
        <time>2015-04-22T17:26:32Z</time>
      </trkpt>
      <trkpt lat="44.69088" lon="3.59932">
        <ele>1345.2070283328</ele>
        <time>2015-04-22T17:26:37Z</time>
      </trkpt>
      <trkpt lat="44.69094" lon="3.59937">
        <ele>1345.2070283328</ele>
        <time>2015-04-22T17:26:42Z</time>
      </trkpt>
      <trkpt lat="44.691" lon="3.59941">
        <ele>1343.8667634777</ele>
        <time>2015-04-22T17:26:47Z</time>
      </trkpt>
      <trkpt lat="44.69107" lon="3.59945">
        <ele>1343.8667634777</ele>
        <time>2015-04-22T17:26:52Z</time>
      </trkpt>
      <trkpt lat="44.69112" lon="3.5995">
        <ele>1342.7352885407</ele>
        <time>2015-04-22T17:26:57Z</time>
      </trkpt>
      <trkpt lat="44.69118" lon="3.59954">
        <ele>1342.7352885407</ele>
        <time>2015-04-22T17:27:02Z</time>
      </trkpt>
      <trkpt lat="44.69124" lon="3.5996">
        <ele>1341.4079254205</ele>
        <time>2015-04-22T17:27:07Z</time>
      </trkpt>
      <trkpt lat="44.69131" lon="3.59967">
        <ele>1341.4079254205</ele>
        <time>2015-04-22T17:27:12Z</time>
      </trkpt>
      <trkpt lat="44.69136" lon="3.59974">
        <ele>1340.3892780258</ele>
        <time>2015-04-22T17:27:17Z</time>
      </trkpt>
      <trkpt lat="44.69142" lon="3.5998">
        <ele>1340.3892780258</ele>
        <time>2015-04-22T17:27:22Z</time>
      </trkpt>
      <trkpt lat="44.69146" lon="3.59984">
        <ele>1338.9498260398</ele>
        <time>2015-04-22T17:27:27Z</time>
      </trkpt>
      <trkpt lat="44.69151" lon="3.59991">
        <ele>1338.9498260398</ele>
        <time>2015-04-22T17:27:32Z</time>
      </trkpt>
      <trkpt lat="44.69155" lon="3.59997">
        <ele>1337.7117582119</ele>
        <time>2015-04-22T17:27:37Z</time>
      </trkpt>
      <trkpt lat="44.69162" lon="3.60005">
        <ele>1337.7117582119</ele>
        <time>2015-04-22T17:27:42Z</time>
      </trkpt>
      <trkpt lat="44.69168" lon="3.6001">
        <ele>1336.0836346245</ele>
        <time>2015-04-22T17:27:47Z</time>
      </trkpt>
      <trkpt lat="44.69173" lon="3.60015">
        <ele>1336.0836346245</ele>
        <time>2015-04-22T17:27:52Z</time>
      </trkpt>
      <trkpt lat="44.69178" lon="3.60021">
        <ele>1334.6137475963</ele>
        <time>2015-04-22T17:27:57Z</time>
      </trkpt>
      <trkpt lat="44.69189" lon="3.60031">
        <ele>1333.4061069006</ele>
        <time>2015-04-22T17:28:02Z</time>
      </trkpt>
      <trkpt lat="44.69201" lon="3.60044">
        <ele>1332.3545442145</ele>
        <time>2015-04-22T17:28:07Z</time>
      </trkpt>
      <trkpt lat="44.69207" lon="3.60048">
        <ele>1332.3545442145</ele>
        <time>2015-04-22T17:28:12Z</time>
      </trkpt>
      <trkpt lat="44.69212" lon="3.60044">
        <ele>1330.7405313898</ele>
        <time>2015-04-22T17:28:17Z</time>
      </trkpt>
      <trkpt lat="44.69218" lon="3.60041">
        <ele>1330.7405313898</ele>
        <time>2015-04-22T17:28:22Z</time>
      </trkpt>
      <trkpt lat="44.69225" lon="3.60039">
        <ele>1329.1103949634</ele>
        <time>2015-04-22T17:28:27Z</time>
      </trkpt>
      <trkpt lat="44.69232" lon="3.60036">
        <ele>1329.1103949634</ele>
        <time>2015-04-22T17:28:32Z</time>
      </trkpt>
      <trkpt lat="44.69239" lon="3.60034">
        <ele>1327.8838710386</ele>
        <time>2015-04-22T17:28:37Z</time>
      </trkpt>
      <trkpt lat="44.69245" lon="3.60033">
        <ele>1327.8838710386</ele>
        <time>2015-04-22T17:28:42Z</time>
      </trkpt>
      <trkpt lat="44.69252" lon="3.60031">
        <ele>1326.6560852549</ele>
        <time>2015-04-22T17:28:47Z</time>
      </trkpt>
      <trkpt lat="44.6926" lon="3.60029">
        <ele>1326.6560852549</ele>
        <time>2015-04-22T17:28:52Z</time>
      </trkpt>
      <trkpt lat="44.69267" lon="3.60026">
        <ele>1325.4698006724</ele>
        <time>2015-04-22T17:28:57Z</time>
      </trkpt>
      <trkpt lat="44.69276" lon="3.60023">
        <ele>1325.4698006724</ele>
        <time>2015-04-22T17:29:02Z</time>
      </trkpt>
      <trkpt lat="44.69283" lon="3.60019">
        <ele>1324.6815411031</ele>
        <time>2015-04-22T17:29:07Z</time>
      </trkpt>
      <trkpt lat="44.69291" lon="3.60018">
        <ele>1324.6815411031</ele>
        <time>2015-04-22T17:29:12Z</time>
      </trkpt>
      <trkpt lat="44.69297" lon="3.60019">
        <ele>1323.6837799727</ele>
        <time>2015-04-22T17:29:17Z</time>
      </trkpt>
      <trkpt lat="44.69302" lon="3.60017">
        <ele>1323.6837799727</ele>
        <time>2015-04-22T17:29:22Z</time>
      </trkpt>
      <trkpt lat="44.69309" lon="3.60015">
        <ele>1322.7068023787</ele>
        <time>2015-04-22T17:29:27Z</time>
      </trkpt>
      <trkpt lat="44.69316" lon="3.60013">
        <ele>1322.7068023787</ele>
        <time>2015-04-22T17:29:32Z</time>
      </trkpt>
      <trkpt lat="44.69323" lon="3.60011">
        <ele>1321.6036296626</ele>
        <time>2015-04-22T17:29:37Z</time>
      </trkpt>
      <trkpt lat="44.69331" lon="3.60009">
        <ele>1321.6036296626</ele>
        <time>2015-04-22T17:29:42Z</time>
      </trkpt>
      <trkpt lat="44.69336" lon="3.60007">
        <ele>1320.7860508641</ele>
        <time>2015-04-22T17:29:47Z</time>
      </trkpt>
      <trkpt lat="44.69343" lon="3.60006">
        <ele>1320.7860508641</ele>
        <time>2015-04-22T17:29:52Z</time>
      </trkpt>
      <trkpt lat="44.69351" lon="3.60005">
        <ele>1320.1448254064</ele>
        <time>2015-04-22T17:29:57Z</time>
      </trkpt>
      <trkpt lat="44.69366" lon="3.60005">
        <ele>1319.4053137132</ele>
        <time>2015-04-22T17:30:02Z</time>
      </trkpt>
      <trkpt lat="44.69388" lon="3.60009">
        <ele>1318.9474260872</ele>
        <time>2015-04-22T17:30:07Z</time>
      </trkpt>
      <trkpt lat="44.69397" lon="3.6001">
        <ele>1318.358601789</ele>
        <time>2015-04-22T17:30:12Z</time>
      </trkpt>
      <trkpt lat="44.69405" lon="3.60011">
        <ele>1318.358601789</ele>
        <time>2015-04-22T17:30:17Z</time>
      </trkpt>
      <trkpt lat="44.69411" lon="3.60013">
        <ele>1318.2225215779</ele>
        <time>2015-04-22T17:30:22Z</time>
      </trkpt>
      <trkpt lat="44.69418" lon="3.60016">
        <ele>1318.2225215779</ele>
        <time>2015-04-22T17:30:27Z</time>
      </trkpt>
      <trkpt lat="44.69424" lon="3.60019">
        <ele>1318.4158383058</ele>
        <time>2015-04-22T17:30:32Z</time>
      </trkpt>
      <trkpt lat="44.69432" lon="3.60024">
        <ele>1318.4158383058</ele>
        <time>2015-04-22T17:30:37Z</time>
      </trkpt>
      <trkpt lat="44.69438" lon="3.60027">
        <ele>1318.7369140045</ele>
        <time>2015-04-22T17:30:42Z</time>
      </trkpt>
      <trkpt lat="44.69444" lon="3.60032">
        <ele>1318.7369140045</ele>
        <time>2015-04-22T17:30:47Z</time>
      </trkpt>
      <trkpt lat="44.69452" lon="3.60037">
        <ele>1318.9265569712</ele>
        <time>2015-04-22T17:30:52Z</time>
      </trkpt>
      <trkpt lat="44.6946" lon="3.60041">
        <ele>1318.9265569712</ele>
        <time>2015-04-22T17:30:57Z</time>
      </trkpt>
      <trkpt lat="44.69469" lon="3.60044">
        <ele>1318.6009298973</ele>
        <time>2015-04-22T17:31:02Z</time>
      </trkpt>
      <trkpt lat="44.69476" lon="3.60049">
        <ele>1318.6009298973</ele>
        <time>2015-04-22T17:31:07Z</time>
      </trkpt>
      <trkpt lat="44.69487" lon="3.60055">
        <ele>1318.3138022617</ele>
        <time>2015-04-22T17:31:12Z</time>
      </trkpt>
      <trkpt lat="44.69496" lon="3.60062">
        <ele>1318.5638160975</ele>
        <time>2015-04-22T17:31:17Z</time>
      </trkpt>
      <trkpt lat="44.69503" lon="3.60066">
        <ele>1318.5638160975</ele>
        <time>2015-04-22T17:31:22Z</time>
      </trkpt>
      <trkpt lat="44.69509" lon="3.60071">
        <ele>1318.356029948</ele>
        <time>2015-04-22T17:31:27Z</time>
      </trkpt>
      <trkpt lat="44.69516" lon="3.60073">
        <ele>1318.356029948</ele>
        <time>2015-04-22T17:31:32Z</time>
      </trkpt>
      <trkpt lat="44.69525" lon="3.60078">
        <ele>1318.4128223744</ele>
        <time>2015-04-22T17:31:37Z</time>
      </trkpt>
      <trkpt lat="44.69533" lon="3.60082">
        <ele>1318.4128223744</ele>
        <time>2015-04-22T17:31:42Z</time>
      </trkpt>
      <trkpt lat="44.69539" lon="3.60085">
        <ele>1318.3220153511</ele>
        <time>2015-04-22T17:31:47Z</time>
      </trkpt>
      <trkpt lat="44.69545" lon="3.60089">
        <ele>1318.3220153511</ele>
        <time>2015-04-22T17:31:52Z</time>
      </trkpt>
      <trkpt lat="44.69551" lon="3.60093">
        <ele>1318.3795347253</ele>
        <time>2015-04-22T17:31:57Z</time>
      </trkpt>
      <trkpt lat="44.69557" lon="3.60095">
        <ele>1318.3795347253</ele>
        <time>2015-04-22T17:32:02Z</time>
      </trkpt>
      <trkpt lat="44.69564" lon="3.60097">
        <ele>1318.25397677</ele>
        <time>2015-04-22T17:32:07Z</time>
      </trkpt>
      <trkpt lat="44.6957" lon="3.60102">
        <ele>1318.25397677</ele>
        <time>2015-04-22T17:32:12Z</time>
      </trkpt>
      <trkpt lat="44.69576" lon="3.60106">
        <ele>1318.5035582885</ele>
        <time>2015-04-22T17:32:17Z</time>
      </trkpt>
      <trkpt lat="44.69582" lon="3.60111">
        <ele>1318.5035582885</ele>
        <time>2015-04-22T17:32:22Z</time>
      </trkpt>
      <trkpt lat="44.69589" lon="3.60115">
        <ele>1318.4340012425</ele>
        <time>2015-04-22T17:32:27Z</time>
      </trkpt>
      <trkpt lat="44.69596" lon="3.60119">
        <ele>1318.4340012425</ele>
        <time>2015-04-22T17:32:32Z</time>
      </trkpt>
      <trkpt lat="44.69611" lon="3.60128">
        <ele>1318.685613773</ele>
        <time>2015-04-22T17:32:37Z</time>
      </trkpt>
      <trkpt lat="44.69616" lon="3.60132">
        <ele>1318.685613773</ele>
        <time>2015-04-22T17:32:42Z</time>
      </trkpt>
      <trkpt lat="44.69621" lon="3.60137">
        <ele>1318.3377007762</ele>
        <time>2015-04-22T17:32:47Z</time>
      </trkpt>
      <trkpt lat="44.69628" lon="3.60142">
        <ele>1318.3377007762</ele>
        <time>2015-04-22T17:32:52Z</time>
      </trkpt>
      <trkpt lat="44.69634" lon="3.60144">
        <ele>1317.533351303</ele>
        <time>2015-04-22T17:32:57Z</time>
      </trkpt>
      <trkpt lat="44.6964" lon="3.60149">
        <ele>1317.533351303</ele>
        <time>2015-04-22T17:33:02Z</time>
      </trkpt>
      <trkpt lat="44.69647" lon="3.60155">
        <ele>1317.1703130553</ele>
        <time>2015-04-22T17:33:07Z</time>
      </trkpt>
      <trkpt lat="44.69654" lon="3.60162">
        <ele>1317.1703130553</ele>
        <time>2015-04-22T17:33:12Z</time>
      </trkpt>
      <trkpt lat="44.69659" lon="3.60168">
        <ele>1316.7966559912</ele>
        <time>2015-04-22T17:33:17Z</time>
      </trkpt>
      <trkpt lat="44.69666" lon="3.60174">
        <ele>1316.7966559912</ele>
        <time>2015-04-22T17:33:22Z</time>
      </trkpt>
      <trkpt lat="44.69672" lon="3.6018">
        <ele>1316.2243500289</ele>
        <time>2015-04-22T17:33:27Z</time>
      </trkpt>
      <trkpt lat="44.69678" lon="3.60186">
        <ele>1316.2243500289</ele>
        <time>2015-04-22T17:33:32Z</time>
      </trkpt>
      <trkpt lat="44.69684" lon="3.60193">
        <ele>1315.4527578851</ele>
        <time>2015-04-22T17:33:37Z</time>
      </trkpt>
      <trkpt lat="44.6969" lon="3.602">
        <ele>1315.4527578851</ele>
        <time>2015-04-22T17:33:42Z</time>
      </trkpt>
      <trkpt lat="44.69695" lon="3.60208">
        <ele>1314.7125113345</ele>
        <time>2015-04-22T17:33:47Z</time>
      </trkpt>
      <trkpt lat="44.69701" lon="3.60217">
        <ele>1314.7125113345</ele>
        <time>2015-04-22T17:33:52Z</time>
      </trkpt>
      <trkpt lat="44.69707" lon="3.60223">
        <ele>1314.5775714894</ele>
        <time>2015-04-22T17:33:57Z</time>
      </trkpt>
      <trkpt lat="44.69713" lon="3.60229">
        <ele>1314.5775714894</ele>
        <time>2015-04-22T17:34:02Z</time>
      </trkpt>
      <trkpt lat="44.6972" lon="3.60236">
        <ele>1314.7422721053</ele>
        <time>2015-04-22T17:34:07Z</time>
      </trkpt>
      <trkpt lat="44.69726" lon="3.60242">
        <ele>1314.7422721053</ele>
        <time>2015-04-22T17:34:12Z</time>
      </trkpt>
      <trkpt lat="44.69733" lon="3.60246">
        <ele>1315.0955707955</ele>
        <time>2015-04-22T17:34:17Z</time>
      </trkpt>
      <trkpt lat="44.6974" lon="3.60251">
        <ele>1315.0955707955</ele>
        <time>2015-04-22T17:34:22Z</time>
      </trkpt>
      <trkpt lat="44.69755" lon="3.60257">
        <ele>1315.1162078674</ele>
        <time>2015-04-22T17:34:27Z</time>
      </trkpt>
      <trkpt lat="44.69769" lon="3.60261">
        <ele>1315.2589492982</ele>
        <time>2015-04-22T17:34:32Z</time>
      </trkpt>
      <trkpt lat="44.69776" lon="3.60263">
        <ele>1315.2589492982</ele>
        <time>2015-04-22T17:34:37Z</time>
      </trkpt>
      <trkpt lat="44.69782" lon="3.60265">
        <ele>1315.4260912913</ele>
        <time>2015-04-22T17:34:42Z</time>
      </trkpt>
      <trkpt lat="44.69789" lon="3.60268">
        <ele>1315.4260912913</ele>
        <time>2015-04-22T17:34:47Z</time>
      </trkpt>
      <trkpt lat="44.69795" lon="3.60267">
        <ele>1315.2965411796</ele>
        <time>2015-04-22T17:34:52Z</time>
      </trkpt>
      <trkpt lat="44.698" lon="3.6027">
        <ele>1315.2965411796</ele>
        <time>2015-04-22T17:34:57Z</time>
      </trkpt>
      <trkpt lat="44.69806" lon="3.60272">
        <ele>1314.9772165533</ele>
        <time>2015-04-22T17:35:02Z</time>
      </trkpt>
      <trkpt lat="44.69812" lon="3.60272">
        <ele>1314.9772165533</ele>
        <time>2015-04-22T17:35:07Z</time>
      </trkpt>
      <trkpt lat="44.69818" lon="3.60272">
        <ele>1314.5389686253</ele>
        <time>2015-04-22T17:35:12Z</time>
      </trkpt>
      <trkpt lat="44.69825" lon="3.60272">
        <ele>1314.5389686253</ele>
        <time>2015-04-22T17:35:17Z</time>
      </trkpt>
      <trkpt lat="44.69832" lon="3.60273">
        <ele>1314.1199077152</ele>
        <time>2015-04-22T17:35:22Z</time>
      </trkpt>
      <trkpt lat="44.69839" lon="3.60275">
        <ele>1314.1199077152</ele>
        <time>2015-04-22T17:35:27Z</time>
      </trkpt>
      <trkpt lat="44.69858" lon="3.60282">
        <ele>1313.9200713888</ele>
        <time>2015-04-22T17:35:32Z</time>
      </trkpt>
      <trkpt lat="44.69875" lon="3.60292">
        <ele>1313.7063324571</ele>
        <time>2015-04-22T17:35:37Z</time>
      </trkpt>
      <trkpt lat="44.6988" lon="3.60291">
        <ele>1313.7063324571</ele>
        <time>2015-04-22T17:35:42Z</time>
      </trkpt>
      <trkpt lat="44.69884" lon="3.60294">
        <ele>1312.7007571115</ele>
        <time>2015-04-22T17:35:47Z</time>
      </trkpt>
      <trkpt lat="44.6989" lon="3.60298">
        <ele>1312.7007571115</ele>
        <time>2015-04-22T17:35:52Z</time>
      </trkpt>
      <trkpt lat="44.69895" lon="3.60302">
        <ele>1311.7844709083</ele>
        <time>2015-04-22T17:35:57Z</time>
      </trkpt>
      <trkpt lat="44.69902" lon="3.60307">
        <ele>1311.7844709083</ele>
        <time>2015-04-22T17:36:02Z</time>
      </trkpt>
      <trkpt lat="44.69909" lon="3.60311">
        <ele>1311.0675290588</ele>
        <time>2015-04-22T17:36:07Z</time>
      </trkpt>
      <trkpt lat="44.69917" lon="3.60317">
        <ele>1311.0675290588</ele>
        <time>2015-04-22T17:36:12Z</time>
      </trkpt>
      <trkpt lat="44.69923" lon="3.60323">
        <ele>1310.1614099146</ele>
        <time>2015-04-22T17:36:17Z</time>
      </trkpt>
      <trkpt lat="44.69927" lon="3.60328">
        <ele>1310.1614099146</ele>
        <time>2015-04-22T17:36:22Z</time>
      </trkpt>
      <trkpt lat="44.69933" lon="3.60332">
        <ele>1309.4849014617</ele>
        <time>2015-04-22T17:36:27Z</time>
      </trkpt>
      <trkpt lat="44.69939" lon="3.60338">
        <ele>1309.4849014617</ele>
        <time>2015-04-22T17:36:32Z</time>
      </trkpt>
      <trkpt lat="44.69948" lon="3.60347">
        <ele>1309.0939605114</ele>
        <time>2015-04-22T17:36:37Z</time>
      </trkpt>
      <trkpt lat="44.69955" lon="3.60355">
        <ele>1308.520859817</ele>
        <time>2015-04-22T17:36:42Z</time>
      </trkpt>
      <trkpt lat="44.69962" lon="3.60361">
        <ele>1308.520859817</ele>
        <time>2015-04-22T17:36:47Z</time>
      </trkpt>
      <trkpt lat="44.69968" lon="3.60368">
        <ele>1308.2262556905</ele>
        <time>2015-04-22T17:36:52Z</time>
      </trkpt>
      <trkpt lat="44.69974" lon="3.60378">
        <ele>1308.2262556905</ele>
        <time>2015-04-22T17:36:57Z</time>
      </trkpt>
      <trkpt lat="44.6998" lon="3.60385">
        <ele>1308.1174057261</ele>
        <time>2015-04-22T17:37:02Z</time>
      </trkpt>
      <trkpt lat="44.69984" lon="3.60393">
        <ele>1308.1174057261</ele>
        <time>2015-04-22T17:37:07Z</time>
      </trkpt>
      <trkpt lat="44.69989" lon="3.60403">
        <ele>1307.9781802893</ele>
        <time>2015-04-22T17:37:12Z</time>
      </trkpt>
      <trkpt lat="44.69994" lon="3.60412">
        <ele>1307.9781802893</ele>
        <time>2015-04-22T17:37:17Z</time>
      </trkpt>
      <trkpt lat="44.69998" lon="3.6042">
        <ele>1307.5219650769</ele>
        <time>2015-04-22T17:37:22Z</time>
      </trkpt>
      <trkpt lat="44.70006" lon="3.60432">
        <ele>1306.7290972443</ele>
        <time>2015-04-22T17:37:27Z</time>
      </trkpt>
      <trkpt lat="44.70014" lon="3.60442">
        <ele>1306.1011197503</ele>
        <time>2015-04-22T17:37:32Z</time>
      </trkpt>
      <trkpt lat="44.70019" lon="3.60449">
        <ele>1306.1011197503</ele>
        <time>2015-04-22T17:37:37Z</time>
      </trkpt>
      <trkpt lat="44.70026" lon="3.60453">
        <ele>1305.2664386022</ele>
        <time>2015-04-22T17:37:42Z</time>
      </trkpt>
      <trkpt lat="44.70034" lon="3.60457">
        <ele>1305.2664386022</ele>
        <time>2015-04-22T17:37:47Z</time>
      </trkpt>
      <trkpt lat="44.7004" lon="3.60461">
        <ele>1304.1407456065</ele>
        <time>2015-04-22T17:37:52Z</time>
      </trkpt>
      <trkpt lat="44.70046" lon="3.60466">
        <ele>1304.1407456065</ele>
        <time>2015-04-22T17:37:57Z</time>
      </trkpt>
      <trkpt lat="44.7005" lon="3.60469">
        <ele>1302.5746892959</ele>
        <time>2015-04-22T17:38:02Z</time>
      </trkpt>
      <trkpt lat="44.70059" lon="3.60473">
        <ele>1301.3966660409</ele>
        <time>2015-04-22T17:38:07Z</time>
      </trkpt>
      <trkpt lat="44.70066" lon="3.60476">
        <ele>1301.3966660409</ele>
        <time>2015-04-22T17:38:12Z</time>
      </trkpt>
      <trkpt lat="44.70074" lon="3.60478">
        <ele>1300.1193521784</ele>
        <time>2015-04-22T17:38:17Z</time>
      </trkpt>
      <trkpt lat="44.70087" lon="3.60478">
        <ele>1299.0408614241</ele>
        <time>2015-04-22T17:38:22Z</time>
      </trkpt>
      <trkpt lat="44.70095" lon="3.60478">
        <ele>1299.0408614241</ele>
        <time>2015-04-22T17:38:27Z</time>
      </trkpt>
      <trkpt lat="44.70102" lon="3.60482">
        <ele>1298.2350714928</ele>
        <time>2015-04-22T17:38:32Z</time>
      </trkpt>
      <trkpt lat="44.7011" lon="3.60484">
        <ele>1298.2350714928</ele>
        <time>2015-04-22T17:38:37Z</time>
      </trkpt>
      <trkpt lat="44.70118" lon="3.60487">
        <ele>1297.5390630392</ele>
        <time>2015-04-22T17:38:42Z</time>
      </trkpt>
      <trkpt lat="44.70126" lon="3.60487">
        <ele>1297.5390630392</ele>
        <time>2015-04-22T17:38:47Z</time>
      </trkpt>
      <trkpt lat="44.70133" lon="3.60487">
        <ele>1296.7150801325</ele>
        <time>2015-04-22T17:38:52Z</time>
      </trkpt>
      <trkpt lat="44.70142" lon="3.60486">
        <ele>1296.7150801325</ele>
        <time>2015-04-22T17:38:57Z</time>
      </trkpt>
      <trkpt lat="44.70149" lon="3.60485">
        <ele>1296.609583728</ele>
        <time>2015-04-22T17:39:02Z</time>
      </trkpt>
      <trkpt lat="44.70157" lon="3.60484">
        <ele>1296.609583728</ele>
        <time>2015-04-22T17:39:07Z</time>
      </trkpt>
      <trkpt lat="44.70165" lon="3.60488">
        <ele>1296.3331198141</ele>
        <time>2015-04-22T17:39:12Z</time>
      </trkpt>
      <trkpt lat="44.7017" lon="3.6049">
        <ele>1296.3331198141</ele>
        <time>2015-04-22T17:39:17Z</time>
      </trkpt>
      <trkpt lat="44.7017" lon="3.60488">
        <ele>1296.3331198141</ele>
        <time>2015-04-22T17:39:22Z</time>
      </trkpt>
      <trkpt lat="44.70171" lon="3.60487">
        <ele>1296.3331198141</ele>
        <time>2015-04-22T17:39:27Z</time>
      </trkpt>
      <trkpt lat="44.70171" lon="3.60486">
        <ele>1296.0275701694</ele>
        <time>2015-04-22T17:39:32Z</time>
      </trkpt>
      <trkpt lat="44.7017" lon="3.60486">
        <ele>1296.0275701694</ele>
        <time>2015-04-22T17:39:37Z</time>
      </trkpt>
      <trkpt lat="44.7017" lon="3.60487">
        <ele>1296.0275701694</ele>
        <time>2015-04-22T17:39:42Z</time>
      </trkpt>
      <trkpt lat="44.7017" lon="3.60487">
        <ele>1296.0275701694</ele>
        <time>2015-04-22T17:39:47Z</time>
      </trkpt>
      <trkpt lat="44.7017" lon="3.60487">
        <ele>1296.0275701694</ele>
        <time>2015-04-22T17:39:52Z</time>
      </trkpt>
      <trkpt lat="44.7017" lon="3.60488">
        <ele>1296.0275701694</ele>
        <time>2015-04-22T17:39:57Z</time>
      </trkpt>
      <trkpt lat="44.7017" lon="3.6049">
        <ele>1296.0275701694</ele>
        <time>2015-04-22T17:40:02Z</time>
      </trkpt>
      <trkpt lat="44.7017" lon="3.6049">
        <ele>1296.0275701694</ele>
        <time>2015-04-22T17:40:07Z</time>
      </trkpt>
      <trkpt lat="44.7017" lon="3.60491">
        <ele>1296.0275701694</ele>
        <time>2015-04-22T17:40:12Z</time>
      </trkpt>
      <trkpt lat="44.7017" lon="3.60492">
        <ele>1296.0275701694</ele>
        <time>2015-04-22T17:40:17Z</time>
      </trkpt>
      <trkpt lat="44.7017" lon="3.60492">
        <ele>1296.0275701694</ele>
        <time>2015-04-22T17:40:22Z</time>
      </trkpt>
      <trkpt lat="44.7017" lon="3.60492">
        <ele>1296.0275701694</ele>
        <time>2015-04-22T17:40:27Z</time>
      </trkpt>
      <trkpt lat="44.7017" lon="3.60493">
        <ele>1296.0275701694</ele>
        <time>2015-04-22T17:40:32Z</time>
      </trkpt>
      <trkpt lat="44.7017" lon="3.60494">
        <ele>1296.0275701694</ele>
        <time>2015-04-22T17:40:37Z</time>
      </trkpt>
      <trkpt lat="44.7017" lon="3.60494">
        <ele>1296.0275701694</ele>
        <time>2015-04-22T17:40:42Z</time>
      </trkpt>
      <trkpt lat="44.70174" lon="3.605">
        <ele>1296.833231044</ele>
        <time>2015-04-22T17:40:47Z</time>
      </trkpt>
      <trkpt lat="44.7018" lon="3.60506">
        <ele>1296.833231044</ele>
        <time>2015-04-22T17:40:52Z</time>
      </trkpt>
      <trkpt lat="44.70186" lon="3.60511">
        <ele>1297.036564192</ele>
        <time>2015-04-22T17:40:57Z</time>
      </trkpt>
      <trkpt lat="44.70193" lon="3.60519">
        <ele>1297.036564192</ele>
        <time>2015-04-22T17:41:02Z</time>
      </trkpt>
      <trkpt lat="44.702" lon="3.60524">
        <ele>1297.6888206125</ele>
        <time>2015-04-22T17:41:07Z</time>
      </trkpt>
      <trkpt lat="44.70206" lon="3.60527">
        <ele>1297.6888206125</ele>
        <time>2015-04-22T17:41:12Z</time>
      </trkpt>
      <trkpt lat="44.70213" lon="3.60527">
        <ele>1297.8028525875</ele>
        <time>2015-04-22T17:41:17Z</time>
      </trkpt>
      <trkpt lat="44.70219" lon="3.60528">
        <ele>1297.8028525875</ele>
        <time>2015-04-22T17:41:22Z</time>
      </trkpt>
      <trkpt lat="44.70226" lon="3.60531">
        <ele>1298.1516425036</ele>
        <time>2015-04-22T17:41:27Z</time>
      </trkpt>
      <trkpt lat="44.7023" lon="3.60532">
        <ele>1298.1516425036</ele>
        <time>2015-04-22T17:41:32Z</time>
      </trkpt>
      <trkpt lat="44.70234" lon="3.60535">
        <ele>1298.1516425036</ele>
        <time>2015-04-22T17:41:37Z</time>
      </trkpt>
      <trkpt lat="44.7024" lon="3.60536">
        <ele>1298.1681518749</ele>
        <time>2015-04-22T17:41:42Z</time>
      </trkpt>
      <trkpt lat="44.70247" lon="3.60538">
        <ele>1298.1681518749</ele>
        <time>2015-04-22T17:41:47Z</time>
      </trkpt>
      <trkpt lat="44.70252" lon="3.60538">
        <ele>1297.9908543443</ele>
        <time>2015-04-22T17:41:52Z</time>
      </trkpt>
      <trkpt lat="44.70257" lon="3.6054">
        <ele>1297.9908543443</ele>
        <time>2015-04-22T17:41:57Z</time>
      </trkpt>
      <trkpt lat="44.70261" lon="3.60541">
        <ele>1297.9647791772</ele>
        <time>2015-04-22T17:42:02Z</time>
      </trkpt>
      <trkpt lat="44.70267" lon="3.60541">
        <ele>1297.9647791772</ele>
        <time>2015-04-22T17:42:07Z</time>
      </trkpt>
      <trkpt lat="44.70273" lon="3.60546">
        <ele>1298.3371505068</ele>
        <time>2015-04-22T17:42:12Z</time>
      </trkpt>
      <trkpt lat="44.70279" lon="3.60547">
        <ele>1298.3371505068</ele>
        <time>2015-04-22T17:42:17Z</time>
      </trkpt>
      <trkpt lat="44.70285" lon="3.60549">
        <ele>1299.1053595737</ele>
        <time>2015-04-22T17:42:22Z</time>
      </trkpt>
      <trkpt lat="44.70291" lon="3.6055">
        <ele>1299.1053595737</ele>
        <time>2015-04-22T17:42:27Z</time>
      </trkpt>
      <trkpt lat="44.70296" lon="3.60554">
        <ele>1300.0497404587</ele>
        <time>2015-04-22T17:42:32Z</time>
      </trkpt>
      <trkpt lat="44.70301" lon="3.60557">
        <ele>1300.0497404587</ele>
        <time>2015-04-22T17:42:37Z</time>
      </trkpt>
      <trkpt lat="44.70305" lon="3.60558">
        <ele>1300.9518930859</ele>
        <time>2015-04-22T17:42:42Z</time>
      </trkpt>
      <trkpt lat="44.70304" lon="3.60559">
        <ele>1300.9518930859</ele>
        <time>2015-04-22T17:42:47Z</time>
      </trkpt>
      <trkpt lat="44.70309" lon="3.60559">
        <ele>1300.9518930859</ele>
        <time>2015-04-22T17:42:52Z</time>
      </trkpt>
      <trkpt lat="44.70316" lon="3.60559">
        <ele>1301.9122548851</ele>
        <time>2015-04-22T17:42:57Z</time>
      </trkpt>
      <trkpt lat="44.70321" lon="3.60561">
        <ele>1301.9122548851</ele>
        <time>2015-04-22T17:43:02Z</time>
      </trkpt>
      <trkpt lat="44.70327" lon="3.60562">
        <ele>1302.9084826933</ele>
        <time>2015-04-22T17:43:07Z</time>
      </trkpt>
      <trkpt lat="44.70333" lon="3.60564">
        <ele>1302.9084826933</ele>
        <time>2015-04-22T17:43:12Z</time>
      </trkpt>
      <trkpt lat="44.70337" lon="3.60566">
        <ele>1303.4874967789</ele>
        <time>2015-04-22T17:43:17Z</time>
      </trkpt>
      <trkpt lat="44.70343" lon="3.60571">
        <ele>1303.4874967789</ele>
        <time>2015-04-22T17:43:22Z</time>
      </trkpt>
      <trkpt lat="44.70348" lon="3.60574">
        <ele>1304.325977761</ele>
        <time>2015-04-22T17:43:27Z</time>
      </trkpt>
      <trkpt lat="44.70354" lon="3.60576">
        <ele>1304.325977761</ele>
        <time>2015-04-22T17:43:32Z</time>
      </trkpt>
      <trkpt lat="44.70361" lon="3.60577">
        <ele>1305.084691851</ele>
        <time>2015-04-22T17:43:37Z</time>
      </trkpt>
      <trkpt lat="44.70366" lon="3.60573">
        <ele>1305.084691851</ele>
        <time>2015-04-22T17:43:42Z</time>
      </trkpt>
      <trkpt lat="44.70373" lon="3.60571">
        <ele>1306.5592768438</ele>
        <time>2015-04-22T17:43:47Z</time>
      </trkpt>
      <trkpt lat="44.70379" lon="3.60568">
        <ele>1306.5592768438</ele>
        <time>2015-04-22T17:43:52Z</time>
      </trkpt>
      <trkpt lat="44.70386" lon="3.60568">
        <ele>1307.7988912906</ele>
        <time>2015-04-22T17:43:57Z</time>
      </trkpt>
      <trkpt lat="44.70392" lon="3.60569">
        <ele>1307.7988912906</ele>
        <time>2015-04-22T17:44:02Z</time>
      </trkpt>
      <trkpt lat="44.70399" lon="3.6057">
        <ele>1308.5285494435</ele>
        <time>2015-04-22T17:44:07Z</time>
      </trkpt>
      <trkpt lat="44.70407" lon="3.6057">
        <ele>1308.5285494435</ele>
        <time>2015-04-22T17:44:12Z</time>
      </trkpt>
      <trkpt lat="44.70415" lon="3.60571">
        <ele>1309.1434820756</ele>
        <time>2015-04-22T17:44:17Z</time>
      </trkpt>
      <trkpt lat="44.70423" lon="3.60574">
        <ele>1309.1434820756</ele>
        <time>2015-04-22T17:44:22Z</time>
      </trkpt>
      <trkpt lat="44.70428" lon="3.60579">
        <ele>1309.5779627216</ele>
        <time>2015-04-22T17:44:27Z</time>
      </trkpt>
      <trkpt lat="44.70436" lon="3.60586">
        <ele>1309.5779627216</ele>
        <time>2015-04-22T17:44:32Z</time>
      </trkpt>
      <trkpt lat="44.70444" lon="3.60593">
        <ele>1310.8237003063</ele>
        <time>2015-04-22T17:44:37Z</time>
      </trkpt>
      <trkpt lat="44.70452" lon="3.60595">
        <ele>1310.8237003063</ele>
        <time>2015-04-22T17:44:42Z</time>
      </trkpt>
      <trkpt lat="44.70459" lon="3.60596">
        <ele>1311.6645220317</ele>
        <time>2015-04-22T17:44:47Z</time>
      </trkpt>
      <trkpt lat="44.70465" lon="3.60601">
        <ele>1311.6645220317</ele>
        <time>2015-04-22T17:44:52Z</time>
      </trkpt>
      <trkpt lat="44.7047" lon="3.60608">
        <ele>1312.3582876021</ele>
        <time>2015-04-22T17:44:57Z</time>
      </trkpt>
      <trkpt lat="44.7047" lon="3.60617">
        <ele>1312.3582876021</ele>
        <time>2015-04-22T17:45:02Z</time>
      </trkpt>
      <trkpt lat="44.70467" lon="3.60621">
        <ele>1312.4959162649</ele>
        <time>2015-04-22T17:45:07Z</time>
      </trkpt>
      <trkpt lat="44.70466" lon="3.60618">
        <ele>1312.4959162649</ele>
        <time>2015-04-22T17:45:12Z</time>
      </trkpt>
      <trkpt lat="44.70465" lon="3.60618">
        <ele>1312.4959162649</ele>
        <time>2015-04-22T17:45:17Z</time>
      </trkpt>
      <trkpt lat="44.70466" lon="3.60619">
        <ele>1312.4959162649</ele>
        <time>2015-04-22T17:45:22Z</time>
      </trkpt>
      <trkpt lat="44.70466" lon="3.60623">
        <ele>1312.4959162649</ele>
        <time>2015-04-22T17:45:27Z</time>
      </trkpt>
      <trkpt lat="44.70464" lon="3.60624">
        <ele>1312.4959162649</ele>
        <time>2015-04-22T17:45:32Z</time>
      </trkpt>
      <trkpt lat="44.70465" lon="3.60628">
        <ele>1311.9306027907</ele>
        <time>2015-04-22T17:45:37Z</time>
      </trkpt>
      <trkpt lat="44.70469" lon="3.60633">
        <ele>1311.9306027907</ele>
        <time>2015-04-22T17:45:42Z</time>
      </trkpt>
      <trkpt lat="44.70472" lon="3.60635">
        <ele>1311.9306027907</ele>
        <time>2015-04-22T17:45:47Z</time>
      </trkpt>
      <trkpt lat="44.70474" lon="3.60632">
        <ele>1311.5083352532</ele>
        <time>2015-04-22T17:45:52Z</time>
      </trkpt>
      <trkpt lat="44.70471" lon="3.60634">
        <ele>1311.5083352532</ele>
        <time>2015-04-22T17:45:57Z</time>
      </trkpt>
      <trkpt lat="44.70465" lon="3.60633">
        <ele>1311.5083352532</ele>
        <time>2015-04-22T17:46:02Z</time>
      </trkpt>
      <trkpt lat="44.70466" lon="3.60632">
        <ele>1310.9606162036</ele>
        <time>2015-04-22T17:46:07Z</time>
      </trkpt>
      <trkpt lat="44.70463" lon="3.60632">
        <ele>1310.9606162036</ele>
        <time>2015-04-22T17:46:12Z</time>
      </trkpt>
      <trkpt lat="44.70457" lon="3.60629">
        <ele>1310.9606162036</ele>
        <time>2015-04-22T17:46:17Z</time>
      </trkpt>
      <trkpt lat="44.70456" lon="3.60626">
        <ele>1309.808508183</ele>
        <time>2015-04-22T17:46:22Z</time>
      </trkpt>
      <trkpt lat="44.70462" lon="3.60622">
        <ele>1309.808508183</ele>
        <time>2015-04-22T17:46:27Z</time>
      </trkpt>
      <trkpt lat="44.7046" lon="3.60623">
        <ele>1309.808508183</ele>
        <time>2015-04-22T17:46:32Z</time>
      </trkpt>
      <trkpt lat="44.7046" lon="3.60623">
        <ele>1309.808508183</ele>
        <time>2015-04-22T17:46:37Z</time>
      </trkpt>
      <trkpt lat="44.70461" lon="3.60622">
        <ele>1309.808508183</ele>
        <time>2015-04-22T17:46:42Z</time>
      </trkpt>
      <trkpt lat="44.7046" lon="3.60623">
        <ele>1308.705246994</ele>
        <time>2015-04-22T17:46:47Z</time>
      </trkpt>
      <trkpt lat="44.70461" lon="3.60622">
        <ele>1308.705246994</ele>
        <time>2015-04-22T17:46:52Z</time>
      </trkpt>
      <trkpt lat="44.70464" lon="3.60619">
        <ele>1308.705246994</ele>
        <time>2015-04-22T17:46:57Z</time>
      </trkpt>
      <trkpt lat="44.70471" lon="3.60618">
        <ele>1307.506604996</ele>
        <time>2015-04-22T17:47:02Z</time>
      </trkpt>
      <trkpt lat="44.70479" lon="3.60619">
        <ele>1307.506604996</ele>
        <time>2015-04-22T17:47:07Z</time>
      </trkpt>
      <trkpt lat="44.70484" lon="3.60624">
        <ele>1306.5980426336</ele>
        <time>2015-04-22T17:47:12Z</time>
      </trkpt>
      <trkpt lat="44.70489" lon="3.60633">
        <ele>1306.5980426336</ele>
        <time>2015-04-22T17:47:17Z</time>
      </trkpt>
      <trkpt lat="44.70492" lon="3.6064">
        <ele>1305.8747487354</ele>
        <time>2015-04-22T17:47:22Z</time>
      </trkpt>
      <trkpt lat="44.70494" lon="3.60646">
        <ele>1305.8747487354</ele>
        <time>2015-04-22T17:47:27Z</time>
      </trkpt>
      <trkpt lat="44.70492" lon="3.60652">
        <ele>1305.4552623368</ele>
        <time>2015-04-22T17:47:32Z</time>
      </trkpt>
      <trkpt lat="44.70491" lon="3.60659">
        <ele>1305.4552623368</ele>
        <time>2015-04-22T17:47:37Z</time>
      </trkpt>
      <trkpt lat="44.70486" lon="3.60662">
        <ele>1304.7424132119</ele>
        <time>2015-04-22T17:47:42Z</time>
      </trkpt>
      <trkpt lat="44.70482" lon="3.60664">
        <ele>1304.7424132119</ele>
        <time>2015-04-22T17:47:47Z</time>
      </trkpt>
      <trkpt lat="44.70479" lon="3.60667">
        <ele>1304.7424132119</ele>
        <time>2015-04-22T17:47:52Z</time>
      </trkpt>
      <trkpt lat="44.70475" lon="3.60668">
        <ele>1303.7889772398</ele>
        <time>2015-04-22T17:47:57Z</time>
      </trkpt>
      <trkpt lat="44.70475" lon="3.60669">
        <ele>1303.7889772398</ele>
        <time>2015-04-22T17:48:02Z</time>
      </trkpt>
    </trkseg>
  </trk>
</gpx>